<?xml version="1.0" encoding="UTF-8" standalone="no" ?>
<gpx xmlns="http://www.topografix.com/GPX/1/1" xmlns:xsi="http://www.w3.org/2001/XMLSchema-instance" xsi:schemaLocation="http://www.topografix.com/GPX/1/1 http://www.topografix.com/GPX/1/1/gpx.xsd" version="1.1" creator="VisuGPX - https://www.visugpx.com">
  <metadata>
    <name>le Gers à Pieds à partir de Monfort</name>
    <desc><![CDATA[magnifique balade, parfois un peu difficile à trouver... et surtout très longue. Il s\'agit d\'un sentier à thème avec des panneaux explicatifs sur l\'environnement. Il était prévu pour 23 km mais nous avons fait deux ou trois erreurs. ]]></desc>
  </metadata>
  <trk>
    <name><![CDATA[SpeedView]]></name>
    <trkseg>
      <trkpt lat="43.7964" lon="0.82295">
        <ele>184</ele>
        <time>2014-06-22T09:16:40Z</time>
      </trkpt>
      <trkpt lat="43.79645" lon="0.82317">
        <ele>185</ele>
        <time>2014-06-22T09:16:42Z</time>
      </trkpt>
      <trkpt lat="43.79643" lon="0.82311">
        <ele>185</ele>
        <time>2014-06-22T09:16:43Z</time>
      </trkpt>
      <trkpt lat="43.79643" lon="0.82302">
        <ele>213</ele>
        <time>2014-06-22T09:16:46Z</time>
      </trkpt>
      <trkpt lat="43.79642" lon="0.82311">
        <ele>194</ele>
        <time>2014-06-22T09:17:33Z</time>
      </trkpt>
      <trkpt lat="43.79643" lon="0.82318">
        <ele>201</ele>
        <time>2014-06-22T09:18:08Z</time>
      </trkpt>
      <trkpt lat="43.79643" lon="0.82321">
        <ele>204</ele>
        <time>2014-06-22T09:20:09Z</time>
      </trkpt>
      <trkpt lat="43.79638" lon="0.82325">
        <ele>206</ele>
        <time>2014-06-22T09:21:15Z</time>
      </trkpt>
      <trkpt lat="43.79635" lon="0.8233">
        <ele>207</ele>
        <time>2014-06-22T09:21:20Z</time>
      </trkpt>
      <trkpt lat="43.79632" lon="0.82336">
        <ele>208</ele>
        <time>2014-06-22T09:21:25Z</time>
      </trkpt>
      <trkpt lat="43.7963" lon="0.82343">
        <ele>208</ele>
        <time>2014-06-22T09:21:30Z</time>
      </trkpt>
      <trkpt lat="43.79627" lon="0.82349">
        <ele>209</ele>
        <time>2014-06-22T09:21:36Z</time>
      </trkpt>
      <trkpt lat="43.79625" lon="0.82356">
        <ele>208</ele>
        <time>2014-06-22T09:21:43Z</time>
      </trkpt>
      <trkpt lat="43.79623" lon="0.82362">
        <ele>208</ele>
        <time>2014-06-22T09:21:49Z</time>
      </trkpt>
      <trkpt lat="43.7962" lon="0.82369">
        <ele>208</ele>
        <time>2014-06-22T09:21:54Z</time>
      </trkpt>
      <trkpt lat="43.79617" lon="0.82374">
        <ele>208</ele>
        <time>2014-06-22T09:21:58Z</time>
      </trkpt>
      <trkpt lat="43.79613" lon="0.82378">
        <ele>206</ele>
        <time>2014-06-22T09:22:03Z</time>
      </trkpt>
      <trkpt lat="43.79609" lon="0.82384">
        <ele>204</ele>
        <time>2014-06-22T09:22:08Z</time>
      </trkpt>
      <trkpt lat="43.79608" lon="0.8239">
        <ele>205</ele>
        <time>2014-06-22T09:22:13Z</time>
      </trkpt>
      <trkpt lat="43.79612" lon="0.82391">
        <ele>202</ele>
        <time>2014-06-22T09:22:27Z</time>
      </trkpt>
      <trkpt lat="43.79616" lon="0.82387">
        <ele>202</ele>
        <time>2014-06-22T09:22:35Z</time>
      </trkpt>
      <trkpt lat="43.79621" lon="0.8239">
        <ele>200</ele>
        <time>2014-06-22T09:22:42Z</time>
      </trkpt>
      <trkpt lat="43.79622" lon="0.82397">
        <ele>199</ele>
        <time>2014-06-22T09:22:48Z</time>
      </trkpt>
      <trkpt lat="43.79626" lon="0.824">
        <ele>198</ele>
        <time>2014-06-22T09:22:53Z</time>
      </trkpt>
      <trkpt lat="43.7963" lon="0.82404">
        <ele>197</ele>
        <time>2014-06-22T09:23:02Z</time>
      </trkpt>
      <trkpt lat="43.79634" lon="0.82407">
        <ele>197</ele>
        <time>2014-06-22T09:23:08Z</time>
      </trkpt>
      <trkpt lat="43.79638" lon="0.8241">
        <ele>195</ele>
        <time>2014-06-22T09:23:13Z</time>
      </trkpt>
      <trkpt lat="43.79643" lon="0.82414">
        <ele>195</ele>
        <time>2014-06-22T09:23:18Z</time>
      </trkpt>
      <trkpt lat="43.79647" lon="0.82417">
        <ele>193</ele>
        <time>2014-06-22T09:23:23Z</time>
      </trkpt>
      <trkpt lat="43.79652" lon="0.8242">
        <ele>193</ele>
        <time>2014-06-22T09:23:28Z</time>
      </trkpt>
      <trkpt lat="43.79657" lon="0.82423">
        <ele>193</ele>
        <time>2014-06-22T09:23:33Z</time>
      </trkpt>
      <trkpt lat="43.79661" lon="0.82426">
        <ele>192</ele>
        <time>2014-06-22T09:23:37Z</time>
      </trkpt>
      <trkpt lat="43.79666" lon="0.82428">
        <ele>191</ele>
        <time>2014-06-22T09:23:41Z</time>
      </trkpt>
      <trkpt lat="43.7967" lon="0.82431">
        <ele>190</ele>
        <time>2014-06-22T09:23:45Z</time>
      </trkpt>
      <trkpt lat="43.79676" lon="0.82433">
        <ele>189</ele>
        <time>2014-06-22T09:23:50Z</time>
      </trkpt>
      <trkpt lat="43.79681" lon="0.82434">
        <ele>189</ele>
        <time>2014-06-22T09:23:55Z</time>
      </trkpt>
      <trkpt lat="43.79686" lon="0.82436">
        <ele>190</ele>
        <time>2014-06-22T09:24:00Z</time>
      </trkpt>
      <trkpt lat="43.79691" lon="0.82437">
        <ele>190</ele>
        <time>2014-06-22T09:24:04Z</time>
      </trkpt>
      <trkpt lat="43.79695" lon="0.82439">
        <ele>189</ele>
        <time>2014-06-22T09:24:08Z</time>
      </trkpt>
      <trkpt lat="43.797" lon="0.82439">
        <ele>189</ele>
        <time>2014-06-22T09:24:12Z</time>
      </trkpt>
      <trkpt lat="43.79705" lon="0.82436">
        <ele>189</ele>
        <time>2014-06-22T09:24:17Z</time>
      </trkpt>
      <trkpt lat="43.7971" lon="0.82432">
        <ele>188</ele>
        <time>2014-06-22T09:24:22Z</time>
      </trkpt>
      <trkpt lat="43.7971" lon="0.82425">
        <ele>189</ele>
        <time>2014-06-22T09:24:27Z</time>
      </trkpt>
      <trkpt lat="43.79711" lon="0.82418">
        <ele>189</ele>
        <time>2014-06-22T09:24:32Z</time>
      </trkpt>
      <trkpt lat="43.79712" lon="0.82412">
        <ele>192</ele>
        <time>2014-06-22T09:24:44Z</time>
      </trkpt>
      <trkpt lat="43.79713" lon="0.82406">
        <ele>194</ele>
        <time>2014-06-22T09:24:49Z</time>
      </trkpt>
      <trkpt lat="43.79714" lon="0.82399">
        <ele>193</ele>
        <time>2014-06-22T09:24:55Z</time>
      </trkpt>
      <trkpt lat="43.79715" lon="0.82393">
        <ele>193</ele>
        <time>2014-06-22T09:25:00Z</time>
      </trkpt>
      <trkpt lat="43.79716" lon="0.82386">
        <ele>191</ele>
        <time>2014-06-22T09:25:09Z</time>
      </trkpt>
      <trkpt lat="43.79717" lon="0.82379">
        <ele>191</ele>
        <time>2014-06-22T09:25:15Z</time>
      </trkpt>
      <trkpt lat="43.79717" lon="0.82373">
        <ele>191</ele>
        <time>2014-06-22T09:25:21Z</time>
      </trkpt>
      <trkpt lat="43.79717" lon="0.82365">
        <ele>190</ele>
        <time>2014-06-22T09:25:29Z</time>
      </trkpt>
      <trkpt lat="43.79718" lon="0.82359">
        <ele>192</ele>
        <time>2014-06-22T09:25:34Z</time>
      </trkpt>
      <trkpt lat="43.7972" lon="0.82353">
        <ele>190</ele>
        <time>2014-06-22T09:25:39Z</time>
      </trkpt>
      <trkpt lat="43.79722" lon="0.82348">
        <ele>189</ele>
        <time>2014-06-22T09:25:43Z</time>
      </trkpt>
      <trkpt lat="43.79724" lon="0.82341">
        <ele>189</ele>
        <time>2014-06-22T09:25:47Z</time>
      </trkpt>
      <trkpt lat="43.79725" lon="0.82334">
        <ele>189</ele>
        <time>2014-06-22T09:25:51Z</time>
      </trkpt>
      <trkpt lat="43.79726" lon="0.82327">
        <ele>187</ele>
        <time>2014-06-22T09:25:55Z</time>
      </trkpt>
      <trkpt lat="43.79727" lon="0.82321">
        <ele>187</ele>
        <time>2014-06-22T09:25:59Z</time>
      </trkpt>
      <trkpt lat="43.79728" lon="0.82314">
        <ele>185</ele>
        <time>2014-06-22T09:26:04Z</time>
      </trkpt>
      <trkpt lat="43.79729" lon="0.82308">
        <ele>184</ele>
        <time>2014-06-22T09:26:08Z</time>
      </trkpt>
      <trkpt lat="43.7973" lon="0.82301">
        <ele>183</ele>
        <time>2014-06-22T09:26:12Z</time>
      </trkpt>
      <trkpt lat="43.79731" lon="0.82295">
        <ele>184</ele>
        <time>2014-06-22T09:26:16Z</time>
      </trkpt>
      <trkpt lat="43.79732" lon="0.82289">
        <ele>183</ele>
        <time>2014-06-22T09:26:20Z</time>
      </trkpt>
      <trkpt lat="43.79733" lon="0.82283">
        <ele>182</ele>
        <time>2014-06-22T09:26:24Z</time>
      </trkpt>
      <trkpt lat="43.79735" lon="0.82276">
        <ele>182</ele>
        <time>2014-06-22T09:26:29Z</time>
      </trkpt>
      <trkpt lat="43.79735" lon="0.82268">
        <ele>181</ele>
        <time>2014-06-22T09:26:34Z</time>
      </trkpt>
      <trkpt lat="43.79736" lon="0.82262">
        <ele>180</ele>
        <time>2014-06-22T09:26:38Z</time>
      </trkpt>
      <trkpt lat="43.79737" lon="0.82255">
        <ele>179</ele>
        <time>2014-06-22T09:26:43Z</time>
      </trkpt>
      <trkpt lat="43.79738" lon="0.82248">
        <ele>180</ele>
        <time>2014-06-22T09:26:48Z</time>
      </trkpt>
      <trkpt lat="43.79739" lon="0.82241">
        <ele>178</ele>
        <time>2014-06-22T09:26:52Z</time>
      </trkpt>
      <trkpt lat="43.7974" lon="0.82235">
        <ele>179</ele>
        <time>2014-06-22T09:26:57Z</time>
      </trkpt>
      <trkpt lat="43.7974" lon="0.82229">
        <ele>179</ele>
        <time>2014-06-22T09:27:03Z</time>
      </trkpt>
      <trkpt lat="43.7974" lon="0.82223">
        <ele>178</ele>
        <time>2014-06-22T09:27:09Z</time>
      </trkpt>
      <trkpt lat="43.7974" lon="0.82216">
        <ele>179</ele>
        <time>2014-06-22T09:27:16Z</time>
      </trkpt>
      <trkpt lat="43.79742" lon="0.82209">
        <ele>179</ele>
        <time>2014-06-22T09:27:21Z</time>
      </trkpt>
      <trkpt lat="43.79744" lon="0.82203">
        <ele>176</ele>
        <time>2014-06-22T09:27:25Z</time>
      </trkpt>
      <trkpt lat="43.79747" lon="0.82196">
        <ele>176</ele>
        <time>2014-06-22T09:27:29Z</time>
      </trkpt>
      <trkpt lat="43.79749" lon="0.82189">
        <ele>176</ele>
        <time>2014-06-22T09:27:33Z</time>
      </trkpt>
      <trkpt lat="43.79751" lon="0.82182">
        <ele>176</ele>
        <time>2014-06-22T09:27:37Z</time>
      </trkpt>
      <trkpt lat="43.79753" lon="0.82175">
        <ele>176</ele>
        <time>2014-06-22T09:27:41Z</time>
      </trkpt>
      <trkpt lat="43.79756" lon="0.82168">
        <ele>176</ele>
        <time>2014-06-22T09:27:45Z</time>
      </trkpt>
      <trkpt lat="43.79758" lon="0.82162">
        <ele>177</ele>
        <time>2014-06-22T09:27:49Z</time>
      </trkpt>
      <trkpt lat="43.79759" lon="0.82156">
        <ele>179</ele>
        <time>2014-06-22T09:27:53Z</time>
      </trkpt>
      <trkpt lat="43.79759" lon="0.82148">
        <ele>178</ele>
        <time>2014-06-22T09:27:58Z</time>
      </trkpt>
      <trkpt lat="43.7976" lon="0.82142">
        <ele>178</ele>
        <time>2014-06-22T09:28:02Z</time>
      </trkpt>
      <trkpt lat="43.79762" lon="0.82135">
        <ele>177</ele>
        <time>2014-06-22T09:28:06Z</time>
      </trkpt>
      <trkpt lat="43.79763" lon="0.82129">
        <ele>176</ele>
        <time>2014-06-22T09:28:10Z</time>
      </trkpt>
      <trkpt lat="43.79765" lon="0.82123">
        <ele>176</ele>
        <time>2014-06-22T09:28:14Z</time>
      </trkpt>
      <trkpt lat="43.79767" lon="0.82116">
        <ele>177</ele>
        <time>2014-06-22T09:28:19Z</time>
      </trkpt>
      <trkpt lat="43.79769" lon="0.82109">
        <ele>177</ele>
        <time>2014-06-22T09:28:24Z</time>
      </trkpt>
      <trkpt lat="43.7977" lon="0.82102">
        <ele>177</ele>
        <time>2014-06-22T09:28:29Z</time>
      </trkpt>
      <trkpt lat="43.79772" lon="0.82096">
        <ele>177</ele>
        <time>2014-06-22T09:28:33Z</time>
      </trkpt>
      <trkpt lat="43.79774" lon="0.8209">
        <ele>177</ele>
        <time>2014-06-22T09:28:37Z</time>
      </trkpt>
      <trkpt lat="43.79775" lon="0.82084">
        <ele>177</ele>
        <time>2014-06-22T09:28:41Z</time>
      </trkpt>
      <trkpt lat="43.79777" lon="0.82078">
        <ele>177</ele>
        <time>2014-06-22T09:28:45Z</time>
      </trkpt>
      <trkpt lat="43.79778" lon="0.82071">
        <ele>177</ele>
        <time>2014-06-22T09:28:49Z</time>
      </trkpt>
      <trkpt lat="43.7978" lon="0.82065">
        <ele>177</ele>
        <time>2014-06-22T09:28:53Z</time>
      </trkpt>
      <trkpt lat="43.79782" lon="0.82059">
        <ele>177</ele>
        <time>2014-06-22T09:28:57Z</time>
      </trkpt>
      <trkpt lat="43.79784" lon="0.82053">
        <ele>176</ele>
        <time>2014-06-22T09:29:01Z</time>
      </trkpt>
      <trkpt lat="43.79786" lon="0.82047">
        <ele>175</ele>
        <time>2014-06-22T09:29:05Z</time>
      </trkpt>
      <trkpt lat="43.79788" lon="0.82041">
        <ele>176</ele>
        <time>2014-06-22T09:29:09Z</time>
      </trkpt>
      <trkpt lat="43.7979" lon="0.82034">
        <ele>176</ele>
        <time>2014-06-22T09:29:14Z</time>
      </trkpt>
      <trkpt lat="43.79791" lon="0.82026">
        <ele>174</ele>
        <time>2014-06-22T09:29:19Z</time>
      </trkpt>
      <trkpt lat="43.79791" lon="0.82019">
        <ele>174</ele>
        <time>2014-06-22T09:29:24Z</time>
      </trkpt>
      <trkpt lat="43.79791" lon="0.82012">
        <ele>173</ele>
        <time>2014-06-22T09:29:29Z</time>
      </trkpt>
      <trkpt lat="43.79791" lon="0.82006">
        <ele>172</ele>
        <time>2014-06-22T09:29:34Z</time>
      </trkpt>
      <trkpt lat="43.79793" lon="0.81999">
        <ele>172</ele>
        <time>2014-06-22T09:29:39Z</time>
      </trkpt>
      <trkpt lat="43.79797" lon="0.81996">
        <ele>172</ele>
        <time>2014-06-22T09:29:44Z</time>
      </trkpt>
      <trkpt lat="43.79802" lon="0.81993">
        <ele>172</ele>
        <time>2014-06-22T09:29:49Z</time>
      </trkpt>
      <trkpt lat="43.79806" lon="0.8199">
        <ele>173</ele>
        <time>2014-06-22T09:29:53Z</time>
      </trkpt>
      <trkpt lat="43.7981" lon="0.81985">
        <ele>173</ele>
        <time>2014-06-22T09:29:58Z</time>
      </trkpt>
      <trkpt lat="43.79814" lon="0.8198">
        <ele>177</ele>
        <time>2014-06-22T09:30:03Z</time>
      </trkpt>
      <trkpt lat="43.79818" lon="0.81975">
        <ele>177</ele>
        <time>2014-06-22T09:30:08Z</time>
      </trkpt>
      <trkpt lat="43.79822" lon="0.81972">
        <ele>177</ele>
        <time>2014-06-22T09:30:12Z</time>
      </trkpt>
      <trkpt lat="43.79825" lon="0.81968">
        <ele>178</ele>
        <time>2014-06-22T09:30:16Z</time>
      </trkpt>
      <trkpt lat="43.79829" lon="0.81965">
        <ele>178</ele>
        <time>2014-06-22T09:30:20Z</time>
      </trkpt>
      <trkpt lat="43.79834" lon="0.81962">
        <ele>176</ele>
        <time>2014-06-22T09:30:24Z</time>
      </trkpt>
      <trkpt lat="43.79839" lon="0.8196">
        <ele>176</ele>
        <time>2014-06-22T09:30:28Z</time>
      </trkpt>
      <trkpt lat="43.79844" lon="0.81957">
        <ele>176</ele>
        <time>2014-06-22T09:30:32Z</time>
      </trkpt>
      <trkpt lat="43.79848" lon="0.81954">
        <ele>176</ele>
        <time>2014-06-22T09:30:36Z</time>
      </trkpt>
      <trkpt lat="43.79853" lon="0.8195">
        <ele>176</ele>
        <time>2014-06-22T09:30:40Z</time>
      </trkpt>
      <trkpt lat="43.79857" lon="0.81947">
        <ele>176</ele>
        <time>2014-06-22T09:30:44Z</time>
      </trkpt>
      <trkpt lat="43.79861" lon="0.81944">
        <ele>177</ele>
        <time>2014-06-22T09:30:48Z</time>
      </trkpt>
      <trkpt lat="43.79865" lon="0.8194">
        <ele>177</ele>
        <time>2014-06-22T09:30:53Z</time>
      </trkpt>
      <trkpt lat="43.7987" lon="0.81935">
        <ele>179</ele>
        <time>2014-06-22T09:30:59Z</time>
      </trkpt>
      <trkpt lat="43.79874" lon="0.81932">
        <ele>180</ele>
        <time>2014-06-22T09:31:03Z</time>
      </trkpt>
      <trkpt lat="43.79879" lon="0.81931">
        <ele>180</ele>
        <time>2014-06-22T09:31:07Z</time>
      </trkpt>
      <trkpt lat="43.79884" lon="0.81928">
        <ele>180</ele>
        <time>2014-06-22T09:31:11Z</time>
      </trkpt>
      <trkpt lat="43.79888" lon="0.81925">
        <ele>181</ele>
        <time>2014-06-22T09:31:15Z</time>
      </trkpt>
      <trkpt lat="43.79892" lon="0.81921">
        <ele>180</ele>
        <time>2014-06-22T09:31:19Z</time>
      </trkpt>
      <trkpt lat="43.79897" lon="0.8192">
        <ele>179</ele>
        <time>2014-06-22T09:31:23Z</time>
      </trkpt>
      <trkpt lat="43.79902" lon="0.8192">
        <ele>178</ele>
        <time>2014-06-22T09:31:28Z</time>
      </trkpt>
      <trkpt lat="43.79906" lon="0.81923">
        <ele>178</ele>
        <time>2014-06-22T09:31:32Z</time>
      </trkpt>
      <trkpt lat="43.79911" lon="0.81922">
        <ele>182</ele>
        <time>2014-06-22T09:31:37Z</time>
      </trkpt>
      <trkpt lat="43.79916" lon="0.81924">
        <ele>184</ele>
        <time>2014-06-22T09:31:42Z</time>
      </trkpt>
      <trkpt lat="43.79921" lon="0.81926">
        <ele>183</ele>
        <time>2014-06-22T09:31:47Z</time>
      </trkpt>
      <trkpt lat="43.79926" lon="0.81927">
        <ele>185</ele>
        <time>2014-06-22T09:31:52Z</time>
      </trkpt>
      <trkpt lat="43.79931" lon="0.8193">
        <ele>183</ele>
        <time>2014-06-22T09:31:57Z</time>
      </trkpt>
      <trkpt lat="43.79936" lon="0.81933">
        <ele>185</ele>
        <time>2014-06-22T09:32:01Z</time>
      </trkpt>
      <trkpt lat="43.7994" lon="0.81935">
        <ele>186</ele>
        <time>2014-06-22T09:32:05Z</time>
      </trkpt>
      <trkpt lat="43.79945" lon="0.81938">
        <ele>186</ele>
        <time>2014-06-22T09:32:09Z</time>
      </trkpt>
      <trkpt lat="43.7995" lon="0.81939">
        <ele>186</ele>
        <time>2014-06-22T09:32:13Z</time>
      </trkpt>
      <trkpt lat="43.79956" lon="0.81941">
        <ele>186</ele>
        <time>2014-06-22T09:32:17Z</time>
      </trkpt>
      <trkpt lat="43.79961" lon="0.81944">
        <ele>185</ele>
        <time>2014-06-22T09:32:21Z</time>
      </trkpt>
      <trkpt lat="43.79966" lon="0.81948">
        <ele>182</ele>
        <time>2014-06-22T09:32:25Z</time>
      </trkpt>
      <trkpt lat="43.7997" lon="0.8195">
        <ele>180</ele>
        <time>2014-06-22T09:32:28Z</time>
      </trkpt>
      <trkpt lat="43.79975" lon="0.81953">
        <ele>179</ele>
        <time>2014-06-22T09:32:31Z</time>
      </trkpt>
      <trkpt lat="43.7998" lon="0.81955">
        <ele>178</ele>
        <time>2014-06-22T09:32:35Z</time>
      </trkpt>
      <trkpt lat="43.79985" lon="0.81958">
        <ele>177</ele>
        <time>2014-06-22T09:32:39Z</time>
      </trkpt>
      <trkpt lat="43.7999" lon="0.81961">
        <ele>175</ele>
        <time>2014-06-22T09:32:43Z</time>
      </trkpt>
      <trkpt lat="43.79995" lon="0.81964">
        <ele>175</ele>
        <time>2014-06-22T09:32:47Z</time>
      </trkpt>
      <trkpt lat="43.8" lon="0.81966">
        <ele>175</ele>
        <time>2014-06-22T09:32:51Z</time>
      </trkpt>
      <trkpt lat="43.80005" lon="0.81969">
        <ele>174</ele>
        <time>2014-06-22T09:32:55Z</time>
      </trkpt>
      <trkpt lat="43.8001" lon="0.81971">
        <ele>175</ele>
        <time>2014-06-22T09:32:59Z</time>
      </trkpt>
      <trkpt lat="43.80015" lon="0.81973">
        <ele>176</ele>
        <time>2014-06-22T09:33:04Z</time>
      </trkpt>
      <trkpt lat="43.80019" lon="0.81975">
        <ele>176</ele>
        <time>2014-06-22T09:33:08Z</time>
      </trkpt>
      <trkpt lat="43.80024" lon="0.81977">
        <ele>176</ele>
        <time>2014-06-22T09:33:12Z</time>
      </trkpt>
      <trkpt lat="43.80028" lon="0.8198">
        <ele>176</ele>
        <time>2014-06-22T09:33:16Z</time>
      </trkpt>
      <trkpt lat="43.80033" lon="0.81982">
        <ele>175</ele>
        <time>2014-06-22T09:33:20Z</time>
      </trkpt>
      <trkpt lat="43.80038" lon="0.81985">
        <ele>175</ele>
        <time>2014-06-22T09:33:24Z</time>
      </trkpt>
      <trkpt lat="43.80043" lon="0.81988">
        <ele>175</ele>
        <time>2014-06-22T09:33:28Z</time>
      </trkpt>
      <trkpt lat="43.80047" lon="0.81989">
        <ele>176</ele>
        <time>2014-06-22T09:33:32Z</time>
      </trkpt>
      <trkpt lat="43.80052" lon="0.81991">
        <ele>175</ele>
        <time>2014-06-22T09:33:36Z</time>
      </trkpt>
      <trkpt lat="43.80057" lon="0.81993">
        <ele>177</ele>
        <time>2014-06-22T09:33:41Z</time>
      </trkpt>
      <trkpt lat="43.80061" lon="0.81996">
        <ele>177</ele>
        <time>2014-06-22T09:33:46Z</time>
      </trkpt>
      <trkpt lat="43.80066" lon="0.81995">
        <ele>176</ele>
        <time>2014-06-22T09:33:51Z</time>
      </trkpt>
      <trkpt lat="43.80071" lon="0.81996">
        <ele>174</ele>
        <time>2014-06-22T09:33:56Z</time>
      </trkpt>
      <trkpt lat="43.80076" lon="0.81996">
        <ele>175</ele>
        <time>2014-06-22T09:34:00Z</time>
      </trkpt>
      <trkpt lat="43.8008" lon="0.81997">
        <ele>176</ele>
        <time>2014-06-22T09:34:19Z</time>
      </trkpt>
      <trkpt lat="43.80085" lon="0.81999">
        <ele>174</ele>
        <time>2014-06-22T09:34:23Z</time>
      </trkpt>
      <trkpt lat="43.8009" lon="0.81999">
        <ele>175</ele>
        <time>2014-06-22T09:34:27Z</time>
      </trkpt>
      <trkpt lat="43.80094" lon="0.82">
        <ele>178</ele>
        <time>2014-06-22T09:34:31Z</time>
      </trkpt>
      <trkpt lat="43.801" lon="0.82002">
        <ele>176</ele>
        <time>2014-06-22T09:34:35Z</time>
      </trkpt>
      <trkpt lat="43.80105" lon="0.82004">
        <ele>175</ele>
        <time>2014-06-22T09:34:39Z</time>
      </trkpt>
      <trkpt lat="43.80111" lon="0.82005">
        <ele>176</ele>
        <time>2014-06-22T09:34:43Z</time>
      </trkpt>
      <trkpt lat="43.80115" lon="0.82007">
        <ele>175</ele>
        <time>2014-06-22T09:34:47Z</time>
      </trkpt>
      <trkpt lat="43.8012" lon="0.8201">
        <ele>175</ele>
        <time>2014-06-22T09:34:51Z</time>
      </trkpt>
      <trkpt lat="43.80125" lon="0.82013">
        <ele>175</ele>
        <time>2014-06-22T09:34:55Z</time>
      </trkpt>
      <trkpt lat="43.8013" lon="0.82016">
        <ele>175</ele>
        <time>2014-06-22T09:34:59Z</time>
      </trkpt>
      <trkpt lat="43.80135" lon="0.82021">
        <ele>173</ele>
        <time>2014-06-22T09:35:53Z</time>
      </trkpt>
      <trkpt lat="43.80138" lon="0.82025">
        <ele>172</ele>
        <time>2014-06-22T09:36:06Z</time>
      </trkpt>
      <trkpt lat="43.80142" lon="0.82027">
        <ele>172</ele>
        <time>2014-06-22T09:36:11Z</time>
      </trkpt>
      <trkpt lat="43.80147" lon="0.82029">
        <ele>171</ele>
        <time>2014-06-22T09:36:17Z</time>
      </trkpt>
      <trkpt lat="43.80151" lon="0.82031">
        <ele>172</ele>
        <time>2014-06-22T09:36:40Z</time>
      </trkpt>
      <trkpt lat="43.80155" lon="0.82035">
        <ele>173</ele>
        <time>2014-06-22T09:36:45Z</time>
      </trkpt>
      <trkpt lat="43.80159" lon="0.82039">
        <ele>174</ele>
        <time>2014-06-22T09:36:50Z</time>
      </trkpt>
      <trkpt lat="43.80163" lon="0.82042">
        <ele>174</ele>
        <time>2014-06-22T09:36:54Z</time>
      </trkpt>
      <trkpt lat="43.80167" lon="0.82046">
        <ele>175</ele>
        <time>2014-06-22T09:36:58Z</time>
      </trkpt>
      <trkpt lat="43.80172" lon="0.82049">
        <ele>174</ele>
        <time>2014-06-22T09:37:02Z</time>
      </trkpt>
      <trkpt lat="43.80176" lon="0.82053">
        <ele>174</ele>
        <time>2014-06-22T09:37:06Z</time>
      </trkpt>
      <trkpt lat="43.80181" lon="0.82057">
        <ele>173</ele>
        <time>2014-06-22T09:37:10Z</time>
      </trkpt>
      <trkpt lat="43.80185" lon="0.82061">
        <ele>174</ele>
        <time>2014-06-22T09:37:14Z</time>
      </trkpt>
      <trkpt lat="43.80188" lon="0.82065">
        <ele>174</ele>
        <time>2014-06-22T09:37:18Z</time>
      </trkpt>
      <trkpt lat="43.80193" lon="0.82069">
        <ele>173</ele>
        <time>2014-06-22T09:37:22Z</time>
      </trkpt>
      <trkpt lat="43.80196" lon="0.82074">
        <ele>174</ele>
        <time>2014-06-22T09:37:26Z</time>
      </trkpt>
      <trkpt lat="43.802" lon="0.82078">
        <ele>174</ele>
        <time>2014-06-22T09:37:30Z</time>
      </trkpt>
      <trkpt lat="43.80203" lon="0.82083">
        <ele>174</ele>
        <time>2014-06-22T09:37:34Z</time>
      </trkpt>
      <trkpt lat="43.80206" lon="0.82089">
        <ele>174</ele>
        <time>2014-06-22T09:37:38Z</time>
      </trkpt>
      <trkpt lat="43.80209" lon="0.82094">
        <ele>174</ele>
        <time>2014-06-22T09:37:42Z</time>
      </trkpt>
      <trkpt lat="43.80212" lon="0.821">
        <ele>174</ele>
        <time>2014-06-22T09:37:46Z</time>
      </trkpt>
      <trkpt lat="43.80215" lon="0.82105">
        <ele>175</ele>
        <time>2014-06-22T09:37:50Z</time>
      </trkpt>
      <trkpt lat="43.80217" lon="0.82112">
        <ele>175</ele>
        <time>2014-06-22T09:37:54Z</time>
      </trkpt>
      <trkpt lat="43.8022" lon="0.82117">
        <ele>175</ele>
        <time>2014-06-22T09:37:58Z</time>
      </trkpt>
      <trkpt lat="43.80222" lon="0.82123">
        <ele>175</ele>
        <time>2014-06-22T09:38:02Z</time>
      </trkpt>
      <trkpt lat="43.80225" lon="0.82129">
        <ele>175</ele>
        <time>2014-06-22T09:38:06Z</time>
      </trkpt>
      <trkpt lat="43.80227" lon="0.82135">
        <ele>176</ele>
        <time>2014-06-22T09:38:10Z</time>
      </trkpt>
      <trkpt lat="43.8023" lon="0.82141">
        <ele>176</ele>
        <time>2014-06-22T09:38:14Z</time>
      </trkpt>
      <trkpt lat="43.80233" lon="0.82147">
        <ele>176</ele>
        <time>2014-06-22T09:38:18Z</time>
      </trkpt>
      <trkpt lat="43.80236" lon="0.82153">
        <ele>176</ele>
        <time>2014-06-22T09:38:22Z</time>
      </trkpt>
      <trkpt lat="43.80238" lon="0.82159">
        <ele>176</ele>
        <time>2014-06-22T09:38:26Z</time>
      </trkpt>
      <trkpt lat="43.80241" lon="0.82165">
        <ele>177</ele>
        <time>2014-06-22T09:38:30Z</time>
      </trkpt>
      <trkpt lat="43.80243" lon="0.82171">
        <ele>177</ele>
        <time>2014-06-22T09:38:34Z</time>
      </trkpt>
      <trkpt lat="43.80246" lon="0.82176">
        <ele>177</ele>
        <time>2014-06-22T09:38:38Z</time>
      </trkpt>
      <trkpt lat="43.80249" lon="0.82182">
        <ele>176</ele>
        <time>2014-06-22T09:38:42Z</time>
      </trkpt>
      <trkpt lat="43.80251" lon="0.82188">
        <ele>177</ele>
        <time>2014-06-22T09:38:46Z</time>
      </trkpt>
      <trkpt lat="43.80254" lon="0.82193">
        <ele>176</ele>
        <time>2014-06-22T09:38:50Z</time>
      </trkpt>
      <trkpt lat="43.80257" lon="0.82199">
        <ele>176</ele>
        <time>2014-06-22T09:38:54Z</time>
      </trkpt>
      <trkpt lat="43.80259" lon="0.82204">
        <ele>176</ele>
        <time>2014-06-22T09:38:58Z</time>
      </trkpt>
      <trkpt lat="43.80262" lon="0.82209">
        <ele>176</ele>
        <time>2014-06-22T09:39:02Z</time>
      </trkpt>
      <trkpt lat="43.80266" lon="0.82215">
        <ele>174</ele>
        <time>2014-06-22T09:39:07Z</time>
      </trkpt>
      <trkpt lat="43.80269" lon="0.82221">
        <ele>175</ele>
        <time>2014-06-22T09:39:12Z</time>
      </trkpt>
      <trkpt lat="43.80273" lon="0.82227">
        <ele>177</ele>
        <time>2014-06-22T09:39:17Z</time>
      </trkpt>
      <trkpt lat="43.80276" lon="0.82231">
        <ele>177</ele>
        <time>2014-06-22T09:39:21Z</time>
      </trkpt>
      <trkpt lat="43.80278" lon="0.82236">
        <ele>176</ele>
        <time>2014-06-22T09:39:25Z</time>
      </trkpt>
      <trkpt lat="43.80281" lon="0.82242">
        <ele>178</ele>
        <time>2014-06-22T09:39:30Z</time>
      </trkpt>
      <trkpt lat="43.80285" lon="0.82248">
        <ele>177</ele>
        <time>2014-06-22T09:39:35Z</time>
      </trkpt>
      <trkpt lat="43.80288" lon="0.82254">
        <ele>179</ele>
        <time>2014-06-22T09:39:41Z</time>
      </trkpt>
      <trkpt lat="43.8029" lon="0.8226">
        <ele>180</ele>
        <time>2014-06-22T09:39:46Z</time>
      </trkpt>
      <trkpt lat="43.80293" lon="0.82266">
        <ele>178</ele>
        <time>2014-06-22T09:39:51Z</time>
      </trkpt>
      <trkpt lat="43.80296" lon="0.8227">
        <ele>177</ele>
        <time>2014-06-22T09:39:55Z</time>
      </trkpt>
      <trkpt lat="43.80299" lon="0.82276">
        <ele>177</ele>
        <time>2014-06-22T09:39:59Z</time>
      </trkpt>
      <trkpt lat="43.80302" lon="0.8228">
        <ele>179</ele>
        <time>2014-06-22T09:40:03Z</time>
      </trkpt>
      <trkpt lat="43.80306" lon="0.82286">
        <ele>180</ele>
        <time>2014-06-22T09:40:08Z</time>
      </trkpt>
      <trkpt lat="43.80309" lon="0.82291">
        <ele>181</ele>
        <time>2014-06-22T09:40:12Z</time>
      </trkpt>
      <trkpt lat="43.80312" lon="0.82296">
        <ele>180</ele>
        <time>2014-06-22T09:40:16Z</time>
      </trkpt>
      <trkpt lat="43.80316" lon="0.82302">
        <ele>180</ele>
        <time>2014-06-22T09:40:20Z</time>
      </trkpt>
      <trkpt lat="43.80319" lon="0.82308">
        <ele>179</ele>
        <time>2014-06-22T09:40:24Z</time>
      </trkpt>
      <trkpt lat="43.80323" lon="0.82313">
        <ele>180</ele>
        <time>2014-06-22T09:40:28Z</time>
      </trkpt>
      <trkpt lat="43.80326" lon="0.82318">
        <ele>179</ele>
        <time>2014-06-22T09:40:32Z</time>
      </trkpt>
      <trkpt lat="43.80329" lon="0.82325">
        <ele>177</ele>
        <time>2014-06-22T09:40:36Z</time>
      </trkpt>
      <trkpt lat="43.80332" lon="0.8233">
        <ele>176</ele>
        <time>2014-06-22T09:40:40Z</time>
      </trkpt>
      <trkpt lat="43.80335" lon="0.82336">
        <ele>175</ele>
        <time>2014-06-22T09:40:44Z</time>
      </trkpt>
      <trkpt lat="43.80338" lon="0.82341">
        <ele>176</ele>
        <time>2014-06-22T09:40:48Z</time>
      </trkpt>
      <trkpt lat="43.80342" lon="0.82346">
        <ele>177</ele>
        <time>2014-06-22T09:40:52Z</time>
      </trkpt>
      <trkpt lat="43.80345" lon="0.82353">
        <ele>176</ele>
        <time>2014-06-22T09:40:57Z</time>
      </trkpt>
      <trkpt lat="43.80348" lon="0.82359">
        <ele>175</ele>
        <time>2014-06-22T09:41:01Z</time>
      </trkpt>
      <trkpt lat="43.80351" lon="0.82365">
        <ele>175</ele>
        <time>2014-06-22T09:41:05Z</time>
      </trkpt>
      <trkpt lat="43.80354" lon="0.82371">
        <ele>175</ele>
        <time>2014-06-22T09:41:09Z</time>
      </trkpt>
      <trkpt lat="43.80357" lon="0.82376">
        <ele>176</ele>
        <time>2014-06-22T09:41:13Z</time>
      </trkpt>
      <trkpt lat="43.80359" lon="0.82381">
        <ele>177</ele>
        <time>2014-06-22T09:41:17Z</time>
      </trkpt>
      <trkpt lat="43.80363" lon="0.82387">
        <ele>178</ele>
        <time>2014-06-22T09:41:22Z</time>
      </trkpt>
      <trkpt lat="43.80365" lon="0.82392">
        <ele>178</ele>
        <time>2014-06-22T09:41:26Z</time>
      </trkpt>
      <trkpt lat="43.80368" lon="0.82397">
        <ele>178</ele>
        <time>2014-06-22T09:41:30Z</time>
      </trkpt>
      <trkpt lat="43.80371" lon="0.82403">
        <ele>178</ele>
        <time>2014-06-22T09:41:34Z</time>
      </trkpt>
      <trkpt lat="43.80375" lon="0.82407">
        <ele>177</ele>
        <time>2014-06-22T09:41:38Z</time>
      </trkpt>
      <trkpt lat="43.80378" lon="0.82413">
        <ele>176</ele>
        <time>2014-06-22T09:41:42Z</time>
      </trkpt>
      <trkpt lat="43.80381" lon="0.82419">
        <ele>175</ele>
        <time>2014-06-22T09:41:46Z</time>
      </trkpt>
      <trkpt lat="43.80384" lon="0.82425">
        <ele>173</ele>
        <time>2014-06-22T09:41:50Z</time>
      </trkpt>
      <trkpt lat="43.80388" lon="0.82429">
        <ele>173</ele>
        <time>2014-06-22T09:41:54Z</time>
      </trkpt>
      <trkpt lat="43.80392" lon="0.82433">
        <ele>172</ele>
        <time>2014-06-22T09:42:08Z</time>
      </trkpt>
      <trkpt lat="43.80396" lon="0.82437">
        <ele>172</ele>
        <time>2014-06-22T09:42:13Z</time>
      </trkpt>
      <trkpt lat="43.80401" lon="0.8244">
        <ele>172</ele>
        <time>2014-06-22T09:42:18Z</time>
      </trkpt>
      <trkpt lat="43.80405" lon="0.82444">
        <ele>172</ele>
        <time>2014-06-22T09:42:22Z</time>
      </trkpt>
      <trkpt lat="43.80409" lon="0.82446">
        <ele>172</ele>
        <time>2014-06-22T09:42:27Z</time>
      </trkpt>
      <trkpt lat="43.80414" lon="0.82448">
        <ele>173</ele>
        <time>2014-06-22T09:42:33Z</time>
      </trkpt>
      <trkpt lat="43.8042" lon="0.8245">
        <ele>172</ele>
        <time>2014-06-22T09:42:37Z</time>
      </trkpt>
      <trkpt lat="43.80425" lon="0.82452">
        <ele>172</ele>
        <time>2014-06-22T09:42:41Z</time>
      </trkpt>
      <trkpt lat="43.8043" lon="0.82453">
        <ele>172</ele>
        <time>2014-06-22T09:42:45Z</time>
      </trkpt>
      <trkpt lat="43.80435" lon="0.82454">
        <ele>171</ele>
        <time>2014-06-22T09:42:49Z</time>
      </trkpt>
      <trkpt lat="43.8044" lon="0.82455">
        <ele>171</ele>
        <time>2014-06-22T09:42:53Z</time>
      </trkpt>
      <trkpt lat="43.80445" lon="0.82456">
        <ele>170</ele>
        <time>2014-06-22T09:42:57Z</time>
      </trkpt>
      <trkpt lat="43.8045" lon="0.82457">
        <ele>170</ele>
        <time>2014-06-22T09:43:01Z</time>
      </trkpt>
      <trkpt lat="43.80454" lon="0.82458">
        <ele>170</ele>
        <time>2014-06-22T09:43:05Z</time>
      </trkpt>
      <trkpt lat="43.80459" lon="0.82459">
        <ele>169</ele>
        <time>2014-06-22T09:43:09Z</time>
      </trkpt>
      <trkpt lat="43.80464" lon="0.8246">
        <ele>170</ele>
        <time>2014-06-22T09:43:13Z</time>
      </trkpt>
      <trkpt lat="43.80469" lon="0.82461">
        <ele>171</ele>
        <time>2014-06-22T09:43:18Z</time>
      </trkpt>
      <trkpt lat="43.80475" lon="0.82459">
        <ele>170</ele>
        <time>2014-06-22T09:43:29Z</time>
      </trkpt>
      <trkpt lat="43.8048" lon="0.82458">
        <ele>172</ele>
        <time>2014-06-22T09:43:33Z</time>
      </trkpt>
      <trkpt lat="43.80485" lon="0.82456">
        <ele>172</ele>
        <time>2014-06-22T09:43:38Z</time>
      </trkpt>
      <trkpt lat="43.80491" lon="0.82454">
        <ele>172</ele>
        <time>2014-06-22T09:43:43Z</time>
      </trkpt>
      <trkpt lat="43.80495" lon="0.82453">
        <ele>172</ele>
        <time>2014-06-22T09:43:47Z</time>
      </trkpt>
      <trkpt lat="43.805" lon="0.82451">
        <ele>172</ele>
        <time>2014-06-22T09:43:51Z</time>
      </trkpt>
      <trkpt lat="43.80505" lon="0.82449">
        <ele>171</ele>
        <time>2014-06-22T09:43:55Z</time>
      </trkpt>
      <trkpt lat="43.8051" lon="0.82448">
        <ele>171</ele>
        <time>2014-06-22T09:43:59Z</time>
      </trkpt>
      <trkpt lat="43.80515" lon="0.82446">
        <ele>170</ele>
        <time>2014-06-22T09:44:03Z</time>
      </trkpt>
      <trkpt lat="43.8052" lon="0.82445">
        <ele>170</ele>
        <time>2014-06-22T09:44:07Z</time>
      </trkpt>
      <trkpt lat="43.80524" lon="0.82444">
        <ele>170</ele>
        <time>2014-06-22T09:44:11Z</time>
      </trkpt>
      <trkpt lat="43.80529" lon="0.82443">
        <ele>170</ele>
        <time>2014-06-22T09:44:15Z</time>
      </trkpt>
      <trkpt lat="43.80534" lon="0.82441">
        <ele>170</ele>
        <time>2014-06-22T09:44:19Z</time>
      </trkpt>
      <trkpt lat="43.80538" lon="0.8244">
        <ele>171</ele>
        <time>2014-06-22T09:44:23Z</time>
      </trkpt>
      <trkpt lat="43.80543" lon="0.82438">
        <ele>170</ele>
        <time>2014-06-22T09:44:28Z</time>
      </trkpt>
      <trkpt lat="43.80549" lon="0.82436">
        <ele>170</ele>
        <time>2014-06-22T09:44:33Z</time>
      </trkpt>
      <trkpt lat="43.80554" lon="0.82433">
        <ele>172</ele>
        <time>2014-06-22T09:44:38Z</time>
      </trkpt>
      <trkpt lat="43.80558" lon="0.82432">
        <ele>171</ele>
        <time>2014-06-22T09:44:43Z</time>
      </trkpt>
      <trkpt lat="43.80562" lon="0.8243">
        <ele>171</ele>
        <time>2014-06-22T09:44:47Z</time>
      </trkpt>
      <trkpt lat="43.80567" lon="0.82427">
        <ele>171</ele>
        <time>2014-06-22T09:44:51Z</time>
      </trkpt>
      <trkpt lat="43.80572" lon="0.82425">
        <ele>171</ele>
        <time>2014-06-22T09:44:55Z</time>
      </trkpt>
      <trkpt lat="43.80577" lon="0.82422">
        <ele>170</ele>
        <time>2014-06-22T09:44:59Z</time>
      </trkpt>
      <trkpt lat="43.80582" lon="0.8242">
        <ele>170</ele>
        <time>2014-06-22T09:45:03Z</time>
      </trkpt>
      <trkpt lat="43.80587" lon="0.82418">
        <ele>170</ele>
        <time>2014-06-22T09:45:07Z</time>
      </trkpt>
      <trkpt lat="43.80592" lon="0.82416">
        <ele>170</ele>
        <time>2014-06-22T09:45:11Z</time>
      </trkpt>
      <trkpt lat="43.80597" lon="0.82415">
        <ele>169</ele>
        <time>2014-06-22T09:45:21Z</time>
      </trkpt>
      <trkpt lat="43.80603" lon="0.82414">
        <ele>169</ele>
        <time>2014-06-22T09:45:25Z</time>
      </trkpt>
      <trkpt lat="43.80608" lon="0.82414">
        <ele>170</ele>
        <time>2014-06-22T09:45:29Z</time>
      </trkpt>
      <trkpt lat="43.80613" lon="0.82414">
        <ele>169</ele>
        <time>2014-06-22T09:45:33Z</time>
      </trkpt>
      <trkpt lat="43.80618" lon="0.82414">
        <ele>169</ele>
        <time>2014-06-22T09:45:37Z</time>
      </trkpt>
      <trkpt lat="43.80623" lon="0.82414">
        <ele>169</ele>
        <time>2014-06-22T09:45:41Z</time>
      </trkpt>
      <trkpt lat="43.80628" lon="0.82415">
        <ele>169</ele>
        <time>2014-06-22T09:45:45Z</time>
      </trkpt>
      <trkpt lat="43.80632" lon="0.82415">
        <ele>169</ele>
        <time>2014-06-22T09:45:49Z</time>
      </trkpt>
      <trkpt lat="43.80637" lon="0.82415">
        <ele>168</ele>
        <time>2014-06-22T09:45:53Z</time>
      </trkpt>
      <trkpt lat="43.80642" lon="0.82416">
        <ele>168</ele>
        <time>2014-06-22T09:46:01Z</time>
      </trkpt>
      <trkpt lat="43.80643" lon="0.82415">
        <ele>167</ele>
        <time>2014-06-22T09:46:30Z</time>
      </trkpt>
      <trkpt lat="43.80648" lon="0.82416">
        <ele>165</ele>
        <time>2014-06-22T09:46:48Z</time>
      </trkpt>
      <trkpt lat="43.80653" lon="0.82417">
        <ele>164</ele>
        <time>2014-06-22T09:46:52Z</time>
      </trkpt>
      <trkpt lat="43.80658" lon="0.82417">
        <ele>165</ele>
        <time>2014-06-22T09:46:56Z</time>
      </trkpt>
      <trkpt lat="43.80663" lon="0.82417">
        <ele>164</ele>
        <time>2014-06-22T09:47:00Z</time>
      </trkpt>
      <trkpt lat="43.80668" lon="0.82417">
        <ele>163</ele>
        <time>2014-06-22T09:47:04Z</time>
      </trkpt>
      <trkpt lat="43.80673" lon="0.82417">
        <ele>163</ele>
        <time>2014-06-22T09:47:08Z</time>
      </trkpt>
      <trkpt lat="43.80677" lon="0.82418">
        <ele>163</ele>
        <time>2014-06-22T09:47:12Z</time>
      </trkpt>
      <trkpt lat="43.80682" lon="0.82418">
        <ele>163</ele>
        <time>2014-06-22T09:47:16Z</time>
      </trkpt>
      <trkpt lat="43.80687" lon="0.82419">
        <ele>163</ele>
        <time>2014-06-22T09:47:20Z</time>
      </trkpt>
      <trkpt lat="43.80692" lon="0.82419">
        <ele>163</ele>
        <time>2014-06-22T09:47:24Z</time>
      </trkpt>
      <trkpt lat="43.80697" lon="0.8242">
        <ele>163</ele>
        <time>2014-06-22T09:47:28Z</time>
      </trkpt>
      <trkpt lat="43.80701" lon="0.82421">
        <ele>163</ele>
        <time>2014-06-22T09:47:32Z</time>
      </trkpt>
      <trkpt lat="43.80706" lon="0.82421">
        <ele>163</ele>
        <time>2014-06-22T09:47:36Z</time>
      </trkpt>
      <trkpt lat="43.80711" lon="0.82423">
        <ele>163</ele>
        <time>2014-06-22T09:47:40Z</time>
      </trkpt>
      <trkpt lat="43.80715" lon="0.82426">
        <ele>163</ele>
        <time>2014-06-22T09:47:44Z</time>
      </trkpt>
      <trkpt lat="43.8072" lon="0.82429">
        <ele>164</ele>
        <time>2014-06-22T09:47:48Z</time>
      </trkpt>
      <trkpt lat="43.80724" lon="0.82432">
        <ele>164</ele>
        <time>2014-06-22T09:47:52Z</time>
      </trkpt>
      <trkpt lat="43.80728" lon="0.82436">
        <ele>163</ele>
        <time>2014-06-22T09:47:56Z</time>
      </trkpt>
      <trkpt lat="43.80732" lon="0.82441">
        <ele>164</ele>
        <time>2014-06-22T09:48:00Z</time>
      </trkpt>
      <trkpt lat="43.80735" lon="0.82446">
        <ele>164</ele>
        <time>2014-06-22T09:48:04Z</time>
      </trkpt>
      <trkpt lat="43.80738" lon="0.82451">
        <ele>165</ele>
        <time>2014-06-22T09:48:08Z</time>
      </trkpt>
      <trkpt lat="43.80741" lon="0.82456">
        <ele>165</ele>
        <time>2014-06-22T09:48:12Z</time>
      </trkpt>
      <trkpt lat="43.80744" lon="0.82461">
        <ele>166</ele>
        <time>2014-06-22T09:48:16Z</time>
      </trkpt>
      <trkpt lat="43.80746" lon="0.82467">
        <ele>167</ele>
        <time>2014-06-22T09:48:22Z</time>
      </trkpt>
      <trkpt lat="43.80748" lon="0.82472">
        <ele>167</ele>
        <time>2014-06-22T09:48:27Z</time>
      </trkpt>
      <trkpt lat="43.80751" lon="0.82477">
        <ele>167</ele>
        <time>2014-06-22T09:48:31Z</time>
      </trkpt>
      <trkpt lat="43.80754" lon="0.82483">
        <ele>168</ele>
        <time>2014-06-22T09:48:35Z</time>
      </trkpt>
      <trkpt lat="43.80757" lon="0.82488">
        <ele>167</ele>
        <time>2014-06-22T09:48:39Z</time>
      </trkpt>
      <trkpt lat="43.80761" lon="0.82492">
        <ele>167</ele>
        <time>2014-06-22T09:48:43Z</time>
      </trkpt>
      <trkpt lat="43.80766" lon="0.82496">
        <ele>167</ele>
        <time>2014-06-22T09:48:47Z</time>
      </trkpt>
      <trkpt lat="43.80771" lon="0.82499">
        <ele>167</ele>
        <time>2014-06-22T09:48:51Z</time>
      </trkpt>
      <trkpt lat="43.80775" lon="0.82501">
        <ele>167</ele>
        <time>2014-06-22T09:48:55Z</time>
      </trkpt>
      <trkpt lat="43.8078" lon="0.82504">
        <ele>167</ele>
        <time>2014-06-22T09:48:59Z</time>
      </trkpt>
      <trkpt lat="43.80785" lon="0.82506">
        <ele>167</ele>
        <time>2014-06-22T09:49:03Z</time>
      </trkpt>
      <trkpt lat="43.8079" lon="0.82507">
        <ele>168</ele>
        <time>2014-06-22T09:49:07Z</time>
      </trkpt>
      <trkpt lat="43.80795" lon="0.82509">
        <ele>167</ele>
        <time>2014-06-22T09:49:11Z</time>
      </trkpt>
      <trkpt lat="43.80799" lon="0.82512">
        <ele>167</ele>
        <time>2014-06-22T09:49:16Z</time>
      </trkpt>
      <trkpt lat="43.80805" lon="0.82514">
        <ele>167</ele>
        <time>2014-06-22T09:49:21Z</time>
      </trkpt>
      <trkpt lat="43.8081" lon="0.82515">
        <ele>166</ele>
        <time>2014-06-22T09:49:25Z</time>
      </trkpt>
      <trkpt lat="43.80814" lon="0.82517">
        <ele>166</ele>
        <time>2014-06-22T09:49:29Z</time>
      </trkpt>
      <trkpt lat="43.80819" lon="0.82519">
        <ele>167</ele>
        <time>2014-06-22T09:49:33Z</time>
      </trkpt>
      <trkpt lat="43.80824" lon="0.82521">
        <ele>166</ele>
        <time>2014-06-22T09:49:37Z</time>
      </trkpt>
      <trkpt lat="43.80829" lon="0.82523">
        <ele>166</ele>
        <time>2014-06-22T09:49:41Z</time>
      </trkpt>
      <trkpt lat="43.80833" lon="0.82526">
        <ele>167</ele>
        <time>2014-06-22T09:49:45Z</time>
      </trkpt>
      <trkpt lat="43.80838" lon="0.82529">
        <ele>166</ele>
        <time>2014-06-22T09:49:49Z</time>
      </trkpt>
      <trkpt lat="43.80841" lon="0.82533">
        <ele>167</ele>
        <time>2014-06-22T09:49:53Z</time>
      </trkpt>
      <trkpt lat="43.80846" lon="0.82535">
        <ele>167</ele>
        <time>2014-06-22T09:49:58Z</time>
      </trkpt>
      <trkpt lat="43.80848" lon="0.82529">
        <ele>166</ele>
        <time>2014-06-22T09:50:02Z</time>
      </trkpt>
      <trkpt lat="43.8085" lon="0.82523">
        <ele>166</ele>
        <time>2014-06-22T09:50:06Z</time>
      </trkpt>
      <trkpt lat="43.80852" lon="0.82517">
        <ele>168</ele>
        <time>2014-06-22T09:50:13Z</time>
      </trkpt>
      <trkpt lat="43.80854" lon="0.8251">
        <ele>168</ele>
        <time>2014-06-22T09:50:19Z</time>
      </trkpt>
      <trkpt lat="43.80856" lon="0.82503">
        <ele>170</ele>
        <time>2014-06-22T09:50:24Z</time>
      </trkpt>
      <trkpt lat="43.80858" lon="0.82497">
        <ele>169</ele>
        <time>2014-06-22T09:50:28Z</time>
      </trkpt>
      <trkpt lat="43.8086" lon="0.82492">
        <ele>169</ele>
        <time>2014-06-22T09:50:32Z</time>
      </trkpt>
      <trkpt lat="43.80862" lon="0.82486">
        <ele>169</ele>
        <time>2014-06-22T09:50:36Z</time>
      </trkpt>
      <trkpt lat="43.80864" lon="0.8248">
        <ele>169</ele>
        <time>2014-06-22T09:50:40Z</time>
      </trkpt>
      <trkpt lat="43.80866" lon="0.82474">
        <ele>170</ele>
        <time>2014-06-22T09:50:44Z</time>
      </trkpt>
      <trkpt lat="43.80869" lon="0.82468">
        <ele>172</ele>
        <time>2014-06-22T09:50:58Z</time>
      </trkpt>
      <trkpt lat="43.80871" lon="0.82462">
        <ele>172</ele>
        <time>2014-06-22T09:51:02Z</time>
      </trkpt>
      <trkpt lat="43.80873" lon="0.82455">
        <ele>172</ele>
        <time>2014-06-22T09:51:07Z</time>
      </trkpt>
      <trkpt lat="43.80876" lon="0.82449">
        <ele>172</ele>
        <time>2014-06-22T09:51:12Z</time>
      </trkpt>
      <trkpt lat="43.80878" lon="0.82444">
        <ele>172</ele>
        <time>2014-06-22T09:51:17Z</time>
      </trkpt>
      <trkpt lat="43.80881" lon="0.82438">
        <ele>173</ele>
        <time>2014-06-22T09:51:22Z</time>
      </trkpt>
      <trkpt lat="43.80883" lon="0.82432">
        <ele>173</ele>
        <time>2014-06-22T09:51:27Z</time>
      </trkpt>
      <trkpt lat="43.80885" lon="0.82426">
        <ele>173</ele>
        <time>2014-06-22T09:51:31Z</time>
      </trkpt>
      <trkpt lat="43.80887" lon="0.82419">
        <ele>173</ele>
        <time>2014-06-22T09:51:36Z</time>
      </trkpt>
      <trkpt lat="43.80889" lon="0.82412">
        <ele>173</ele>
        <time>2014-06-22T09:51:41Z</time>
      </trkpt>
      <trkpt lat="43.80892" lon="0.82405">
        <ele>173</ele>
        <time>2014-06-22T09:51:46Z</time>
      </trkpt>
      <trkpt lat="43.80894" lon="0.82399">
        <ele>172</ele>
        <time>2014-06-22T09:51:51Z</time>
      </trkpt>
      <trkpt lat="43.80897" lon="0.82394">
        <ele>173</ele>
        <time>2014-06-22T09:51:56Z</time>
      </trkpt>
      <trkpt lat="43.80899" lon="0.82388">
        <ele>173</ele>
        <time>2014-06-22T09:52:01Z</time>
      </trkpt>
      <trkpt lat="43.80901" lon="0.82381">
        <ele>173</ele>
        <time>2014-06-22T09:52:06Z</time>
      </trkpt>
      <trkpt lat="43.80903" lon="0.82374">
        <ele>173</ele>
        <time>2014-06-22T09:52:11Z</time>
      </trkpt>
      <trkpt lat="43.80905" lon="0.82368">
        <ele>174</ele>
        <time>2014-06-22T09:52:17Z</time>
      </trkpt>
      <trkpt lat="43.80908" lon="0.82363">
        <ele>173</ele>
        <time>2014-06-22T09:52:23Z</time>
      </trkpt>
      <trkpt lat="43.8091" lon="0.82357">
        <ele>173</ele>
        <time>2014-06-22T09:52:29Z</time>
      </trkpt>
      <trkpt lat="43.80914" lon="0.82352">
        <ele>173</ele>
        <time>2014-06-22T09:52:34Z</time>
      </trkpt>
      <trkpt lat="43.80917" lon="0.82346">
        <ele>173</ele>
        <time>2014-06-22T09:52:39Z</time>
      </trkpt>
      <trkpt lat="43.8092" lon="0.82341">
        <ele>172</ele>
        <time>2014-06-22T09:52:43Z</time>
      </trkpt>
      <trkpt lat="43.80923" lon="0.82336">
        <ele>171</ele>
        <time>2014-06-22T09:52:47Z</time>
      </trkpt>
      <trkpt lat="43.80926" lon="0.82331">
        <ele>172</ele>
        <time>2014-06-22T09:52:51Z</time>
      </trkpt>
      <trkpt lat="43.80929" lon="0.82325">
        <ele>173</ele>
        <time>2014-06-22T09:52:55Z</time>
      </trkpt>
      <trkpt lat="43.80932" lon="0.82319">
        <ele>174</ele>
        <time>2014-06-22T09:53:00Z</time>
      </trkpt>
      <trkpt lat="43.80935" lon="0.82315">
        <ele>173</ele>
        <time>2014-06-22T09:53:14Z</time>
      </trkpt>
      <trkpt lat="43.80937" lon="0.82309">
        <ele>172</ele>
        <time>2014-06-22T09:55:22Z</time>
      </trkpt>
      <trkpt lat="43.80939" lon="0.82303">
        <ele>172</ele>
        <time>2014-06-22T09:55:27Z</time>
      </trkpt>
      <trkpt lat="43.80942" lon="0.82297">
        <ele>174</ele>
        <time>2014-06-22T09:55:33Z</time>
      </trkpt>
      <trkpt lat="43.80946" lon="0.82292">
        <ele>174</ele>
        <time>2014-06-22T09:55:38Z</time>
      </trkpt>
      <trkpt lat="43.80949" lon="0.82287">
        <ele>176</ele>
        <time>2014-06-22T09:55:43Z</time>
      </trkpt>
      <trkpt lat="43.80952" lon="0.82283">
        <ele>178</ele>
        <time>2014-06-22T09:55:48Z</time>
      </trkpt>
      <trkpt lat="43.80956" lon="0.82278">
        <ele>182</ele>
        <time>2014-06-22T09:55:54Z</time>
      </trkpt>
      <trkpt lat="43.80959" lon="0.82274">
        <ele>183</ele>
        <time>2014-06-22T09:55:59Z</time>
      </trkpt>
      <trkpt lat="43.80962" lon="0.82269">
        <ele>182</ele>
        <time>2014-06-22T09:56:04Z</time>
      </trkpt>
      <trkpt lat="43.80966" lon="0.82262">
        <ele>180</ele>
        <time>2014-06-22T09:56:09Z</time>
      </trkpt>
      <trkpt lat="43.80968" lon="0.82257">
        <ele>181</ele>
        <time>2014-06-22T09:56:13Z</time>
      </trkpt>
      <trkpt lat="43.80971" lon="0.82252">
        <ele>182</ele>
        <time>2014-06-22T09:56:17Z</time>
      </trkpt>
      <trkpt lat="43.80973" lon="0.82245">
        <ele>181</ele>
        <time>2014-06-22T09:56:22Z</time>
      </trkpt>
      <trkpt lat="43.80976" lon="0.8224">
        <ele>181</ele>
        <time>2014-06-22T09:56:27Z</time>
      </trkpt>
      <trkpt lat="43.80979" lon="0.82235">
        <ele>183</ele>
        <time>2014-06-22T09:56:32Z</time>
      </trkpt>
      <trkpt lat="43.80983" lon="0.8223">
        <ele>181</ele>
        <time>2014-06-22T09:56:36Z</time>
      </trkpt>
      <trkpt lat="43.80987" lon="0.82228">
        <ele>182</ele>
        <time>2014-06-22T09:56:42Z</time>
      </trkpt>
      <trkpt lat="43.80992" lon="0.82227">
        <ele>184</ele>
        <time>2014-06-22T09:56:47Z</time>
      </trkpt>
      <trkpt lat="43.80997" lon="0.82226">
        <ele>183</ele>
        <time>2014-06-22T09:56:55Z</time>
      </trkpt>
      <trkpt lat="43.81" lon="0.82222">
        <ele>184</ele>
        <time>2014-06-22T09:57:00Z</time>
      </trkpt>
      <trkpt lat="43.81005" lon="0.82218">
        <ele>185</ele>
        <time>2014-06-22T09:57:05Z</time>
      </trkpt>
      <trkpt lat="43.81009" lon="0.82213">
        <ele>185</ele>
        <time>2014-06-22T09:57:10Z</time>
      </trkpt>
      <trkpt lat="43.81013" lon="0.82209">
        <ele>184</ele>
        <time>2014-06-22T09:57:15Z</time>
      </trkpt>
      <trkpt lat="43.81018" lon="0.82206">
        <ele>183</ele>
        <time>2014-06-22T09:57:19Z</time>
      </trkpt>
      <trkpt lat="43.81022" lon="0.82203">
        <ele>184</ele>
        <time>2014-06-22T09:57:23Z</time>
      </trkpt>
      <trkpt lat="43.81026" lon="0.82199">
        <ele>186</ele>
        <time>2014-06-22T09:57:27Z</time>
      </trkpt>
      <trkpt lat="43.81029" lon="0.82193">
        <ele>191</ele>
        <time>2014-06-22T09:57:32Z</time>
      </trkpt>
      <trkpt lat="43.81031" lon="0.82187">
        <ele>190</ele>
        <time>2014-06-22T09:57:39Z</time>
      </trkpt>
      <trkpt lat="43.81033" lon="0.82182">
        <ele>191</ele>
        <time>2014-06-22T09:57:44Z</time>
      </trkpt>
      <trkpt lat="43.81036" lon="0.82176">
        <ele>190</ele>
        <time>2014-06-22T09:57:49Z</time>
      </trkpt>
      <trkpt lat="43.8104" lon="0.82171">
        <ele>190</ele>
        <time>2014-06-22T09:57:53Z</time>
      </trkpt>
      <trkpt lat="43.81043" lon="0.82166">
        <ele>194</ele>
        <time>2014-06-22T09:57:57Z</time>
      </trkpt>
      <trkpt lat="43.81047" lon="0.82162">
        <ele>196</ele>
        <time>2014-06-22T09:58:02Z</time>
      </trkpt>
      <trkpt lat="43.81049" lon="0.82156">
        <ele>199</ele>
        <time>2014-06-22T09:58:11Z</time>
      </trkpt>
      <trkpt lat="43.81053" lon="0.82152">
        <ele>197</ele>
        <time>2014-06-22T09:58:17Z</time>
      </trkpt>
      <trkpt lat="43.81058" lon="0.82148">
        <ele>196</ele>
        <time>2014-06-22T09:58:21Z</time>
      </trkpt>
      <trkpt lat="43.81063" lon="0.82143">
        <ele>196</ele>
        <time>2014-06-22T09:58:25Z</time>
      </trkpt>
      <trkpt lat="43.81065" lon="0.82138">
        <ele>194</ele>
        <time>2014-06-22T09:58:29Z</time>
      </trkpt>
      <trkpt lat="43.81069" lon="0.82133">
        <ele>193</ele>
        <time>2014-06-22T09:58:34Z</time>
      </trkpt>
      <trkpt lat="43.81073" lon="0.82129">
        <ele>190</ele>
        <time>2014-06-22T09:58:39Z</time>
      </trkpt>
      <trkpt lat="43.81078" lon="0.82127">
        <ele>188</ele>
        <time>2014-06-22T09:58:44Z</time>
      </trkpt>
      <trkpt lat="43.81083" lon="0.82127">
        <ele>190</ele>
        <time>2014-06-22T09:58:53Z</time>
      </trkpt>
      <trkpt lat="43.81087" lon="0.82128">
        <ele>189</ele>
        <time>2014-06-22T09:59:00Z</time>
      </trkpt>
      <trkpt lat="43.81092" lon="0.82126">
        <ele>191</ele>
        <time>2014-06-22T09:59:06Z</time>
      </trkpt>
      <trkpt lat="43.81098" lon="0.82127">
        <ele>192</ele>
        <time>2014-06-22T09:59:11Z</time>
      </trkpt>
      <trkpt lat="43.81102" lon="0.82126">
        <ele>194</ele>
        <time>2014-06-22T09:59:16Z</time>
      </trkpt>
      <trkpt lat="43.81107" lon="0.82126">
        <ele>195</ele>
        <time>2014-06-22T09:59:21Z</time>
      </trkpt>
      <trkpt lat="43.81112" lon="0.82124">
        <ele>199</ele>
        <time>2014-06-22T09:59:26Z</time>
      </trkpt>
      <trkpt lat="43.81118" lon="0.82122">
        <ele>201</ele>
        <time>2014-06-22T09:59:31Z</time>
      </trkpt>
      <trkpt lat="43.81122" lon="0.8212">
        <ele>199</ele>
        <time>2014-06-22T09:59:36Z</time>
      </trkpt>
      <trkpt lat="43.81126" lon="0.82115">
        <ele>202</ele>
        <time>2014-06-22T09:59:42Z</time>
      </trkpt>
      <trkpt lat="43.8113" lon="0.8211">
        <ele>206</ele>
        <time>2014-06-22T09:59:48Z</time>
      </trkpt>
      <trkpt lat="43.81134" lon="0.82106">
        <ele>207</ele>
        <time>2014-06-22T09:59:54Z</time>
      </trkpt>
      <trkpt lat="43.81138" lon="0.82102">
        <ele>205</ele>
        <time>2014-06-22T09:59:59Z</time>
      </trkpt>
      <trkpt lat="43.81143" lon="0.82103">
        <ele>207</ele>
        <time>2014-06-22T10:00:04Z</time>
      </trkpt>
      <trkpt lat="43.81146" lon="0.82108">
        <ele>207</ele>
        <time>2014-06-22T10:00:16Z</time>
      </trkpt>
      <trkpt lat="43.81147" lon="0.82114">
        <ele>206</ele>
        <time>2014-06-22T10:01:13Z</time>
      </trkpt>
      <trkpt lat="43.81149" lon="0.8212">
        <ele>207</ele>
        <time>2014-06-22T10:01:29Z</time>
      </trkpt>
      <trkpt lat="43.81151" lon="0.82126">
        <ele>210</ele>
        <time>2014-06-22T10:01:37Z</time>
      </trkpt>
      <trkpt lat="43.81154" lon="0.82132">
        <ele>212</ele>
        <time>2014-06-22T10:01:44Z</time>
      </trkpt>
      <trkpt lat="43.81157" lon="0.82136">
        <ele>214</ele>
        <time>2014-06-22T10:01:52Z</time>
      </trkpt>
      <trkpt lat="43.81159" lon="0.82143">
        <ele>213</ele>
        <time>2014-06-22T10:01:57Z</time>
      </trkpt>
      <trkpt lat="43.81159" lon="0.82151">
        <ele>213</ele>
        <time>2014-06-22T10:02:02Z</time>
      </trkpt>
      <trkpt lat="43.81159" lon="0.82158">
        <ele>215</ele>
        <time>2014-06-22T10:02:07Z</time>
      </trkpt>
      <trkpt lat="43.81159" lon="0.82164">
        <ele>213</ele>
        <time>2014-06-22T10:02:11Z</time>
      </trkpt>
      <trkpt lat="43.81159" lon="0.82171">
        <ele>212</ele>
        <time>2014-06-22T10:02:15Z</time>
      </trkpt>
      <trkpt lat="43.81158" lon="0.82178">
        <ele>213</ele>
        <time>2014-06-22T10:02:20Z</time>
      </trkpt>
      <trkpt lat="43.81156" lon="0.82185">
        <ele>213</ele>
        <time>2014-06-22T10:02:26Z</time>
      </trkpt>
      <trkpt lat="43.81154" lon="0.82191">
        <ele>214</ele>
        <time>2014-06-22T10:02:32Z</time>
      </trkpt>
      <trkpt lat="43.81151" lon="0.82196">
        <ele>213</ele>
        <time>2014-06-22T10:02:37Z</time>
      </trkpt>
      <trkpt lat="43.81148" lon="0.82202">
        <ele>214</ele>
        <time>2014-06-22T10:02:42Z</time>
      </trkpt>
      <trkpt lat="43.81145" lon="0.82207">
        <ele>211</ele>
        <time>2014-06-22T10:02:51Z</time>
      </trkpt>
      <trkpt lat="43.81147" lon="0.82213">
        <ele>210</ele>
        <time>2014-06-22T10:03:31Z</time>
      </trkpt>
      <trkpt lat="43.81152" lon="0.82216">
        <ele>210</ele>
        <time>2014-06-22T10:03:35Z</time>
      </trkpt>
      <trkpt lat="43.81155" lon="0.8222">
        <ele>210</ele>
        <time>2014-06-22T10:03:39Z</time>
      </trkpt>
      <trkpt lat="43.8116" lon="0.82223">
        <ele>210</ele>
        <time>2014-06-22T10:03:44Z</time>
      </trkpt>
      <trkpt lat="43.81164" lon="0.82227">
        <ele>210</ele>
        <time>2014-06-22T10:03:49Z</time>
      </trkpt>
      <trkpt lat="43.81168" lon="0.8223">
        <ele>211</ele>
        <time>2014-06-22T10:03:53Z</time>
      </trkpt>
      <trkpt lat="43.81172" lon="0.82233">
        <ele>211</ele>
        <time>2014-06-22T10:03:57Z</time>
      </trkpt>
      <trkpt lat="43.81176" lon="0.82237">
        <ele>211</ele>
        <time>2014-06-22T10:04:01Z</time>
      </trkpt>
      <trkpt lat="43.8118" lon="0.8224">
        <ele>211</ele>
        <time>2014-06-22T10:04:05Z</time>
      </trkpt>
      <trkpt lat="43.81184" lon="0.82243">
        <ele>211</ele>
        <time>2014-06-22T10:04:09Z</time>
      </trkpt>
      <trkpt lat="43.81189" lon="0.82247">
        <ele>211</ele>
        <time>2014-06-22T10:04:18Z</time>
      </trkpt>
      <trkpt lat="43.81193" lon="0.82251">
        <ele>211</ele>
        <time>2014-06-22T10:04:22Z</time>
      </trkpt>
      <trkpt lat="43.81198" lon="0.82254">
        <ele>211</ele>
        <time>2014-06-22T10:04:26Z</time>
      </trkpt>
      <trkpt lat="43.81201" lon="0.82257">
        <ele>211</ele>
        <time>2014-06-22T10:04:30Z</time>
      </trkpt>
      <trkpt lat="43.81206" lon="0.82261">
        <ele>211</ele>
        <time>2014-06-22T10:04:35Z</time>
      </trkpt>
      <trkpt lat="43.81211" lon="0.82265">
        <ele>211</ele>
        <time>2014-06-22T10:04:40Z</time>
      </trkpt>
      <trkpt lat="43.81216" lon="0.82268">
        <ele>211</ele>
        <time>2014-06-22T10:04:45Z</time>
      </trkpt>
      <trkpt lat="43.81221" lon="0.82272">
        <ele>212</ele>
        <time>2014-06-22T10:04:50Z</time>
      </trkpt>
      <trkpt lat="43.81226" lon="0.82275">
        <ele>212</ele>
        <time>2014-06-22T10:04:55Z</time>
      </trkpt>
      <trkpt lat="43.81231" lon="0.82278">
        <ele>212</ele>
        <time>2014-06-22T10:05:00Z</time>
      </trkpt>
      <trkpt lat="43.81236" lon="0.82281">
        <ele>213</ele>
        <time>2014-06-22T10:05:05Z</time>
      </trkpt>
      <trkpt lat="43.81241" lon="0.82284">
        <ele>216</ele>
        <time>2014-06-22T10:05:10Z</time>
      </trkpt>
      <trkpt lat="43.81246" lon="0.82286">
        <ele>215</ele>
        <time>2014-06-22T10:05:15Z</time>
      </trkpt>
      <trkpt lat="43.81251" lon="0.82288">
        <ele>215</ele>
        <time>2014-06-22T10:05:20Z</time>
      </trkpt>
      <trkpt lat="43.81256" lon="0.8229">
        <ele>215</ele>
        <time>2014-06-22T10:05:25Z</time>
      </trkpt>
      <trkpt lat="43.81261" lon="0.82292">
        <ele>215</ele>
        <time>2014-06-22T10:05:30Z</time>
      </trkpt>
      <trkpt lat="43.81267" lon="0.82294">
        <ele>216</ele>
        <time>2014-06-22T10:05:35Z</time>
      </trkpt>
      <trkpt lat="43.81272" lon="0.82296">
        <ele>217</ele>
        <time>2014-06-22T10:05:40Z</time>
      </trkpt>
      <trkpt lat="43.81277" lon="0.82298">
        <ele>217</ele>
        <time>2014-06-22T10:05:45Z</time>
      </trkpt>
      <trkpt lat="43.81282" lon="0.823">
        <ele>218</ele>
        <time>2014-06-22T10:05:50Z</time>
      </trkpt>
      <trkpt lat="43.81287" lon="0.82302">
        <ele>218</ele>
        <time>2014-06-22T10:05:55Z</time>
      </trkpt>
      <trkpt lat="43.81292" lon="0.82304">
        <ele>219</ele>
        <time>2014-06-22T10:06:00Z</time>
      </trkpt>
      <trkpt lat="43.81297" lon="0.82306">
        <ele>219</ele>
        <time>2014-06-22T10:06:05Z</time>
      </trkpt>
      <trkpt lat="43.81303" lon="0.82308">
        <ele>220</ele>
        <time>2014-06-22T10:06:10Z</time>
      </trkpt>
      <trkpt lat="43.81308" lon="0.8231">
        <ele>221</ele>
        <time>2014-06-22T10:06:15Z</time>
      </trkpt>
      <trkpt lat="43.81313" lon="0.82312">
        <ele>221</ele>
        <time>2014-06-22T10:06:20Z</time>
      </trkpt>
      <trkpt lat="43.81318" lon="0.82313">
        <ele>221</ele>
        <time>2014-06-22T10:06:24Z</time>
      </trkpt>
      <trkpt lat="43.81322" lon="0.82315">
        <ele>222</ele>
        <time>2014-06-22T10:06:28Z</time>
      </trkpt>
      <trkpt lat="43.81327" lon="0.82317">
        <ele>222</ele>
        <time>2014-06-22T10:06:32Z</time>
      </trkpt>
      <trkpt lat="43.81332" lon="0.82319">
        <ele>222</ele>
        <time>2014-06-22T10:06:37Z</time>
      </trkpt>
      <trkpt lat="43.81336" lon="0.82321">
        <ele>223</ele>
        <time>2014-06-22T10:06:41Z</time>
      </trkpt>
      <trkpt lat="43.81341" lon="0.82323">
        <ele>223</ele>
        <time>2014-06-22T10:06:45Z</time>
      </trkpt>
      <trkpt lat="43.81345" lon="0.82325">
        <ele>223</ele>
        <time>2014-06-22T10:06:49Z</time>
      </trkpt>
      <trkpt lat="43.8135" lon="0.82326">
        <ele>224</ele>
        <time>2014-06-22T10:06:53Z</time>
      </trkpt>
      <trkpt lat="43.81354" lon="0.82328">
        <ele>224</ele>
        <time>2014-06-22T10:06:57Z</time>
      </trkpt>
      <trkpt lat="43.81358" lon="0.82331">
        <ele>224</ele>
        <time>2014-06-22T10:07:01Z</time>
      </trkpt>
      <trkpt lat="43.81363" lon="0.82332">
        <ele>225</ele>
        <time>2014-06-22T10:07:05Z</time>
      </trkpt>
      <trkpt lat="43.81368" lon="0.82335">
        <ele>225</ele>
        <time>2014-06-22T10:07:10Z</time>
      </trkpt>
      <trkpt lat="43.81373" lon="0.82338">
        <ele>225</ele>
        <time>2014-06-22T10:07:15Z</time>
      </trkpt>
      <trkpt lat="43.81378" lon="0.82341">
        <ele>226</ele>
        <time>2014-06-22T10:07:20Z</time>
      </trkpt>
      <trkpt lat="43.81383" lon="0.82343">
        <ele>226</ele>
        <time>2014-06-22T10:07:24Z</time>
      </trkpt>
      <trkpt lat="43.81387" lon="0.82345">
        <ele>226</ele>
        <time>2014-06-22T10:07:28Z</time>
      </trkpt>
      <trkpt lat="43.81392" lon="0.82348">
        <ele>227</ele>
        <time>2014-06-22T10:07:33Z</time>
      </trkpt>
      <trkpt lat="43.81397" lon="0.8235">
        <ele>227</ele>
        <time>2014-06-22T10:07:37Z</time>
      </trkpt>
      <trkpt lat="43.81401" lon="0.82352">
        <ele>227</ele>
        <time>2014-06-22T10:07:41Z</time>
      </trkpt>
      <trkpt lat="43.81405" lon="0.82355">
        <ele>228</ele>
        <time>2014-06-22T10:07:45Z</time>
      </trkpt>
      <trkpt lat="43.8141" lon="0.82357">
        <ele>228</ele>
        <time>2014-06-22T10:07:49Z</time>
      </trkpt>
      <trkpt lat="43.81414" lon="0.8236">
        <ele>228</ele>
        <time>2014-06-22T10:07:53Z</time>
      </trkpt>
      <trkpt lat="43.81419" lon="0.82362">
        <ele>228</ele>
        <time>2014-06-22T10:07:57Z</time>
      </trkpt>
      <trkpt lat="43.81423" lon="0.82363">
        <ele>228</ele>
        <time>2014-06-22T10:08:01Z</time>
      </trkpt>
      <trkpt lat="43.81429" lon="0.82363">
        <ele>229</ele>
        <time>2014-06-22T10:08:06Z</time>
      </trkpt>
      <trkpt lat="43.81433" lon="0.82361">
        <ele>229</ele>
        <time>2014-06-22T10:08:11Z</time>
      </trkpt>
      <trkpt lat="43.81433" lon="0.82354">
        <ele>229</ele>
        <time>2014-06-22T10:08:16Z</time>
      </trkpt>
      <trkpt lat="43.81432" lon="0.82347">
        <ele>229</ele>
        <time>2014-06-22T10:08:21Z</time>
      </trkpt>
      <trkpt lat="43.8143" lon="0.82341">
        <ele>229</ele>
        <time>2014-06-22T10:08:45Z</time>
      </trkpt>
      <trkpt lat="43.81429" lon="0.82335">
        <ele>229</ele>
        <time>2014-06-22T10:09:15Z</time>
      </trkpt>
      <trkpt lat="43.81427" lon="0.82329">
        <ele>229</ele>
        <time>2014-06-22T10:09:19Z</time>
      </trkpt>
      <trkpt lat="43.81426" lon="0.82322">
        <ele>229</ele>
        <time>2014-06-22T10:09:23Z</time>
      </trkpt>
      <trkpt lat="43.81425" lon="0.82315">
        <ele>229</ele>
        <time>2014-06-22T10:09:27Z</time>
      </trkpt>
      <trkpt lat="43.81423" lon="0.82309">
        <ele>230</ele>
        <time>2014-06-22T10:09:38Z</time>
      </trkpt>
      <trkpt lat="43.81421" lon="0.82302">
        <ele>230</ele>
        <time>2014-06-22T10:09:42Z</time>
      </trkpt>
      <trkpt lat="43.8142" lon="0.82296">
        <ele>230</ele>
        <time>2014-06-22T10:09:46Z</time>
      </trkpt>
      <trkpt lat="43.81419" lon="0.8229">
        <ele>230</ele>
        <time>2014-06-22T10:09:50Z</time>
      </trkpt>
      <trkpt lat="43.81417" lon="0.82283">
        <ele>231</ele>
        <time>2014-06-22T10:09:55Z</time>
      </trkpt>
      <trkpt lat="43.81416" lon="0.82276">
        <ele>230</ele>
        <time>2014-06-22T10:10:00Z</time>
      </trkpt>
      <trkpt lat="43.81414" lon="0.82269">
        <ele>230</ele>
        <time>2014-06-22T10:10:05Z</time>
      </trkpt>
      <trkpt lat="43.81413" lon="0.82261">
        <ele>230</ele>
        <time>2014-06-22T10:10:10Z</time>
      </trkpt>
      <trkpt lat="43.81412" lon="0.82255">
        <ele>230</ele>
        <time>2014-06-22T10:10:14Z</time>
      </trkpt>
      <trkpt lat="43.81411" lon="0.82249">
        <ele>230</ele>
        <time>2014-06-22T10:10:18Z</time>
      </trkpt>
      <trkpt lat="43.81409" lon="0.82243">
        <ele>230</ele>
        <time>2014-06-22T10:10:22Z</time>
      </trkpt>
      <trkpt lat="43.81408" lon="0.82237">
        <ele>231</ele>
        <time>2014-06-22T10:10:26Z</time>
      </trkpt>
      <trkpt lat="43.81407" lon="0.82229">
        <ele>231</ele>
        <time>2014-06-22T10:10:31Z</time>
      </trkpt>
      <trkpt lat="43.81406" lon="0.82222">
        <ele>231</ele>
        <time>2014-06-22T10:10:36Z</time>
      </trkpt>
      <trkpt lat="43.81405" lon="0.82215">
        <ele>230</ele>
        <time>2014-06-22T10:10:41Z</time>
      </trkpt>
      <trkpt lat="43.81403" lon="0.82209">
        <ele>230</ele>
        <time>2014-06-22T10:10:45Z</time>
      </trkpt>
      <trkpt lat="43.81402" lon="0.82203">
        <ele>230</ele>
        <time>2014-06-22T10:10:49Z</time>
      </trkpt>
      <trkpt lat="43.81401" lon="0.82197">
        <ele>230</ele>
        <time>2014-06-22T10:10:53Z</time>
      </trkpt>
      <trkpt lat="43.814" lon="0.8219">
        <ele>230</ele>
        <time>2014-06-22T10:10:57Z</time>
      </trkpt>
      <trkpt lat="43.81399" lon="0.82184">
        <ele>230</ele>
        <time>2014-06-22T10:11:01Z</time>
      </trkpt>
      <trkpt lat="43.81398" lon="0.82177">
        <ele>230</ele>
        <time>2014-06-22T10:11:05Z</time>
      </trkpt>
      <trkpt lat="43.81397" lon="0.82171">
        <ele>230</ele>
        <time>2014-06-22T10:11:09Z</time>
      </trkpt>
      <trkpt lat="43.81396" lon="0.82165">
        <ele>230</ele>
        <time>2014-06-22T10:11:13Z</time>
      </trkpt>
      <trkpt lat="43.81396" lon="0.82159">
        <ele>230</ele>
        <time>2014-06-22T10:11:17Z</time>
      </trkpt>
      <trkpt lat="43.81396" lon="0.82152">
        <ele>230</ele>
        <time>2014-06-22T10:11:21Z</time>
      </trkpt>
      <trkpt lat="43.81395" lon="0.82146">
        <ele>230</ele>
        <time>2014-06-22T10:11:25Z</time>
      </trkpt>
      <trkpt lat="43.81395" lon="0.8214">
        <ele>230</ele>
        <time>2014-06-22T10:11:29Z</time>
      </trkpt>
      <trkpt lat="43.81395" lon="0.82133">
        <ele>230</ele>
        <time>2014-06-22T10:11:33Z</time>
      </trkpt>
      <trkpt lat="43.81395" lon="0.82127">
        <ele>230</ele>
        <time>2014-06-22T10:11:37Z</time>
      </trkpt>
      <trkpt lat="43.81395" lon="0.8212">
        <ele>230</ele>
        <time>2014-06-22T10:11:41Z</time>
      </trkpt>
      <trkpt lat="43.81396" lon="0.82114">
        <ele>230</ele>
        <time>2014-06-22T10:11:45Z</time>
      </trkpt>
      <trkpt lat="43.81396" lon="0.82107">
        <ele>229</ele>
        <time>2014-06-22T10:11:49Z</time>
      </trkpt>
      <trkpt lat="43.81396" lon="0.82101">
        <ele>229</ele>
        <time>2014-06-22T10:11:53Z</time>
      </trkpt>
      <trkpt lat="43.81397" lon="0.82094">
        <ele>229</ele>
        <time>2014-06-22T10:11:57Z</time>
      </trkpt>
      <trkpt lat="43.81397" lon="0.82088">
        <ele>229</ele>
        <time>2014-06-22T10:12:01Z</time>
      </trkpt>
      <trkpt lat="43.81397" lon="0.82081">
        <ele>229</ele>
        <time>2014-06-22T10:12:05Z</time>
      </trkpt>
      <trkpt lat="43.81397" lon="0.82075">
        <ele>229</ele>
        <time>2014-06-22T10:12:09Z</time>
      </trkpt>
      <trkpt lat="43.81398" lon="0.82069">
        <ele>229</ele>
        <time>2014-06-22T10:12:13Z</time>
      </trkpt>
      <trkpt lat="43.81399" lon="0.82062">
        <ele>229</ele>
        <time>2014-06-22T10:12:17Z</time>
      </trkpt>
      <trkpt lat="43.81399" lon="0.82055">
        <ele>228</ele>
        <time>2014-06-22T10:12:21Z</time>
      </trkpt>
      <trkpt lat="43.81399" lon="0.82049">
        <ele>228</ele>
        <time>2014-06-22T10:12:25Z</time>
      </trkpt>
      <trkpt lat="43.81399" lon="0.82042">
        <ele>228</ele>
        <time>2014-06-22T10:12:29Z</time>
      </trkpt>
      <trkpt lat="43.81399" lon="0.82036">
        <ele>228</ele>
        <time>2014-06-22T10:12:33Z</time>
      </trkpt>
      <trkpt lat="43.81399" lon="0.82029">
        <ele>228</ele>
        <time>2014-06-22T10:12:37Z</time>
      </trkpt>
      <trkpt lat="43.814" lon="0.82023">
        <ele>228</ele>
        <time>2014-06-22T10:12:41Z</time>
      </trkpt>
      <trkpt lat="43.814" lon="0.82016">
        <ele>228</ele>
        <time>2014-06-22T10:12:45Z</time>
      </trkpt>
      <trkpt lat="43.814" lon="0.8201">
        <ele>228</ele>
        <time>2014-06-22T10:12:49Z</time>
      </trkpt>
      <trkpt lat="43.814" lon="0.82003">
        <ele>228</ele>
        <time>2014-06-22T10:12:53Z</time>
      </trkpt>
      <trkpt lat="43.814" lon="0.81997">
        <ele>228</ele>
        <time>2014-06-22T10:12:57Z</time>
      </trkpt>
      <trkpt lat="43.814" lon="0.8199">
        <ele>228</ele>
        <time>2014-06-22T10:13:01Z</time>
      </trkpt>
      <trkpt lat="43.81399" lon="0.81984">
        <ele>228</ele>
        <time>2014-06-22T10:13:05Z</time>
      </trkpt>
      <trkpt lat="43.81399" lon="0.81977">
        <ele>228</ele>
        <time>2014-06-22T10:13:09Z</time>
      </trkpt>
      <trkpt lat="43.81399" lon="0.8197">
        <ele>228</ele>
        <time>2014-06-22T10:13:13Z</time>
      </trkpt>
      <trkpt lat="43.81399" lon="0.81964">
        <ele>228</ele>
        <time>2014-06-22T10:13:17Z</time>
      </trkpt>
      <trkpt lat="43.81399" lon="0.81957">
        <ele>228</ele>
        <time>2014-06-22T10:13:21Z</time>
      </trkpt>
      <trkpt lat="43.81399" lon="0.81951">
        <ele>228</ele>
        <time>2014-06-22T10:13:25Z</time>
      </trkpt>
      <trkpt lat="43.81399" lon="0.81944">
        <ele>228</ele>
        <time>2014-06-22T10:13:29Z</time>
      </trkpt>
      <trkpt lat="43.81399" lon="0.81938">
        <ele>228</ele>
        <time>2014-06-22T10:13:33Z</time>
      </trkpt>
      <trkpt lat="43.81398" lon="0.81931">
        <ele>228</ele>
        <time>2014-06-22T10:13:37Z</time>
      </trkpt>
      <trkpt lat="43.81398" lon="0.81925">
        <ele>228</ele>
        <time>2014-06-22T10:13:41Z</time>
      </trkpt>
      <trkpt lat="43.81398" lon="0.81918">
        <ele>227</ele>
        <time>2014-06-22T10:13:45Z</time>
      </trkpt>
      <trkpt lat="43.81398" lon="0.81911">
        <ele>227</ele>
        <time>2014-06-22T10:13:49Z</time>
      </trkpt>
      <trkpt lat="43.81399" lon="0.81905">
        <ele>227</ele>
        <time>2014-06-22T10:13:53Z</time>
      </trkpt>
      <trkpt lat="43.81399" lon="0.81898">
        <ele>227</ele>
        <time>2014-06-22T10:13:57Z</time>
      </trkpt>
      <trkpt lat="43.81399" lon="0.81892">
        <ele>227</ele>
        <time>2014-06-22T10:14:01Z</time>
      </trkpt>
      <trkpt lat="43.81398" lon="0.81885">
        <ele>227</ele>
        <time>2014-06-22T10:14:05Z</time>
      </trkpt>
      <trkpt lat="43.81399" lon="0.81879">
        <ele>227</ele>
        <time>2014-06-22T10:14:09Z</time>
      </trkpt>
      <trkpt lat="43.81399" lon="0.81872">
        <ele>227</ele>
        <time>2014-06-22T10:14:13Z</time>
      </trkpt>
      <trkpt lat="43.81398" lon="0.81866">
        <ele>227</ele>
        <time>2014-06-22T10:14:17Z</time>
      </trkpt>
      <trkpt lat="43.81398" lon="0.8186">
        <ele>227</ele>
        <time>2014-06-22T10:14:21Z</time>
      </trkpt>
      <trkpt lat="43.81397" lon="0.81854">
        <ele>227</ele>
        <time>2014-06-22T10:14:25Z</time>
      </trkpt>
      <trkpt lat="43.81398" lon="0.81847">
        <ele>228</ele>
        <time>2014-06-22T10:14:29Z</time>
      </trkpt>
      <trkpt lat="43.81398" lon="0.81841">
        <ele>227</ele>
        <time>2014-06-22T10:14:33Z</time>
      </trkpt>
      <trkpt lat="43.81397" lon="0.81835">
        <ele>227</ele>
        <time>2014-06-22T10:14:37Z</time>
      </trkpt>
      <trkpt lat="43.81397" lon="0.81828">
        <ele>228</ele>
        <time>2014-06-22T10:14:41Z</time>
      </trkpt>
      <trkpt lat="43.81397" lon="0.81822">
        <ele>228</ele>
        <time>2014-06-22T10:14:45Z</time>
      </trkpt>
      <trkpt lat="43.81397" lon="0.81815">
        <ele>228</ele>
        <time>2014-06-22T10:14:49Z</time>
      </trkpt>
      <trkpt lat="43.81397" lon="0.81807">
        <ele>228</ele>
        <time>2014-06-22T10:14:54Z</time>
      </trkpt>
      <trkpt lat="43.81397" lon="0.81801">
        <ele>228</ele>
        <time>2014-06-22T10:14:58Z</time>
      </trkpt>
      <trkpt lat="43.81397" lon="0.81794">
        <ele>228</ele>
        <time>2014-06-22T10:15:02Z</time>
      </trkpt>
      <trkpt lat="43.81397" lon="0.81787">
        <ele>228</ele>
        <time>2014-06-22T10:15:06Z</time>
      </trkpt>
      <trkpt lat="43.81397" lon="0.8178">
        <ele>228</ele>
        <time>2014-06-22T10:15:10Z</time>
      </trkpt>
      <trkpt lat="43.81397" lon="0.81774">
        <ele>228</ele>
        <time>2014-06-22T10:15:14Z</time>
      </trkpt>
      <trkpt lat="43.81397" lon="0.81767">
        <ele>228</ele>
        <time>2014-06-22T10:15:18Z</time>
      </trkpt>
      <trkpt lat="43.81397" lon="0.81761">
        <ele>229</ele>
        <time>2014-06-22T10:15:22Z</time>
      </trkpt>
      <trkpt lat="43.81397" lon="0.81754">
        <ele>229</ele>
        <time>2014-06-22T10:15:26Z</time>
      </trkpt>
      <trkpt lat="43.81397" lon="0.81748">
        <ele>229</ele>
        <time>2014-06-22T10:15:30Z</time>
      </trkpt>
      <trkpt lat="43.81398" lon="0.81741">
        <ele>229</ele>
        <time>2014-06-22T10:15:38Z</time>
      </trkpt>
      <trkpt lat="43.81398" lon="0.81734">
        <ele>229</ele>
        <time>2014-06-22T10:15:42Z</time>
      </trkpt>
      <trkpt lat="43.81398" lon="0.81728">
        <ele>229</ele>
        <time>2014-06-22T10:15:46Z</time>
      </trkpt>
      <trkpt lat="43.81398" lon="0.81721">
        <ele>229</ele>
        <time>2014-06-22T10:15:50Z</time>
      </trkpt>
      <trkpt lat="43.81398" lon="0.81714">
        <ele>229</ele>
        <time>2014-06-22T10:15:54Z</time>
      </trkpt>
      <trkpt lat="43.81398" lon="0.81707">
        <ele>229</ele>
        <time>2014-06-22T10:15:58Z</time>
      </trkpt>
      <trkpt lat="43.81398" lon="0.817">
        <ele>228</ele>
        <time>2014-06-22T10:16:02Z</time>
      </trkpt>
      <trkpt lat="43.81399" lon="0.81693">
        <ele>228</ele>
        <time>2014-06-22T10:16:06Z</time>
      </trkpt>
      <trkpt lat="43.81399" lon="0.81686">
        <ele>228</ele>
        <time>2014-06-22T10:16:10Z</time>
      </trkpt>
      <trkpt lat="43.81399" lon="0.8168">
        <ele>228</ele>
        <time>2014-06-22T10:16:14Z</time>
      </trkpt>
      <trkpt lat="43.814" lon="0.81673">
        <ele>228</ele>
        <time>2014-06-22T10:16:18Z</time>
      </trkpt>
      <trkpt lat="43.814" lon="0.81666">
        <ele>228</ele>
        <time>2014-06-22T10:16:22Z</time>
      </trkpt>
      <trkpt lat="43.814" lon="0.8166">
        <ele>228</ele>
        <time>2014-06-22T10:16:26Z</time>
      </trkpt>
      <trkpt lat="43.814" lon="0.81653">
        <ele>228</ele>
        <time>2014-06-22T10:16:30Z</time>
      </trkpt>
      <trkpt lat="43.814" lon="0.81647">
        <ele>228</ele>
        <time>2014-06-22T10:16:34Z</time>
      </trkpt>
      <trkpt lat="43.81401" lon="0.8164">
        <ele>228</ele>
        <time>2014-06-22T10:16:38Z</time>
      </trkpt>
      <trkpt lat="43.81402" lon="0.81633">
        <ele>227</ele>
        <time>2014-06-22T10:16:42Z</time>
      </trkpt>
      <trkpt lat="43.81403" lon="0.81627">
        <ele>228</ele>
        <time>2014-06-22T10:16:46Z</time>
      </trkpt>
      <trkpt lat="43.81404" lon="0.8162">
        <ele>227</ele>
        <time>2014-06-22T10:16:50Z</time>
      </trkpt>
      <trkpt lat="43.81405" lon="0.81613">
        <ele>227</ele>
        <time>2014-06-22T10:16:54Z</time>
      </trkpt>
      <trkpt lat="43.81406" lon="0.81606">
        <ele>227</ele>
        <time>2014-06-22T10:17:53Z</time>
      </trkpt>
      <trkpt lat="43.81406" lon="0.81599">
        <ele>227</ele>
        <time>2014-06-22T10:17:58Z</time>
      </trkpt>
      <trkpt lat="43.81407" lon="0.81592">
        <ele>227</ele>
        <time>2014-06-22T10:18:02Z</time>
      </trkpt>
      <trkpt lat="43.81408" lon="0.81586">
        <ele>227</ele>
        <time>2014-06-22T10:18:06Z</time>
      </trkpt>
      <trkpt lat="43.81409" lon="0.81579">
        <ele>227</ele>
        <time>2014-06-22T10:18:10Z</time>
      </trkpt>
      <trkpt lat="43.8141" lon="0.81573">
        <ele>227</ele>
        <time>2014-06-22T10:18:14Z</time>
      </trkpt>
      <trkpt lat="43.8141" lon="0.81566">
        <ele>227</ele>
        <time>2014-06-22T10:18:18Z</time>
      </trkpt>
      <trkpt lat="43.81412" lon="0.8156">
        <ele>227</ele>
        <time>2014-06-22T10:18:22Z</time>
      </trkpt>
      <trkpt lat="43.81413" lon="0.81554">
        <ele>228</ele>
        <time>2014-06-22T10:18:26Z</time>
      </trkpt>
      <trkpt lat="43.81414" lon="0.81547">
        <ele>228</ele>
        <time>2014-06-22T10:18:30Z</time>
      </trkpt>
      <trkpt lat="43.81415" lon="0.8154">
        <ele>228</ele>
        <time>2014-06-22T10:18:34Z</time>
      </trkpt>
      <trkpt lat="43.81416" lon="0.81533">
        <ele>228</ele>
        <time>2014-06-22T10:18:38Z</time>
      </trkpt>
      <trkpt lat="43.81416" lon="0.81526">
        <ele>228</ele>
        <time>2014-06-22T10:18:42Z</time>
      </trkpt>
      <trkpt lat="43.81417" lon="0.8152">
        <ele>228</ele>
        <time>2014-06-22T10:18:46Z</time>
      </trkpt>
      <trkpt lat="43.81418" lon="0.81513">
        <ele>228</ele>
        <time>2014-06-22T10:18:50Z</time>
      </trkpt>
      <trkpt lat="43.81419" lon="0.81507">
        <ele>228</ele>
        <time>2014-06-22T10:18:54Z</time>
      </trkpt>
      <trkpt lat="43.81419" lon="0.81498">
        <ele>228</ele>
        <time>2014-06-22T10:18:59Z</time>
      </trkpt>
      <trkpt lat="43.81419" lon="0.81491">
        <ele>228</ele>
        <time>2014-06-22T10:19:03Z</time>
      </trkpt>
      <trkpt lat="43.8142" lon="0.81485">
        <ele>228</ele>
        <time>2014-06-22T10:19:07Z</time>
      </trkpt>
      <trkpt lat="43.8142" lon="0.81478">
        <ele>228</ele>
        <time>2014-06-22T10:19:11Z</time>
      </trkpt>
      <trkpt lat="43.81421" lon="0.81471">
        <ele>228</ele>
        <time>2014-06-22T10:19:15Z</time>
      </trkpt>
      <trkpt lat="43.81421" lon="0.81464">
        <ele>228</ele>
        <time>2014-06-22T10:19:19Z</time>
      </trkpt>
      <trkpt lat="43.81421" lon="0.81457">
        <ele>228</ele>
        <time>2014-06-22T10:19:23Z</time>
      </trkpt>
      <trkpt lat="43.81422" lon="0.81451">
        <ele>228</ele>
        <time>2014-06-22T10:19:27Z</time>
      </trkpt>
      <trkpt lat="43.81422" lon="0.81444">
        <ele>228</ele>
        <time>2014-06-22T10:19:31Z</time>
      </trkpt>
      <trkpt lat="43.81422" lon="0.81437">
        <ele>228</ele>
        <time>2014-06-22T10:19:35Z</time>
      </trkpt>
      <trkpt lat="43.81422" lon="0.8143">
        <ele>229</ele>
        <time>2014-06-22T10:19:39Z</time>
      </trkpt>
      <trkpt lat="43.81422" lon="0.81423">
        <ele>228</ele>
        <time>2014-06-22T10:19:43Z</time>
      </trkpt>
      <trkpt lat="43.81422" lon="0.81416">
        <ele>229</ele>
        <time>2014-06-22T10:19:47Z</time>
      </trkpt>
      <trkpt lat="43.81422" lon="0.81409">
        <ele>229</ele>
        <time>2014-06-22T10:19:51Z</time>
      </trkpt>
      <trkpt lat="43.81422" lon="0.81403">
        <ele>228</ele>
        <time>2014-06-22T10:19:55Z</time>
      </trkpt>
      <trkpt lat="43.81421" lon="0.81396">
        <ele>229</ele>
        <time>2014-06-22T10:19:59Z</time>
      </trkpt>
      <trkpt lat="43.81421" lon="0.81389">
        <ele>229</ele>
        <time>2014-06-22T10:20:03Z</time>
      </trkpt>
      <trkpt lat="43.81421" lon="0.81382">
        <ele>229</ele>
        <time>2014-06-22T10:20:07Z</time>
      </trkpt>
      <trkpt lat="43.81421" lon="0.81375">
        <ele>229</ele>
        <time>2014-06-22T10:20:11Z</time>
      </trkpt>
      <trkpt lat="43.81421" lon="0.81368">
        <ele>229</ele>
        <time>2014-06-22T10:20:15Z</time>
      </trkpt>
      <trkpt lat="43.81421" lon="0.81362">
        <ele>229</ele>
        <time>2014-06-22T10:20:19Z</time>
      </trkpt>
      <trkpt lat="43.8142" lon="0.81355">
        <ele>229</ele>
        <time>2014-06-22T10:20:23Z</time>
      </trkpt>
      <trkpt lat="43.8142" lon="0.81348">
        <ele>230</ele>
        <time>2014-06-22T10:20:27Z</time>
      </trkpt>
      <trkpt lat="43.8142" lon="0.81341">
        <ele>230</ele>
        <time>2014-06-22T10:20:31Z</time>
      </trkpt>
      <trkpt lat="43.8142" lon="0.81334">
        <ele>230</ele>
        <time>2014-06-22T10:20:35Z</time>
      </trkpt>
      <trkpt lat="43.8142" lon="0.81328">
        <ele>230</ele>
        <time>2014-06-22T10:20:39Z</time>
      </trkpt>
      <trkpt lat="43.81419" lon="0.81321">
        <ele>230</ele>
        <time>2014-06-22T10:20:43Z</time>
      </trkpt>
      <trkpt lat="43.81419" lon="0.81314">
        <ele>230</ele>
        <time>2014-06-22T10:20:47Z</time>
      </trkpt>
      <trkpt lat="43.81419" lon="0.81307">
        <ele>230</ele>
        <time>2014-06-22T10:20:51Z</time>
      </trkpt>
      <trkpt lat="43.81419" lon="0.813">
        <ele>230</ele>
        <time>2014-06-22T10:20:55Z</time>
      </trkpt>
      <trkpt lat="43.81419" lon="0.81294">
        <ele>230</ele>
        <time>2014-06-22T10:20:59Z</time>
      </trkpt>
      <trkpt lat="43.81419" lon="0.81287">
        <ele>230</ele>
        <time>2014-06-22T10:21:03Z</time>
      </trkpt>
      <trkpt lat="43.81419" lon="0.8128">
        <ele>230</ele>
        <time>2014-06-22T10:21:07Z</time>
      </trkpt>
      <trkpt lat="43.81419" lon="0.81274">
        <ele>231</ele>
        <time>2014-06-22T10:21:11Z</time>
      </trkpt>
      <trkpt lat="43.81419" lon="0.81268">
        <ele>231</ele>
        <time>2014-06-22T10:21:15Z</time>
      </trkpt>
      <trkpt lat="43.81419" lon="0.81261">
        <ele>232</ele>
        <time>2014-06-22T10:21:19Z</time>
      </trkpt>
      <trkpt lat="43.81419" lon="0.81254">
        <ele>232</ele>
        <time>2014-06-22T10:21:23Z</time>
      </trkpt>
      <trkpt lat="43.81419" lon="0.81248">
        <ele>232</ele>
        <time>2014-06-22T10:21:27Z</time>
      </trkpt>
      <trkpt lat="43.8142" lon="0.81241">
        <ele>232</ele>
        <time>2014-06-22T10:21:31Z</time>
      </trkpt>
      <trkpt lat="43.8142" lon="0.81235">
        <ele>233</ele>
        <time>2014-06-22T10:21:35Z</time>
      </trkpt>
      <trkpt lat="43.8142" lon="0.81228">
        <ele>233</ele>
        <time>2014-06-22T10:21:39Z</time>
      </trkpt>
      <trkpt lat="43.8142" lon="0.81221">
        <ele>233</ele>
        <time>2014-06-22T10:21:43Z</time>
      </trkpt>
      <trkpt lat="43.8142" lon="0.81214">
        <ele>233</ele>
        <time>2014-06-22T10:21:47Z</time>
      </trkpt>
      <trkpt lat="43.8142" lon="0.81207">
        <ele>233</ele>
        <time>2014-06-22T10:21:51Z</time>
      </trkpt>
      <trkpt lat="43.8142" lon="0.812">
        <ele>233</ele>
        <time>2014-06-22T10:21:55Z</time>
      </trkpt>
      <trkpt lat="43.81421" lon="0.81192">
        <ele>232</ele>
        <time>2014-06-22T10:21:59Z</time>
      </trkpt>
      <trkpt lat="43.81421" lon="0.81185">
        <ele>232</ele>
        <time>2014-06-22T10:22:03Z</time>
      </trkpt>
      <trkpt lat="43.81422" lon="0.81178">
        <ele>232</ele>
        <time>2014-06-22T10:22:07Z</time>
      </trkpt>
      <trkpt lat="43.81422" lon="0.81171">
        <ele>232</ele>
        <time>2014-06-22T10:22:11Z</time>
      </trkpt>
      <trkpt lat="43.81422" lon="0.81165">
        <ele>232</ele>
        <time>2014-06-22T10:22:15Z</time>
      </trkpt>
      <trkpt lat="43.81422" lon="0.81158">
        <ele>232</ele>
        <time>2014-06-22T10:22:19Z</time>
      </trkpt>
      <trkpt lat="43.81423" lon="0.81151">
        <ele>232</ele>
        <time>2014-06-22T10:22:23Z</time>
      </trkpt>
      <trkpt lat="43.81423" lon="0.81144">
        <ele>232</ele>
        <time>2014-06-22T10:22:27Z</time>
      </trkpt>
      <trkpt lat="43.81423" lon="0.81137">
        <ele>232</ele>
        <time>2014-06-22T10:22:31Z</time>
      </trkpt>
      <trkpt lat="43.81423" lon="0.8113">
        <ele>232</ele>
        <time>2014-06-22T10:22:35Z</time>
      </trkpt>
      <trkpt lat="43.81424" lon="0.81124">
        <ele>232</ele>
        <time>2014-06-22T10:22:39Z</time>
      </trkpt>
      <trkpt lat="43.81424" lon="0.81117">
        <ele>232</ele>
        <time>2014-06-22T10:22:43Z</time>
      </trkpt>
      <trkpt lat="43.81424" lon="0.8111">
        <ele>232</ele>
        <time>2014-06-22T10:22:47Z</time>
      </trkpt>
      <trkpt lat="43.81424" lon="0.81103">
        <ele>232</ele>
        <time>2014-06-22T10:22:51Z</time>
      </trkpt>
      <trkpt lat="43.81425" lon="0.81097">
        <ele>232</ele>
        <time>2014-06-22T10:22:55Z</time>
      </trkpt>
      <trkpt lat="43.81425" lon="0.8109">
        <ele>232</ele>
        <time>2014-06-22T10:22:59Z</time>
      </trkpt>
      <trkpt lat="43.81425" lon="0.81083">
        <ele>232</ele>
        <time>2014-06-22T10:23:03Z</time>
      </trkpt>
      <trkpt lat="43.81425" lon="0.81076">
        <ele>232</ele>
        <time>2014-06-22T10:23:07Z</time>
      </trkpt>
      <trkpt lat="43.81425" lon="0.81069">
        <ele>232</ele>
        <time>2014-06-22T10:23:11Z</time>
      </trkpt>
      <trkpt lat="43.81426" lon="0.81062">
        <ele>232</ele>
        <time>2014-06-22T10:23:15Z</time>
      </trkpt>
      <trkpt lat="43.81426" lon="0.81055">
        <ele>231</ele>
        <time>2014-06-22T10:23:19Z</time>
      </trkpt>
      <trkpt lat="43.81426" lon="0.81049">
        <ele>232</ele>
        <time>2014-06-22T10:23:23Z</time>
      </trkpt>
      <trkpt lat="43.81426" lon="0.81042">
        <ele>232</ele>
        <time>2014-06-22T10:23:27Z</time>
      </trkpt>
      <trkpt lat="43.81426" lon="0.81035">
        <ele>232</ele>
        <time>2014-06-22T10:23:31Z</time>
      </trkpt>
      <trkpt lat="43.81427" lon="0.81028">
        <ele>232</ele>
        <time>2014-06-22T10:23:35Z</time>
      </trkpt>
      <trkpt lat="43.81426" lon="0.81021">
        <ele>233</ele>
        <time>2014-06-22T10:23:39Z</time>
      </trkpt>
      <trkpt lat="43.81426" lon="0.81015">
        <ele>233</ele>
        <time>2014-06-22T10:23:43Z</time>
      </trkpt>
      <trkpt lat="43.81426" lon="0.81008">
        <ele>233</ele>
        <time>2014-06-22T10:23:47Z</time>
      </trkpt>
      <trkpt lat="43.81426" lon="0.81002">
        <ele>233</ele>
        <time>2014-06-22T10:23:51Z</time>
      </trkpt>
      <trkpt lat="43.81426" lon="0.80995">
        <ele>233</ele>
        <time>2014-06-22T10:23:55Z</time>
      </trkpt>
      <trkpt lat="43.81422" lon="0.80993">
        <ele>233</ele>
        <time>2014-06-22T10:24:05Z</time>
      </trkpt>
      <trkpt lat="43.81425" lon="0.80989">
        <ele>233</ele>
        <time>2014-06-22T10:24:21Z</time>
      </trkpt>
      <trkpt lat="43.81425" lon="0.80981">
        <ele>233</ele>
        <time>2014-06-22T10:24:25Z</time>
      </trkpt>
      <trkpt lat="43.81425" lon="0.80974">
        <ele>233</ele>
        <time>2014-06-22T10:24:29Z</time>
      </trkpt>
      <trkpt lat="43.81425" lon="0.80967">
        <ele>233</ele>
        <time>2014-06-22T10:24:33Z</time>
      </trkpt>
      <trkpt lat="43.81425" lon="0.8096">
        <ele>233</ele>
        <time>2014-06-22T10:24:37Z</time>
      </trkpt>
      <trkpt lat="43.81425" lon="0.80953">
        <ele>233</ele>
        <time>2014-06-22T10:24:41Z</time>
      </trkpt>
      <trkpt lat="43.81425" lon="0.80946">
        <ele>233</ele>
        <time>2014-06-22T10:24:45Z</time>
      </trkpt>
      <trkpt lat="43.81425" lon="0.80939">
        <ele>233</ele>
        <time>2014-06-22T10:24:49Z</time>
      </trkpt>
      <trkpt lat="43.81426" lon="0.80933">
        <ele>233</ele>
        <time>2014-06-22T10:24:53Z</time>
      </trkpt>
      <trkpt lat="43.81425" lon="0.80926">
        <ele>233</ele>
        <time>2014-06-22T10:24:57Z</time>
      </trkpt>
      <trkpt lat="43.81425" lon="0.80919">
        <ele>233</ele>
        <time>2014-06-22T10:25:01Z</time>
      </trkpt>
      <trkpt lat="43.81425" lon="0.80913">
        <ele>233</ele>
        <time>2014-06-22T10:25:05Z</time>
      </trkpt>
      <trkpt lat="43.81425" lon="0.80906">
        <ele>234</ele>
        <time>2014-06-22T10:25:09Z</time>
      </trkpt>
      <trkpt lat="43.81425" lon="0.80899">
        <ele>234</ele>
        <time>2014-06-22T10:25:13Z</time>
      </trkpt>
      <trkpt lat="43.81424" lon="0.80892">
        <ele>234</ele>
        <time>2014-06-22T10:25:17Z</time>
      </trkpt>
      <trkpt lat="43.81424" lon="0.80886">
        <ele>234</ele>
        <time>2014-06-22T10:25:21Z</time>
      </trkpt>
      <trkpt lat="43.81424" lon="0.80879">
        <ele>234</ele>
        <time>2014-06-22T10:25:25Z</time>
      </trkpt>
      <trkpt lat="43.81424" lon="0.80872">
        <ele>234</ele>
        <time>2014-06-22T10:25:29Z</time>
      </trkpt>
      <trkpt lat="43.81423" lon="0.80865">
        <ele>234</ele>
        <time>2014-06-22T10:25:33Z</time>
      </trkpt>
      <trkpt lat="43.81423" lon="0.80859">
        <ele>234</ele>
        <time>2014-06-22T10:25:37Z</time>
      </trkpt>
      <trkpt lat="43.81423" lon="0.80852">
        <ele>234</ele>
        <time>2014-06-22T10:25:41Z</time>
      </trkpt>
      <trkpt lat="43.81423" lon="0.80846">
        <ele>234</ele>
        <time>2014-06-22T10:25:45Z</time>
      </trkpt>
      <trkpt lat="43.81423" lon="0.8084">
        <ele>234</ele>
        <time>2014-06-22T10:25:49Z</time>
      </trkpt>
      <trkpt lat="43.81422" lon="0.80833">
        <ele>234</ele>
        <time>2014-06-22T10:25:53Z</time>
      </trkpt>
      <trkpt lat="43.81422" lon="0.80826">
        <ele>234</ele>
        <time>2014-06-22T10:25:57Z</time>
      </trkpt>
      <trkpt lat="43.81421" lon="0.80819">
        <ele>234</ele>
        <time>2014-06-22T10:26:01Z</time>
      </trkpt>
      <trkpt lat="43.81421" lon="0.80812">
        <ele>235</ele>
        <time>2014-06-22T10:26:05Z</time>
      </trkpt>
      <trkpt lat="43.81421" lon="0.80805">
        <ele>235</ele>
        <time>2014-06-22T10:26:09Z</time>
      </trkpt>
      <trkpt lat="43.8142" lon="0.80798">
        <ele>235</ele>
        <time>2014-06-22T10:26:13Z</time>
      </trkpt>
      <trkpt lat="43.8142" lon="0.80791">
        <ele>235</ele>
        <time>2014-06-22T10:26:17Z</time>
      </trkpt>
      <trkpt lat="43.8142" lon="0.80784">
        <ele>235</ele>
        <time>2014-06-22T10:26:21Z</time>
      </trkpt>
      <trkpt lat="43.81419" lon="0.80777">
        <ele>235</ele>
        <time>2014-06-22T10:26:25Z</time>
      </trkpt>
      <trkpt lat="43.81418" lon="0.80771">
        <ele>235</ele>
        <time>2014-06-22T10:26:31Z</time>
      </trkpt>
      <trkpt lat="43.81414" lon="0.80767">
        <ele>236</ele>
        <time>2014-06-22T10:26:58Z</time>
      </trkpt>
      <trkpt lat="43.8141" lon="0.80764">
        <ele>237</ele>
        <time>2014-06-22T10:27:02Z</time>
      </trkpt>
      <trkpt lat="43.81405" lon="0.80765">
        <ele>236</ele>
        <time>2014-06-22T10:27:06Z</time>
      </trkpt>
      <trkpt lat="43.814" lon="0.80766">
        <ele>236</ele>
        <time>2014-06-22T10:27:10Z</time>
      </trkpt>
      <trkpt lat="43.81396" lon="0.80767">
        <ele>235</ele>
        <time>2014-06-22T10:27:14Z</time>
      </trkpt>
      <trkpt lat="43.81391" lon="0.80769">
        <ele>235</ele>
        <time>2014-06-22T10:27:18Z</time>
      </trkpt>
      <trkpt lat="43.81386" lon="0.80771">
        <ele>234</ele>
        <time>2014-06-22T10:27:22Z</time>
      </trkpt>
      <trkpt lat="43.81381" lon="0.80772">
        <ele>233</ele>
        <time>2014-06-22T10:27:27Z</time>
      </trkpt>
      <trkpt lat="43.81377" lon="0.80774">
        <ele>233</ele>
        <time>2014-06-22T10:27:41Z</time>
      </trkpt>
      <trkpt lat="43.81372" lon="0.80775">
        <ele>232</ele>
        <time>2014-06-22T10:27:45Z</time>
      </trkpt>
      <trkpt lat="43.81367" lon="0.80777">
        <ele>232</ele>
        <time>2014-06-22T10:27:51Z</time>
      </trkpt>
      <trkpt lat="43.81362" lon="0.80778">
        <ele>231</ele>
        <time>2014-06-22T10:27:56Z</time>
      </trkpt>
      <trkpt lat="43.81357" lon="0.80779">
        <ele>231</ele>
        <time>2014-06-22T10:28:00Z</time>
      </trkpt>
      <trkpt lat="43.81352" lon="0.80781">
        <ele>230</ele>
        <time>2014-06-22T10:28:04Z</time>
      </trkpt>
      <trkpt lat="43.81348" lon="0.80782">
        <ele>230</ele>
        <time>2014-06-22T10:28:08Z</time>
      </trkpt>
      <trkpt lat="43.81343" lon="0.80784">
        <ele>230</ele>
        <time>2014-06-22T10:28:12Z</time>
      </trkpt>
      <trkpt lat="43.81338" lon="0.80786">
        <ele>229</ele>
        <time>2014-06-22T10:28:16Z</time>
      </trkpt>
      <trkpt lat="43.81334" lon="0.80787">
        <ele>229</ele>
        <time>2014-06-22T10:28:20Z</time>
      </trkpt>
      <trkpt lat="43.81329" lon="0.80789">
        <ele>228</ele>
        <time>2014-06-22T10:28:24Z</time>
      </trkpt>
      <trkpt lat="43.81324" lon="0.80791">
        <ele>228</ele>
        <time>2014-06-22T10:28:28Z</time>
      </trkpt>
      <trkpt lat="43.8132" lon="0.80793">
        <ele>227</ele>
        <time>2014-06-22T10:28:32Z</time>
      </trkpt>
      <trkpt lat="43.81315" lon="0.80796">
        <ele>226</ele>
        <time>2014-06-22T10:28:36Z</time>
      </trkpt>
      <trkpt lat="43.8131" lon="0.80798">
        <ele>226</ele>
        <time>2014-06-22T10:28:41Z</time>
      </trkpt>
      <trkpt lat="43.81306" lon="0.808">
        <ele>226</ele>
        <time>2014-06-22T10:28:45Z</time>
      </trkpt>
      <trkpt lat="43.81301" lon="0.80801">
        <ele>225</ele>
        <time>2014-06-22T10:28:49Z</time>
      </trkpt>
      <trkpt lat="43.81296" lon="0.80803">
        <ele>225</ele>
        <time>2014-06-22T10:28:53Z</time>
      </trkpt>
      <trkpt lat="43.81292" lon="0.80805">
        <ele>224</ele>
        <time>2014-06-22T10:28:57Z</time>
      </trkpt>
      <trkpt lat="43.81287" lon="0.80807">
        <ele>224</ele>
        <time>2014-06-22T10:29:01Z</time>
      </trkpt>
      <trkpt lat="43.81282" lon="0.8081">
        <ele>224</ele>
        <time>2014-06-22T10:29:05Z</time>
      </trkpt>
      <trkpt lat="43.81277" lon="0.80811">
        <ele>224</ele>
        <time>2014-06-22T10:29:09Z</time>
      </trkpt>
      <trkpt lat="43.81272" lon="0.80811">
        <ele>223</ele>
        <time>2014-06-22T10:29:13Z</time>
      </trkpt>
      <trkpt lat="43.81268" lon="0.80812">
        <ele>223</ele>
        <time>2014-06-22T10:29:17Z</time>
      </trkpt>
      <trkpt lat="43.81263" lon="0.80812">
        <ele>223</ele>
        <time>2014-06-22T10:29:21Z</time>
      </trkpt>
      <trkpt lat="43.81259" lon="0.80811">
        <ele>223</ele>
        <time>2014-06-22T10:29:25Z</time>
      </trkpt>
      <trkpt lat="43.81254" lon="0.80811">
        <ele>222</ele>
        <time>2014-06-22T10:29:29Z</time>
      </trkpt>
      <trkpt lat="43.81249" lon="0.80811">
        <ele>222</ele>
        <time>2014-06-22T10:29:33Z</time>
      </trkpt>
      <trkpt lat="43.81244" lon="0.8081">
        <ele>222</ele>
        <time>2014-06-22T10:29:37Z</time>
      </trkpt>
      <trkpt lat="43.81239" lon="0.80809">
        <ele>222</ele>
        <time>2014-06-22T10:29:41Z</time>
      </trkpt>
      <trkpt lat="43.81234" lon="0.80809">
        <ele>221</ele>
        <time>2014-06-22T10:29:45Z</time>
      </trkpt>
      <trkpt lat="43.81229" lon="0.80808">
        <ele>221</ele>
        <time>2014-06-22T10:29:49Z</time>
      </trkpt>
      <trkpt lat="43.81224" lon="0.80807">
        <ele>220</ele>
        <time>2014-06-22T10:29:53Z</time>
      </trkpt>
      <trkpt lat="43.8122" lon="0.80806">
        <ele>221</ele>
        <time>2014-06-22T10:29:57Z</time>
      </trkpt>
      <trkpt lat="43.81215" lon="0.80804">
        <ele>221</ele>
        <time>2014-06-22T10:30:01Z</time>
      </trkpt>
      <trkpt lat="43.8121" lon="0.80803">
        <ele>222</ele>
        <time>2014-06-22T10:30:06Z</time>
      </trkpt>
      <trkpt lat="43.81205" lon="0.80802">
        <ele>222</ele>
        <time>2014-06-22T10:30:10Z</time>
      </trkpt>
      <trkpt lat="43.812" lon="0.808">
        <ele>221</ele>
        <time>2014-06-22T10:30:14Z</time>
      </trkpt>
      <trkpt lat="43.81196" lon="0.80799">
        <ele>221</ele>
        <time>2014-06-22T10:30:18Z</time>
      </trkpt>
      <trkpt lat="43.81191" lon="0.80797">
        <ele>221</ele>
        <time>2014-06-22T10:30:22Z</time>
      </trkpt>
      <trkpt lat="43.81187" lon="0.80796">
        <ele>220</ele>
        <time>2014-06-22T10:30:26Z</time>
      </trkpt>
      <trkpt lat="43.81182" lon="0.80796">
        <ele>220</ele>
        <time>2014-06-22T10:30:31Z</time>
      </trkpt>
      <trkpt lat="43.81177" lon="0.80794">
        <ele>220</ele>
        <time>2014-06-22T10:30:40Z</time>
      </trkpt>
      <trkpt lat="43.81172" lon="0.80793">
        <ele>220</ele>
        <time>2014-06-22T10:30:44Z</time>
      </trkpt>
      <trkpt lat="43.81167" lon="0.80792">
        <ele>221</ele>
        <time>2014-06-22T10:30:48Z</time>
      </trkpt>
      <trkpt lat="43.81162" lon="0.80791">
        <ele>220</ele>
        <time>2014-06-22T10:30:52Z</time>
      </trkpt>
      <trkpt lat="43.81158" lon="0.8079">
        <ele>220</ele>
        <time>2014-06-22T10:30:56Z</time>
      </trkpt>
      <trkpt lat="43.81153" lon="0.80789">
        <ele>220</ele>
        <time>2014-06-22T10:31:00Z</time>
      </trkpt>
      <trkpt lat="43.81148" lon="0.80787">
        <ele>220</ele>
        <time>2014-06-22T10:31:04Z</time>
      </trkpt>
      <trkpt lat="43.81144" lon="0.80786">
        <ele>220</ele>
        <time>2014-06-22T10:31:08Z</time>
      </trkpt>
      <trkpt lat="43.81139" lon="0.80784">
        <ele>219</ele>
        <time>2014-06-22T10:31:12Z</time>
      </trkpt>
      <trkpt lat="43.81134" lon="0.80783">
        <ele>218</ele>
        <time>2014-06-22T10:31:16Z</time>
      </trkpt>
      <trkpt lat="43.81129" lon="0.80781">
        <ele>218</ele>
        <time>2014-06-22T10:31:20Z</time>
      </trkpt>
      <trkpt lat="43.81124" lon="0.8078">
        <ele>218</ele>
        <time>2014-06-22T10:31:24Z</time>
      </trkpt>
      <trkpt lat="43.81119" lon="0.80779">
        <ele>218</ele>
        <time>2014-06-22T10:31:28Z</time>
      </trkpt>
      <trkpt lat="43.81114" lon="0.80778">
        <ele>218</ele>
        <time>2014-06-22T10:31:32Z</time>
      </trkpt>
      <trkpt lat="43.81109" lon="0.80777">
        <ele>217</ele>
        <time>2014-06-22T10:31:36Z</time>
      </trkpt>
      <trkpt lat="43.81104" lon="0.80775">
        <ele>217</ele>
        <time>2014-06-22T10:31:40Z</time>
      </trkpt>
      <trkpt lat="43.811" lon="0.80773">
        <ele>217</ele>
        <time>2014-06-22T10:31:44Z</time>
      </trkpt>
      <trkpt lat="43.81095" lon="0.80772">
        <ele>217</ele>
        <time>2014-06-22T10:31:48Z</time>
      </trkpt>
      <trkpt lat="43.8109" lon="0.80771">
        <ele>216</ele>
        <time>2014-06-22T10:31:52Z</time>
      </trkpt>
      <trkpt lat="43.81085" lon="0.8077">
        <ele>216</ele>
        <time>2014-06-22T10:31:56Z</time>
      </trkpt>
      <trkpt lat="43.81081" lon="0.80769">
        <ele>217</ele>
        <time>2014-06-22T10:32:00Z</time>
      </trkpt>
      <trkpt lat="43.81076" lon="0.80768">
        <ele>217</ele>
        <time>2014-06-22T10:32:04Z</time>
      </trkpt>
      <trkpt lat="43.81071" lon="0.80767">
        <ele>217</ele>
        <time>2014-06-22T10:32:08Z</time>
      </trkpt>
      <trkpt lat="43.81066" lon="0.80767">
        <ele>217</ele>
        <time>2014-06-22T10:32:12Z</time>
      </trkpt>
      <trkpt lat="43.81061" lon="0.80767">
        <ele>217</ele>
        <time>2014-06-22T10:32:16Z</time>
      </trkpt>
      <trkpt lat="43.81056" lon="0.80767">
        <ele>216</ele>
        <time>2014-06-22T10:32:46Z</time>
      </trkpt>
      <trkpt lat="43.81051" lon="0.80765">
        <ele>216</ele>
        <time>2014-06-22T10:32:51Z</time>
      </trkpt>
      <trkpt lat="43.81045" lon="0.80765">
        <ele>217</ele>
        <time>2014-06-22T10:32:55Z</time>
      </trkpt>
      <trkpt lat="43.8104" lon="0.80765">
        <ele>217</ele>
        <time>2014-06-22T10:32:59Z</time>
      </trkpt>
      <trkpt lat="43.81036" lon="0.80768">
        <ele>216</ele>
        <time>2014-06-22T10:33:03Z</time>
      </trkpt>
      <trkpt lat="43.81031" lon="0.80769">
        <ele>217</ele>
        <time>2014-06-22T10:33:07Z</time>
      </trkpt>
      <trkpt lat="43.81026" lon="0.80769">
        <ele>216</ele>
        <time>2014-06-22T10:33:11Z</time>
      </trkpt>
      <trkpt lat="43.81021" lon="0.8077">
        <ele>216</ele>
        <time>2014-06-22T10:33:15Z</time>
      </trkpt>
      <trkpt lat="43.81016" lon="0.8077">
        <ele>217</ele>
        <time>2014-06-22T10:33:19Z</time>
      </trkpt>
      <trkpt lat="43.81011" lon="0.8077">
        <ele>217</ele>
        <time>2014-06-22T10:33:23Z</time>
      </trkpt>
      <trkpt lat="43.81006" lon="0.8077">
        <ele>217</ele>
        <time>2014-06-22T10:33:27Z</time>
      </trkpt>
      <trkpt lat="43.81001" lon="0.80771">
        <ele>218</ele>
        <time>2014-06-22T10:33:31Z</time>
      </trkpt>
      <trkpt lat="43.80996" lon="0.80771">
        <ele>218</ele>
        <time>2014-06-22T10:33:35Z</time>
      </trkpt>
      <trkpt lat="43.80991" lon="0.80771">
        <ele>218</ele>
        <time>2014-06-22T10:33:39Z</time>
      </trkpt>
      <trkpt lat="43.80987" lon="0.80772">
        <ele>218</ele>
        <time>2014-06-22T10:33:43Z</time>
      </trkpt>
      <trkpt lat="43.80981" lon="0.80772">
        <ele>218</ele>
        <time>2014-06-22T10:33:47Z</time>
      </trkpt>
      <trkpt lat="43.80977" lon="0.80773">
        <ele>218</ele>
        <time>2014-06-22T10:33:51Z</time>
      </trkpt>
      <trkpt lat="43.80972" lon="0.80773">
        <ele>218</ele>
        <time>2014-06-22T10:33:55Z</time>
      </trkpt>
      <trkpt lat="43.80967" lon="0.80773">
        <ele>219</ele>
        <time>2014-06-22T10:33:59Z</time>
      </trkpt>
      <trkpt lat="43.80962" lon="0.80774">
        <ele>219</ele>
        <time>2014-06-22T10:34:03Z</time>
      </trkpt>
      <trkpt lat="43.80957" lon="0.80774">
        <ele>219</ele>
        <time>2014-06-22T10:34:07Z</time>
      </trkpt>
      <trkpt lat="43.80951" lon="0.80775">
        <ele>219</ele>
        <time>2014-06-22T10:34:17Z</time>
      </trkpt>
      <trkpt lat="43.80945" lon="0.80775">
        <ele>219</ele>
        <time>2014-06-22T10:34:22Z</time>
      </trkpt>
      <trkpt lat="43.8094" lon="0.80775">
        <ele>219</ele>
        <time>2014-06-22T10:34:26Z</time>
      </trkpt>
      <trkpt lat="43.80935" lon="0.80776">
        <ele>220</ele>
        <time>2014-06-22T10:34:30Z</time>
      </trkpt>
      <trkpt lat="43.8093" lon="0.80776">
        <ele>220</ele>
        <time>2014-06-22T10:34:34Z</time>
      </trkpt>
      <trkpt lat="43.80925" lon="0.80776">
        <ele>220</ele>
        <time>2014-06-22T10:34:38Z</time>
      </trkpt>
      <trkpt lat="43.8092" lon="0.80776">
        <ele>221</ele>
        <time>2014-06-22T10:34:42Z</time>
      </trkpt>
      <trkpt lat="43.80915" lon="0.80777">
        <ele>221</ele>
        <time>2014-06-22T10:34:46Z</time>
      </trkpt>
      <trkpt lat="43.8091" lon="0.80778">
        <ele>222</ele>
        <time>2014-06-22T10:34:50Z</time>
      </trkpt>
      <trkpt lat="43.80906" lon="0.80778">
        <ele>222</ele>
        <time>2014-06-22T10:34:54Z</time>
      </trkpt>
      <trkpt lat="43.80901" lon="0.80778">
        <ele>222</ele>
        <time>2014-06-22T10:34:58Z</time>
      </trkpt>
      <trkpt lat="43.80896" lon="0.80777">
        <ele>222</ele>
        <time>2014-06-22T10:35:04Z</time>
      </trkpt>
      <trkpt lat="43.80891" lon="0.80774">
        <ele>223</ele>
        <time>2014-06-22T10:35:10Z</time>
      </trkpt>
      <trkpt lat="43.80885" lon="0.80775">
        <ele>223</ele>
        <time>2014-06-22T10:35:26Z</time>
      </trkpt>
      <trkpt lat="43.80881" lon="0.80776">
        <ele>222</ele>
        <time>2014-06-22T10:35:30Z</time>
      </trkpt>
      <trkpt lat="43.80876" lon="0.80778">
        <ele>222</ele>
        <time>2014-06-22T10:35:34Z</time>
      </trkpt>
      <trkpt lat="43.80871" lon="0.80778">
        <ele>221</ele>
        <time>2014-06-22T10:35:39Z</time>
      </trkpt>
      <trkpt lat="43.80866" lon="0.80777">
        <ele>221</ele>
        <time>2014-06-22T10:35:44Z</time>
      </trkpt>
      <trkpt lat="43.8086" lon="0.80777">
        <ele>220</ele>
        <time>2014-06-22T10:35:49Z</time>
      </trkpt>
      <trkpt lat="43.80856" lon="0.80777">
        <ele>220</ele>
        <time>2014-06-22T10:35:53Z</time>
      </trkpt>
      <trkpt lat="43.80851" lon="0.80777">
        <ele>220</ele>
        <time>2014-06-22T10:35:57Z</time>
      </trkpt>
      <trkpt lat="43.80846" lon="0.80777">
        <ele>220</ele>
        <time>2014-06-22T10:36:01Z</time>
      </trkpt>
      <trkpt lat="43.80842" lon="0.80776">
        <ele>219</ele>
        <time>2014-06-22T10:36:05Z</time>
      </trkpt>
      <trkpt lat="43.80836" lon="0.80777">
        <ele>219</ele>
        <time>2014-06-22T10:36:10Z</time>
      </trkpt>
      <trkpt lat="43.80831" lon="0.80776">
        <ele>219</ele>
        <time>2014-06-22T10:36:15Z</time>
      </trkpt>
      <trkpt lat="43.80826" lon="0.80776">
        <ele>218</ele>
        <time>2014-06-22T10:36:19Z</time>
      </trkpt>
      <trkpt lat="43.80821" lon="0.80776">
        <ele>218</ele>
        <time>2014-06-22T10:36:23Z</time>
      </trkpt>
      <trkpt lat="43.80817" lon="0.80776">
        <ele>217</ele>
        <time>2014-06-22T10:36:27Z</time>
      </trkpt>
      <trkpt lat="43.80812" lon="0.80777">
        <ele>217</ele>
        <time>2014-06-22T10:36:31Z</time>
      </trkpt>
      <trkpt lat="43.80807" lon="0.80776">
        <ele>217</ele>
        <time>2014-06-22T10:36:35Z</time>
      </trkpt>
      <trkpt lat="43.80803" lon="0.80776">
        <ele>216</ele>
        <time>2014-06-22T10:36:39Z</time>
      </trkpt>
      <trkpt lat="43.80798" lon="0.80777">
        <ele>216</ele>
        <time>2014-06-22T10:36:59Z</time>
      </trkpt>
      <trkpt lat="43.80792" lon="0.80776">
        <ele>216</ele>
        <time>2014-06-22T10:37:04Z</time>
      </trkpt>
      <trkpt lat="43.80787" lon="0.80776">
        <ele>216</ele>
        <time>2014-06-22T10:37:09Z</time>
      </trkpt>
      <trkpt lat="43.80782" lon="0.80776">
        <ele>216</ele>
        <time>2014-06-22T10:37:13Z</time>
      </trkpt>
      <trkpt lat="43.80777" lon="0.80776">
        <ele>216</ele>
        <time>2014-06-22T10:37:17Z</time>
      </trkpt>
      <trkpt lat="43.80773" lon="0.80776">
        <ele>216</ele>
        <time>2014-06-22T10:37:21Z</time>
      </trkpt>
      <trkpt lat="43.80768" lon="0.80776">
        <ele>216</ele>
        <time>2014-06-22T10:37:25Z</time>
      </trkpt>
      <trkpt lat="43.80763" lon="0.80776">
        <ele>216</ele>
        <time>2014-06-22T10:37:29Z</time>
      </trkpt>
      <trkpt lat="43.80758" lon="0.80776">
        <ele>216</ele>
        <time>2014-06-22T10:37:33Z</time>
      </trkpt>
      <trkpt lat="43.80753" lon="0.80776">
        <ele>216</ele>
        <time>2014-06-22T10:37:37Z</time>
      </trkpt>
      <trkpt lat="43.80748" lon="0.80776">
        <ele>216</ele>
        <time>2014-06-22T10:37:41Z</time>
      </trkpt>
      <trkpt lat="43.80744" lon="0.80776">
        <ele>216</ele>
        <time>2014-06-22T10:37:45Z</time>
      </trkpt>
      <trkpt lat="43.80739" lon="0.80776">
        <ele>216</ele>
        <time>2014-06-22T10:37:49Z</time>
      </trkpt>
      <trkpt lat="43.80734" lon="0.80776">
        <ele>216</ele>
        <time>2014-06-22T10:37:53Z</time>
      </trkpt>
      <trkpt lat="43.80729" lon="0.80776">
        <ele>217</ele>
        <time>2014-06-22T10:37:57Z</time>
      </trkpt>
      <trkpt lat="43.80724" lon="0.80776">
        <ele>216</ele>
        <time>2014-06-22T10:38:01Z</time>
      </trkpt>
      <trkpt lat="43.80719" lon="0.80776">
        <ele>217</ele>
        <time>2014-06-22T10:38:05Z</time>
      </trkpt>
      <trkpt lat="43.80714" lon="0.80777">
        <ele>217</ele>
        <time>2014-06-22T10:38:09Z</time>
      </trkpt>
      <trkpt lat="43.8071" lon="0.80777">
        <ele>217</ele>
        <time>2014-06-22T10:38:13Z</time>
      </trkpt>
      <trkpt lat="43.80705" lon="0.80777">
        <ele>217</ele>
        <time>2014-06-22T10:38:17Z</time>
      </trkpt>
      <trkpt lat="43.807" lon="0.80777">
        <ele>217</ele>
        <time>2014-06-22T10:38:21Z</time>
      </trkpt>
      <trkpt lat="43.80695" lon="0.80777">
        <ele>217</ele>
        <time>2014-06-22T10:38:25Z</time>
      </trkpt>
      <trkpt lat="43.80691" lon="0.80776">
        <ele>218</ele>
        <time>2014-06-22T10:38:29Z</time>
      </trkpt>
      <trkpt lat="43.80686" lon="0.80776">
        <ele>218</ele>
        <time>2014-06-22T10:38:33Z</time>
      </trkpt>
      <trkpt lat="43.80681" lon="0.80777">
        <ele>218</ele>
        <time>2014-06-22T10:38:37Z</time>
      </trkpt>
      <trkpt lat="43.80676" lon="0.80776">
        <ele>218</ele>
        <time>2014-06-22T10:38:41Z</time>
      </trkpt>
      <trkpt lat="43.80671" lon="0.80776">
        <ele>219</ele>
        <time>2014-06-22T10:38:45Z</time>
      </trkpt>
      <trkpt lat="43.80666" lon="0.80776">
        <ele>219</ele>
        <time>2014-06-22T10:38:49Z</time>
      </trkpt>
      <trkpt lat="43.80662" lon="0.80776">
        <ele>220</ele>
        <time>2014-06-22T10:38:53Z</time>
      </trkpt>
      <trkpt lat="43.80657" lon="0.80776">
        <ele>220</ele>
        <time>2014-06-22T10:38:57Z</time>
      </trkpt>
      <trkpt lat="43.80653" lon="0.80776">
        <ele>220</ele>
        <time>2014-06-22T10:39:01Z</time>
      </trkpt>
      <trkpt lat="43.80648" lon="0.80776">
        <ele>221</ele>
        <time>2014-06-22T10:39:05Z</time>
      </trkpt>
      <trkpt lat="43.80643" lon="0.80776">
        <ele>221</ele>
        <time>2014-06-22T10:39:09Z</time>
      </trkpt>
      <trkpt lat="43.80639" lon="0.80776">
        <ele>222</ele>
        <time>2014-06-22T10:39:13Z</time>
      </trkpt>
      <trkpt lat="43.80634" lon="0.80776">
        <ele>222</ele>
        <time>2014-06-22T10:39:17Z</time>
      </trkpt>
      <trkpt lat="43.80629" lon="0.80775">
        <ele>223</ele>
        <time>2014-06-22T10:39:21Z</time>
      </trkpt>
      <trkpt lat="43.80625" lon="0.80776">
        <ele>223</ele>
        <time>2014-06-22T10:39:25Z</time>
      </trkpt>
      <trkpt lat="43.8062" lon="0.80777">
        <ele>224</ele>
        <time>2014-06-22T10:39:29Z</time>
      </trkpt>
      <trkpt lat="43.80616" lon="0.80778">
        <ele>224</ele>
        <time>2014-06-22T10:39:33Z</time>
      </trkpt>
      <trkpt lat="43.80611" lon="0.80779">
        <ele>224</ele>
        <time>2014-06-22T10:39:37Z</time>
      </trkpt>
      <trkpt lat="43.80607" lon="0.80781">
        <ele>225</ele>
        <time>2014-06-22T10:39:41Z</time>
      </trkpt>
      <trkpt lat="43.80602" lon="0.80783">
        <ele>225</ele>
        <time>2014-06-22T10:39:45Z</time>
      </trkpt>
      <trkpt lat="43.80598" lon="0.80785">
        <ele>224</ele>
        <time>2014-06-22T10:39:49Z</time>
      </trkpt>
      <trkpt lat="43.80593" lon="0.80788">
        <ele>224</ele>
        <time>2014-06-22T10:39:53Z</time>
      </trkpt>
      <trkpt lat="43.80588" lon="0.8079">
        <ele>224</ele>
        <time>2014-06-22T10:39:57Z</time>
      </trkpt>
      <trkpt lat="43.80583" lon="0.80789">
        <ele>224</ele>
        <time>2014-06-22T10:40:01Z</time>
      </trkpt>
      <trkpt lat="43.80579" lon="0.80783">
        <ele>224</ele>
        <time>2014-06-22T10:40:09Z</time>
      </trkpt>
      <trkpt lat="43.80576" lon="0.80778">
        <ele>225</ele>
        <time>2014-06-22T10:40:13Z</time>
      </trkpt>
      <trkpt lat="43.80572" lon="0.80774">
        <ele>224</ele>
        <time>2014-06-22T10:40:17Z</time>
      </trkpt>
      <trkpt lat="43.80569" lon="0.80769">
        <ele>225</ele>
        <time>2014-06-22T10:40:28Z</time>
      </trkpt>
      <trkpt lat="43.80565" lon="0.80763">
        <ele>224</ele>
        <time>2014-06-22T10:40:32Z</time>
      </trkpt>
      <trkpt lat="43.80561" lon="0.80758">
        <ele>225</ele>
        <time>2014-06-22T10:40:36Z</time>
      </trkpt>
      <trkpt lat="43.80558" lon="0.80754">
        <ele>224</ele>
        <time>2014-06-22T10:40:40Z</time>
      </trkpt>
      <trkpt lat="43.80554" lon="0.80748">
        <ele>224</ele>
        <time>2014-06-22T10:40:45Z</time>
      </trkpt>
      <trkpt lat="43.80551" lon="0.80744">
        <ele>223</ele>
        <time>2014-06-22T10:40:49Z</time>
      </trkpt>
      <trkpt lat="43.80547" lon="0.80739">
        <ele>223</ele>
        <time>2014-06-22T10:40:53Z</time>
      </trkpt>
      <trkpt lat="43.80544" lon="0.80735">
        <ele>223</ele>
        <time>2014-06-22T10:40:57Z</time>
      </trkpt>
      <trkpt lat="43.8054" lon="0.8073">
        <ele>223</ele>
        <time>2014-06-22T10:41:01Z</time>
      </trkpt>
      <trkpt lat="43.80536" lon="0.80726">
        <ele>223</ele>
        <time>2014-06-22T10:41:05Z</time>
      </trkpt>
      <trkpt lat="43.80533" lon="0.80721">
        <ele>223</ele>
        <time>2014-06-22T10:41:09Z</time>
      </trkpt>
      <trkpt lat="43.80529" lon="0.80716">
        <ele>222</ele>
        <time>2014-06-22T10:41:13Z</time>
      </trkpt>
      <trkpt lat="43.80526" lon="0.80711">
        <ele>222</ele>
        <time>2014-06-22T10:41:17Z</time>
      </trkpt>
      <trkpt lat="43.80522" lon="0.80706">
        <ele>222</ele>
        <time>2014-06-22T10:41:21Z</time>
      </trkpt>
      <trkpt lat="43.80519" lon="0.80702">
        <ele>221</ele>
        <time>2014-06-22T10:41:25Z</time>
      </trkpt>
      <trkpt lat="43.80515" lon="0.80698">
        <ele>222</ele>
        <time>2014-06-22T10:41:29Z</time>
      </trkpt>
      <trkpt lat="43.80511" lon="0.80694">
        <ele>222</ele>
        <time>2014-06-22T10:41:33Z</time>
      </trkpt>
      <trkpt lat="43.80508" lon="0.80689">
        <ele>222</ele>
        <time>2014-06-22T10:41:37Z</time>
      </trkpt>
      <trkpt lat="43.80504" lon="0.80685">
        <ele>222</ele>
        <time>2014-06-22T10:41:41Z</time>
      </trkpt>
      <trkpt lat="43.80501" lon="0.80681">
        <ele>222</ele>
        <time>2014-06-22T10:41:45Z</time>
      </trkpt>
      <trkpt lat="43.80497" lon="0.80676">
        <ele>222</ele>
        <time>2014-06-22T10:41:49Z</time>
      </trkpt>
      <trkpt lat="43.80493" lon="0.80672">
        <ele>222</ele>
        <time>2014-06-22T10:41:53Z</time>
      </trkpt>
      <trkpt lat="43.80489" lon="0.80667">
        <ele>221</ele>
        <time>2014-06-22T10:41:57Z</time>
      </trkpt>
      <trkpt lat="43.80486" lon="0.80662">
        <ele>221</ele>
        <time>2014-06-22T10:42:01Z</time>
      </trkpt>
      <trkpt lat="43.80482" lon="0.80658">
        <ele>222</ele>
        <time>2014-06-22T10:42:05Z</time>
      </trkpt>
      <trkpt lat="43.80478" lon="0.80652">
        <ele>222</ele>
        <time>2014-06-22T10:42:09Z</time>
      </trkpt>
      <trkpt lat="43.80475" lon="0.80647">
        <ele>222</ele>
        <time>2014-06-22T10:42:13Z</time>
      </trkpt>
      <trkpt lat="43.80471" lon="0.80642">
        <ele>222</ele>
        <time>2014-06-22T10:42:17Z</time>
      </trkpt>
      <trkpt lat="43.80467" lon="0.80637">
        <ele>222</ele>
        <time>2014-06-22T10:42:21Z</time>
      </trkpt>
      <trkpt lat="43.80463" lon="0.80632">
        <ele>222</ele>
        <time>2014-06-22T10:42:26Z</time>
      </trkpt>
      <trkpt lat="43.8046" lon="0.80627">
        <ele>222</ele>
        <time>2014-06-22T10:42:30Z</time>
      </trkpt>
      <trkpt lat="43.80456" lon="0.80621">
        <ele>221</ele>
        <time>2014-06-22T10:42:35Z</time>
      </trkpt>
      <trkpt lat="43.80453" lon="0.80617">
        <ele>220</ele>
        <time>2014-06-22T10:42:39Z</time>
      </trkpt>
      <trkpt lat="43.80449" lon="0.80612">
        <ele>221</ele>
        <time>2014-06-22T10:42:43Z</time>
      </trkpt>
      <trkpt lat="43.80445" lon="0.80608">
        <ele>220</ele>
        <time>2014-06-22T10:42:47Z</time>
      </trkpt>
      <trkpt lat="43.80442" lon="0.80603">
        <ele>220</ele>
        <time>2014-06-22T10:42:51Z</time>
      </trkpt>
      <trkpt lat="43.80438" lon="0.80599">
        <ele>221</ele>
        <time>2014-06-22T10:42:55Z</time>
      </trkpt>
      <trkpt lat="43.80433" lon="0.80596">
        <ele>221</ele>
        <time>2014-06-22T10:42:59Z</time>
      </trkpt>
      <trkpt lat="43.80428" lon="0.80595">
        <ele>220</ele>
        <time>2014-06-22T10:43:03Z</time>
      </trkpt>
      <trkpt lat="43.80423" lon="0.80596">
        <ele>220</ele>
        <time>2014-06-22T10:43:08Z</time>
      </trkpt>
      <trkpt lat="43.80417" lon="0.80597">
        <ele>220</ele>
        <time>2014-06-22T10:43:14Z</time>
      </trkpt>
      <trkpt lat="43.80413" lon="0.80598">
        <ele>219</ele>
        <time>2014-06-22T10:43:19Z</time>
      </trkpt>
      <trkpt lat="43.80407" lon="0.80598">
        <ele>218</ele>
        <time>2014-06-22T10:43:24Z</time>
      </trkpt>
      <trkpt lat="43.80402" lon="0.80599">
        <ele>218</ele>
        <time>2014-06-22T10:43:29Z</time>
      </trkpt>
      <trkpt lat="43.80397" lon="0.80599">
        <ele>217</ele>
        <time>2014-06-22T10:43:34Z</time>
      </trkpt>
      <trkpt lat="43.80392" lon="0.80598">
        <ele>217</ele>
        <time>2014-06-22T10:44:25Z</time>
      </trkpt>
      <trkpt lat="43.80387" lon="0.80598">
        <ele>217</ele>
        <time>2014-06-22T10:44:30Z</time>
      </trkpt>
      <trkpt lat="43.80382" lon="0.806">
        <ele>216</ele>
        <time>2014-06-22T10:44:35Z</time>
      </trkpt>
      <trkpt lat="43.80378" lon="0.80601">
        <ele>217</ele>
        <time>2014-06-22T10:44:52Z</time>
      </trkpt>
      <trkpt lat="43.80373" lon="0.80601">
        <ele>217</ele>
        <time>2014-06-22T10:44:59Z</time>
      </trkpt>
      <trkpt lat="43.80368" lon="0.80603">
        <ele>217</ele>
        <time>2014-06-22T10:45:03Z</time>
      </trkpt>
      <trkpt lat="43.80364" lon="0.80603">
        <ele>216</ele>
        <time>2014-06-22T10:45:07Z</time>
      </trkpt>
      <trkpt lat="43.80358" lon="0.80604">
        <ele>215</ele>
        <time>2014-06-22T10:45:12Z</time>
      </trkpt>
      <trkpt lat="43.80354" lon="0.80605">
        <ele>215</ele>
        <time>2014-06-22T10:45:16Z</time>
      </trkpt>
      <trkpt lat="43.80349" lon="0.80606">
        <ele>214</ele>
        <time>2014-06-22T10:45:20Z</time>
      </trkpt>
      <trkpt lat="43.80344" lon="0.80607">
        <ele>214</ele>
        <time>2014-06-22T10:45:24Z</time>
      </trkpt>
      <trkpt lat="43.80339" lon="0.80609">
        <ele>214</ele>
        <time>2014-06-22T10:45:28Z</time>
      </trkpt>
      <trkpt lat="43.80334" lon="0.8061">
        <ele>213</ele>
        <time>2014-06-22T10:45:32Z</time>
      </trkpt>
      <trkpt lat="43.80329" lon="0.80611">
        <ele>213</ele>
        <time>2014-06-22T10:45:36Z</time>
      </trkpt>
      <trkpt lat="43.80325" lon="0.80612">
        <ele>213</ele>
        <time>2014-06-22T10:45:40Z</time>
      </trkpt>
      <trkpt lat="43.8032" lon="0.80613">
        <ele>213</ele>
        <time>2014-06-22T10:45:44Z</time>
      </trkpt>
      <trkpt lat="43.80315" lon="0.80613">
        <ele>213</ele>
        <time>2014-06-22T10:45:48Z</time>
      </trkpt>
      <trkpt lat="43.80311" lon="0.80612">
        <ele>213</ele>
        <time>2014-06-22T10:45:52Z</time>
      </trkpt>
      <trkpt lat="43.80306" lon="0.80611">
        <ele>213</ele>
        <time>2014-06-22T10:45:56Z</time>
      </trkpt>
      <trkpt lat="43.80301" lon="0.80611">
        <ele>211</ele>
        <time>2014-06-22T10:46:07Z</time>
      </trkpt>
      <trkpt lat="43.80296" lon="0.80611">
        <ele>212</ele>
        <time>2014-06-22T10:46:13Z</time>
      </trkpt>
      <trkpt lat="43.80291" lon="0.8061">
        <ele>213</ele>
        <time>2014-06-22T10:46:18Z</time>
      </trkpt>
      <trkpt lat="43.80286" lon="0.8061">
        <ele>213</ele>
        <time>2014-06-22T10:46:22Z</time>
      </trkpt>
      <trkpt lat="43.80281" lon="0.8061">
        <ele>212</ele>
        <time>2014-06-22T10:46:26Z</time>
      </trkpt>
      <trkpt lat="43.80276" lon="0.80612">
        <ele>212</ele>
        <time>2014-06-22T10:46:30Z</time>
      </trkpt>
      <trkpt lat="43.80271" lon="0.80614">
        <ele>212</ele>
        <time>2014-06-22T10:46:34Z</time>
      </trkpt>
      <trkpt lat="43.80266" lon="0.80617">
        <ele>211</ele>
        <time>2014-06-22T10:47:05Z</time>
      </trkpt>
      <trkpt lat="43.80261" lon="0.8062">
        <ele>210</ele>
        <time>2014-06-22T10:47:10Z</time>
      </trkpt>
      <trkpt lat="43.80257" lon="0.80622">
        <ele>210</ele>
        <time>2014-06-22T10:47:21Z</time>
      </trkpt>
      <trkpt lat="43.80252" lon="0.80624">
        <ele>207</ele>
        <time>2014-06-22T10:47:37Z</time>
      </trkpt>
      <trkpt lat="43.80246" lon="0.80623">
        <ele>205</ele>
        <time>2014-06-22T10:47:42Z</time>
      </trkpt>
      <trkpt lat="43.80242" lon="0.80621">
        <ele>204</ele>
        <time>2014-06-22T10:47:46Z</time>
      </trkpt>
      <trkpt lat="43.80238" lon="0.80618">
        <ele>202</ele>
        <time>2014-06-22T10:47:50Z</time>
      </trkpt>
      <trkpt lat="43.80233" lon="0.80615">
        <ele>203</ele>
        <time>2014-06-22T10:47:55Z</time>
      </trkpt>
      <trkpt lat="43.80229" lon="0.8061">
        <ele>202</ele>
        <time>2014-06-22T10:48:00Z</time>
      </trkpt>
      <trkpt lat="43.80225" lon="0.80606">
        <ele>201</ele>
        <time>2014-06-22T10:48:04Z</time>
      </trkpt>
      <trkpt lat="43.80221" lon="0.80601">
        <ele>201</ele>
        <time>2014-06-22T10:48:09Z</time>
      </trkpt>
      <trkpt lat="43.80217" lon="0.80598">
        <ele>203</ele>
        <time>2014-06-22T10:48:14Z</time>
      </trkpt>
      <trkpt lat="43.80212" lon="0.80597">
        <ele>203</ele>
        <time>2014-06-22T10:48:19Z</time>
      </trkpt>
      <trkpt lat="43.80208" lon="0.80593">
        <ele>204</ele>
        <time>2014-06-22T10:48:26Z</time>
      </trkpt>
      <trkpt lat="43.80204" lon="0.80589">
        <ele>206</ele>
        <time>2014-06-22T10:48:32Z</time>
      </trkpt>
      <trkpt lat="43.80199" lon="0.80587">
        <ele>205</ele>
        <time>2014-06-22T10:48:38Z</time>
      </trkpt>
      <trkpt lat="43.80195" lon="0.80586">
        <ele>206</ele>
        <time>2014-06-22T10:48:43Z</time>
      </trkpt>
      <trkpt lat="43.80189" lon="0.80585">
        <ele>204</ele>
        <time>2014-06-22T10:48:48Z</time>
      </trkpt>
      <trkpt lat="43.80183" lon="0.80583">
        <ele>202</ele>
        <time>2014-06-22T10:48:52Z</time>
      </trkpt>
      <trkpt lat="43.80179" lon="0.80581">
        <ele>200</ele>
        <time>2014-06-22T10:48:55Z</time>
      </trkpt>
      <trkpt lat="43.80174" lon="0.80579">
        <ele>198</ele>
        <time>2014-06-22T10:48:59Z</time>
      </trkpt>
      <trkpt lat="43.8017" lon="0.80575">
        <ele>197</ele>
        <time>2014-06-22T10:49:03Z</time>
      </trkpt>
      <trkpt lat="43.80166" lon="0.80569">
        <ele>195</ele>
        <time>2014-06-22T10:49:07Z</time>
      </trkpt>
      <trkpt lat="43.80161" lon="0.80566">
        <ele>193</ele>
        <time>2014-06-22T10:49:11Z</time>
      </trkpt>
      <trkpt lat="43.80156" lon="0.80563">
        <ele>196</ele>
        <time>2014-06-22T10:49:15Z</time>
      </trkpt>
      <trkpt lat="43.80151" lon="0.80559">
        <ele>194</ele>
        <time>2014-06-22T10:49:19Z</time>
      </trkpt>
      <trkpt lat="43.80146" lon="0.80558">
        <ele>193</ele>
        <time>2014-06-22T10:49:23Z</time>
      </trkpt>
      <trkpt lat="43.80142" lon="0.80556">
        <ele>193</ele>
        <time>2014-06-22T10:49:27Z</time>
      </trkpt>
      <trkpt lat="43.80137" lon="0.80553">
        <ele>194</ele>
        <time>2014-06-22T10:49:32Z</time>
      </trkpt>
      <trkpt lat="43.80133" lon="0.80556">
        <ele>196</ele>
        <time>2014-06-22T10:50:24Z</time>
      </trkpt>
      <trkpt lat="43.80128" lon="0.80555">
        <ele>196</ele>
        <time>2014-06-22T10:50:34Z</time>
      </trkpt>
      <trkpt lat="43.80124" lon="0.80551">
        <ele>194</ele>
        <time>2014-06-22T10:50:40Z</time>
      </trkpt>
      <trkpt lat="43.8012" lon="0.80547">
        <ele>192</ele>
        <time>2014-06-22T10:50:45Z</time>
      </trkpt>
      <trkpt lat="43.80115" lon="0.80545">
        <ele>191</ele>
        <time>2014-06-22T10:50:50Z</time>
      </trkpt>
      <trkpt lat="43.8011" lon="0.80544">
        <ele>192</ele>
        <time>2014-06-22T10:50:54Z</time>
      </trkpt>
      <trkpt lat="43.80104" lon="0.80543">
        <ele>192</ele>
        <time>2014-06-22T10:50:59Z</time>
      </trkpt>
      <trkpt lat="43.80099" lon="0.80541">
        <ele>191</ele>
        <time>2014-06-22T10:51:03Z</time>
      </trkpt>
      <trkpt lat="43.80094" lon="0.80539">
        <ele>192</ele>
        <time>2014-06-22T10:51:07Z</time>
      </trkpt>
      <trkpt lat="43.80089" lon="0.80538">
        <ele>191</ele>
        <time>2014-06-22T10:51:11Z</time>
      </trkpt>
      <trkpt lat="43.80085" lon="0.80537">
        <ele>191</ele>
        <time>2014-06-22T10:51:15Z</time>
      </trkpt>
      <trkpt lat="43.8008" lon="0.80537">
        <ele>191</ele>
        <time>2014-06-22T10:51:19Z</time>
      </trkpt>
      <trkpt lat="43.80074" lon="0.80537">
        <ele>192</ele>
        <time>2014-06-22T10:51:24Z</time>
      </trkpt>
      <trkpt lat="43.80069" lon="0.80536">
        <ele>192</ele>
        <time>2014-06-22T10:51:29Z</time>
      </trkpt>
      <trkpt lat="43.80065" lon="0.80533">
        <ele>193</ele>
        <time>2014-06-22T10:51:33Z</time>
      </trkpt>
      <trkpt lat="43.80061" lon="0.80528">
        <ele>193</ele>
        <time>2014-06-22T10:51:38Z</time>
      </trkpt>
      <trkpt lat="43.80056" lon="0.80526">
        <ele>195</ele>
        <time>2014-06-22T10:51:46Z</time>
      </trkpt>
      <trkpt lat="43.80051" lon="0.80525">
        <ele>197</ele>
        <time>2014-06-22T10:51:53Z</time>
      </trkpt>
      <trkpt lat="43.80046" lon="0.80522">
        <ele>197</ele>
        <time>2014-06-22T10:51:58Z</time>
      </trkpt>
      <trkpt lat="43.80041" lon="0.80521">
        <ele>199</ele>
        <time>2014-06-22T10:52:03Z</time>
      </trkpt>
      <trkpt lat="43.80036" lon="0.80521">
        <ele>202</ele>
        <time>2014-06-22T10:52:09Z</time>
      </trkpt>
      <trkpt lat="43.80032" lon="0.80518">
        <ele>202</ele>
        <time>2014-06-22T10:52:17Z</time>
      </trkpt>
      <trkpt lat="43.80027" lon="0.80514">
        <ele>201</ele>
        <time>2014-06-22T10:52:24Z</time>
      </trkpt>
      <trkpt lat="43.80023" lon="0.80512">
        <ele>203</ele>
        <time>2014-06-22T10:52:29Z</time>
      </trkpt>
      <trkpt lat="43.80018" lon="0.8051">
        <ele>204</ele>
        <time>2014-06-22T10:52:33Z</time>
      </trkpt>
      <trkpt lat="43.80013" lon="0.80511">
        <ele>205</ele>
        <time>2014-06-22T10:52:37Z</time>
      </trkpt>
      <trkpt lat="43.80008" lon="0.80511">
        <ele>206</ele>
        <time>2014-06-22T10:52:41Z</time>
      </trkpt>
      <trkpt lat="43.80004" lon="0.80509">
        <ele>205</ele>
        <time>2014-06-22T10:52:45Z</time>
      </trkpt>
      <trkpt lat="43.8" lon="0.80507">
        <ele>207</ele>
        <time>2014-06-22T10:52:49Z</time>
      </trkpt>
      <trkpt lat="43.79996" lon="0.80502">
        <ele>205</ele>
        <time>2014-06-22T10:52:54Z</time>
      </trkpt>
      <trkpt lat="43.79992" lon="0.80499">
        <ele>202</ele>
        <time>2014-06-22T10:52:59Z</time>
      </trkpt>
      <trkpt lat="43.79987" lon="0.80497">
        <ele>204</ele>
        <time>2014-06-22T10:53:04Z</time>
      </trkpt>
      <trkpt lat="43.79983" lon="0.80499">
        <ele>207</ele>
        <time>2014-06-22T10:53:10Z</time>
      </trkpt>
      <trkpt lat="43.79979" lon="0.80503">
        <ele>205</ele>
        <time>2014-06-22T10:53:14Z</time>
      </trkpt>
      <trkpt lat="43.79975" lon="0.80509">
        <ele>204</ele>
        <time>2014-06-22T10:53:18Z</time>
      </trkpt>
      <trkpt lat="43.79972" lon="0.80515">
        <ele>203</ele>
        <time>2014-06-22T10:53:22Z</time>
      </trkpt>
      <trkpt lat="43.79969" lon="0.80521">
        <ele>201</ele>
        <time>2014-06-22T10:53:27Z</time>
      </trkpt>
      <trkpt lat="43.79965" lon="0.80525">
        <ele>201</ele>
        <time>2014-06-22T10:53:31Z</time>
      </trkpt>
      <trkpt lat="43.79961" lon="0.80528">
        <ele>200</ele>
        <time>2014-06-22T10:53:35Z</time>
      </trkpt>
      <trkpt lat="43.79956" lon="0.80527">
        <ele>200</ele>
        <time>2014-06-22T10:53:39Z</time>
      </trkpt>
      <trkpt lat="43.79952" lon="0.80524">
        <ele>199</ele>
        <time>2014-06-22T10:53:43Z</time>
      </trkpt>
      <trkpt lat="43.79949" lon="0.80521">
        <ele>198</ele>
        <time>2014-06-22T10:53:47Z</time>
      </trkpt>
      <trkpt lat="43.79944" lon="0.80516">
        <ele>197</ele>
        <time>2014-06-22T10:53:56Z</time>
      </trkpt>
      <trkpt lat="43.79941" lon="0.80512">
        <ele>196</ele>
        <time>2014-06-22T10:54:01Z</time>
      </trkpt>
      <trkpt lat="43.79936" lon="0.80508">
        <ele>195</ele>
        <time>2014-06-22T10:54:06Z</time>
      </trkpt>
      <trkpt lat="43.79933" lon="0.80504">
        <ele>194</ele>
        <time>2014-06-22T10:54:20Z</time>
      </trkpt>
      <trkpt lat="43.79929" lon="0.805">
        <ele>193</ele>
        <time>2014-06-22T10:54:25Z</time>
      </trkpt>
      <trkpt lat="43.79926" lon="0.80495">
        <ele>192</ele>
        <time>2014-06-22T10:54:30Z</time>
      </trkpt>
      <trkpt lat="43.79921" lon="0.8049">
        <ele>190</ele>
        <time>2014-06-22T10:54:35Z</time>
      </trkpt>
      <trkpt lat="43.79917" lon="0.80487">
        <ele>189</ele>
        <time>2014-06-22T10:54:40Z</time>
      </trkpt>
      <trkpt lat="43.79912" lon="0.80483">
        <ele>188</ele>
        <time>2014-06-22T10:54:45Z</time>
      </trkpt>
      <trkpt lat="43.79908" lon="0.80478">
        <ele>187</ele>
        <time>2014-06-22T10:54:50Z</time>
      </trkpt>
      <trkpt lat="43.79904" lon="0.80473">
        <ele>186</ele>
        <time>2014-06-22T10:54:55Z</time>
      </trkpt>
      <trkpt lat="43.799" lon="0.8047">
        <ele>186</ele>
        <time>2014-06-22T10:54:59Z</time>
      </trkpt>
      <trkpt lat="43.79897" lon="0.80466">
        <ele>185</ele>
        <time>2014-06-22T10:55:03Z</time>
      </trkpt>
      <trkpt lat="43.79893" lon="0.80462">
        <ele>184</ele>
        <time>2014-06-22T10:55:07Z</time>
      </trkpt>
      <trkpt lat="43.79889" lon="0.80457">
        <ele>184</ele>
        <time>2014-06-22T10:55:12Z</time>
      </trkpt>
      <trkpt lat="43.79885" lon="0.80453">
        <ele>184</ele>
        <time>2014-06-22T10:55:17Z</time>
      </trkpt>
      <trkpt lat="43.79881" lon="0.80448">
        <ele>184</ele>
        <time>2014-06-22T10:55:22Z</time>
      </trkpt>
      <trkpt lat="43.79877" lon="0.80444">
        <ele>183</ele>
        <time>2014-06-22T10:55:26Z</time>
      </trkpt>
      <trkpt lat="43.79873" lon="0.80441">
        <ele>182</ele>
        <time>2014-06-22T10:55:30Z</time>
      </trkpt>
      <trkpt lat="43.79869" lon="0.80437">
        <ele>182</ele>
        <time>2014-06-22T10:55:34Z</time>
      </trkpt>
      <trkpt lat="43.79866" lon="0.80433">
        <ele>182</ele>
        <time>2014-06-22T10:55:38Z</time>
      </trkpt>
      <trkpt lat="43.79862" lon="0.8043">
        <ele>181</ele>
        <time>2014-06-22T10:55:42Z</time>
      </trkpt>
      <trkpt lat="43.79858" lon="0.80425">
        <ele>180</ele>
        <time>2014-06-22T10:55:47Z</time>
      </trkpt>
      <trkpt lat="43.79854" lon="0.80421">
        <ele>180</ele>
        <time>2014-06-22T10:55:51Z</time>
      </trkpt>
      <trkpt lat="43.7985" lon="0.80418">
        <ele>180</ele>
        <time>2014-06-22T10:55:55Z</time>
      </trkpt>
      <trkpt lat="43.79846" lon="0.80413">
        <ele>179</ele>
        <time>2014-06-22T10:56:00Z</time>
      </trkpt>
      <trkpt lat="43.79842" lon="0.80408">
        <ele>178</ele>
        <time>2014-06-22T10:56:05Z</time>
      </trkpt>
      <trkpt lat="43.79838" lon="0.80403">
        <ele>178</ele>
        <time>2014-06-22T10:56:09Z</time>
      </trkpt>
      <trkpt lat="43.79834" lon="0.80399">
        <ele>177</ele>
        <time>2014-06-22T10:56:13Z</time>
      </trkpt>
      <trkpt lat="43.79831" lon="0.80394">
        <ele>178</ele>
        <time>2014-06-22T10:56:17Z</time>
      </trkpt>
      <trkpt lat="43.79827" lon="0.8039">
        <ele>178</ele>
        <time>2014-06-22T10:56:21Z</time>
      </trkpt>
      <trkpt lat="43.79823" lon="0.80386">
        <ele>178</ele>
        <time>2014-06-22T10:56:25Z</time>
      </trkpt>
      <trkpt lat="43.79819" lon="0.80382">
        <ele>178</ele>
        <time>2014-06-22T10:56:29Z</time>
      </trkpt>
      <trkpt lat="43.79815" lon="0.80378">
        <ele>178</ele>
        <time>2014-06-22T10:56:33Z</time>
      </trkpt>
      <trkpt lat="43.79811" lon="0.80374">
        <ele>178</ele>
        <time>2014-06-22T10:56:37Z</time>
      </trkpt>
      <trkpt lat="43.79807" lon="0.8037">
        <ele>178</ele>
        <time>2014-06-22T10:56:41Z</time>
      </trkpt>
      <trkpt lat="43.79804" lon="0.80366">
        <ele>179</ele>
        <time>2014-06-22T10:56:45Z</time>
      </trkpt>
      <trkpt lat="43.798" lon="0.80362">
        <ele>179</ele>
        <time>2014-06-22T10:56:49Z</time>
      </trkpt>
      <trkpt lat="43.79796" lon="0.80358">
        <ele>179</ele>
        <time>2014-06-22T10:56:53Z</time>
      </trkpt>
      <trkpt lat="43.79792" lon="0.80355">
        <ele>179</ele>
        <time>2014-06-22T10:56:57Z</time>
      </trkpt>
      <trkpt lat="43.79787" lon="0.80352">
        <ele>180</ele>
        <time>2014-06-22T10:57:01Z</time>
      </trkpt>
      <trkpt lat="43.79782" lon="0.80349">
        <ele>179</ele>
        <time>2014-06-22T10:57:06Z</time>
      </trkpt>
      <trkpt lat="43.79779" lon="0.80345">
        <ele>179</ele>
        <time>2014-06-22T10:57:11Z</time>
      </trkpt>
      <trkpt lat="43.79775" lon="0.8034">
        <ele>178</ele>
        <time>2014-06-22T10:57:16Z</time>
      </trkpt>
      <trkpt lat="43.79771" lon="0.80334">
        <ele>179</ele>
        <time>2014-06-22T10:57:21Z</time>
      </trkpt>
      <trkpt lat="43.79768" lon="0.80329">
        <ele>179</ele>
        <time>2014-06-22T10:57:26Z</time>
      </trkpt>
      <trkpt lat="43.79766" lon="0.80322">
        <ele>178</ele>
        <time>2014-06-22T10:57:56Z</time>
      </trkpt>
      <trkpt lat="43.79764" lon="0.80316">
        <ele>179</ele>
        <time>2014-06-22T10:58:00Z</time>
      </trkpt>
      <trkpt lat="43.79762" lon="0.80309">
        <ele>179</ele>
        <time>2014-06-22T10:58:05Z</time>
      </trkpt>
      <trkpt lat="43.79762" lon="0.80301">
        <ele>179</ele>
        <time>2014-06-22T10:58:10Z</time>
      </trkpt>
      <trkpt lat="43.79761" lon="0.80295">
        <ele>179</ele>
        <time>2014-06-22T10:58:14Z</time>
      </trkpt>
      <trkpt lat="43.79761" lon="0.80288">
        <ele>178</ele>
        <time>2014-06-22T10:58:18Z</time>
      </trkpt>
      <trkpt lat="43.79759" lon="0.80282">
        <ele>179</ele>
        <time>2014-06-22T10:58:22Z</time>
      </trkpt>
      <trkpt lat="43.79756" lon="0.80276">
        <ele>179</ele>
        <time>2014-06-22T10:58:26Z</time>
      </trkpt>
      <trkpt lat="43.79755" lon="0.80269">
        <ele>181</ele>
        <time>2014-06-22T10:58:31Z</time>
      </trkpt>
      <trkpt lat="43.79754" lon="0.80262">
        <ele>185</ele>
        <time>2014-06-22T10:59:17Z</time>
      </trkpt>
      <trkpt lat="43.79753" lon="0.80255">
        <ele>186</ele>
        <time>2014-06-22T10:59:21Z</time>
      </trkpt>
      <trkpt lat="43.79751" lon="0.80248">
        <ele>189</ele>
        <time>2014-06-22T10:59:25Z</time>
      </trkpt>
      <trkpt lat="43.79749" lon="0.80242">
        <ele>190</ele>
        <time>2014-06-22T10:59:29Z</time>
      </trkpt>
      <trkpt lat="43.79746" lon="0.80236">
        <ele>190</ele>
        <time>2014-06-22T10:59:33Z</time>
      </trkpt>
      <trkpt lat="43.79745" lon="0.80229">
        <ele>190</ele>
        <time>2014-06-22T10:59:37Z</time>
      </trkpt>
      <trkpt lat="43.79742" lon="0.80222">
        <ele>191</ele>
        <time>2014-06-22T10:59:41Z</time>
      </trkpt>
      <trkpt lat="43.7974" lon="0.80216">
        <ele>191</ele>
        <time>2014-06-22T10:59:45Z</time>
      </trkpt>
      <trkpt lat="43.79738" lon="0.8021">
        <ele>192</ele>
        <time>2014-06-22T10:59:49Z</time>
      </trkpt>
      <trkpt lat="43.79737" lon="0.80203">
        <ele>189</ele>
        <time>2014-06-22T10:59:54Z</time>
      </trkpt>
      <trkpt lat="43.79736" lon="0.80195">
        <ele>189</ele>
        <time>2014-06-22T11:00:06Z</time>
      </trkpt>
      <trkpt lat="43.79735" lon="0.80189">
        <ele>189</ele>
        <time>2014-06-22T11:00:10Z</time>
      </trkpt>
      <trkpt lat="43.79733" lon="0.80182">
        <ele>189</ele>
        <time>2014-06-22T11:00:14Z</time>
      </trkpt>
      <trkpt lat="43.7973" lon="0.80177">
        <ele>188</ele>
        <time>2014-06-22T11:00:18Z</time>
      </trkpt>
      <trkpt lat="43.79728" lon="0.8017">
        <ele>186</ele>
        <time>2014-06-22T11:00:22Z</time>
      </trkpt>
      <trkpt lat="43.79727" lon="0.80163">
        <ele>184</ele>
        <time>2014-06-22T11:00:26Z</time>
      </trkpt>
      <trkpt lat="43.79725" lon="0.80157">
        <ele>183</ele>
        <time>2014-06-22T11:00:30Z</time>
      </trkpt>
      <trkpt lat="43.79724" lon="0.8015">
        <ele>180</ele>
        <time>2014-06-22T11:02:10Z</time>
      </trkpt>
      <trkpt lat="43.79722" lon="0.80144">
        <ele>180</ele>
        <time>2014-06-22T11:02:14Z</time>
      </trkpt>
      <trkpt lat="43.79718" lon="0.80139">
        <ele>177</ele>
        <time>2014-06-22T11:02:19Z</time>
      </trkpt>
      <trkpt lat="43.79715" lon="0.80133">
        <ele>176</ele>
        <time>2014-06-22T11:02:24Z</time>
      </trkpt>
      <trkpt lat="43.79711" lon="0.80129">
        <ele>176</ele>
        <time>2014-06-22T11:02:28Z</time>
      </trkpt>
      <trkpt lat="43.79708" lon="0.80125">
        <ele>176</ele>
        <time>2014-06-22T11:02:32Z</time>
      </trkpt>
      <trkpt lat="43.79704" lon="0.8012">
        <ele>176</ele>
        <time>2014-06-22T11:02:36Z</time>
      </trkpt>
      <trkpt lat="43.79701" lon="0.80115">
        <ele>176</ele>
        <time>2014-06-22T11:02:40Z</time>
      </trkpt>
      <trkpt lat="43.79698" lon="0.80109">
        <ele>176</ele>
        <time>2014-06-22T11:02:44Z</time>
      </trkpt>
      <trkpt lat="43.79695" lon="0.80104">
        <ele>176</ele>
        <time>2014-06-22T11:02:48Z</time>
      </trkpt>
      <trkpt lat="43.79692" lon="0.80099">
        <ele>176</ele>
        <time>2014-06-22T11:02:52Z</time>
      </trkpt>
      <trkpt lat="43.79688" lon="0.80094">
        <ele>176</ele>
        <time>2014-06-22T11:02:56Z</time>
      </trkpt>
      <trkpt lat="43.79685" lon="0.80089">
        <ele>176</ele>
        <time>2014-06-22T11:03:00Z</time>
      </trkpt>
      <trkpt lat="43.79682" lon="0.80084">
        <ele>176</ele>
        <time>2014-06-22T11:03:04Z</time>
      </trkpt>
      <trkpt lat="43.79678" lon="0.80079">
        <ele>176</ele>
        <time>2014-06-22T11:03:08Z</time>
      </trkpt>
      <trkpt lat="43.79676" lon="0.80073">
        <ele>177</ele>
        <time>2014-06-22T11:03:12Z</time>
      </trkpt>
      <trkpt lat="43.79673" lon="0.80068">
        <ele>177</ele>
        <time>2014-06-22T11:03:16Z</time>
      </trkpt>
      <trkpt lat="43.7967" lon="0.80063">
        <ele>178</ele>
        <time>2014-06-22T11:03:20Z</time>
      </trkpt>
      <trkpt lat="43.79667" lon="0.80058">
        <ele>178</ele>
        <time>2014-06-22T11:03:24Z</time>
      </trkpt>
      <trkpt lat="43.79663" lon="0.80053">
        <ele>178</ele>
        <time>2014-06-22T11:03:28Z</time>
      </trkpt>
      <trkpt lat="43.79661" lon="0.80048">
        <ele>178</ele>
        <time>2014-06-22T11:03:32Z</time>
      </trkpt>
      <trkpt lat="43.79658" lon="0.80043">
        <ele>179</ele>
        <time>2014-06-22T11:03:36Z</time>
      </trkpt>
      <trkpt lat="43.79655" lon="0.80038">
        <ele>180</ele>
        <time>2014-06-22T11:03:40Z</time>
      </trkpt>
      <trkpt lat="43.79652" lon="0.80033">
        <ele>181</ele>
        <time>2014-06-22T11:03:44Z</time>
      </trkpt>
      <trkpt lat="43.79648" lon="0.80028">
        <ele>181</ele>
        <time>2014-06-22T11:03:48Z</time>
      </trkpt>
      <trkpt lat="43.79645" lon="0.80022">
        <ele>181</ele>
        <time>2014-06-22T11:03:52Z</time>
      </trkpt>
      <trkpt lat="43.79642" lon="0.80017">
        <ele>181</ele>
        <time>2014-06-22T11:03:56Z</time>
      </trkpt>
      <trkpt lat="43.79638" lon="0.80012">
        <ele>181</ele>
        <time>2014-06-22T11:04:00Z</time>
      </trkpt>
      <trkpt lat="43.79635" lon="0.80007">
        <ele>181</ele>
        <time>2014-06-22T11:04:04Z</time>
      </trkpt>
      <trkpt lat="43.79633" lon="0.80001">
        <ele>182</ele>
        <time>2014-06-22T11:04:08Z</time>
      </trkpt>
      <trkpt lat="43.79629" lon="0.79996">
        <ele>181</ele>
        <time>2014-06-22T11:04:12Z</time>
      </trkpt>
      <trkpt lat="43.79626" lon="0.79991">
        <ele>181</ele>
        <time>2014-06-22T11:04:16Z</time>
      </trkpt>
      <trkpt lat="43.79622" lon="0.79985">
        <ele>181</ele>
        <time>2014-06-22T11:04:20Z</time>
      </trkpt>
      <trkpt lat="43.7962" lon="0.79979">
        <ele>181</ele>
        <time>2014-06-22T11:04:24Z</time>
      </trkpt>
      <trkpt lat="43.79617" lon="0.79975">
        <ele>181</ele>
        <time>2014-06-22T11:04:28Z</time>
      </trkpt>
      <trkpt lat="43.79614" lon="0.79969">
        <ele>182</ele>
        <time>2014-06-22T11:04:32Z</time>
      </trkpt>
      <trkpt lat="43.79611" lon="0.79964">
        <ele>182</ele>
        <time>2014-06-22T11:04:36Z</time>
      </trkpt>
      <trkpt lat="43.79607" lon="0.79959">
        <ele>179</ele>
        <time>2014-06-22T11:05:07Z</time>
      </trkpt>
      <trkpt lat="43.79605" lon="0.79952">
        <ele>179</ele>
        <time>2014-06-22T11:05:11Z</time>
      </trkpt>
      <trkpt lat="43.79603" lon="0.79946">
        <ele>180</ele>
        <time>2014-06-22T11:05:15Z</time>
      </trkpt>
      <trkpt lat="43.796" lon="0.79939">
        <ele>179</ele>
        <time>2014-06-22T11:05:19Z</time>
      </trkpt>
      <trkpt lat="43.79598" lon="0.79933">
        <ele>179</ele>
        <time>2014-06-22T11:05:23Z</time>
      </trkpt>
      <trkpt lat="43.79596" lon="0.79926">
        <ele>179</ele>
        <time>2014-06-22T11:05:27Z</time>
      </trkpt>
      <trkpt lat="43.79594" lon="0.7992">
        <ele>179</ele>
        <time>2014-06-22T11:05:31Z</time>
      </trkpt>
      <trkpt lat="43.79592" lon="0.79914">
        <ele>179</ele>
        <time>2014-06-22T11:05:35Z</time>
      </trkpt>
      <trkpt lat="43.79591" lon="0.79907">
        <ele>179</ele>
        <time>2014-06-22T11:05:39Z</time>
      </trkpt>
      <trkpt lat="43.79589" lon="0.799">
        <ele>179</ele>
        <time>2014-06-22T11:05:43Z</time>
      </trkpt>
      <trkpt lat="43.79588" lon="0.79894">
        <ele>179</ele>
        <time>2014-06-22T11:05:47Z</time>
      </trkpt>
      <trkpt lat="43.79587" lon="0.79887">
        <ele>179</ele>
        <time>2014-06-22T11:05:51Z</time>
      </trkpt>
      <trkpt lat="43.79585" lon="0.7988">
        <ele>179</ele>
        <time>2014-06-22T11:05:55Z</time>
      </trkpt>
      <trkpt lat="43.79584" lon="0.79874">
        <ele>179</ele>
        <time>2014-06-22T11:05:59Z</time>
      </trkpt>
      <trkpt lat="43.79583" lon="0.79867">
        <ele>179</ele>
        <time>2014-06-22T11:06:03Z</time>
      </trkpt>
      <trkpt lat="43.79582" lon="0.7986">
        <ele>179</ele>
        <time>2014-06-22T11:06:07Z</time>
      </trkpt>
      <trkpt lat="43.7958" lon="0.79853">
        <ele>179</ele>
        <time>2014-06-22T11:06:11Z</time>
      </trkpt>
      <trkpt lat="43.79579" lon="0.79847">
        <ele>179</ele>
        <time>2014-06-22T11:06:15Z</time>
      </trkpt>
      <trkpt lat="43.79577" lon="0.7984">
        <ele>179</ele>
        <time>2014-06-22T11:06:19Z</time>
      </trkpt>
      <trkpt lat="43.79575" lon="0.79834">
        <ele>178</ele>
        <time>2014-06-22T11:06:23Z</time>
      </trkpt>
      <trkpt lat="43.79573" lon="0.79828">
        <ele>178</ele>
        <time>2014-06-22T11:06:27Z</time>
      </trkpt>
      <trkpt lat="43.79571" lon="0.79822">
        <ele>178</ele>
        <time>2014-06-22T11:06:31Z</time>
      </trkpt>
      <trkpt lat="43.79568" lon="0.79816">
        <ele>178</ele>
        <time>2014-06-22T11:06:35Z</time>
      </trkpt>
      <trkpt lat="43.79565" lon="0.79811">
        <ele>179</ele>
        <time>2014-06-22T11:06:39Z</time>
      </trkpt>
      <trkpt lat="43.79562" lon="0.79805">
        <ele>178</ele>
        <time>2014-06-22T11:06:43Z</time>
      </trkpt>
      <trkpt lat="43.79558" lon="0.798">
        <ele>178</ele>
        <time>2014-06-22T11:06:47Z</time>
      </trkpt>
      <trkpt lat="43.79555" lon="0.79796">
        <ele>178</ele>
        <time>2014-06-22T11:06:51Z</time>
      </trkpt>
      <trkpt lat="43.7955" lon="0.79791">
        <ele>178</ele>
        <time>2014-06-22T11:06:55Z</time>
      </trkpt>
      <trkpt lat="43.79546" lon="0.79787">
        <ele>177</ele>
        <time>2014-06-22T11:06:59Z</time>
      </trkpt>
      <trkpt lat="43.79542" lon="0.79782">
        <ele>177</ele>
        <time>2014-06-22T11:07:03Z</time>
      </trkpt>
      <trkpt lat="43.79538" lon="0.79778">
        <ele>177</ele>
        <time>2014-06-22T11:07:07Z</time>
      </trkpt>
      <trkpt lat="43.79534" lon="0.79773">
        <ele>177</ele>
        <time>2014-06-22T11:07:11Z</time>
      </trkpt>
      <trkpt lat="43.7953" lon="0.79768">
        <ele>177</ele>
        <time>2014-06-22T11:07:15Z</time>
      </trkpt>
      <trkpt lat="43.79526" lon="0.79764">
        <ele>177</ele>
        <time>2014-06-22T11:07:19Z</time>
      </trkpt>
      <trkpt lat="43.79523" lon="0.79759">
        <ele>177</ele>
        <time>2014-06-22T11:07:23Z</time>
      </trkpt>
      <trkpt lat="43.7952" lon="0.79753">
        <ele>177</ele>
        <time>2014-06-22T11:07:27Z</time>
      </trkpt>
      <trkpt lat="43.79516" lon="0.79748">
        <ele>177</ele>
        <time>2014-06-22T11:07:31Z</time>
      </trkpt>
      <trkpt lat="43.79514" lon="0.79741">
        <ele>177</ele>
        <time>2014-06-22T11:07:35Z</time>
      </trkpt>
      <trkpt lat="43.79512" lon="0.79734">
        <ele>177</ele>
        <time>2014-06-22T11:07:39Z</time>
      </trkpt>
      <trkpt lat="43.79511" lon="0.79727">
        <ele>177</ele>
        <time>2014-06-22T11:07:43Z</time>
      </trkpt>
      <trkpt lat="43.7951" lon="0.79721">
        <ele>177</ele>
        <time>2014-06-22T11:07:47Z</time>
      </trkpt>
      <trkpt lat="43.79509" lon="0.79714">
        <ele>177</ele>
        <time>2014-06-22T11:07:51Z</time>
      </trkpt>
      <trkpt lat="43.79508" lon="0.79707">
        <ele>177</ele>
        <time>2014-06-22T11:07:55Z</time>
      </trkpt>
      <trkpt lat="43.79507" lon="0.79701">
        <ele>178</ele>
        <time>2014-06-22T11:07:59Z</time>
      </trkpt>
      <trkpt lat="43.79506" lon="0.79694">
        <ele>178</ele>
        <time>2014-06-22T11:08:03Z</time>
      </trkpt>
      <trkpt lat="43.79504" lon="0.79688">
        <ele>178</ele>
        <time>2014-06-22T11:08:07Z</time>
      </trkpt>
      <trkpt lat="43.79503" lon="0.79681">
        <ele>178</ele>
        <time>2014-06-22T11:08:11Z</time>
      </trkpt>
      <trkpt lat="43.79502" lon="0.79674">
        <ele>178</ele>
        <time>2014-06-22T11:08:15Z</time>
      </trkpt>
      <trkpt lat="43.795" lon="0.79667">
        <ele>178</ele>
        <time>2014-06-22T11:08:19Z</time>
      </trkpt>
      <trkpt lat="43.795" lon="0.7966">
        <ele>178</ele>
        <time>2014-06-22T11:08:23Z</time>
      </trkpt>
      <trkpt lat="43.79499" lon="0.79654">
        <ele>178</ele>
        <time>2014-06-22T11:08:27Z</time>
      </trkpt>
      <trkpt lat="43.79498" lon="0.79647">
        <ele>178</ele>
        <time>2014-06-22T11:08:31Z</time>
      </trkpt>
      <trkpt lat="43.79496" lon="0.7964">
        <ele>178</ele>
        <time>2014-06-22T11:08:35Z</time>
      </trkpt>
      <trkpt lat="43.79495" lon="0.79633">
        <ele>178</ele>
        <time>2014-06-22T11:08:39Z</time>
      </trkpt>
      <trkpt lat="43.79493" lon="0.79627">
        <ele>178</ele>
        <time>2014-06-22T11:08:51Z</time>
      </trkpt>
      <trkpt lat="43.79489" lon="0.79624">
        <ele>178</ele>
        <time>2014-06-22T11:08:56Z</time>
      </trkpt>
      <trkpt lat="43.79484" lon="0.79625">
        <ele>178</ele>
        <time>2014-06-22T11:09:00Z</time>
      </trkpt>
      <trkpt lat="43.79479" lon="0.79624">
        <ele>178</ele>
        <time>2014-06-22T11:09:04Z</time>
      </trkpt>
      <trkpt lat="43.79475" lon="0.79625">
        <ele>178</ele>
        <time>2014-06-22T11:09:08Z</time>
      </trkpt>
      <trkpt lat="43.7947" lon="0.79625">
        <ele>177</ele>
        <time>2014-06-22T11:09:12Z</time>
      </trkpt>
      <trkpt lat="43.79465" lon="0.79625">
        <ele>177</ele>
        <time>2014-06-22T11:09:16Z</time>
      </trkpt>
      <trkpt lat="43.7946" lon="0.79624">
        <ele>178</ele>
        <time>2014-06-22T11:09:20Z</time>
      </trkpt>
      <trkpt lat="43.79455" lon="0.79624">
        <ele>178</ele>
        <time>2014-06-22T11:09:24Z</time>
      </trkpt>
      <trkpt lat="43.7945" lon="0.79623">
        <ele>177</ele>
        <time>2014-06-22T11:09:28Z</time>
      </trkpt>
      <trkpt lat="43.79446" lon="0.79622">
        <ele>177</ele>
        <time>2014-06-22T11:09:32Z</time>
      </trkpt>
      <trkpt lat="43.79441" lon="0.79621">
        <ele>177</ele>
        <time>2014-06-22T11:09:36Z</time>
      </trkpt>
      <trkpt lat="43.79436" lon="0.7962">
        <ele>177</ele>
        <time>2014-06-22T11:09:40Z</time>
      </trkpt>
      <trkpt lat="43.79432" lon="0.79619">
        <ele>177</ele>
        <time>2014-06-22T11:09:44Z</time>
      </trkpt>
      <trkpt lat="43.79427" lon="0.79619">
        <ele>178</ele>
        <time>2014-06-22T11:09:48Z</time>
      </trkpt>
      <trkpt lat="43.79422" lon="0.79619">
        <ele>177</ele>
        <time>2014-06-22T11:10:01Z</time>
      </trkpt>
      <trkpt lat="43.79417" lon="0.79618">
        <ele>178</ele>
        <time>2014-06-22T11:10:06Z</time>
      </trkpt>
      <trkpt lat="43.79412" lon="0.79617">
        <ele>179</ele>
        <time>2014-06-22T11:10:11Z</time>
      </trkpt>
      <trkpt lat="43.79407" lon="0.79616">
        <ele>179</ele>
        <time>2014-06-22T11:10:16Z</time>
      </trkpt>
      <trkpt lat="43.79402" lon="0.79615">
        <ele>179</ele>
        <time>2014-06-22T11:10:21Z</time>
      </trkpt>
      <trkpt lat="43.79397" lon="0.79614">
        <ele>181</ele>
        <time>2014-06-22T11:10:27Z</time>
      </trkpt>
      <trkpt lat="43.79393" lon="0.79611">
        <ele>184</ele>
        <time>2014-06-22T11:10:33Z</time>
      </trkpt>
      <trkpt lat="43.79389" lon="0.79607">
        <ele>186</ele>
        <time>2014-06-22T11:10:38Z</time>
      </trkpt>
      <trkpt lat="43.79386" lon="0.79601">
        <ele>188</ele>
        <time>2014-06-22T11:10:43Z</time>
      </trkpt>
      <trkpt lat="43.79383" lon="0.79595">
        <ele>189</ele>
        <time>2014-06-22T11:10:48Z</time>
      </trkpt>
      <trkpt lat="43.7938" lon="0.7959">
        <ele>192</ele>
        <time>2014-06-22T11:10:57Z</time>
      </trkpt>
      <trkpt lat="43.79375" lon="0.79587">
        <ele>193</ele>
        <time>2014-06-22T11:11:02Z</time>
      </trkpt>
      <trkpt lat="43.79371" lon="0.79584">
        <ele>194</ele>
        <time>2014-06-22T11:11:06Z</time>
      </trkpt>
      <trkpt lat="43.79367" lon="0.79581">
        <ele>195</ele>
        <time>2014-06-22T11:11:10Z</time>
      </trkpt>
      <trkpt lat="43.79363" lon="0.79577">
        <ele>196</ele>
        <time>2014-06-22T11:11:14Z</time>
      </trkpt>
      <trkpt lat="43.79359" lon="0.79574">
        <ele>196</ele>
        <time>2014-06-22T11:11:18Z</time>
      </trkpt>
      <trkpt lat="43.79356" lon="0.79569">
        <ele>197</ele>
        <time>2014-06-22T11:11:22Z</time>
      </trkpt>
      <trkpt lat="43.79352" lon="0.79566">
        <ele>198</ele>
        <time>2014-06-22T11:11:26Z</time>
      </trkpt>
      <trkpt lat="43.79348" lon="0.79563">
        <ele>198</ele>
        <time>2014-06-22T11:11:30Z</time>
      </trkpt>
      <trkpt lat="43.79343" lon="0.79559">
        <ele>198</ele>
        <time>2014-06-22T11:11:35Z</time>
      </trkpt>
      <trkpt lat="43.79339" lon="0.79555">
        <ele>199</ele>
        <time>2014-06-22T11:11:40Z</time>
      </trkpt>
      <trkpt lat="43.79334" lon="0.79551">
        <ele>200</ele>
        <time>2014-06-22T11:11:45Z</time>
      </trkpt>
      <trkpt lat="43.79331" lon="0.79547">
        <ele>201</ele>
        <time>2014-06-22T11:11:50Z</time>
      </trkpt>
      <trkpt lat="43.79326" lon="0.79545">
        <ele>201</ele>
        <time>2014-06-22T11:11:55Z</time>
      </trkpt>
      <trkpt lat="43.79321" lon="0.79541">
        <ele>202</ele>
        <time>2014-06-22T11:12:00Z</time>
      </trkpt>
      <trkpt lat="43.79317" lon="0.79538">
        <ele>201</ele>
        <time>2014-06-22T11:12:04Z</time>
      </trkpt>
      <trkpt lat="43.79314" lon="0.79534">
        <ele>201</ele>
        <time>2014-06-22T11:12:08Z</time>
      </trkpt>
      <trkpt lat="43.79308" lon="0.79532">
        <ele>201</ele>
        <time>2014-06-22T11:12:13Z</time>
      </trkpt>
      <trkpt lat="43.79304" lon="0.79528">
        <ele>201</ele>
        <time>2014-06-22T11:12:18Z</time>
      </trkpt>
      <trkpt lat="43.79299" lon="0.79525">
        <ele>201</ele>
        <time>2014-06-22T11:12:23Z</time>
      </trkpt>
      <trkpt lat="43.79295" lon="0.79521">
        <ele>201</ele>
        <time>2014-06-22T11:12:28Z</time>
      </trkpt>
      <trkpt lat="43.79291" lon="0.79517">
        <ele>201</ele>
        <time>2014-06-22T11:12:33Z</time>
      </trkpt>
      <trkpt lat="43.79287" lon="0.79513">
        <ele>201</ele>
        <time>2014-06-22T11:12:38Z</time>
      </trkpt>
      <trkpt lat="43.79283" lon="0.79509">
        <ele>202</ele>
        <time>2014-06-22T11:12:43Z</time>
      </trkpt>
      <trkpt lat="43.79279" lon="0.79505">
        <ele>203</ele>
        <time>2014-06-22T11:12:48Z</time>
      </trkpt>
      <trkpt lat="43.79275" lon="0.795">
        <ele>205</ele>
        <time>2014-06-22T11:12:53Z</time>
      </trkpt>
      <trkpt lat="43.79271" lon="0.79496">
        <ele>205</ele>
        <time>2014-06-22T11:12:57Z</time>
      </trkpt>
      <trkpt lat="43.79268" lon="0.79491">
        <ele>204</ele>
        <time>2014-06-22T11:13:02Z</time>
      </trkpt>
      <trkpt lat="43.79264" lon="0.79488">
        <ele>203</ele>
        <time>2014-06-22T11:13:08Z</time>
      </trkpt>
      <trkpt lat="43.79259" lon="0.79488">
        <ele>202</ele>
        <time>2014-06-22T11:13:31Z</time>
      </trkpt>
      <trkpt lat="43.79264" lon="0.79486">
        <ele>201</ele>
        <time>2014-06-22T11:13:45Z</time>
      </trkpt>
      <trkpt lat="43.79262" lon="0.79487">
        <ele>196</ele>
        <time>2014-06-22T11:16:57Z</time>
      </trkpt>
      <trkpt lat="43.79258" lon="0.79482">
        <ele>204</ele>
        <time>2014-06-22T12:02:56Z</time>
      </trkpt>
      <trkpt lat="43.79254" lon="0.79478">
        <ele>205</ele>
        <time>2014-06-22T12:03:02Z</time>
      </trkpt>
      <trkpt lat="43.7925" lon="0.79474">
        <ele>204</ele>
        <time>2014-06-22T12:03:15Z</time>
      </trkpt>
      <trkpt lat="43.79246" lon="0.79471">
        <ele>203</ele>
        <time>2014-06-22T12:03:32Z</time>
      </trkpt>
      <trkpt lat="43.79243" lon="0.79466">
        <ele>203</ele>
        <time>2014-06-22T12:03:38Z</time>
      </trkpt>
      <trkpt lat="43.79239" lon="0.79461">
        <ele>202</ele>
        <time>2014-06-22T12:03:44Z</time>
      </trkpt>
      <trkpt lat="43.79237" lon="0.79455">
        <ele>201</ele>
        <time>2014-06-22T12:03:50Z</time>
      </trkpt>
      <trkpt lat="43.79233" lon="0.7945">
        <ele>201</ele>
        <time>2014-06-22T12:03:56Z</time>
      </trkpt>
      <trkpt lat="43.79232" lon="0.79443">
        <ele>201</ele>
        <time>2014-06-22T12:04:02Z</time>
      </trkpt>
      <trkpt lat="43.79231" lon="0.79436">
        <ele>201</ele>
        <time>2014-06-22T12:04:07Z</time>
      </trkpt>
      <trkpt lat="43.79231" lon="0.79429">
        <ele>202</ele>
        <time>2014-06-22T12:04:12Z</time>
      </trkpt>
      <trkpt lat="43.79231" lon="0.79422">
        <ele>202</ele>
        <time>2014-06-22T12:04:17Z</time>
      </trkpt>
      <trkpt lat="43.79231" lon="0.79414">
        <ele>202</ele>
        <time>2014-06-22T12:04:22Z</time>
      </trkpt>
      <trkpt lat="43.79232" lon="0.79407">
        <ele>203</ele>
        <time>2014-06-22T12:04:27Z</time>
      </trkpt>
      <trkpt lat="43.79232" lon="0.794">
        <ele>203</ele>
        <time>2014-06-22T12:04:32Z</time>
      </trkpt>
      <trkpt lat="43.79232" lon="0.79393">
        <ele>203</ele>
        <time>2014-06-22T12:04:37Z</time>
      </trkpt>
      <trkpt lat="43.79233" lon="0.79386">
        <ele>203</ele>
        <time>2014-06-22T12:04:42Z</time>
      </trkpt>
      <trkpt lat="43.79234" lon="0.79379">
        <ele>204</ele>
        <time>2014-06-22T12:04:47Z</time>
      </trkpt>
      <trkpt lat="43.79235" lon="0.79372">
        <ele>203</ele>
        <time>2014-06-22T12:04:52Z</time>
      </trkpt>
      <trkpt lat="43.79236" lon="0.79366">
        <ele>203</ele>
        <time>2014-06-22T12:05:04Z</time>
      </trkpt>
      <trkpt lat="43.79235" lon="0.79359">
        <ele>203</ele>
        <time>2014-06-22T12:05:08Z</time>
      </trkpt>
      <trkpt lat="43.79233" lon="0.79353">
        <ele>203</ele>
        <time>2014-06-22T12:05:12Z</time>
      </trkpt>
      <trkpt lat="43.79232" lon="0.79346">
        <ele>203</ele>
        <time>2014-06-22T12:05:17Z</time>
      </trkpt>
      <trkpt lat="43.7923" lon="0.79339">
        <ele>203</ele>
        <time>2014-06-22T12:05:22Z</time>
      </trkpt>
      <trkpt lat="43.79229" lon="0.79332">
        <ele>204</ele>
        <time>2014-06-22T12:05:27Z</time>
      </trkpt>
      <trkpt lat="43.79228" lon="0.79325">
        <ele>204</ele>
        <time>2014-06-22T12:05:32Z</time>
      </trkpt>
      <trkpt lat="43.79226" lon="0.79318">
        <ele>204</ele>
        <time>2014-06-22T12:05:37Z</time>
      </trkpt>
      <trkpt lat="43.79224" lon="0.79311">
        <ele>204</ele>
        <time>2014-06-22T12:05:42Z</time>
      </trkpt>
      <trkpt lat="43.79221" lon="0.79305">
        <ele>205</ele>
        <time>2014-06-22T12:05:47Z</time>
      </trkpt>
      <trkpt lat="43.79219" lon="0.79298">
        <ele>205</ele>
        <time>2014-06-22T12:05:52Z</time>
      </trkpt>
      <trkpt lat="43.79216" lon="0.79291">
        <ele>205</ele>
        <time>2014-06-22T12:05:57Z</time>
      </trkpt>
      <trkpt lat="43.79213" lon="0.79285">
        <ele>205</ele>
        <time>2014-06-22T12:06:02Z</time>
      </trkpt>
      <trkpt lat="43.7921" lon="0.79278">
        <ele>205</ele>
        <time>2014-06-22T12:06:07Z</time>
      </trkpt>
      <trkpt lat="43.79207" lon="0.79272">
        <ele>206</ele>
        <time>2014-06-22T12:06:12Z</time>
      </trkpt>
      <trkpt lat="43.79204" lon="0.79266">
        <ele>206</ele>
        <time>2014-06-22T12:06:17Z</time>
      </trkpt>
      <trkpt lat="43.79202" lon="0.7926">
        <ele>206</ele>
        <time>2014-06-22T12:06:22Z</time>
      </trkpt>
      <trkpt lat="43.79199" lon="0.79254">
        <ele>206</ele>
        <time>2014-06-22T12:06:27Z</time>
      </trkpt>
      <trkpt lat="43.79197" lon="0.79248">
        <ele>206</ele>
        <time>2014-06-22T12:06:32Z</time>
      </trkpt>
      <trkpt lat="43.79195" lon="0.79241">
        <ele>207</ele>
        <time>2014-06-22T12:06:37Z</time>
      </trkpt>
      <trkpt lat="43.79193" lon="0.79235">
        <ele>207</ele>
        <time>2014-06-22T12:06:42Z</time>
      </trkpt>
      <trkpt lat="43.7919" lon="0.79229">
        <ele>207</ele>
        <time>2014-06-22T12:06:47Z</time>
      </trkpt>
      <trkpt lat="43.79186" lon="0.79222">
        <ele>208</ele>
        <time>2014-06-22T12:06:52Z</time>
      </trkpt>
      <trkpt lat="43.79184" lon="0.79217">
        <ele>208</ele>
        <time>2014-06-22T12:06:56Z</time>
      </trkpt>
      <trkpt lat="43.79181" lon="0.79211">
        <ele>209</ele>
        <time>2014-06-22T12:07:01Z</time>
      </trkpt>
      <trkpt lat="43.79178" lon="0.79205">
        <ele>208</ele>
        <time>2014-06-22T12:07:05Z</time>
      </trkpt>
      <trkpt lat="43.79176" lon="0.792">
        <ele>209</ele>
        <time>2014-06-22T12:07:09Z</time>
      </trkpt>
      <trkpt lat="43.79173" lon="0.79194">
        <ele>209</ele>
        <time>2014-06-22T12:07:14Z</time>
      </trkpt>
      <trkpt lat="43.7917" lon="0.79187">
        <ele>209</ele>
        <time>2014-06-22T12:07:19Z</time>
      </trkpt>
      <trkpt lat="43.79167" lon="0.79181">
        <ele>209</ele>
        <time>2014-06-22T12:07:24Z</time>
      </trkpt>
      <trkpt lat="43.79165" lon="0.79174">
        <ele>209</ele>
        <time>2014-06-22T12:07:29Z</time>
      </trkpt>
      <trkpt lat="43.79162" lon="0.79167">
        <ele>209</ele>
        <time>2014-06-22T12:07:34Z</time>
      </trkpt>
      <trkpt lat="43.79159" lon="0.79161">
        <ele>209</ele>
        <time>2014-06-22T12:07:39Z</time>
      </trkpt>
      <trkpt lat="43.79156" lon="0.79155">
        <ele>209</ele>
        <time>2014-06-22T12:07:44Z</time>
      </trkpt>
      <trkpt lat="43.79154" lon="0.79148">
        <ele>209</ele>
        <time>2014-06-22T12:07:49Z</time>
      </trkpt>
      <trkpt lat="43.79151" lon="0.79142">
        <ele>210</ele>
        <time>2014-06-22T12:07:53Z</time>
      </trkpt>
      <trkpt lat="43.79149" lon="0.79137">
        <ele>210</ele>
        <time>2014-06-22T12:07:57Z</time>
      </trkpt>
      <trkpt lat="43.79146" lon="0.79131">
        <ele>210</ele>
        <time>2014-06-22T12:08:02Z</time>
      </trkpt>
      <trkpt lat="43.79143" lon="0.79124">
        <ele>211</ele>
        <time>2014-06-22T12:08:07Z</time>
      </trkpt>
      <trkpt lat="43.7914" lon="0.79118">
        <ele>211</ele>
        <time>2014-06-22T12:08:12Z</time>
      </trkpt>
      <trkpt lat="43.79137" lon="0.79111">
        <ele>211</ele>
        <time>2014-06-22T12:08:17Z</time>
      </trkpt>
      <trkpt lat="43.79135" lon="0.79106">
        <ele>211</ele>
        <time>2014-06-22T12:08:21Z</time>
      </trkpt>
      <trkpt lat="43.79132" lon="0.79101">
        <ele>211</ele>
        <time>2014-06-22T12:08:25Z</time>
      </trkpt>
      <trkpt lat="43.7913" lon="0.79095">
        <ele>211</ele>
        <time>2014-06-22T12:08:29Z</time>
      </trkpt>
      <trkpt lat="43.79127" lon="0.7909">
        <ele>211</ele>
        <time>2014-06-22T12:08:33Z</time>
      </trkpt>
      <trkpt lat="43.79124" lon="0.79083">
        <ele>211</ele>
        <time>2014-06-22T12:08:38Z</time>
      </trkpt>
      <trkpt lat="43.79121" lon="0.79077">
        <ele>212</ele>
        <time>2014-06-22T12:08:43Z</time>
      </trkpt>
      <trkpt lat="43.79119" lon="0.79072">
        <ele>212</ele>
        <time>2014-06-22T12:08:47Z</time>
      </trkpt>
      <trkpt lat="43.79116" lon="0.79065">
        <ele>213</ele>
        <time>2014-06-22T12:08:52Z</time>
      </trkpt>
      <trkpt lat="43.79114" lon="0.79059">
        <ele>213</ele>
        <time>2014-06-22T12:08:57Z</time>
      </trkpt>
      <trkpt lat="43.7911" lon="0.79053">
        <ele>214</ele>
        <time>2014-06-22T12:09:02Z</time>
      </trkpt>
      <trkpt lat="43.79108" lon="0.79047">
        <ele>214</ele>
        <time>2014-06-22T12:09:07Z</time>
      </trkpt>
      <trkpt lat="43.79105" lon="0.7904">
        <ele>215</ele>
        <time>2014-06-22T12:09:12Z</time>
      </trkpt>
      <trkpt lat="43.79102" lon="0.79034">
        <ele>215</ele>
        <time>2014-06-22T12:09:17Z</time>
      </trkpt>
      <trkpt lat="43.79099" lon="0.79028">
        <ele>215</ele>
        <time>2014-06-22T12:09:22Z</time>
      </trkpt>
      <trkpt lat="43.79096" lon="0.79022">
        <ele>216</ele>
        <time>2014-06-22T12:09:27Z</time>
      </trkpt>
      <trkpt lat="43.79094" lon="0.79016">
        <ele>216</ele>
        <time>2014-06-22T12:09:31Z</time>
      </trkpt>
      <trkpt lat="43.7909" lon="0.7901">
        <ele>216</ele>
        <time>2014-06-22T12:09:36Z</time>
      </trkpt>
      <trkpt lat="43.79087" lon="0.79004">
        <ele>216</ele>
        <time>2014-06-22T12:09:41Z</time>
      </trkpt>
      <trkpt lat="43.79084" lon="0.78998">
        <ele>215</ele>
        <time>2014-06-22T12:09:47Z</time>
      </trkpt>
      <trkpt lat="43.79081" lon="0.78993">
        <ele>215</ele>
        <time>2014-06-22T12:09:52Z</time>
      </trkpt>
      <trkpt lat="43.79079" lon="0.78987">
        <ele>215</ele>
        <time>2014-06-22T12:09:57Z</time>
      </trkpt>
      <trkpt lat="43.79075" lon="0.78981">
        <ele>215</ele>
        <time>2014-06-22T12:10:02Z</time>
      </trkpt>
      <trkpt lat="43.79072" lon="0.78975">
        <ele>214</ele>
        <time>2014-06-22T12:10:07Z</time>
      </trkpt>
      <trkpt lat="43.79068" lon="0.78969">
        <ele>214</ele>
        <time>2014-06-22T12:10:12Z</time>
      </trkpt>
      <trkpt lat="43.79066" lon="0.78964">
        <ele>213</ele>
        <time>2014-06-22T12:10:16Z</time>
      </trkpt>
      <trkpt lat="43.79063" lon="0.78959">
        <ele>213</ele>
        <time>2014-06-22T12:10:20Z</time>
      </trkpt>
      <trkpt lat="43.7906" lon="0.78954">
        <ele>213</ele>
        <time>2014-06-22T12:10:24Z</time>
      </trkpt>
      <trkpt lat="43.79057" lon="0.78948">
        <ele>213</ele>
        <time>2014-06-22T12:10:28Z</time>
      </trkpt>
      <trkpt lat="43.79054" lon="0.78943">
        <ele>213</ele>
        <time>2014-06-22T12:10:32Z</time>
      </trkpt>
      <trkpt lat="43.79051" lon="0.78939">
        <ele>213</ele>
        <time>2014-06-22T12:10:36Z</time>
      </trkpt>
      <trkpt lat="43.79048" lon="0.78933">
        <ele>212</ele>
        <time>2014-06-22T12:10:41Z</time>
      </trkpt>
      <trkpt lat="43.79045" lon="0.78928">
        <ele>212</ele>
        <time>2014-06-22T12:10:45Z</time>
      </trkpt>
      <trkpt lat="43.79042" lon="0.78922">
        <ele>212</ele>
        <time>2014-06-22T12:10:50Z</time>
      </trkpt>
      <trkpt lat="43.79038" lon="0.78916">
        <ele>212</ele>
        <time>2014-06-22T12:10:55Z</time>
      </trkpt>
      <trkpt lat="43.79035" lon="0.7891">
        <ele>212</ele>
        <time>2014-06-22T12:11:00Z</time>
      </trkpt>
      <trkpt lat="43.79032" lon="0.78904">
        <ele>212</ele>
        <time>2014-06-22T12:11:11Z</time>
      </trkpt>
      <trkpt lat="43.79029" lon="0.78899">
        <ele>213</ele>
        <time>2014-06-22T12:11:15Z</time>
      </trkpt>
      <trkpt lat="43.79026" lon="0.78893">
        <ele>213</ele>
        <time>2014-06-22T12:11:20Z</time>
      </trkpt>
      <trkpt lat="43.79023" lon="0.78887">
        <ele>213</ele>
        <time>2014-06-22T12:11:25Z</time>
      </trkpt>
      <trkpt lat="43.7902" lon="0.78881">
        <ele>213</ele>
        <time>2014-06-22T12:11:29Z</time>
      </trkpt>
      <trkpt lat="43.79018" lon="0.78876">
        <ele>213</ele>
        <time>2014-06-22T12:11:33Z</time>
      </trkpt>
      <trkpt lat="43.79015" lon="0.7887">
        <ele>213</ele>
        <time>2014-06-22T12:11:37Z</time>
      </trkpt>
      <trkpt lat="43.79012" lon="0.78865">
        <ele>213</ele>
        <time>2014-06-22T12:11:41Z</time>
      </trkpt>
      <trkpt lat="43.79009" lon="0.7886">
        <ele>213</ele>
        <time>2014-06-22T12:11:45Z</time>
      </trkpt>
      <trkpt lat="43.79007" lon="0.78854">
        <ele>214</ele>
        <time>2014-06-22T12:11:49Z</time>
      </trkpt>
      <trkpt lat="43.79004" lon="0.78849">
        <ele>214</ele>
        <time>2014-06-22T12:11:53Z</time>
      </trkpt>
      <trkpt lat="43.79001" lon="0.78844">
        <ele>214</ele>
        <time>2014-06-22T12:11:57Z</time>
      </trkpt>
      <trkpt lat="43.78998" lon="0.78838">
        <ele>214</ele>
        <time>2014-06-22T12:12:07Z</time>
      </trkpt>
      <trkpt lat="43.78995" lon="0.78831">
        <ele>214</ele>
        <time>2014-06-22T12:12:11Z</time>
      </trkpt>
      <trkpt lat="43.78992" lon="0.78826">
        <ele>214</ele>
        <time>2014-06-22T12:12:15Z</time>
      </trkpt>
      <trkpt lat="43.7899" lon="0.7882">
        <ele>215</ele>
        <time>2014-06-22T12:12:19Z</time>
      </trkpt>
      <trkpt lat="43.78987" lon="0.78814">
        <ele>215</ele>
        <time>2014-06-22T12:12:24Z</time>
      </trkpt>
      <trkpt lat="43.78984" lon="0.78808">
        <ele>216</ele>
        <time>2014-06-22T12:12:29Z</time>
      </trkpt>
      <trkpt lat="43.7898" lon="0.78802">
        <ele>216</ele>
        <time>2014-06-22T12:12:34Z</time>
      </trkpt>
      <trkpt lat="43.78977" lon="0.78796">
        <ele>217</ele>
        <time>2014-06-22T12:12:39Z</time>
      </trkpt>
      <trkpt lat="43.78974" lon="0.7879">
        <ele>217</ele>
        <time>2014-06-22T12:12:44Z</time>
      </trkpt>
      <trkpt lat="43.78971" lon="0.78784">
        <ele>217</ele>
        <time>2014-06-22T12:12:49Z</time>
      </trkpt>
      <trkpt lat="43.78968" lon="0.78777">
        <ele>217</ele>
        <time>2014-06-22T12:12:54Z</time>
      </trkpt>
      <trkpt lat="43.78965" lon="0.78772">
        <ele>217</ele>
        <time>2014-06-22T12:12:59Z</time>
      </trkpt>
      <trkpt lat="43.78962" lon="0.78766">
        <ele>217</ele>
        <time>2014-06-22T12:13:04Z</time>
      </trkpt>
      <trkpt lat="43.78964" lon="0.78759">
        <ele>217</ele>
        <time>2014-06-22T12:13:10Z</time>
      </trkpt>
      <trkpt lat="43.78958" lon="0.78758">
        <ele>217</ele>
        <time>2014-06-22T12:13:32Z</time>
      </trkpt>
      <trkpt lat="43.78955" lon="0.78752">
        <ele>217</ele>
        <time>2014-06-22T12:13:37Z</time>
      </trkpt>
      <trkpt lat="43.78952" lon="0.78746">
        <ele>217</ele>
        <time>2014-06-22T12:13:41Z</time>
      </trkpt>
      <trkpt lat="43.7895" lon="0.78741">
        <ele>217</ele>
        <time>2014-06-22T12:13:45Z</time>
      </trkpt>
      <trkpt lat="43.78947" lon="0.78734">
        <ele>217</ele>
        <time>2014-06-22T12:13:50Z</time>
      </trkpt>
      <trkpt lat="43.78944" lon="0.78727">
        <ele>217</ele>
        <time>2014-06-22T12:13:55Z</time>
      </trkpt>
      <trkpt lat="43.78942" lon="0.78721">
        <ele>217</ele>
        <time>2014-06-22T12:14:00Z</time>
      </trkpt>
      <trkpt lat="43.78939" lon="0.78715">
        <ele>217</ele>
        <time>2014-06-22T12:14:05Z</time>
      </trkpt>
      <trkpt lat="43.78936" lon="0.78709">
        <ele>217</ele>
        <time>2014-06-22T12:14:10Z</time>
      </trkpt>
      <trkpt lat="43.78934" lon="0.78702">
        <ele>217</ele>
        <time>2014-06-22T12:14:15Z</time>
      </trkpt>
      <trkpt lat="43.78931" lon="0.78696">
        <ele>218</ele>
        <time>2014-06-22T12:14:20Z</time>
      </trkpt>
      <trkpt lat="43.78928" lon="0.78689">
        <ele>218</ele>
        <time>2014-06-22T12:14:25Z</time>
      </trkpt>
      <trkpt lat="43.78925" lon="0.78683">
        <ele>218</ele>
        <time>2014-06-22T12:14:30Z</time>
      </trkpt>
      <trkpt lat="43.78922" lon="0.78677">
        <ele>219</ele>
        <time>2014-06-22T12:14:35Z</time>
      </trkpt>
      <trkpt lat="43.78919" lon="0.78671">
        <ele>219</ele>
        <time>2014-06-22T12:14:40Z</time>
      </trkpt>
      <trkpt lat="43.78916" lon="0.78664">
        <ele>219</ele>
        <time>2014-06-22T12:14:45Z</time>
      </trkpt>
      <trkpt lat="43.78913" lon="0.78658">
        <ele>220</ele>
        <time>2014-06-22T12:14:50Z</time>
      </trkpt>
      <trkpt lat="43.7891" lon="0.78652">
        <ele>220</ele>
        <time>2014-06-22T12:14:55Z</time>
      </trkpt>
      <trkpt lat="43.78907" lon="0.78646">
        <ele>219</ele>
        <time>2014-06-22T12:15:00Z</time>
      </trkpt>
      <trkpt lat="43.78905" lon="0.7864">
        <ele>219</ele>
        <time>2014-06-22T12:15:04Z</time>
      </trkpt>
      <trkpt lat="43.78903" lon="0.78635">
        <ele>219</ele>
        <time>2014-06-22T12:15:08Z</time>
      </trkpt>
      <trkpt lat="43.789" lon="0.78629">
        <ele>219</ele>
        <time>2014-06-22T12:15:13Z</time>
      </trkpt>
      <trkpt lat="43.78897" lon="0.78622">
        <ele>218</ele>
        <time>2014-06-22T12:15:18Z</time>
      </trkpt>
      <trkpt lat="43.78894" lon="0.78617">
        <ele>218</ele>
        <time>2014-06-22T12:15:22Z</time>
      </trkpt>
      <trkpt lat="43.78891" lon="0.78612">
        <ele>218</ele>
        <time>2014-06-22T12:15:26Z</time>
      </trkpt>
      <trkpt lat="43.78888" lon="0.78606">
        <ele>218</ele>
        <time>2014-06-22T12:15:31Z</time>
      </trkpt>
      <trkpt lat="43.78884" lon="0.78601">
        <ele>218</ele>
        <time>2014-06-22T12:15:36Z</time>
      </trkpt>
      <trkpt lat="43.7888" lon="0.78596">
        <ele>218</ele>
        <time>2014-06-22T12:15:41Z</time>
      </trkpt>
      <trkpt lat="43.78876" lon="0.78591">
        <ele>219</ele>
        <time>2014-06-22T12:15:46Z</time>
      </trkpt>
      <trkpt lat="43.78872" lon="0.78586">
        <ele>219</ele>
        <time>2014-06-22T12:15:51Z</time>
      </trkpt>
      <trkpt lat="43.78868" lon="0.78582">
        <ele>219</ele>
        <time>2014-06-22T12:15:56Z</time>
      </trkpt>
      <trkpt lat="43.78864" lon="0.78577">
        <ele>219</ele>
        <time>2014-06-22T12:16:01Z</time>
      </trkpt>
      <trkpt lat="43.7886" lon="0.78573">
        <ele>219</ele>
        <time>2014-06-22T12:16:05Z</time>
      </trkpt>
      <trkpt lat="43.78857" lon="0.78569">
        <ele>219</ele>
        <time>2014-06-22T12:16:09Z</time>
      </trkpt>
      <trkpt lat="43.78852" lon="0.78564">
        <ele>219</ele>
        <time>2014-06-22T12:16:14Z</time>
      </trkpt>
      <trkpt lat="43.78848" lon="0.7856">
        <ele>220</ele>
        <time>2014-06-22T12:16:19Z</time>
      </trkpt>
      <trkpt lat="43.78844" lon="0.78555">
        <ele>220</ele>
        <time>2014-06-22T12:16:24Z</time>
      </trkpt>
      <trkpt lat="43.7884" lon="0.78551">
        <ele>220</ele>
        <time>2014-06-22T12:16:29Z</time>
      </trkpt>
      <trkpt lat="43.78835" lon="0.78547">
        <ele>220</ele>
        <time>2014-06-22T12:16:34Z</time>
      </trkpt>
      <trkpt lat="43.78831" lon="0.78542">
        <ele>220</ele>
        <time>2014-06-22T12:16:39Z</time>
      </trkpt>
      <trkpt lat="43.78827" lon="0.78538">
        <ele>220</ele>
        <time>2014-06-22T12:16:44Z</time>
      </trkpt>
      <trkpt lat="43.78823" lon="0.78534">
        <ele>221</ele>
        <time>2014-06-22T12:16:49Z</time>
      </trkpt>
      <trkpt lat="43.78819" lon="0.7853">
        <ele>222</ele>
        <time>2014-06-22T12:16:54Z</time>
      </trkpt>
      <trkpt lat="43.78816" lon="0.78526">
        <ele>223</ele>
        <time>2014-06-22T12:16:59Z</time>
      </trkpt>
      <trkpt lat="43.78811" lon="0.78522">
        <ele>223</ele>
        <time>2014-06-22T12:17:04Z</time>
      </trkpt>
      <trkpt lat="43.78807" lon="0.78518">
        <ele>224</ele>
        <time>2014-06-22T12:17:09Z</time>
      </trkpt>
      <trkpt lat="43.78803" lon="0.78514">
        <ele>225</ele>
        <time>2014-06-22T12:17:14Z</time>
      </trkpt>
      <trkpt lat="43.788" lon="0.7851">
        <ele>226</ele>
        <time>2014-06-22T12:17:19Z</time>
      </trkpt>
      <trkpt lat="43.78796" lon="0.78506">
        <ele>227</ele>
        <time>2014-06-22T12:17:24Z</time>
      </trkpt>
      <trkpt lat="43.78792" lon="0.78501">
        <ele>227</ele>
        <time>2014-06-22T12:17:29Z</time>
      </trkpt>
      <trkpt lat="43.78788" lon="0.78496">
        <ele>228</ele>
        <time>2014-06-22T12:17:34Z</time>
      </trkpt>
      <trkpt lat="43.78785" lon="0.78491">
        <ele>228</ele>
        <time>2014-06-22T12:17:39Z</time>
      </trkpt>
      <trkpt lat="43.78783" lon="0.78485">
        <ele>227</ele>
        <time>2014-06-22T12:18:49Z</time>
      </trkpt>
      <trkpt lat="43.7878" lon="0.78478">
        <ele>227</ele>
        <time>2014-06-22T12:18:54Z</time>
      </trkpt>
      <trkpt lat="43.78778" lon="0.78471">
        <ele>227</ele>
        <time>2014-06-22T12:18:59Z</time>
      </trkpt>
      <trkpt lat="43.78776" lon="0.78464">
        <ele>227</ele>
        <time>2014-06-22T12:19:04Z</time>
      </trkpt>
      <trkpt lat="43.78773" lon="0.78457">
        <ele>227</ele>
        <time>2014-06-22T12:19:09Z</time>
      </trkpt>
      <trkpt lat="43.78772" lon="0.78451">
        <ele>227</ele>
        <time>2014-06-22T12:19:13Z</time>
      </trkpt>
      <trkpt lat="43.7877" lon="0.78445">
        <ele>227</ele>
        <time>2014-06-22T12:19:17Z</time>
      </trkpt>
      <trkpt lat="43.78768" lon="0.78439">
        <ele>227</ele>
        <time>2014-06-22T12:19:21Z</time>
      </trkpt>
      <trkpt lat="43.78765" lon="0.78434">
        <ele>227</ele>
        <time>2014-06-22T12:19:25Z</time>
      </trkpt>
      <trkpt lat="43.78764" lon="0.78426">
        <ele>227</ele>
        <time>2014-06-22T12:19:30Z</time>
      </trkpt>
      <trkpt lat="43.78762" lon="0.78419">
        <ele>227</ele>
        <time>2014-06-22T12:19:35Z</time>
      </trkpt>
      <trkpt lat="43.7876" lon="0.78413">
        <ele>227</ele>
        <time>2014-06-22T12:19:40Z</time>
      </trkpt>
      <trkpt lat="43.78758" lon="0.78406">
        <ele>227</ele>
        <time>2014-06-22T12:19:45Z</time>
      </trkpt>
      <trkpt lat="43.78757" lon="0.78399">
        <ele>227</ele>
        <time>2014-06-22T12:19:50Z</time>
      </trkpt>
      <trkpt lat="43.78755" lon="0.78392">
        <ele>227</ele>
        <time>2014-06-22T12:19:55Z</time>
      </trkpt>
      <trkpt lat="43.78754" lon="0.78385">
        <ele>227</ele>
        <time>2014-06-22T12:20:00Z</time>
      </trkpt>
      <trkpt lat="43.78752" lon="0.78378">
        <ele>227</ele>
        <time>2014-06-22T12:20:05Z</time>
      </trkpt>
      <trkpt lat="43.78751" lon="0.78372">
        <ele>227</ele>
        <time>2014-06-22T12:20:09Z</time>
      </trkpt>
      <trkpt lat="43.78749" lon="0.78366">
        <ele>227</ele>
        <time>2014-06-22T12:20:13Z</time>
      </trkpt>
      <trkpt lat="43.78748" lon="0.7836">
        <ele>227</ele>
        <time>2014-06-22T12:20:17Z</time>
      </trkpt>
      <trkpt lat="43.78746" lon="0.78354">
        <ele>227</ele>
        <time>2014-06-22T12:20:21Z</time>
      </trkpt>
      <trkpt lat="43.78745" lon="0.78346">
        <ele>227</ele>
        <time>2014-06-22T12:20:26Z</time>
      </trkpt>
      <trkpt lat="43.78743" lon="0.7834">
        <ele>227</ele>
        <time>2014-06-22T12:20:31Z</time>
      </trkpt>
      <trkpt lat="43.78742" lon="0.78332">
        <ele>227</ele>
        <time>2014-06-22T12:20:36Z</time>
      </trkpt>
      <trkpt lat="43.7874" lon="0.78325">
        <ele>227</ele>
        <time>2014-06-22T12:20:41Z</time>
      </trkpt>
      <trkpt lat="43.78738" lon="0.78318">
        <ele>227</ele>
        <time>2014-06-22T12:20:46Z</time>
      </trkpt>
      <trkpt lat="43.78736" lon="0.78311">
        <ele>227</ele>
        <time>2014-06-22T12:20:51Z</time>
      </trkpt>
      <trkpt lat="43.78733" lon="0.78306">
        <ele>227</ele>
        <time>2014-06-22T12:20:55Z</time>
      </trkpt>
      <trkpt lat="43.78728" lon="0.78304">
        <ele>227</ele>
        <time>2014-06-22T12:21:19Z</time>
      </trkpt>
      <trkpt lat="43.78723" lon="0.78302">
        <ele>227</ele>
        <time>2014-06-22T12:21:25Z</time>
      </trkpt>
      <trkpt lat="43.78718" lon="0.78302">
        <ele>227</ele>
        <time>2014-06-22T12:21:30Z</time>
      </trkpt>
      <trkpt lat="43.78713" lon="0.78301">
        <ele>226</ele>
        <time>2014-06-22T12:22:07Z</time>
      </trkpt>
      <trkpt lat="43.78707" lon="0.78301">
        <ele>226</ele>
        <time>2014-06-22T12:22:13Z</time>
      </trkpt>
      <trkpt lat="43.78703" lon="0.783">
        <ele>225</ele>
        <time>2014-06-22T12:22:18Z</time>
      </trkpt>
      <trkpt lat="43.78698" lon="0.783">
        <ele>225</ele>
        <time>2014-06-22T12:22:24Z</time>
      </trkpt>
      <trkpt lat="43.78692" lon="0.78299">
        <ele>225</ele>
        <time>2014-06-22T12:22:30Z</time>
      </trkpt>
      <trkpt lat="43.78687" lon="0.78299">
        <ele>224</ele>
        <time>2014-06-22T12:22:36Z</time>
      </trkpt>
      <trkpt lat="43.78682" lon="0.78299">
        <ele>225</ele>
        <time>2014-06-22T12:22:42Z</time>
      </trkpt>
      <trkpt lat="43.78678" lon="0.78298">
        <ele>224</ele>
        <time>2014-06-22T12:22:52Z</time>
      </trkpt>
      <trkpt lat="43.78673" lon="0.78301">
        <ele>224</ele>
        <time>2014-06-22T12:22:58Z</time>
      </trkpt>
      <trkpt lat="43.78671" lon="0.78307">
        <ele>223</ele>
        <time>2014-06-22T12:23:03Z</time>
      </trkpt>
      <trkpt lat="43.78669" lon="0.78314">
        <ele>222</ele>
        <time>2014-06-22T12:23:08Z</time>
      </trkpt>
      <trkpt lat="43.78664" lon="0.78313">
        <ele>222</ele>
        <time>2014-06-22T12:23:33Z</time>
      </trkpt>
      <trkpt lat="43.78659" lon="0.78313">
        <ele>222</ele>
        <time>2014-06-22T12:23:38Z</time>
      </trkpt>
      <trkpt lat="43.78655" lon="0.78313">
        <ele>222</ele>
        <time>2014-06-22T12:23:43Z</time>
      </trkpt>
      <trkpt lat="43.7865" lon="0.78311">
        <ele>220</ele>
        <time>2014-06-22T12:23:53Z</time>
      </trkpt>
      <trkpt lat="43.78645" lon="0.7831">
        <ele>220</ele>
        <time>2014-06-22T12:23:58Z</time>
      </trkpt>
      <trkpt lat="43.7864" lon="0.78309">
        <ele>219</ele>
        <time>2014-06-22T12:24:03Z</time>
      </trkpt>
      <trkpt lat="43.78635" lon="0.78308">
        <ele>219</ele>
        <time>2014-06-22T12:24:08Z</time>
      </trkpt>
      <trkpt lat="43.7863" lon="0.78307">
        <ele>218</ele>
        <time>2014-06-22T12:24:13Z</time>
      </trkpt>
      <trkpt lat="43.78626" lon="0.78306">
        <ele>217</ele>
        <time>2014-06-22T12:24:18Z</time>
      </trkpt>
      <trkpt lat="43.78621" lon="0.78306">
        <ele>217</ele>
        <time>2014-06-22T12:24:23Z</time>
      </trkpt>
      <trkpt lat="43.78615" lon="0.78305">
        <ele>216</ele>
        <time>2014-06-22T12:24:28Z</time>
      </trkpt>
      <trkpt lat="43.7861" lon="0.78304">
        <ele>216</ele>
        <time>2014-06-22T12:24:33Z</time>
      </trkpt>
      <trkpt lat="43.78605" lon="0.78303">
        <ele>215</ele>
        <time>2014-06-22T12:24:38Z</time>
      </trkpt>
      <trkpt lat="43.786" lon="0.78302">
        <ele>215</ele>
        <time>2014-06-22T12:24:43Z</time>
      </trkpt>
      <trkpt lat="43.78595" lon="0.78301">
        <ele>215</ele>
        <time>2014-06-22T12:24:48Z</time>
      </trkpt>
      <trkpt lat="43.7859" lon="0.78301">
        <ele>214</ele>
        <time>2014-06-22T12:24:53Z</time>
      </trkpt>
      <trkpt lat="43.78583" lon="0.783">
        <ele>213</ele>
        <time>2014-06-22T12:24:59Z</time>
      </trkpt>
      <trkpt lat="43.78579" lon="0.78299">
        <ele>212</ele>
        <time>2014-06-22T12:25:04Z</time>
      </trkpt>
      <trkpt lat="43.78574" lon="0.78298">
        <ele>212</ele>
        <time>2014-06-22T12:25:09Z</time>
      </trkpt>
      <trkpt lat="43.78569" lon="0.78296">
        <ele>211</ele>
        <time>2014-06-22T12:25:19Z</time>
      </trkpt>
      <trkpt lat="43.78565" lon="0.78292">
        <ele>211</ele>
        <time>2014-06-22T12:25:24Z</time>
      </trkpt>
      <trkpt lat="43.78563" lon="0.78286">
        <ele>211</ele>
        <time>2014-06-22T12:25:29Z</time>
      </trkpt>
      <trkpt lat="43.78563" lon="0.78279">
        <ele>212</ele>
        <time>2014-06-22T12:25:34Z</time>
      </trkpt>
      <trkpt lat="43.78559" lon="0.78275">
        <ele>212</ele>
        <time>2014-06-22T12:25:55Z</time>
      </trkpt>
      <trkpt lat="43.78554" lon="0.78276">
        <ele>212</ele>
        <time>2014-06-22T12:26:00Z</time>
      </trkpt>
      <trkpt lat="43.78549" lon="0.78275">
        <ele>211</ele>
        <time>2014-06-22T12:26:05Z</time>
      </trkpt>
      <trkpt lat="43.78545" lon="0.78271">
        <ele>212</ele>
        <time>2014-06-22T12:26:10Z</time>
      </trkpt>
      <trkpt lat="43.78541" lon="0.78266">
        <ele>212</ele>
        <time>2014-06-22T12:26:15Z</time>
      </trkpt>
      <trkpt lat="43.78536" lon="0.78262">
        <ele>212</ele>
        <time>2014-06-22T12:26:20Z</time>
      </trkpt>
      <trkpt lat="43.78531" lon="0.78259">
        <ele>212</ele>
        <time>2014-06-22T12:26:25Z</time>
      </trkpt>
      <trkpt lat="43.78526" lon="0.78256">
        <ele>213</ele>
        <time>2014-06-22T12:26:30Z</time>
      </trkpt>
      <trkpt lat="43.78523" lon="0.78251">
        <ele>213</ele>
        <time>2014-06-22T12:26:35Z</time>
      </trkpt>
      <trkpt lat="43.7852" lon="0.78247">
        <ele>213</ele>
        <time>2014-06-22T12:26:50Z</time>
      </trkpt>
      <trkpt lat="43.78515" lon="0.78244">
        <ele>214</ele>
        <time>2014-06-22T12:26:57Z</time>
      </trkpt>
      <trkpt lat="43.78511" lon="0.7824">
        <ele>214</ele>
        <time>2014-06-22T12:27:03Z</time>
      </trkpt>
      <trkpt lat="43.78506" lon="0.78238">
        <ele>213</ele>
        <time>2014-06-22T12:29:02Z</time>
      </trkpt>
      <trkpt lat="43.78504" lon="0.78232">
        <ele>216</ele>
        <time>2014-06-22T12:32:40Z</time>
      </trkpt>
      <trkpt lat="43.785" lon="0.78229">
        <ele>216</ele>
        <time>2014-06-22T12:32:48Z</time>
      </trkpt>
      <trkpt lat="43.78496" lon="0.78225">
        <ele>217</ele>
        <time>2014-06-22T12:32:54Z</time>
      </trkpt>
      <trkpt lat="43.78491" lon="0.78221">
        <ele>217</ele>
        <time>2014-06-22T12:33:00Z</time>
      </trkpt>
      <trkpt lat="43.78487" lon="0.78216">
        <ele>217</ele>
        <time>2014-06-22T12:33:06Z</time>
      </trkpt>
      <trkpt lat="43.78483" lon="0.78212">
        <ele>218</ele>
        <time>2014-06-22T12:33:12Z</time>
      </trkpt>
      <trkpt lat="43.7848" lon="0.78208">
        <ele>218</ele>
        <time>2014-06-22T12:33:18Z</time>
      </trkpt>
      <trkpt lat="43.78475" lon="0.78203">
        <ele>219</ele>
        <time>2014-06-22T12:33:24Z</time>
      </trkpt>
      <trkpt lat="43.78471" lon="0.78202">
        <ele>220</ele>
        <time>2014-06-22T12:33:30Z</time>
      </trkpt>
      <trkpt lat="43.78468" lon="0.78196">
        <ele>221</ele>
        <time>2014-06-22T12:33:45Z</time>
      </trkpt>
      <trkpt lat="43.78464" lon="0.78192">
        <ele>221</ele>
        <time>2014-06-22T12:33:50Z</time>
      </trkpt>
      <trkpt lat="43.7846" lon="0.78188">
        <ele>222</ele>
        <time>2014-06-22T12:33:55Z</time>
      </trkpt>
      <trkpt lat="43.78456" lon="0.78183">
        <ele>222</ele>
        <time>2014-06-22T12:34:01Z</time>
      </trkpt>
      <trkpt lat="43.78452" lon="0.78179">
        <ele>224</ele>
        <time>2014-06-22T12:34:07Z</time>
      </trkpt>
      <trkpt lat="43.78448" lon="0.78174">
        <ele>225</ele>
        <time>2014-06-22T12:34:13Z</time>
      </trkpt>
      <trkpt lat="43.78444" lon="0.78171">
        <ele>225</ele>
        <time>2014-06-22T12:34:18Z</time>
      </trkpt>
      <trkpt lat="43.7844" lon="0.78167">
        <ele>228</ele>
        <time>2014-06-22T12:34:24Z</time>
      </trkpt>
      <trkpt lat="43.78436" lon="0.78163">
        <ele>228</ele>
        <time>2014-06-22T12:34:30Z</time>
      </trkpt>
      <trkpt lat="43.78431" lon="0.78159">
        <ele>228</ele>
        <time>2014-06-22T12:34:35Z</time>
      </trkpt>
      <trkpt lat="43.78427" lon="0.78155">
        <ele>230</ele>
        <time>2014-06-22T12:34:40Z</time>
      </trkpt>
      <trkpt lat="43.78423" lon="0.78151">
        <ele>231</ele>
        <time>2014-06-22T12:34:45Z</time>
      </trkpt>
      <trkpt lat="43.7842" lon="0.78147">
        <ele>230</ele>
        <time>2014-06-22T12:34:50Z</time>
      </trkpt>
      <trkpt lat="43.78417" lon="0.78142">
        <ele>230</ele>
        <time>2014-06-22T12:34:56Z</time>
      </trkpt>
      <trkpt lat="43.78413" lon="0.78136">
        <ele>230</ele>
        <time>2014-06-22T12:35:02Z</time>
      </trkpt>
      <trkpt lat="43.78409" lon="0.78134">
        <ele>230</ele>
        <time>2014-06-22T12:35:22Z</time>
      </trkpt>
      <trkpt lat="43.78403" lon="0.78136">
        <ele>229</ele>
        <time>2014-06-22T12:35:34Z</time>
      </trkpt>
      <trkpt lat="43.78399" lon="0.7814">
        <ele>228</ele>
        <time>2014-06-22T12:35:38Z</time>
      </trkpt>
      <trkpt lat="43.78396" lon="0.78144">
        <ele>227</ele>
        <time>2014-06-22T12:35:42Z</time>
      </trkpt>
      <trkpt lat="43.78394" lon="0.7815">
        <ele>226</ele>
        <time>2014-06-22T12:35:46Z</time>
      </trkpt>
      <trkpt lat="43.78391" lon="0.78155">
        <ele>225</ele>
        <time>2014-06-22T12:35:50Z</time>
      </trkpt>
      <trkpt lat="43.78387" lon="0.7816">
        <ele>225</ele>
        <time>2014-06-22T12:35:55Z</time>
      </trkpt>
      <trkpt lat="43.78384" lon="0.78166">
        <ele>224</ele>
        <time>2014-06-22T12:36:00Z</time>
      </trkpt>
      <trkpt lat="43.78381" lon="0.78172">
        <ele>224</ele>
        <time>2014-06-22T12:36:05Z</time>
      </trkpt>
      <trkpt lat="43.78377" lon="0.78177">
        <ele>224</ele>
        <time>2014-06-22T12:36:10Z</time>
      </trkpt>
      <trkpt lat="43.78373" lon="0.78183">
        <ele>224</ele>
        <time>2014-06-22T12:36:15Z</time>
      </trkpt>
      <trkpt lat="43.7837" lon="0.78188">
        <ele>223</ele>
        <time>2014-06-22T12:36:20Z</time>
      </trkpt>
      <trkpt lat="43.78367" lon="0.78195">
        <ele>223</ele>
        <time>2014-06-22T12:36:25Z</time>
      </trkpt>
      <trkpt lat="43.78363" lon="0.782">
        <ele>223</ele>
        <time>2014-06-22T12:36:30Z</time>
      </trkpt>
      <trkpt lat="43.7836" lon="0.78206">
        <ele>223</ele>
        <time>2014-06-22T12:36:35Z</time>
      </trkpt>
      <trkpt lat="43.78357" lon="0.78211">
        <ele>223</ele>
        <time>2014-06-22T12:36:40Z</time>
      </trkpt>
      <trkpt lat="43.78354" lon="0.78216">
        <ele>222</ele>
        <time>2014-06-22T12:36:45Z</time>
      </trkpt>
      <trkpt lat="43.7835" lon="0.7822">
        <ele>222</ele>
        <time>2014-06-22T12:36:50Z</time>
      </trkpt>
      <trkpt lat="43.78348" lon="0.78226">
        <ele>222</ele>
        <time>2014-06-22T12:36:55Z</time>
      </trkpt>
      <trkpt lat="43.78344" lon="0.78232">
        <ele>221</ele>
        <time>2014-06-22T12:37:01Z</time>
      </trkpt>
      <trkpt lat="43.78341" lon="0.78238">
        <ele>221</ele>
        <time>2014-06-22T12:37:06Z</time>
      </trkpt>
      <trkpt lat="43.78337" lon="0.78243">
        <ele>222</ele>
        <time>2014-06-22T12:37:11Z</time>
      </trkpt>
      <trkpt lat="43.78334" lon="0.78248">
        <ele>220</ele>
        <time>2014-06-22T12:37:16Z</time>
      </trkpt>
      <trkpt lat="43.78331" lon="0.78254">
        <ele>220</ele>
        <time>2014-06-22T12:37:21Z</time>
      </trkpt>
      <trkpt lat="43.78328" lon="0.78259">
        <ele>219</ele>
        <time>2014-06-22T12:37:25Z</time>
      </trkpt>
      <trkpt lat="43.78324" lon="0.78264">
        <ele>219</ele>
        <time>2014-06-22T12:37:30Z</time>
      </trkpt>
      <trkpt lat="43.78321" lon="0.78269">
        <ele>219</ele>
        <time>2014-06-22T12:37:35Z</time>
      </trkpt>
      <trkpt lat="43.78318" lon="0.78275">
        <ele>219</ele>
        <time>2014-06-22T12:37:40Z</time>
      </trkpt>
      <trkpt lat="43.78315" lon="0.78281">
        <ele>218</ele>
        <time>2014-06-22T12:38:06Z</time>
      </trkpt>
      <trkpt lat="43.78312" lon="0.78287">
        <ele>216</ele>
        <time>2014-06-22T12:38:11Z</time>
      </trkpt>
      <trkpt lat="43.7831" lon="0.78293">
        <ele>213</ele>
        <time>2014-06-22T12:38:16Z</time>
      </trkpt>
      <trkpt lat="43.78307" lon="0.78299">
        <ele>211</ele>
        <time>2014-06-22T12:38:21Z</time>
      </trkpt>
      <trkpt lat="43.78304" lon="0.78304">
        <ele>211</ele>
        <time>2014-06-22T12:38:26Z</time>
      </trkpt>
      <trkpt lat="43.78301" lon="0.7831">
        <ele>208</ele>
        <time>2014-06-22T12:38:31Z</time>
      </trkpt>
      <trkpt lat="43.78298" lon="0.78316">
        <ele>209</ele>
        <time>2014-06-22T12:38:36Z</time>
      </trkpt>
      <trkpt lat="43.78295" lon="0.78321">
        <ele>207</ele>
        <time>2014-06-22T12:38:40Z</time>
      </trkpt>
      <trkpt lat="43.78293" lon="0.78327">
        <ele>207</ele>
        <time>2014-06-22T12:38:44Z</time>
      </trkpt>
      <trkpt lat="43.78289" lon="0.78332">
        <ele>208</ele>
        <time>2014-06-22T12:38:48Z</time>
      </trkpt>
      <trkpt lat="43.78286" lon="0.78338">
        <ele>207</ele>
        <time>2014-06-22T12:38:52Z</time>
      </trkpt>
      <trkpt lat="43.78282" lon="0.78343">
        <ele>208</ele>
        <time>2014-06-22T12:38:56Z</time>
      </trkpt>
      <trkpt lat="43.78279" lon="0.78349">
        <ele>209</ele>
        <time>2014-06-22T12:39:00Z</time>
      </trkpt>
      <trkpt lat="43.78276" lon="0.78355">
        <ele>208</ele>
        <time>2014-06-22T12:39:04Z</time>
      </trkpt>
      <trkpt lat="43.78273" lon="0.7836">
        <ele>208</ele>
        <time>2014-06-22T12:39:08Z</time>
      </trkpt>
      <trkpt lat="43.7827" lon="0.78365">
        <ele>207</ele>
        <time>2014-06-22T12:39:12Z</time>
      </trkpt>
      <trkpt lat="43.78267" lon="0.7837">
        <ele>207</ele>
        <time>2014-06-22T12:39:16Z</time>
      </trkpt>
      <trkpt lat="43.78264" lon="0.78375">
        <ele>208</ele>
        <time>2014-06-22T12:39:20Z</time>
      </trkpt>
      <trkpt lat="43.78261" lon="0.7838">
        <ele>207</ele>
        <time>2014-06-22T12:39:24Z</time>
      </trkpt>
      <trkpt lat="43.78259" lon="0.78386">
        <ele>207</ele>
        <time>2014-06-22T12:39:28Z</time>
      </trkpt>
      <trkpt lat="43.78256" lon="0.7839">
        <ele>206</ele>
        <time>2014-06-22T12:39:32Z</time>
      </trkpt>
      <trkpt lat="43.78253" lon="0.78395">
        <ele>205</ele>
        <time>2014-06-22T12:39:36Z</time>
      </trkpt>
      <trkpt lat="43.78249" lon="0.78402">
        <ele>204</ele>
        <time>2014-06-22T12:39:42Z</time>
      </trkpt>
      <trkpt lat="43.78245" lon="0.78408">
        <ele>204</ele>
        <time>2014-06-22T12:39:47Z</time>
      </trkpt>
      <trkpt lat="43.78242" lon="0.78412">
        <ele>204</ele>
        <time>2014-06-22T12:39:51Z</time>
      </trkpt>
      <trkpt lat="43.78239" lon="0.78418">
        <ele>204</ele>
        <time>2014-06-22T12:39:55Z</time>
      </trkpt>
      <trkpt lat="43.78236" lon="0.78423">
        <ele>203</ele>
        <time>2014-06-22T12:39:59Z</time>
      </trkpt>
      <trkpt lat="43.78233" lon="0.78428">
        <ele>201</ele>
        <time>2014-06-22T12:40:03Z</time>
      </trkpt>
      <trkpt lat="43.7823" lon="0.78433">
        <ele>201</ele>
        <time>2014-06-22T12:40:08Z</time>
      </trkpt>
      <trkpt lat="43.78227" lon="0.78439">
        <ele>201</ele>
        <time>2014-06-22T12:40:13Z</time>
      </trkpt>
      <trkpt lat="43.78224" lon="0.78445">
        <ele>200</ele>
        <time>2014-06-22T12:40:18Z</time>
      </trkpt>
      <trkpt lat="43.7822" lon="0.7845">
        <ele>201</ele>
        <time>2014-06-22T12:40:23Z</time>
      </trkpt>
      <trkpt lat="43.78217" lon="0.78456">
        <ele>201</ele>
        <time>2014-06-22T12:40:28Z</time>
      </trkpt>
      <trkpt lat="43.78214" lon="0.78463">
        <ele>201</ele>
        <time>2014-06-22T12:40:33Z</time>
      </trkpt>
      <trkpt lat="43.78211" lon="0.78469">
        <ele>201</ele>
        <time>2014-06-22T12:40:38Z</time>
      </trkpt>
      <trkpt lat="43.78208" lon="0.78475">
        <ele>201</ele>
        <time>2014-06-22T12:40:43Z</time>
      </trkpt>
      <trkpt lat="43.78206" lon="0.78482">
        <ele>200</ele>
        <time>2014-06-22T12:40:48Z</time>
      </trkpt>
      <trkpt lat="43.78203" lon="0.78487">
        <ele>200</ele>
        <time>2014-06-22T12:41:03Z</time>
      </trkpt>
      <trkpt lat="43.78205" lon="0.7848">
        <ele>200</ele>
        <time>2014-06-22T12:41:08Z</time>
      </trkpt>
      <trkpt lat="43.78207" lon="0.78474">
        <ele>200</ele>
        <time>2014-06-22T12:41:13Z</time>
      </trkpt>
      <trkpt lat="43.78206" lon="0.78481">
        <ele>202</ele>
        <time>2014-06-22T12:41:30Z</time>
      </trkpt>
      <trkpt lat="43.78203" lon="0.78487">
        <ele>202</ele>
        <time>2014-06-22T12:41:35Z</time>
      </trkpt>
      <trkpt lat="43.78201" lon="0.78494">
        <ele>201</ele>
        <time>2014-06-22T12:41:40Z</time>
      </trkpt>
      <trkpt lat="43.78198" lon="0.78499">
        <ele>200</ele>
        <time>2014-06-22T12:41:44Z</time>
      </trkpt>
      <trkpt lat="43.78195" lon="0.78506">
        <ele>200</ele>
        <time>2014-06-22T12:41:49Z</time>
      </trkpt>
      <trkpt lat="43.78193" lon="0.78511">
        <ele>199</ele>
        <time>2014-06-22T12:41:53Z</time>
      </trkpt>
      <trkpt lat="43.78191" lon="0.78517">
        <ele>200</ele>
        <time>2014-06-22T12:41:57Z</time>
      </trkpt>
      <trkpt lat="43.78189" lon="0.78522">
        <ele>199</ele>
        <time>2014-06-22T12:42:01Z</time>
      </trkpt>
      <trkpt lat="43.78186" lon="0.78528">
        <ele>199</ele>
        <time>2014-06-22T12:42:05Z</time>
      </trkpt>
      <trkpt lat="43.78184" lon="0.78533">
        <ele>199</ele>
        <time>2014-06-22T12:42:09Z</time>
      </trkpt>
      <trkpt lat="43.78182" lon="0.7854">
        <ele>199</ele>
        <time>2014-06-22T12:42:14Z</time>
      </trkpt>
      <trkpt lat="43.7818" lon="0.78547">
        <ele>199</ele>
        <time>2014-06-22T12:42:19Z</time>
      </trkpt>
      <trkpt lat="43.78177" lon="0.78553">
        <ele>200</ele>
        <time>2014-06-22T12:42:24Z</time>
      </trkpt>
      <trkpt lat="43.78175" lon="0.7856">
        <ele>199</ele>
        <time>2014-06-22T12:42:29Z</time>
      </trkpt>
      <trkpt lat="43.78173" lon="0.78566">
        <ele>199</ele>
        <time>2014-06-22T12:42:34Z</time>
      </trkpt>
      <trkpt lat="43.78171" lon="0.78573">
        <ele>200</ele>
        <time>2014-06-22T12:42:39Z</time>
      </trkpt>
      <trkpt lat="43.78169" lon="0.7858">
        <ele>198</ele>
        <time>2014-06-22T12:42:44Z</time>
      </trkpt>
      <trkpt lat="43.78167" lon="0.78587">
        <ele>199</ele>
        <time>2014-06-22T12:42:49Z</time>
      </trkpt>
      <trkpt lat="43.78166" lon="0.78594">
        <ele>199</ele>
        <time>2014-06-22T12:42:54Z</time>
      </trkpt>
      <trkpt lat="43.78165" lon="0.78601">
        <ele>199</ele>
        <time>2014-06-22T12:43:43Z</time>
      </trkpt>
      <trkpt lat="43.78164" lon="0.78608">
        <ele>192</ele>
        <time>2014-06-22T12:43:48Z</time>
      </trkpt>
      <trkpt lat="43.78163" lon="0.78615">
        <ele>192</ele>
        <time>2014-06-22T12:43:53Z</time>
      </trkpt>
      <trkpt lat="43.78161" lon="0.78621">
        <ele>192</ele>
        <time>2014-06-22T12:43:57Z</time>
      </trkpt>
      <trkpt lat="43.78158" lon="0.78627">
        <ele>193</ele>
        <time>2014-06-22T12:44:01Z</time>
      </trkpt>
      <trkpt lat="43.78156" lon="0.78634">
        <ele>194</ele>
        <time>2014-06-22T12:44:06Z</time>
      </trkpt>
      <trkpt lat="43.78155" lon="0.7864">
        <ele>195</ele>
        <time>2014-06-22T12:44:12Z</time>
      </trkpt>
      <trkpt lat="43.78155" lon="0.78647">
        <ele>195</ele>
        <time>2014-06-22T12:44:16Z</time>
      </trkpt>
      <trkpt lat="43.78154" lon="0.78654">
        <ele>196</ele>
        <time>2014-06-22T12:44:20Z</time>
      </trkpt>
      <trkpt lat="43.78154" lon="0.78661">
        <ele>196</ele>
        <time>2014-06-22T12:44:38Z</time>
      </trkpt>
      <trkpt lat="43.78153" lon="0.78669">
        <ele>196</ele>
        <time>2014-06-22T12:44:42Z</time>
      </trkpt>
      <trkpt lat="43.78152" lon="0.78676">
        <ele>195</ele>
        <time>2014-06-22T12:44:46Z</time>
      </trkpt>
      <trkpt lat="43.78151" lon="0.78683">
        <ele>194</ele>
        <time>2014-06-22T12:44:50Z</time>
      </trkpt>
      <trkpt lat="43.7815" lon="0.7869">
        <ele>194</ele>
        <time>2014-06-22T12:44:55Z</time>
      </trkpt>
      <trkpt lat="43.78151" lon="0.78697">
        <ele>194</ele>
        <time>2014-06-22T12:45:06Z</time>
      </trkpt>
      <trkpt lat="43.78149" lon="0.78704">
        <ele>194</ele>
        <time>2014-06-22T12:45:10Z</time>
      </trkpt>
      <trkpt lat="43.78148" lon="0.78711">
        <ele>195</ele>
        <time>2014-06-22T12:45:14Z</time>
      </trkpt>
      <trkpt lat="43.78146" lon="0.78718">
        <ele>195</ele>
        <time>2014-06-22T12:45:18Z</time>
      </trkpt>
      <trkpt lat="43.78144" lon="0.78725">
        <ele>194</ele>
        <time>2014-06-22T12:45:22Z</time>
      </trkpt>
      <trkpt lat="43.78142" lon="0.78732">
        <ele>193</ele>
        <time>2014-06-22T12:45:26Z</time>
      </trkpt>
      <trkpt lat="43.7814" lon="0.78739">
        <ele>193</ele>
        <time>2014-06-22T12:45:30Z</time>
      </trkpt>
      <trkpt lat="43.78138" lon="0.78745">
        <ele>194</ele>
        <time>2014-06-22T12:45:34Z</time>
      </trkpt>
      <trkpt lat="43.78135" lon="0.78751">
        <ele>194</ele>
        <time>2014-06-22T12:45:38Z</time>
      </trkpt>
      <trkpt lat="43.78132" lon="0.78757">
        <ele>194</ele>
        <time>2014-06-22T12:45:42Z</time>
      </trkpt>
      <trkpt lat="43.78129" lon="0.78762">
        <ele>194</ele>
        <time>2014-06-22T12:45:46Z</time>
      </trkpt>
      <trkpt lat="43.78127" lon="0.78767">
        <ele>195</ele>
        <time>2014-06-22T12:45:50Z</time>
      </trkpt>
      <trkpt lat="43.78124" lon="0.78773">
        <ele>194</ele>
        <time>2014-06-22T12:45:54Z</time>
      </trkpt>
      <trkpt lat="43.78121" lon="0.78779">
        <ele>194</ele>
        <time>2014-06-22T12:45:58Z</time>
      </trkpt>
      <trkpt lat="43.78119" lon="0.78784">
        <ele>195</ele>
        <time>2014-06-22T12:46:02Z</time>
      </trkpt>
      <trkpt lat="43.78116" lon="0.7879">
        <ele>195</ele>
        <time>2014-06-22T12:46:06Z</time>
      </trkpt>
      <trkpt lat="43.78113" lon="0.78795">
        <ele>195</ele>
        <time>2014-06-22T12:46:10Z</time>
      </trkpt>
      <trkpt lat="43.7811" lon="0.788">
        <ele>195</ele>
        <time>2014-06-22T12:46:14Z</time>
      </trkpt>
      <trkpt lat="43.78107" lon="0.78805">
        <ele>196</ele>
        <time>2014-06-22T12:46:18Z</time>
      </trkpt>
      <trkpt lat="43.78103" lon="0.7881">
        <ele>197</ele>
        <time>2014-06-22T12:46:23Z</time>
      </trkpt>
      <trkpt lat="43.781" lon="0.78817">
        <ele>198</ele>
        <time>2014-06-22T12:46:28Z</time>
      </trkpt>
      <trkpt lat="43.78097" lon="0.78822">
        <ele>197</ele>
        <time>2014-06-22T12:46:32Z</time>
      </trkpt>
      <trkpt lat="43.78094" lon="0.78828">
        <ele>198</ele>
        <time>2014-06-22T12:46:36Z</time>
      </trkpt>
      <trkpt lat="43.78092" lon="0.78833">
        <ele>198</ele>
        <time>2014-06-22T12:46:40Z</time>
      </trkpt>
      <trkpt lat="43.78089" lon="0.78838">
        <ele>199</ele>
        <time>2014-06-22T12:46:44Z</time>
      </trkpt>
      <trkpt lat="43.78086" lon="0.78843">
        <ele>199</ele>
        <time>2014-06-22T12:46:48Z</time>
      </trkpt>
      <trkpt lat="43.78083" lon="0.78849">
        <ele>199</ele>
        <time>2014-06-22T12:46:52Z</time>
      </trkpt>
      <trkpt lat="43.78081" lon="0.78854">
        <ele>199</ele>
        <time>2014-06-22T12:46:56Z</time>
      </trkpt>
      <trkpt lat="43.78078" lon="0.78861">
        <ele>200</ele>
        <time>2014-06-22T12:47:01Z</time>
      </trkpt>
      <trkpt lat="43.78075" lon="0.78866">
        <ele>200</ele>
        <time>2014-06-22T12:47:05Z</time>
      </trkpt>
      <trkpt lat="43.78072" lon="0.78871">
        <ele>200</ele>
        <time>2014-06-22T12:47:09Z</time>
      </trkpt>
      <trkpt lat="43.78069" lon="0.78876">
        <ele>200</ele>
        <time>2014-06-22T12:47:13Z</time>
      </trkpt>
      <trkpt lat="43.78066" lon="0.78882">
        <ele>201</ele>
        <time>2014-06-22T12:47:17Z</time>
      </trkpt>
      <trkpt lat="43.78063" lon="0.78887">
        <ele>201</ele>
        <time>2014-06-22T12:47:21Z</time>
      </trkpt>
      <trkpt lat="43.7806" lon="0.78893">
        <ele>201</ele>
        <time>2014-06-22T12:47:26Z</time>
      </trkpt>
      <trkpt lat="43.78058" lon="0.78899">
        <ele>201</ele>
        <time>2014-06-22T12:47:30Z</time>
      </trkpt>
      <trkpt lat="43.78055" lon="0.78903">
        <ele>201</ele>
        <time>2014-06-22T12:47:34Z</time>
      </trkpt>
      <trkpt lat="43.78052" lon="0.78908">
        <ele>201</ele>
        <time>2014-06-22T12:47:38Z</time>
      </trkpt>
      <trkpt lat="43.78049" lon="0.78913">
        <ele>201</ele>
        <time>2014-06-22T12:47:42Z</time>
      </trkpt>
      <trkpt lat="43.78046" lon="0.78918">
        <ele>201</ele>
        <time>2014-06-22T12:47:46Z</time>
      </trkpt>
      <trkpt lat="43.78043" lon="0.78924">
        <ele>201</ele>
        <time>2014-06-22T12:47:50Z</time>
      </trkpt>
      <trkpt lat="43.7804" lon="0.78929">
        <ele>202</ele>
        <time>2014-06-22T12:47:54Z</time>
      </trkpt>
      <trkpt lat="43.78037" lon="0.78934">
        <ele>202</ele>
        <time>2014-06-22T12:47:58Z</time>
      </trkpt>
      <trkpt lat="43.78034" lon="0.7894">
        <ele>202</ele>
        <time>2014-06-22T12:48:02Z</time>
      </trkpt>
      <trkpt lat="43.78031" lon="0.78945">
        <ele>203</ele>
        <time>2014-06-22T12:48:06Z</time>
      </trkpt>
      <trkpt lat="43.78028" lon="0.7895">
        <ele>203</ele>
        <time>2014-06-22T12:48:10Z</time>
      </trkpt>
      <trkpt lat="43.78025" lon="0.78957">
        <ele>204</ele>
        <time>2014-06-22T12:48:45Z</time>
      </trkpt>
      <trkpt lat="43.78021" lon="0.78962">
        <ele>204</ele>
        <time>2014-06-22T12:48:49Z</time>
      </trkpt>
      <trkpt lat="43.78019" lon="0.78968">
        <ele>204</ele>
        <time>2014-06-22T12:48:53Z</time>
      </trkpt>
      <trkpt lat="43.78016" lon="0.78973">
        <ele>203</ele>
        <time>2014-06-22T12:49:08Z</time>
      </trkpt>
      <trkpt lat="43.78012" lon="0.78978">
        <ele>204</ele>
        <time>2014-06-22T12:49:12Z</time>
      </trkpt>
      <trkpt lat="43.78009" lon="0.78984">
        <ele>204</ele>
        <time>2014-06-22T12:49:16Z</time>
      </trkpt>
      <trkpt lat="43.78006" lon="0.7899">
        <ele>204</ele>
        <time>2014-06-22T12:49:20Z</time>
      </trkpt>
      <trkpt lat="43.78003" lon="0.78996">
        <ele>205</ele>
        <time>2014-06-22T12:49:25Z</time>
      </trkpt>
      <trkpt lat="43.77999" lon="0.79002">
        <ele>205</ele>
        <time>2014-06-22T12:49:30Z</time>
      </trkpt>
      <trkpt lat="43.77996" lon="0.79007">
        <ele>207</ele>
        <time>2014-06-22T12:50:50Z</time>
      </trkpt>
      <trkpt lat="43.77993" lon="0.79011">
        <ele>208</ele>
        <time>2014-06-22T12:50:54Z</time>
      </trkpt>
      <trkpt lat="43.7799" lon="0.79017">
        <ele>210</ele>
        <time>2014-06-22T12:50:59Z</time>
      </trkpt>
      <trkpt lat="43.77987" lon="0.79023">
        <ele>210</ele>
        <time>2014-06-22T12:51:04Z</time>
      </trkpt>
      <trkpt lat="43.77984" lon="0.79029">
        <ele>211</ele>
        <time>2014-06-22T12:51:09Z</time>
      </trkpt>
      <trkpt lat="43.77981" lon="0.79034">
        <ele>211</ele>
        <time>2014-06-22T12:51:14Z</time>
      </trkpt>
      <trkpt lat="43.77978" lon="0.79039">
        <ele>211</ele>
        <time>2014-06-22T12:51:18Z</time>
      </trkpt>
      <trkpt lat="43.77975" lon="0.79045">
        <ele>211</ele>
        <time>2014-06-22T12:51:22Z</time>
      </trkpt>
      <trkpt lat="43.77972" lon="0.7905">
        <ele>211</ele>
        <time>2014-06-22T12:51:26Z</time>
      </trkpt>
      <trkpt lat="43.77969" lon="0.79055">
        <ele>212</ele>
        <time>2014-06-22T12:51:30Z</time>
      </trkpt>
      <trkpt lat="43.77967" lon="0.7906">
        <ele>212</ele>
        <time>2014-06-22T12:51:34Z</time>
      </trkpt>
      <trkpt lat="43.77964" lon="0.79065">
        <ele>213</ele>
        <time>2014-06-22T12:51:38Z</time>
      </trkpt>
      <trkpt lat="43.77961" lon="0.7907">
        <ele>213</ele>
        <time>2014-06-22T12:51:42Z</time>
      </trkpt>
      <trkpt lat="43.77957" lon="0.79076">
        <ele>214</ele>
        <time>2014-06-22T12:51:47Z</time>
      </trkpt>
      <trkpt lat="43.77955" lon="0.79081">
        <ele>214</ele>
        <time>2014-06-22T12:51:51Z</time>
      </trkpt>
      <trkpt lat="43.77952" lon="0.79086">
        <ele>214</ele>
        <time>2014-06-22T12:51:55Z</time>
      </trkpt>
      <trkpt lat="43.77949" lon="0.79092">
        <ele>215</ele>
        <time>2014-06-22T12:52:00Z</time>
      </trkpt>
      <trkpt lat="43.77945" lon="0.79098">
        <ele>215</ele>
        <time>2014-06-22T12:52:05Z</time>
      </trkpt>
      <trkpt lat="43.77942" lon="0.79103">
        <ele>215</ele>
        <time>2014-06-22T12:52:09Z</time>
      </trkpt>
      <trkpt lat="43.7794" lon="0.79108">
        <ele>216</ele>
        <time>2014-06-22T12:52:13Z</time>
      </trkpt>
      <trkpt lat="43.77937" lon="0.79114">
        <ele>216</ele>
        <time>2014-06-22T12:52:17Z</time>
      </trkpt>
      <trkpt lat="43.77935" lon="0.79119">
        <ele>216</ele>
        <time>2014-06-22T12:52:21Z</time>
      </trkpt>
      <trkpt lat="43.77932" lon="0.79124">
        <ele>217</ele>
        <time>2014-06-22T12:52:25Z</time>
      </trkpt>
      <trkpt lat="43.77929" lon="0.7913">
        <ele>217</ele>
        <time>2014-06-22T12:52:30Z</time>
      </trkpt>
      <trkpt lat="43.77925" lon="0.79136">
        <ele>217</ele>
        <time>2014-06-22T12:52:35Z</time>
      </trkpt>
      <trkpt lat="43.77922" lon="0.79142">
        <ele>218</ele>
        <time>2014-06-22T12:52:40Z</time>
      </trkpt>
      <trkpt lat="43.77919" lon="0.79147">
        <ele>218</ele>
        <time>2014-06-22T12:52:44Z</time>
      </trkpt>
      <trkpt lat="43.77916" lon="0.79152">
        <ele>218</ele>
        <time>2014-06-22T12:52:48Z</time>
      </trkpt>
      <trkpt lat="43.77913" lon="0.79157">
        <ele>218</ele>
        <time>2014-06-22T12:52:52Z</time>
      </trkpt>
      <trkpt lat="43.7791" lon="0.79164">
        <ele>218</ele>
        <time>2014-06-22T12:52:57Z</time>
      </trkpt>
      <trkpt lat="43.77907" lon="0.79169">
        <ele>218</ele>
        <time>2014-06-22T12:53:01Z</time>
      </trkpt>
      <trkpt lat="43.77904" lon="0.79175">
        <ele>218</ele>
        <time>2014-06-22T12:53:06Z</time>
      </trkpt>
      <trkpt lat="43.779" lon="0.7918">
        <ele>219</ele>
        <time>2014-06-22T12:53:11Z</time>
      </trkpt>
      <trkpt lat="43.77898" lon="0.79185">
        <ele>219</ele>
        <time>2014-06-22T12:53:15Z</time>
      </trkpt>
      <trkpt lat="43.77895" lon="0.79191">
        <ele>220</ele>
        <time>2014-06-22T12:53:19Z</time>
      </trkpt>
      <trkpt lat="43.77892" lon="0.79197">
        <ele>220</ele>
        <time>2014-06-22T12:53:23Z</time>
      </trkpt>
      <trkpt lat="43.77889" lon="0.79203">
        <ele>221</ele>
        <time>2014-06-22T12:53:27Z</time>
      </trkpt>
      <trkpt lat="43.77886" lon="0.79209">
        <ele>222</ele>
        <time>2014-06-22T12:53:31Z</time>
      </trkpt>
      <trkpt lat="43.77883" lon="0.79214">
        <ele>222</ele>
        <time>2014-06-22T12:53:35Z</time>
      </trkpt>
      <trkpt lat="43.77881" lon="0.7922">
        <ele>222</ele>
        <time>2014-06-22T12:53:39Z</time>
      </trkpt>
      <trkpt lat="43.77878" lon="0.79226">
        <ele>222</ele>
        <time>2014-06-22T12:53:43Z</time>
      </trkpt>
      <trkpt lat="43.77875" lon="0.79231">
        <ele>222</ele>
        <time>2014-06-22T12:53:47Z</time>
      </trkpt>
      <trkpt lat="43.77872" lon="0.79236">
        <ele>223</ele>
        <time>2014-06-22T12:53:51Z</time>
      </trkpt>
      <trkpt lat="43.7787" lon="0.79242">
        <ele>223</ele>
        <time>2014-06-22T12:53:55Z</time>
      </trkpt>
      <trkpt lat="43.77867" lon="0.79247">
        <ele>223</ele>
        <time>2014-06-22T12:53:59Z</time>
      </trkpt>
      <trkpt lat="43.77864" lon="0.79252">
        <ele>223</ele>
        <time>2014-06-22T12:54:03Z</time>
      </trkpt>
      <trkpt lat="43.7786" lon="0.79257">
        <ele>224</ele>
        <time>2014-06-22T12:54:07Z</time>
      </trkpt>
      <trkpt lat="43.77857" lon="0.79262">
        <ele>224</ele>
        <time>2014-06-22T12:54:11Z</time>
      </trkpt>
      <trkpt lat="43.77854" lon="0.79267">
        <ele>224</ele>
        <time>2014-06-22T12:54:15Z</time>
      </trkpt>
      <trkpt lat="43.77852" lon="0.79272">
        <ele>224</ele>
        <time>2014-06-22T12:54:19Z</time>
      </trkpt>
      <trkpt lat="43.77849" lon="0.79277">
        <ele>224</ele>
        <time>2014-06-22T12:54:23Z</time>
      </trkpt>
      <trkpt lat="43.77845" lon="0.79281">
        <ele>224</ele>
        <time>2014-06-22T12:54:27Z</time>
      </trkpt>
      <trkpt lat="43.77842" lon="0.79287">
        <ele>224</ele>
        <time>2014-06-22T12:54:31Z</time>
      </trkpt>
      <trkpt lat="43.77839" lon="0.79292">
        <ele>224</ele>
        <time>2014-06-22T12:54:35Z</time>
      </trkpt>
      <trkpt lat="43.77836" lon="0.79298">
        <ele>224</ele>
        <time>2014-06-22T12:54:39Z</time>
      </trkpt>
      <trkpt lat="43.77833" lon="0.79303">
        <ele>224</ele>
        <time>2014-06-22T12:54:43Z</time>
      </trkpt>
      <trkpt lat="43.7783" lon="0.79309">
        <ele>224</ele>
        <time>2014-06-22T12:54:47Z</time>
      </trkpt>
      <trkpt lat="43.77827" lon="0.79314">
        <ele>224</ele>
        <time>2014-06-22T12:54:51Z</time>
      </trkpt>
      <trkpt lat="43.77823" lon="0.7932">
        <ele>225</ele>
        <time>2014-06-22T12:54:55Z</time>
      </trkpt>
      <trkpt lat="43.77821" lon="0.79325">
        <ele>225</ele>
        <time>2014-06-22T12:54:59Z</time>
      </trkpt>
      <trkpt lat="43.77817" lon="0.79331">
        <ele>225</ele>
        <time>2014-06-22T12:55:03Z</time>
      </trkpt>
      <trkpt lat="43.77814" lon="0.79336">
        <ele>225</ele>
        <time>2014-06-22T12:55:07Z</time>
      </trkpt>
      <trkpt lat="43.77811" lon="0.79341">
        <ele>225</ele>
        <time>2014-06-22T12:55:11Z</time>
      </trkpt>
      <trkpt lat="43.77808" lon="0.79347">
        <ele>226</ele>
        <time>2014-06-22T12:55:15Z</time>
      </trkpt>
      <trkpt lat="43.77805" lon="0.79352">
        <ele>226</ele>
        <time>2014-06-22T12:55:19Z</time>
      </trkpt>
      <trkpt lat="43.77803" lon="0.79358">
        <ele>227</ele>
        <time>2014-06-22T12:56:45Z</time>
      </trkpt>
      <trkpt lat="43.77799" lon="0.79364">
        <ele>227</ele>
        <time>2014-06-22T12:56:49Z</time>
      </trkpt>
      <trkpt lat="43.77796" lon="0.7937">
        <ele>229</ele>
        <time>2014-06-22T12:56:54Z</time>
      </trkpt>
      <trkpt lat="43.77793" lon="0.79376">
        <ele>229</ele>
        <time>2014-06-22T12:56:59Z</time>
      </trkpt>
      <trkpt lat="43.77789" lon="0.79381">
        <ele>229</ele>
        <time>2014-06-22T12:57:03Z</time>
      </trkpt>
      <trkpt lat="43.77786" lon="0.79386">
        <ele>229</ele>
        <time>2014-06-22T12:57:07Z</time>
      </trkpt>
      <trkpt lat="43.77783" lon="0.79391">
        <ele>230</ele>
        <time>2014-06-22T12:57:11Z</time>
      </trkpt>
      <trkpt lat="43.7778" lon="0.79397">
        <ele>231</ele>
        <time>2014-06-22T12:57:16Z</time>
      </trkpt>
      <trkpt lat="43.77778" lon="0.79403">
        <ele>231</ele>
        <time>2014-06-22T12:57:20Z</time>
      </trkpt>
      <trkpt lat="43.77774" lon="0.79408">
        <ele>232</ele>
        <time>2014-06-22T12:57:24Z</time>
      </trkpt>
      <trkpt lat="43.7777" lon="0.79414">
        <ele>232</ele>
        <time>2014-06-22T12:57:28Z</time>
      </trkpt>
      <trkpt lat="43.77767" lon="0.79419">
        <ele>233</ele>
        <time>2014-06-22T12:57:32Z</time>
      </trkpt>
      <trkpt lat="43.77764" lon="0.79426">
        <ele>235</ele>
        <time>2014-06-22T12:57:37Z</time>
      </trkpt>
      <trkpt lat="43.77761" lon="0.79431">
        <ele>236</ele>
        <time>2014-06-22T12:57:42Z</time>
      </trkpt>
      <trkpt lat="43.77758" lon="0.79437">
        <ele>236</ele>
        <time>2014-06-22T12:57:47Z</time>
      </trkpt>
      <trkpt lat="43.77755" lon="0.79441">
        <ele>237</ele>
        <time>2014-06-22T12:57:51Z</time>
      </trkpt>
      <trkpt lat="43.77753" lon="0.79447">
        <ele>239</ele>
        <time>2014-06-22T12:57:55Z</time>
      </trkpt>
      <trkpt lat="43.7775" lon="0.79452">
        <ele>239</ele>
        <time>2014-06-22T12:57:59Z</time>
      </trkpt>
      <trkpt lat="43.77746" lon="0.79458">
        <ele>239</ele>
        <time>2014-06-22T12:58:03Z</time>
      </trkpt>
      <trkpt lat="43.77742" lon="0.79462">
        <ele>239</ele>
        <time>2014-06-22T12:58:07Z</time>
      </trkpt>
      <trkpt lat="43.77739" lon="0.79467">
        <ele>239</ele>
        <time>2014-06-22T12:58:11Z</time>
      </trkpt>
      <trkpt lat="43.77737" lon="0.79472">
        <ele>239</ele>
        <time>2014-06-22T12:58:15Z</time>
      </trkpt>
      <trkpt lat="43.77734" lon="0.79479">
        <ele>239</ele>
        <time>2014-06-22T12:58:28Z</time>
      </trkpt>
      <trkpt lat="43.77732" lon="0.79486">
        <ele>239</ele>
        <time>2014-06-22T12:58:32Z</time>
      </trkpt>
      <trkpt lat="43.77729" lon="0.79492">
        <ele>239</ele>
        <time>2014-06-22T12:58:36Z</time>
      </trkpt>
      <trkpt lat="43.77727" lon="0.79498">
        <ele>239</ele>
        <time>2014-06-22T12:58:40Z</time>
      </trkpt>
      <trkpt lat="43.77724" lon="0.79504">
        <ele>239</ele>
        <time>2014-06-22T12:58:44Z</time>
      </trkpt>
      <trkpt lat="43.77723" lon="0.79511">
        <ele>237</ele>
        <time>2014-06-22T13:01:54Z</time>
      </trkpt>
      <trkpt lat="43.77721" lon="0.79517">
        <ele>237</ele>
        <time>2014-06-22T13:01:58Z</time>
      </trkpt>
      <trkpt lat="43.77719" lon="0.79522">
        <ele>237</ele>
        <time>2014-06-22T13:02:02Z</time>
      </trkpt>
      <trkpt lat="43.77716" lon="0.79528">
        <ele>237</ele>
        <time>2014-06-22T13:02:06Z</time>
      </trkpt>
      <trkpt lat="43.77714" lon="0.79534">
        <ele>237</ele>
        <time>2014-06-22T13:02:10Z</time>
      </trkpt>
      <trkpt lat="43.77712" lon="0.7954">
        <ele>237</ele>
        <time>2014-06-22T13:02:14Z</time>
      </trkpt>
      <trkpt lat="43.77709" lon="0.79546">
        <ele>237</ele>
        <time>2014-06-22T13:02:18Z</time>
      </trkpt>
      <trkpt lat="43.77707" lon="0.79552">
        <ele>237</ele>
        <time>2014-06-22T13:02:22Z</time>
      </trkpt>
      <trkpt lat="43.77704" lon="0.79558">
        <ele>237</ele>
        <time>2014-06-22T13:02:26Z</time>
      </trkpt>
      <trkpt lat="43.77703" lon="0.79564">
        <ele>237</ele>
        <time>2014-06-22T13:02:30Z</time>
      </trkpt>
      <trkpt lat="43.777" lon="0.79569">
        <ele>237</ele>
        <time>2014-06-22T13:02:35Z</time>
      </trkpt>
      <trkpt lat="43.77698" lon="0.79576">
        <ele>237</ele>
        <time>2014-06-22T13:02:40Z</time>
      </trkpt>
      <trkpt lat="43.77696" lon="0.79582">
        <ele>237</ele>
        <time>2014-06-22T13:02:44Z</time>
      </trkpt>
      <trkpt lat="43.77694" lon="0.79588">
        <ele>237</ele>
        <time>2014-06-22T13:02:48Z</time>
      </trkpt>
      <trkpt lat="43.77692" lon="0.79594">
        <ele>237</ele>
        <time>2014-06-22T13:02:52Z</time>
      </trkpt>
      <trkpt lat="43.77689" lon="0.796">
        <ele>237</ele>
        <time>2014-06-22T13:02:56Z</time>
      </trkpt>
      <trkpt lat="43.77687" lon="0.79605">
        <ele>237</ele>
        <time>2014-06-22T13:03:00Z</time>
      </trkpt>
      <trkpt lat="43.77685" lon="0.7961">
        <ele>237</ele>
        <time>2014-06-22T13:03:04Z</time>
      </trkpt>
      <trkpt lat="43.77682" lon="0.79618">
        <ele>238</ele>
        <time>2014-06-22T13:03:09Z</time>
      </trkpt>
      <trkpt lat="43.7768" lon="0.79624">
        <ele>237</ele>
        <time>2014-06-22T13:03:14Z</time>
      </trkpt>
      <trkpt lat="43.77677" lon="0.7963">
        <ele>237</ele>
        <time>2014-06-22T13:03:18Z</time>
      </trkpt>
      <trkpt lat="43.77675" lon="0.79635">
        <ele>237</ele>
        <time>2014-06-22T13:03:22Z</time>
      </trkpt>
      <trkpt lat="43.77673" lon="0.79641">
        <ele>237</ele>
        <time>2014-06-22T13:03:26Z</time>
      </trkpt>
      <trkpt lat="43.77672" lon="0.79648">
        <ele>236</ele>
        <time>2014-06-22T13:03:36Z</time>
      </trkpt>
      <trkpt lat="43.77674" lon="0.79654">
        <ele>235</ele>
        <time>2014-06-22T13:03:40Z</time>
      </trkpt>
      <trkpt lat="43.77678" lon="0.79657">
        <ele>235</ele>
        <time>2014-06-22T13:03:44Z</time>
      </trkpt>
      <trkpt lat="43.77683" lon="0.79659">
        <ele>234</ele>
        <time>2014-06-22T13:03:48Z</time>
      </trkpt>
      <trkpt lat="43.77687" lon="0.79661">
        <ele>234</ele>
        <time>2014-06-22T13:03:52Z</time>
      </trkpt>
      <trkpt lat="43.77692" lon="0.79662">
        <ele>234</ele>
        <time>2014-06-22T13:03:56Z</time>
      </trkpt>
      <trkpt lat="43.77696" lon="0.79664">
        <ele>233</ele>
        <time>2014-06-22T13:04:00Z</time>
      </trkpt>
      <trkpt lat="43.77701" lon="0.79664">
        <ele>233</ele>
        <time>2014-06-22T13:04:04Z</time>
      </trkpt>
      <trkpt lat="43.77706" lon="0.79665">
        <ele>233</ele>
        <time>2014-06-22T13:04:08Z</time>
      </trkpt>
      <trkpt lat="43.7771" lon="0.79667">
        <ele>232</ele>
        <time>2014-06-22T13:04:12Z</time>
      </trkpt>
      <trkpt lat="43.77715" lon="0.79669">
        <ele>232</ele>
        <time>2014-06-22T13:04:16Z</time>
      </trkpt>
      <trkpt lat="43.77719" lon="0.79671">
        <ele>232</ele>
        <time>2014-06-22T13:04:20Z</time>
      </trkpt>
      <trkpt lat="43.77724" lon="0.79673">
        <ele>231</ele>
        <time>2014-06-22T13:04:24Z</time>
      </trkpt>
      <trkpt lat="43.77729" lon="0.79676">
        <ele>231</ele>
        <time>2014-06-22T13:04:28Z</time>
      </trkpt>
      <trkpt lat="43.77733" lon="0.79678">
        <ele>231</ele>
        <time>2014-06-22T13:04:32Z</time>
      </trkpt>
      <trkpt lat="43.77738" lon="0.7968">
        <ele>231</ele>
        <time>2014-06-22T13:04:36Z</time>
      </trkpt>
      <trkpt lat="43.77743" lon="0.79682">
        <ele>230</ele>
        <time>2014-06-22T13:04:40Z</time>
      </trkpt>
      <trkpt lat="43.77748" lon="0.79684">
        <ele>230</ele>
        <time>2014-06-22T13:04:44Z</time>
      </trkpt>
      <trkpt lat="43.77753" lon="0.79686">
        <ele>230</ele>
        <time>2014-06-22T13:04:48Z</time>
      </trkpt>
      <trkpt lat="43.77757" lon="0.79688">
        <ele>229</ele>
        <time>2014-06-22T13:04:52Z</time>
      </trkpt>
      <trkpt lat="43.77762" lon="0.7969">
        <ele>229</ele>
        <time>2014-06-22T13:04:56Z</time>
      </trkpt>
      <trkpt lat="43.77766" lon="0.79693">
        <ele>229</ele>
        <time>2014-06-22T13:05:00Z</time>
      </trkpt>
      <trkpt lat="43.77771" lon="0.79695">
        <ele>229</ele>
        <time>2014-06-22T13:05:04Z</time>
      </trkpt>
      <trkpt lat="43.77775" lon="0.79696">
        <ele>228</ele>
        <time>2014-06-22T13:05:08Z</time>
      </trkpt>
      <trkpt lat="43.7778" lon="0.79699">
        <ele>228</ele>
        <time>2014-06-22T13:05:12Z</time>
      </trkpt>
      <trkpt lat="43.77784" lon="0.79701">
        <ele>228</ele>
        <time>2014-06-22T13:05:16Z</time>
      </trkpt>
      <trkpt lat="43.77789" lon="0.79704">
        <ele>228</ele>
        <time>2014-06-22T13:05:20Z</time>
      </trkpt>
      <trkpt lat="43.77793" lon="0.79706">
        <ele>228</ele>
        <time>2014-06-22T13:05:24Z</time>
      </trkpt>
      <trkpt lat="43.77798" lon="0.79708">
        <ele>228</ele>
        <time>2014-06-22T13:05:28Z</time>
      </trkpt>
      <trkpt lat="43.77803" lon="0.7971">
        <ele>228</ele>
        <time>2014-06-22T13:05:32Z</time>
      </trkpt>
      <trkpt lat="43.77807" lon="0.79713">
        <ele>228</ele>
        <time>2014-06-22T13:05:36Z</time>
      </trkpt>
      <trkpt lat="43.77812" lon="0.79715">
        <ele>228</ele>
        <time>2014-06-22T13:05:40Z</time>
      </trkpt>
      <trkpt lat="43.77817" lon="0.79717">
        <ele>227</ele>
        <time>2014-06-22T13:05:44Z</time>
      </trkpt>
      <trkpt lat="43.77821" lon="0.79719">
        <ele>227</ele>
        <time>2014-06-22T13:05:48Z</time>
      </trkpt>
      <trkpt lat="43.77826" lon="0.79721">
        <ele>227</ele>
        <time>2014-06-22T13:05:52Z</time>
      </trkpt>
      <trkpt lat="43.77831" lon="0.79722">
        <ele>227</ele>
        <time>2014-06-22T13:05:56Z</time>
      </trkpt>
      <trkpt lat="43.77836" lon="0.79725">
        <ele>228</ele>
        <time>2014-06-22T13:06:00Z</time>
      </trkpt>
      <trkpt lat="43.7784" lon="0.79727">
        <ele>227</ele>
        <time>2014-06-22T13:06:04Z</time>
      </trkpt>
      <trkpt lat="43.77845" lon="0.79729">
        <ele>227</ele>
        <time>2014-06-22T13:06:08Z</time>
      </trkpt>
      <trkpt lat="43.7785" lon="0.79732">
        <ele>227</ele>
        <time>2014-06-22T13:06:12Z</time>
      </trkpt>
      <trkpt lat="43.77855" lon="0.79733">
        <ele>227</ele>
        <time>2014-06-22T13:06:16Z</time>
      </trkpt>
      <trkpt lat="43.77859" lon="0.79736">
        <ele>227</ele>
        <time>2014-06-22T13:06:20Z</time>
      </trkpt>
      <trkpt lat="43.77864" lon="0.79738">
        <ele>227</ele>
        <time>2014-06-22T13:06:24Z</time>
      </trkpt>
      <trkpt lat="43.77869" lon="0.7974">
        <ele>227</ele>
        <time>2014-06-22T13:06:28Z</time>
      </trkpt>
      <trkpt lat="43.77874" lon="0.79742">
        <ele>227</ele>
        <time>2014-06-22T13:06:32Z</time>
      </trkpt>
      <trkpt lat="43.77878" lon="0.79744">
        <ele>226</ele>
        <time>2014-06-22T13:06:36Z</time>
      </trkpt>
      <trkpt lat="43.77885" lon="0.79746">
        <ele>226</ele>
        <time>2014-06-22T13:06:41Z</time>
      </trkpt>
      <trkpt lat="43.77889" lon="0.79748">
        <ele>226</ele>
        <time>2014-06-22T13:06:45Z</time>
      </trkpt>
      <trkpt lat="43.77894" lon="0.79749">
        <ele>227</ele>
        <time>2014-06-22T13:06:49Z</time>
      </trkpt>
      <trkpt lat="43.77898" lon="0.79751">
        <ele>226</ele>
        <time>2014-06-22T13:06:53Z</time>
      </trkpt>
      <trkpt lat="43.77903" lon="0.79753">
        <ele>226</ele>
        <time>2014-06-22T13:06:57Z</time>
      </trkpt>
      <trkpt lat="43.77907" lon="0.79756">
        <ele>226</ele>
        <time>2014-06-22T13:07:01Z</time>
      </trkpt>
      <trkpt lat="43.77911" lon="0.79758">
        <ele>226</ele>
        <time>2014-06-22T13:07:05Z</time>
      </trkpt>
      <trkpt lat="43.77916" lon="0.7976">
        <ele>226</ele>
        <time>2014-06-22T13:07:09Z</time>
      </trkpt>
      <trkpt lat="43.77921" lon="0.79761">
        <ele>226</ele>
        <time>2014-06-22T13:07:13Z</time>
      </trkpt>
      <trkpt lat="43.77925" lon="0.79764">
        <ele>225</ele>
        <time>2014-06-22T13:07:17Z</time>
      </trkpt>
      <trkpt lat="43.7793" lon="0.79765">
        <ele>225</ele>
        <time>2014-06-22T13:07:21Z</time>
      </trkpt>
      <trkpt lat="43.77935" lon="0.79767">
        <ele>225</ele>
        <time>2014-06-22T13:07:25Z</time>
      </trkpt>
      <trkpt lat="43.77939" lon="0.79769">
        <ele>225</ele>
        <time>2014-06-22T13:07:29Z</time>
      </trkpt>
      <trkpt lat="43.77944" lon="0.79771">
        <ele>225</ele>
        <time>2014-06-22T13:07:33Z</time>
      </trkpt>
      <trkpt lat="43.77949" lon="0.79773">
        <ele>225</ele>
        <time>2014-06-22T13:07:37Z</time>
      </trkpt>
      <trkpt lat="43.77954" lon="0.79774">
        <ele>225</ele>
        <time>2014-06-22T13:07:41Z</time>
      </trkpt>
      <trkpt lat="43.77958" lon="0.79777">
        <ele>225</ele>
        <time>2014-06-22T13:07:45Z</time>
      </trkpt>
      <trkpt lat="43.77963" lon="0.79779">
        <ele>225</ele>
        <time>2014-06-22T13:07:49Z</time>
      </trkpt>
      <trkpt lat="43.77968" lon="0.79781">
        <ele>225</ele>
        <time>2014-06-22T13:07:53Z</time>
      </trkpt>
      <trkpt lat="43.77972" lon="0.79783">
        <ele>225</ele>
        <time>2014-06-22T13:07:57Z</time>
      </trkpt>
      <trkpt lat="43.77977" lon="0.79785">
        <ele>224</ele>
        <time>2014-06-22T13:08:01Z</time>
      </trkpt>
      <trkpt lat="43.77982" lon="0.79787">
        <ele>224</ele>
        <time>2014-06-22T13:08:05Z</time>
      </trkpt>
      <trkpt lat="43.77986" lon="0.7979">
        <ele>224</ele>
        <time>2014-06-22T13:08:09Z</time>
      </trkpt>
      <trkpt lat="43.7799" lon="0.79792">
        <ele>225</ele>
        <time>2014-06-22T13:08:13Z</time>
      </trkpt>
      <trkpt lat="43.77995" lon="0.79795">
        <ele>225</ele>
        <time>2014-06-22T13:08:17Z</time>
      </trkpt>
      <trkpt lat="43.77999" lon="0.79796">
        <ele>224</ele>
        <time>2014-06-22T13:08:21Z</time>
      </trkpt>
      <trkpt lat="43.78004" lon="0.79799">
        <ele>224</ele>
        <time>2014-06-22T13:08:38Z</time>
      </trkpt>
      <trkpt lat="43.78009" lon="0.79801">
        <ele>224</ele>
        <time>2014-06-22T13:08:43Z</time>
      </trkpt>
      <trkpt lat="43.78013" lon="0.79804">
        <ele>224</ele>
        <time>2014-06-22T13:08:48Z</time>
      </trkpt>
      <trkpt lat="43.78018" lon="0.79806">
        <ele>224</ele>
        <time>2014-06-22T13:09:05Z</time>
      </trkpt>
      <trkpt lat="43.78023" lon="0.79807">
        <ele>224</ele>
        <time>2014-06-22T13:09:10Z</time>
      </trkpt>
      <trkpt lat="43.78027" lon="0.7981">
        <ele>225</ele>
        <time>2014-06-22T13:09:15Z</time>
      </trkpt>
      <trkpt lat="43.78033" lon="0.79812">
        <ele>225</ele>
        <time>2014-06-22T13:09:20Z</time>
      </trkpt>
      <trkpt lat="43.78037" lon="0.79815">
        <ele>225</ele>
        <time>2014-06-22T13:09:25Z</time>
      </trkpt>
      <trkpt lat="43.78042" lon="0.79817">
        <ele>225</ele>
        <time>2014-06-22T13:09:30Z</time>
      </trkpt>
      <trkpt lat="43.78047" lon="0.79818">
        <ele>226</ele>
        <time>2014-06-22T13:09:35Z</time>
      </trkpt>
      <trkpt lat="43.78052" lon="0.79822">
        <ele>227</ele>
        <time>2014-06-22T13:09:40Z</time>
      </trkpt>
      <trkpt lat="43.78057" lon="0.79824">
        <ele>227</ele>
        <time>2014-06-22T13:09:44Z</time>
      </trkpt>
      <trkpt lat="43.78061" lon="0.79827">
        <ele>227</ele>
        <time>2014-06-22T13:09:48Z</time>
      </trkpt>
      <trkpt lat="43.78066" lon="0.7983">
        <ele>227</ele>
        <time>2014-06-22T13:09:52Z</time>
      </trkpt>
      <trkpt lat="43.7807" lon="0.79832">
        <ele>227</ele>
        <time>2014-06-22T13:09:56Z</time>
      </trkpt>
      <trkpt lat="43.78074" lon="0.79834">
        <ele>228</ele>
        <time>2014-06-22T13:10:00Z</time>
      </trkpt>
      <trkpt lat="43.78079" lon="0.79838">
        <ele>229</ele>
        <time>2014-06-22T13:10:05Z</time>
      </trkpt>
      <trkpt lat="43.78084" lon="0.79842">
        <ele>230</ele>
        <time>2014-06-22T13:10:10Z</time>
      </trkpt>
      <trkpt lat="43.78088" lon="0.79845">
        <ele>230</ele>
        <time>2014-06-22T13:10:15Z</time>
      </trkpt>
      <trkpt lat="43.78091" lon="0.79851">
        <ele>231</ele>
        <time>2014-06-22T13:10:29Z</time>
      </trkpt>
      <trkpt lat="43.78094" lon="0.79856">
        <ele>231</ele>
        <time>2014-06-22T13:10:34Z</time>
      </trkpt>
      <trkpt lat="43.78096" lon="0.79863">
        <ele>230</ele>
        <time>2014-06-22T13:10:39Z</time>
      </trkpt>
      <trkpt lat="43.78099" lon="0.79869">
        <ele>230</ele>
        <time>2014-06-22T13:10:44Z</time>
      </trkpt>
      <trkpt lat="43.78102" lon="0.79875">
        <ele>229</ele>
        <time>2014-06-22T13:10:49Z</time>
      </trkpt>
      <trkpt lat="43.78106" lon="0.79879">
        <ele>228</ele>
        <time>2014-06-22T13:11:07Z</time>
      </trkpt>
      <trkpt lat="43.78108" lon="0.79885">
        <ele>228</ele>
        <time>2014-06-22T13:11:21Z</time>
      </trkpt>
      <trkpt lat="43.78105" lon="0.7989">
        <ele>226</ele>
        <time>2014-06-22T13:11:42Z</time>
      </trkpt>
      <trkpt lat="43.78104" lon="0.79897">
        <ele>228</ele>
        <time>2014-06-22T13:11:47Z</time>
      </trkpt>
      <trkpt lat="43.78105" lon="0.79903">
        <ele>227</ele>
        <time>2014-06-22T13:11:51Z</time>
      </trkpt>
      <trkpt lat="43.78103" lon="0.7991">
        <ele>226</ele>
        <time>2014-06-22T13:12:21Z</time>
      </trkpt>
      <trkpt lat="43.78098" lon="0.7991">
        <ele>226</ele>
        <time>2014-06-22T13:12:26Z</time>
      </trkpt>
      <trkpt lat="43.78093" lon="0.7991">
        <ele>226</ele>
        <time>2014-06-22T13:12:30Z</time>
      </trkpt>
      <trkpt lat="43.78093" lon="0.7991">
        <ele>226</ele>
        <time>2014-06-22T13:12:38Z</time>
      </trkpt>
      <trkpt lat="43.78098" lon="0.79912">
        <ele>224</ele>
        <time>2014-06-22T13:23:03Z</time>
      </trkpt>
      <trkpt lat="43.78103" lon="0.79915">
        <ele>223</ele>
        <time>2014-06-22T13:23:08Z</time>
      </trkpt>
      <trkpt lat="43.78105" lon="0.79921">
        <ele>222</ele>
        <time>2014-06-22T13:23:12Z</time>
      </trkpt>
      <trkpt lat="43.78108" lon="0.79928">
        <ele>221</ele>
        <time>2014-06-22T13:23:17Z</time>
      </trkpt>
      <trkpt lat="43.78109" lon="0.79936">
        <ele>221</ele>
        <time>2014-06-22T13:23:22Z</time>
      </trkpt>
      <trkpt lat="43.78109" lon="0.79943">
        <ele>221</ele>
        <time>2014-06-22T13:23:27Z</time>
      </trkpt>
      <trkpt lat="43.78108" lon="0.7995">
        <ele>220</ele>
        <time>2014-06-22T13:23:31Z</time>
      </trkpt>
      <trkpt lat="43.78109" lon="0.79957">
        <ele>221</ele>
        <time>2014-06-22T13:23:36Z</time>
      </trkpt>
      <trkpt lat="43.78109" lon="0.79965">
        <ele>221</ele>
        <time>2014-06-22T13:23:41Z</time>
      </trkpt>
      <trkpt lat="43.7811" lon="0.79972">
        <ele>221</ele>
        <time>2014-06-22T13:23:45Z</time>
      </trkpt>
      <trkpt lat="43.78108" lon="0.79979">
        <ele>221</ele>
        <time>2014-06-22T13:23:49Z</time>
      </trkpt>
      <trkpt lat="43.78106" lon="0.79985">
        <ele>221</ele>
        <time>2014-06-22T13:23:53Z</time>
      </trkpt>
      <trkpt lat="43.78106" lon="0.79992">
        <ele>220</ele>
        <time>2014-06-22T13:23:57Z</time>
      </trkpt>
      <trkpt lat="43.78107" lon="0.79998">
        <ele>220</ele>
        <time>2014-06-22T13:24:01Z</time>
      </trkpt>
      <trkpt lat="43.78109" lon="0.80005">
        <ele>220</ele>
        <time>2014-06-22T13:24:05Z</time>
      </trkpt>
      <trkpt lat="43.7811" lon="0.80011">
        <ele>221</ele>
        <time>2014-06-22T13:24:09Z</time>
      </trkpt>
      <trkpt lat="43.78108" lon="0.80017">
        <ele>221</ele>
        <time>2014-06-22T13:24:13Z</time>
      </trkpt>
      <trkpt lat="43.78104" lon="0.80021">
        <ele>221</ele>
        <time>2014-06-22T13:24:18Z</time>
      </trkpt>
      <trkpt lat="43.78107" lon="0.80027">
        <ele>222</ele>
        <time>2014-06-22T13:25:20Z</time>
      </trkpt>
      <trkpt lat="43.78108" lon="0.80033">
        <ele>221</ele>
        <time>2014-06-22T13:25:23Z</time>
      </trkpt>
      <trkpt lat="43.78109" lon="0.8004">
        <ele>220</ele>
        <time>2014-06-22T13:25:26Z</time>
      </trkpt>
      <trkpt lat="43.78111" lon="0.80047">
        <ele>222</ele>
        <time>2014-06-22T13:25:29Z</time>
      </trkpt>
      <trkpt lat="43.78114" lon="0.80053">
        <ele>223</ele>
        <time>2014-06-22T13:25:32Z</time>
      </trkpt>
      <trkpt lat="43.78116" lon="0.80059">
        <ele>224</ele>
        <time>2014-06-22T13:25:37Z</time>
      </trkpt>
      <trkpt lat="43.78115" lon="0.80066">
        <ele>223</ele>
        <time>2014-06-22T13:26:13Z</time>
      </trkpt>
      <trkpt lat="43.78113" lon="0.80072">
        <ele>225</ele>
        <time>2014-06-22T13:26:16Z</time>
      </trkpt>
      <trkpt lat="43.78111" lon="0.80079">
        <ele>225</ele>
        <time>2014-06-22T13:26:19Z</time>
      </trkpt>
      <trkpt lat="43.78109" lon="0.80085">
        <ele>224</ele>
        <time>2014-06-22T13:26:22Z</time>
      </trkpt>
      <trkpt lat="43.78106" lon="0.80091">
        <ele>224</ele>
        <time>2014-06-22T13:26:25Z</time>
      </trkpt>
      <trkpt lat="43.78106" lon="0.80098">
        <ele>224</ele>
        <time>2014-06-22T13:26:28Z</time>
      </trkpt>
      <trkpt lat="43.78105" lon="0.80106">
        <ele>226</ele>
        <time>2014-06-22T13:26:32Z</time>
      </trkpt>
      <trkpt lat="43.78103" lon="0.80113">
        <ele>226</ele>
        <time>2014-06-22T13:26:36Z</time>
      </trkpt>
      <trkpt lat="43.78101" lon="0.8012">
        <ele>225</ele>
        <time>2014-06-22T13:26:41Z</time>
      </trkpt>
      <trkpt lat="43.78099" lon="0.80127">
        <ele>225</ele>
        <time>2014-06-22T13:26:45Z</time>
      </trkpt>
      <trkpt lat="43.78097" lon="0.80133">
        <ele>227</ele>
        <time>2014-06-22T13:26:49Z</time>
      </trkpt>
      <trkpt lat="43.78095" lon="0.80139">
        <ele>226</ele>
        <time>2014-06-22T13:26:52Z</time>
      </trkpt>
      <trkpt lat="43.78094" lon="0.80145">
        <ele>226</ele>
        <time>2014-06-22T13:26:55Z</time>
      </trkpt>
      <trkpt lat="43.78091" lon="0.80151">
        <ele>225</ele>
        <time>2014-06-22T13:26:59Z</time>
      </trkpt>
      <trkpt lat="43.7809" lon="0.80157">
        <ele>223</ele>
        <time>2014-06-22T13:27:03Z</time>
      </trkpt>
      <trkpt lat="43.78088" lon="0.80163">
        <ele>225</ele>
        <time>2014-06-22T13:27:07Z</time>
      </trkpt>
      <trkpt lat="43.78085" lon="0.80168">
        <ele>223</ele>
        <time>2014-06-22T13:27:13Z</time>
      </trkpt>
      <trkpt lat="43.78081" lon="0.80172">
        <ele>223</ele>
        <time>2014-06-22T13:27:16Z</time>
      </trkpt>
      <trkpt lat="43.78079" lon="0.80179">
        <ele>222</ele>
        <time>2014-06-22T13:27:20Z</time>
      </trkpt>
      <trkpt lat="43.78077" lon="0.80186">
        <ele>222</ele>
        <time>2014-06-22T13:27:25Z</time>
      </trkpt>
      <trkpt lat="43.78074" lon="0.80192">
        <ele>223</ele>
        <time>2014-06-22T13:27:30Z</time>
      </trkpt>
      <trkpt lat="43.78073" lon="0.80198">
        <ele>224</ele>
        <time>2014-06-22T13:27:34Z</time>
      </trkpt>
      <trkpt lat="43.78072" lon="0.80205">
        <ele>224</ele>
        <time>2014-06-22T13:27:38Z</time>
      </trkpt>
      <trkpt lat="43.78071" lon="0.80212">
        <ele>223</ele>
        <time>2014-06-22T13:27:42Z</time>
      </trkpt>
      <trkpt lat="43.78069" lon="0.80218">
        <ele>224</ele>
        <time>2014-06-22T13:27:46Z</time>
      </trkpt>
      <trkpt lat="43.78066" lon="0.80223">
        <ele>224</ele>
        <time>2014-06-22T13:27:50Z</time>
      </trkpt>
      <trkpt lat="43.78064" lon="0.80229">
        <ele>224</ele>
        <time>2014-06-22T13:27:54Z</time>
      </trkpt>
      <trkpt lat="43.78062" lon="0.80236">
        <ele>224</ele>
        <time>2014-06-22T13:27:58Z</time>
      </trkpt>
      <trkpt lat="43.7806" lon="0.80242">
        <ele>224</ele>
        <time>2014-06-22T13:28:02Z</time>
      </trkpt>
      <trkpt lat="43.78059" lon="0.80249">
        <ele>225</ele>
        <time>2014-06-22T13:28:06Z</time>
      </trkpt>
      <trkpt lat="43.78058" lon="0.80257">
        <ele>225</ele>
        <time>2014-06-22T13:28:10Z</time>
      </trkpt>
      <trkpt lat="43.78058" lon="0.80263">
        <ele>224</ele>
        <time>2014-06-22T13:28:14Z</time>
      </trkpt>
      <trkpt lat="43.78058" lon="0.80271">
        <ele>223</ele>
        <time>2014-06-22T13:28:19Z</time>
      </trkpt>
      <trkpt lat="43.78056" lon="0.80277">
        <ele>223</ele>
        <time>2014-06-22T13:28:23Z</time>
      </trkpt>
      <trkpt lat="43.78056" lon="0.80283">
        <ele>222</ele>
        <time>2014-06-22T13:28:27Z</time>
      </trkpt>
      <trkpt lat="43.78056" lon="0.8029">
        <ele>222</ele>
        <time>2014-06-22T13:28:31Z</time>
      </trkpt>
      <trkpt lat="43.78055" lon="0.80297">
        <ele>222</ele>
        <time>2014-06-22T13:28:36Z</time>
      </trkpt>
      <trkpt lat="43.78054" lon="0.80304">
        <ele>222</ele>
        <time>2014-06-22T13:28:40Z</time>
      </trkpt>
      <trkpt lat="43.7805" lon="0.80308">
        <ele>222</ele>
        <time>2014-06-22T13:28:44Z</time>
      </trkpt>
      <trkpt lat="43.78052" lon="0.80315">
        <ele>222</ele>
        <time>2014-06-22T13:29:26Z</time>
      </trkpt>
      <trkpt lat="43.78052" lon="0.80321">
        <ele>223</ele>
        <time>2014-06-22T13:29:29Z</time>
      </trkpt>
      <trkpt lat="43.78051" lon="0.80328">
        <ele>223</ele>
        <time>2014-06-22T13:29:33Z</time>
      </trkpt>
      <trkpt lat="43.7805" lon="0.80336">
        <ele>222</ele>
        <time>2014-06-22T13:29:38Z</time>
      </trkpt>
      <trkpt lat="43.7805" lon="0.80342">
        <ele>224</ele>
        <time>2014-06-22T13:29:42Z</time>
      </trkpt>
      <trkpt lat="43.78049" lon="0.80349">
        <ele>224</ele>
        <time>2014-06-22T13:29:46Z</time>
      </trkpt>
      <trkpt lat="43.78049" lon="0.80355">
        <ele>223</ele>
        <time>2014-06-22T13:29:50Z</time>
      </trkpt>
      <trkpt lat="43.78047" lon="0.80361">
        <ele>222</ele>
        <time>2014-06-22T13:29:54Z</time>
      </trkpt>
      <trkpt lat="43.78047" lon="0.80369">
        <ele>223</ele>
        <time>2014-06-22T13:29:59Z</time>
      </trkpt>
      <trkpt lat="43.78046" lon="0.80375">
        <ele>223</ele>
        <time>2014-06-22T13:30:03Z</time>
      </trkpt>
      <trkpt lat="43.78043" lon="0.80381">
        <ele>221</ele>
        <time>2014-06-22T13:30:07Z</time>
      </trkpt>
      <trkpt lat="43.78046" lon="0.80387">
        <ele>221</ele>
        <time>2014-06-22T13:30:13Z</time>
      </trkpt>
      <trkpt lat="43.78042" lon="0.80392">
        <ele>222</ele>
        <time>2014-06-22T13:30:55Z</time>
      </trkpt>
      <trkpt lat="43.78041" lon="0.80399">
        <ele>221</ele>
        <time>2014-06-22T13:31:01Z</time>
      </trkpt>
      <trkpt lat="43.78038" lon="0.80405">
        <ele>221</ele>
        <time>2014-06-22T13:31:06Z</time>
      </trkpt>
      <trkpt lat="43.78036" lon="0.80411">
        <ele>220</ele>
        <time>2014-06-22T13:31:10Z</time>
      </trkpt>
      <trkpt lat="43.78034" lon="0.80416">
        <ele>220</ele>
        <time>2014-06-22T13:31:14Z</time>
      </trkpt>
      <trkpt lat="43.78031" lon="0.80422">
        <ele>220</ele>
        <time>2014-06-22T13:31:18Z</time>
      </trkpt>
      <trkpt lat="43.78028" lon="0.80427">
        <ele>220</ele>
        <time>2014-06-22T13:31:27Z</time>
      </trkpt>
      <trkpt lat="43.78025" lon="0.80433">
        <ele>220</ele>
        <time>2014-06-22T13:31:31Z</time>
      </trkpt>
      <trkpt lat="43.78022" lon="0.80438">
        <ele>219</ele>
        <time>2014-06-22T13:31:36Z</time>
      </trkpt>
      <trkpt lat="43.78019" lon="0.80444">
        <ele>219</ele>
        <time>2014-06-22T13:31:40Z</time>
      </trkpt>
      <trkpt lat="43.78016" lon="0.80449">
        <ele>218</ele>
        <time>2014-06-22T13:31:45Z</time>
      </trkpt>
      <trkpt lat="43.78012" lon="0.80455">
        <ele>218</ele>
        <time>2014-06-22T13:31:50Z</time>
      </trkpt>
      <trkpt lat="43.78009" lon="0.80461">
        <ele>217</ele>
        <time>2014-06-22T13:31:55Z</time>
      </trkpt>
      <trkpt lat="43.78007" lon="0.80466">
        <ele>217</ele>
        <time>2014-06-22T13:31:59Z</time>
      </trkpt>
      <trkpt lat="43.78004" lon="0.80472">
        <ele>218</ele>
        <time>2014-06-22T13:32:03Z</time>
      </trkpt>
      <trkpt lat="43.78001" lon="0.80477">
        <ele>217</ele>
        <time>2014-06-22T13:32:07Z</time>
      </trkpt>
      <trkpt lat="43.77999" lon="0.80483">
        <ele>217</ele>
        <time>2014-06-22T13:32:11Z</time>
      </trkpt>
      <trkpt lat="43.77996" lon="0.80489">
        <ele>216</ele>
        <time>2014-06-22T13:32:16Z</time>
      </trkpt>
      <trkpt lat="43.77993" lon="0.80496">
        <ele>216</ele>
        <time>2014-06-22T13:32:21Z</time>
      </trkpt>
      <trkpt lat="43.77989" lon="0.805">
        <ele>216</ele>
        <time>2014-06-22T13:32:35Z</time>
      </trkpt>
      <trkpt lat="43.77987" lon="0.80506">
        <ele>215</ele>
        <time>2014-06-22T13:32:39Z</time>
      </trkpt>
      <trkpt lat="43.77985" lon="0.80511">
        <ele>214</ele>
        <time>2014-06-22T13:32:43Z</time>
      </trkpt>
      <trkpt lat="43.77982" lon="0.80516">
        <ele>214</ele>
        <time>2014-06-22T13:32:47Z</time>
      </trkpt>
      <trkpt lat="43.77978" lon="0.80522">
        <ele>214</ele>
        <time>2014-06-22T13:32:53Z</time>
      </trkpt>
      <trkpt lat="43.77975" lon="0.80527">
        <ele>214</ele>
        <time>2014-06-22T13:32:57Z</time>
      </trkpt>
      <trkpt lat="43.77972" lon="0.80532">
        <ele>213</ele>
        <time>2014-06-22T13:33:01Z</time>
      </trkpt>
      <trkpt lat="43.77968" lon="0.80538">
        <ele>213</ele>
        <time>2014-06-22T13:33:05Z</time>
      </trkpt>
      <trkpt lat="43.77965" lon="0.80543">
        <ele>213</ele>
        <time>2014-06-22T13:33:09Z</time>
      </trkpt>
      <trkpt lat="43.77962" lon="0.80548">
        <ele>213</ele>
        <time>2014-06-22T13:33:13Z</time>
      </trkpt>
      <trkpt lat="43.77959" lon="0.80554">
        <ele>213</ele>
        <time>2014-06-22T13:33:18Z</time>
      </trkpt>
      <trkpt lat="43.77955" lon="0.8056">
        <ele>213</ele>
        <time>2014-06-22T13:33:23Z</time>
      </trkpt>
      <trkpt lat="43.77952" lon="0.80565">
        <ele>213</ele>
        <time>2014-06-22T13:33:27Z</time>
      </trkpt>
      <trkpt lat="43.77949" lon="0.80569">
        <ele>213</ele>
        <time>2014-06-22T13:33:31Z</time>
      </trkpt>
      <trkpt lat="43.77946" lon="0.80574">
        <ele>213</ele>
        <time>2014-06-22T13:33:35Z</time>
      </trkpt>
      <trkpt lat="43.77942" lon="0.80579">
        <ele>213</ele>
        <time>2014-06-22T13:33:39Z</time>
      </trkpt>
      <trkpt lat="43.77939" lon="0.80583">
        <ele>212</ele>
        <time>2014-06-22T13:33:43Z</time>
      </trkpt>
      <trkpt lat="43.77936" lon="0.80588">
        <ele>211</ele>
        <time>2014-06-22T13:33:47Z</time>
      </trkpt>
      <trkpt lat="43.77933" lon="0.80593">
        <ele>211</ele>
        <time>2014-06-22T13:33:52Z</time>
      </trkpt>
      <trkpt lat="43.77929" lon="0.80597">
        <ele>210</ele>
        <time>2014-06-22T13:33:56Z</time>
      </trkpt>
      <trkpt lat="43.77925" lon="0.80602">
        <ele>210</ele>
        <time>2014-06-22T13:34:00Z</time>
      </trkpt>
      <trkpt lat="43.77922" lon="0.80606">
        <ele>209</ele>
        <time>2014-06-22T13:34:20Z</time>
      </trkpt>
      <trkpt lat="43.77918" lon="0.80611">
        <ele>210</ele>
        <time>2014-06-22T13:34:24Z</time>
      </trkpt>
      <trkpt lat="43.77915" lon="0.80615">
        <ele>209</ele>
        <time>2014-06-22T13:34:28Z</time>
      </trkpt>
      <trkpt lat="43.77912" lon="0.8062">
        <ele>208</ele>
        <time>2014-06-22T13:34:32Z</time>
      </trkpt>
      <trkpt lat="43.77908" lon="0.80625">
        <ele>207</ele>
        <time>2014-06-22T13:34:37Z</time>
      </trkpt>
      <trkpt lat="43.77905" lon="0.80631">
        <ele>206</ele>
        <time>2014-06-22T13:34:43Z</time>
      </trkpt>
      <trkpt lat="43.77902" lon="0.80636">
        <ele>205</ele>
        <time>2014-06-22T13:34:49Z</time>
      </trkpt>
      <trkpt lat="43.779" lon="0.80643">
        <ele>202</ele>
        <time>2014-06-22T13:35:01Z</time>
      </trkpt>
      <trkpt lat="43.77897" lon="0.80649">
        <ele>203</ele>
        <time>2014-06-22T13:35:05Z</time>
      </trkpt>
      <trkpt lat="43.77894" lon="0.80654">
        <ele>203</ele>
        <time>2014-06-22T13:35:08Z</time>
      </trkpt>
      <trkpt lat="43.77891" lon="0.80659">
        <ele>202</ele>
        <time>2014-06-22T13:35:17Z</time>
      </trkpt>
      <trkpt lat="43.77889" lon="0.80665">
        <ele>202</ele>
        <time>2014-06-22T13:35:33Z</time>
      </trkpt>
      <trkpt lat="43.77885" lon="0.8067">
        <ele>199</ele>
        <time>2014-06-22T13:35:38Z</time>
      </trkpt>
      <trkpt lat="43.77882" lon="0.80674">
        <ele>198</ele>
        <time>2014-06-22T13:35:41Z</time>
      </trkpt>
      <trkpt lat="43.77878" lon="0.8068">
        <ele>198</ele>
        <time>2014-06-22T13:35:45Z</time>
      </trkpt>
      <trkpt lat="43.77875" lon="0.80687">
        <ele>198</ele>
        <time>2014-06-22T13:35:49Z</time>
      </trkpt>
      <trkpt lat="43.77871" lon="0.80693">
        <ele>198</ele>
        <time>2014-06-22T13:35:53Z</time>
      </trkpt>
      <trkpt lat="43.77868" lon="0.80699">
        <ele>199</ele>
        <time>2014-06-22T13:35:57Z</time>
      </trkpt>
      <trkpt lat="43.77865" lon="0.80705">
        <ele>199</ele>
        <time>2014-06-22T13:36:01Z</time>
      </trkpt>
      <trkpt lat="43.77862" lon="0.80711">
        <ele>200</ele>
        <time>2014-06-22T13:36:05Z</time>
      </trkpt>
      <trkpt lat="43.77859" lon="0.80717">
        <ele>200</ele>
        <time>2014-06-22T13:36:09Z</time>
      </trkpt>
      <trkpt lat="43.77857" lon="0.80722">
        <ele>199</ele>
        <time>2014-06-22T13:36:13Z</time>
      </trkpt>
      <trkpt lat="43.77854" lon="0.80728">
        <ele>198</ele>
        <time>2014-06-22T13:36:18Z</time>
      </trkpt>
      <trkpt lat="43.77851" lon="0.80733">
        <ele>197</ele>
        <time>2014-06-22T13:36:22Z</time>
      </trkpt>
      <trkpt lat="43.77848" lon="0.80739">
        <ele>197</ele>
        <time>2014-06-22T13:36:26Z</time>
      </trkpt>
      <trkpt lat="43.77845" lon="0.80744">
        <ele>196</ele>
        <time>2014-06-22T13:36:30Z</time>
      </trkpt>
      <trkpt lat="43.77842" lon="0.80749">
        <ele>195</ele>
        <time>2014-06-22T13:36:35Z</time>
      </trkpt>
      <trkpt lat="43.77839" lon="0.80755">
        <ele>195</ele>
        <time>2014-06-22T13:36:40Z</time>
      </trkpt>
      <trkpt lat="43.77836" lon="0.80761">
        <ele>194</ele>
        <time>2014-06-22T13:36:45Z</time>
      </trkpt>
      <trkpt lat="43.77833" lon="0.80766">
        <ele>195</ele>
        <time>2014-06-22T13:36:50Z</time>
      </trkpt>
      <trkpt lat="43.7783" lon="0.80771">
        <ele>194</ele>
        <time>2014-06-22T13:36:55Z</time>
      </trkpt>
      <trkpt lat="43.77827" lon="0.80777">
        <ele>195</ele>
        <time>2014-06-22T13:37:00Z</time>
      </trkpt>
      <trkpt lat="43.77823" lon="0.80781">
        <ele>195</ele>
        <time>2014-06-22T13:37:04Z</time>
      </trkpt>
      <trkpt lat="43.77819" lon="0.80785">
        <ele>194</ele>
        <time>2014-06-22T13:37:08Z</time>
      </trkpt>
      <trkpt lat="43.77815" lon="0.8079">
        <ele>194</ele>
        <time>2014-06-22T13:37:12Z</time>
      </trkpt>
      <trkpt lat="43.77812" lon="0.80795">
        <ele>193</ele>
        <time>2014-06-22T13:37:16Z</time>
      </trkpt>
      <trkpt lat="43.77809" lon="0.80801">
        <ele>193</ele>
        <time>2014-06-22T13:37:21Z</time>
      </trkpt>
      <trkpt lat="43.77806" lon="0.80807">
        <ele>193</ele>
        <time>2014-06-22T13:37:26Z</time>
      </trkpt>
      <trkpt lat="43.77802" lon="0.80812">
        <ele>192</ele>
        <time>2014-06-22T13:37:31Z</time>
      </trkpt>
      <trkpt lat="43.77798" lon="0.80817">
        <ele>191</ele>
        <time>2014-06-22T13:37:35Z</time>
      </trkpt>
      <trkpt lat="43.77794" lon="0.80822">
        <ele>192</ele>
        <time>2014-06-22T13:37:39Z</time>
      </trkpt>
      <trkpt lat="43.77791" lon="0.80828">
        <ele>191</ele>
        <time>2014-06-22T13:37:43Z</time>
      </trkpt>
      <trkpt lat="43.77787" lon="0.80833">
        <ele>190</ele>
        <time>2014-06-22T13:37:47Z</time>
      </trkpt>
      <trkpt lat="43.77782" lon="0.80837">
        <ele>191</ele>
        <time>2014-06-22T13:37:51Z</time>
      </trkpt>
      <trkpt lat="43.77779" lon="0.80842">
        <ele>191</ele>
        <time>2014-06-22T13:37:55Z</time>
      </trkpt>
      <trkpt lat="43.77776" lon="0.80847">
        <ele>190</ele>
        <time>2014-06-22T13:37:59Z</time>
      </trkpt>
      <trkpt lat="43.77772" lon="0.80851">
        <ele>189</ele>
        <time>2014-06-22T13:38:04Z</time>
      </trkpt>
      <trkpt lat="43.77768" lon="0.80855">
        <ele>191</ele>
        <time>2014-06-22T13:38:08Z</time>
      </trkpt>
      <trkpt lat="43.77765" lon="0.80859">
        <ele>190</ele>
        <time>2014-06-22T13:38:12Z</time>
      </trkpt>
      <trkpt lat="43.7776" lon="0.80862">
        <ele>188</ele>
        <time>2014-06-22T13:38:17Z</time>
      </trkpt>
      <trkpt lat="43.77756" lon="0.80865">
        <ele>187</ele>
        <time>2014-06-22T13:38:22Z</time>
      </trkpt>
      <trkpt lat="43.77751" lon="0.80868">
        <ele>187</ele>
        <time>2014-06-22T13:38:26Z</time>
      </trkpt>
      <trkpt lat="43.77747" lon="0.8087">
        <ele>186</ele>
        <time>2014-06-22T13:38:30Z</time>
      </trkpt>
      <trkpt lat="43.77742" lon="0.80873">
        <ele>184</ele>
        <time>2014-06-22T13:38:35Z</time>
      </trkpt>
      <trkpt lat="43.77738" lon="0.80876">
        <ele>185</ele>
        <time>2014-06-22T13:38:41Z</time>
      </trkpt>
      <trkpt lat="43.77734" lon="0.80878">
        <ele>185</ele>
        <time>2014-06-22T13:38:44Z</time>
      </trkpt>
      <trkpt lat="43.77731" lon="0.80884">
        <ele>184</ele>
        <time>2014-06-22T13:38:48Z</time>
      </trkpt>
      <trkpt lat="43.77726" lon="0.80887">
        <ele>185</ele>
        <time>2014-06-22T13:38:52Z</time>
      </trkpt>
      <trkpt lat="43.77722" lon="0.8089">
        <ele>186</ele>
        <time>2014-06-22T13:38:56Z</time>
      </trkpt>
      <trkpt lat="43.77718" lon="0.80895">
        <ele>187</ele>
        <time>2014-06-22T13:39:01Z</time>
      </trkpt>
      <trkpt lat="43.77715" lon="0.809">
        <ele>189</ele>
        <time>2014-06-22T13:39:15Z</time>
      </trkpt>
      <trkpt lat="43.7771" lon="0.80901">
        <ele>188</ele>
        <time>2014-06-22T13:40:20Z</time>
      </trkpt>
      <trkpt lat="43.77705" lon="0.809">
        <ele>186</ele>
        <time>2014-06-22T13:41:35Z</time>
      </trkpt>
      <trkpt lat="43.77706" lon="0.80894">
        <ele>188</ele>
        <time>2014-06-22T13:43:16Z</time>
      </trkpt>
      <trkpt lat="43.77711" lon="0.80896">
        <ele>183</ele>
        <time>2014-06-22T13:46:36Z</time>
      </trkpt>
      <trkpt lat="43.77715" lon="0.80892">
        <ele>187</ele>
        <time>2014-06-22T13:48:53Z</time>
      </trkpt>
      <trkpt lat="43.77717" lon="0.80886">
        <ele>186</ele>
        <time>2014-06-22T13:49:01Z</time>
      </trkpt>
      <trkpt lat="43.77715" lon="0.8088">
        <ele>189</ele>
        <time>2014-06-22T13:49:12Z</time>
      </trkpt>
      <trkpt lat="43.77711" lon="0.80878">
        <ele>188</ele>
        <time>2014-06-22T13:49:19Z</time>
      </trkpt>
      <trkpt lat="43.77706" lon="0.80877">
        <ele>188</ele>
        <time>2014-06-22T13:49:32Z</time>
      </trkpt>
      <trkpt lat="43.77702" lon="0.80881">
        <ele>189</ele>
        <time>2014-06-22T13:49:38Z</time>
      </trkpt>
      <trkpt lat="43.77698" lon="0.80886">
        <ele>189</ele>
        <time>2014-06-22T13:49:44Z</time>
      </trkpt>
      <trkpt lat="43.77695" lon="0.8089">
        <ele>191</ele>
        <time>2014-06-22T13:49:48Z</time>
      </trkpt>
      <trkpt lat="43.77692" lon="0.80895">
        <ele>191</ele>
        <time>2014-06-22T13:49:52Z</time>
      </trkpt>
      <trkpt lat="43.77689" lon="0.809">
        <ele>192</ele>
        <time>2014-06-22T13:49:56Z</time>
      </trkpt>
      <trkpt lat="43.77686" lon="0.80905">
        <ele>192</ele>
        <time>2014-06-22T13:50:00Z</time>
      </trkpt>
      <trkpt lat="43.77683" lon="0.8091">
        <ele>192</ele>
        <time>2014-06-22T13:50:04Z</time>
      </trkpt>
      <trkpt lat="43.77681" lon="0.80916">
        <ele>193</ele>
        <time>2014-06-22T13:50:08Z</time>
      </trkpt>
      <trkpt lat="43.77677" lon="0.80921">
        <ele>192</ele>
        <time>2014-06-22T13:50:12Z</time>
      </trkpt>
      <trkpt lat="43.77674" lon="0.80926">
        <ele>191</ele>
        <time>2014-06-22T13:50:16Z</time>
      </trkpt>
      <trkpt lat="43.77671" lon="0.80932">
        <ele>191</ele>
        <time>2014-06-22T13:50:20Z</time>
      </trkpt>
      <trkpt lat="43.77668" lon="0.80936">
        <ele>191</ele>
        <time>2014-06-22T13:50:24Z</time>
      </trkpt>
      <trkpt lat="43.77667" lon="0.80942">
        <ele>191</ele>
        <time>2014-06-22T13:50:39Z</time>
      </trkpt>
      <trkpt lat="43.77664" lon="0.80949">
        <ele>193</ele>
        <time>2014-06-22T13:50:44Z</time>
      </trkpt>
      <trkpt lat="43.7766" lon="0.80955">
        <ele>192</ele>
        <time>2014-06-22T13:50:52Z</time>
      </trkpt>
      <trkpt lat="43.77657" lon="0.8096">
        <ele>193</ele>
        <time>2014-06-22T13:50:56Z</time>
      </trkpt>
      <trkpt lat="43.77654" lon="0.80966">
        <ele>194</ele>
        <time>2014-06-22T13:51:01Z</time>
      </trkpt>
      <trkpt lat="43.7765" lon="0.80971">
        <ele>194</ele>
        <time>2014-06-22T13:51:06Z</time>
      </trkpt>
      <trkpt lat="43.77643" lon="0.80984">
        <ele>194</ele>
        <time>2014-06-22T13:51:17Z</time>
      </trkpt>
      <trkpt lat="43.77638" lon="0.80989">
        <ele>198</ele>
        <time>2014-06-22T13:51:24Z</time>
      </trkpt>
      <trkpt lat="43.77637" lon="0.80996">
        <ele>198</ele>
        <time>2014-06-22T13:51:27Z</time>
      </trkpt>
      <trkpt lat="43.77636" lon="0.81003">
        <ele>197</ele>
        <time>2014-06-22T13:51:30Z</time>
      </trkpt>
      <trkpt lat="43.77634" lon="0.81009">
        <ele>197</ele>
        <time>2014-06-22T13:51:34Z</time>
      </trkpt>
      <trkpt lat="43.77632" lon="0.81016">
        <ele>196</ele>
        <time>2014-06-22T13:52:19Z</time>
      </trkpt>
      <trkpt lat="43.7763" lon="0.81021">
        <ele>194</ele>
        <time>2014-06-22T13:52:23Z</time>
      </trkpt>
      <trkpt lat="43.77626" lon="0.81025">
        <ele>195</ele>
        <time>2014-06-22T13:52:27Z</time>
      </trkpt>
      <trkpt lat="43.77622" lon="0.81028">
        <ele>194</ele>
        <time>2014-06-22T13:52:32Z</time>
      </trkpt>
      <trkpt lat="43.77617" lon="0.81028">
        <ele>194</ele>
        <time>2014-06-22T13:52:37Z</time>
      </trkpt>
      <trkpt lat="43.77612" lon="0.81028">
        <ele>194</ele>
        <time>2014-06-22T13:52:42Z</time>
      </trkpt>
      <trkpt lat="43.77607" lon="0.81025">
        <ele>196</ele>
        <time>2014-06-22T13:52:48Z</time>
      </trkpt>
      <trkpt lat="43.77603" lon="0.81022">
        <ele>197</ele>
        <time>2014-06-22T13:52:54Z</time>
      </trkpt>
      <trkpt lat="43.77599" lon="0.81019">
        <ele>199</ele>
        <time>2014-06-22T13:53:00Z</time>
      </trkpt>
      <trkpt lat="43.77595" lon="0.81015">
        <ele>199</ele>
        <time>2014-06-22T13:53:05Z</time>
      </trkpt>
      <trkpt lat="43.7759" lon="0.81012">
        <ele>199</ele>
        <time>2014-06-22T13:53:10Z</time>
      </trkpt>
      <trkpt lat="43.77586" lon="0.81009">
        <ele>200</ele>
        <time>2014-06-22T13:53:15Z</time>
      </trkpt>
      <trkpt lat="43.77581" lon="0.81007">
        <ele>202</ele>
        <time>2014-06-22T13:53:20Z</time>
      </trkpt>
      <trkpt lat="43.77577" lon="0.81004">
        <ele>204</ele>
        <time>2014-06-22T13:53:25Z</time>
      </trkpt>
      <trkpt lat="43.77573" lon="0.81001">
        <ele>206</ele>
        <time>2014-06-22T13:53:31Z</time>
      </trkpt>
      <trkpt lat="43.77568" lon="0.80997">
        <ele>206</ele>
        <time>2014-06-22T13:53:37Z</time>
      </trkpt>
      <trkpt lat="43.77564" lon="0.80993">
        <ele>206</ele>
        <time>2014-06-22T13:53:42Z</time>
      </trkpt>
      <trkpt lat="43.77559" lon="0.80988">
        <ele>206</ele>
        <time>2014-06-22T13:53:47Z</time>
      </trkpt>
      <trkpt lat="43.77555" lon="0.80984">
        <ele>206</ele>
        <time>2014-06-22T13:53:52Z</time>
      </trkpt>
      <trkpt lat="43.77551" lon="0.80981">
        <ele>207</ele>
        <time>2014-06-22T13:53:56Z</time>
      </trkpt>
      <trkpt lat="43.77547" lon="0.80977">
        <ele>207</ele>
        <time>2014-06-22T13:54:00Z</time>
      </trkpt>
      <trkpt lat="43.77542" lon="0.80974">
        <ele>208</ele>
        <time>2014-06-22T13:54:05Z</time>
      </trkpt>
      <trkpt lat="43.77537" lon="0.8097">
        <ele>207</ele>
        <time>2014-06-22T13:54:10Z</time>
      </trkpt>
      <trkpt lat="43.77533" lon="0.80965">
        <ele>204</ele>
        <time>2014-06-22T13:54:14Z</time>
      </trkpt>
      <trkpt lat="43.77529" lon="0.80961">
        <ele>204</ele>
        <time>2014-06-22T13:54:18Z</time>
      </trkpt>
      <trkpt lat="43.77524" lon="0.80957">
        <ele>204</ele>
        <time>2014-06-22T13:54:22Z</time>
      </trkpt>
      <trkpt lat="43.7752" lon="0.80954">
        <ele>204</ele>
        <time>2014-06-22T13:54:26Z</time>
      </trkpt>
      <trkpt lat="43.77516" lon="0.80951">
        <ele>203</ele>
        <time>2014-06-22T13:54:30Z</time>
      </trkpt>
      <trkpt lat="43.77511" lon="0.80949">
        <ele>205</ele>
        <time>2014-06-22T13:54:35Z</time>
      </trkpt>
      <trkpt lat="43.77508" lon="0.80944">
        <ele>205</ele>
        <time>2014-06-22T13:54:39Z</time>
      </trkpt>
      <trkpt lat="43.77504" lon="0.80938">
        <ele>205</ele>
        <time>2014-06-22T13:54:43Z</time>
      </trkpt>
      <trkpt lat="43.775" lon="0.80933">
        <ele>205</ele>
        <time>2014-06-22T13:54:47Z</time>
      </trkpt>
      <trkpt lat="43.77496" lon="0.80927">
        <ele>205</ele>
        <time>2014-06-22T13:54:51Z</time>
      </trkpt>
      <trkpt lat="43.77491" lon="0.80923">
        <ele>205</ele>
        <time>2014-06-22T13:54:55Z</time>
      </trkpt>
      <trkpt lat="43.77487" lon="0.80919">
        <ele>204</ele>
        <time>2014-06-22T13:54:59Z</time>
      </trkpt>
      <trkpt lat="43.77483" lon="0.80917">
        <ele>204</ele>
        <time>2014-06-22T13:55:03Z</time>
      </trkpt>
      <trkpt lat="43.77479" lon="0.80912">
        <ele>205</ele>
        <time>2014-06-22T13:55:08Z</time>
      </trkpt>
      <trkpt lat="43.77474" lon="0.8091">
        <ele>205</ele>
        <time>2014-06-22T13:55:13Z</time>
      </trkpt>
      <trkpt lat="43.77469" lon="0.80906">
        <ele>205</ele>
        <time>2014-06-22T13:55:18Z</time>
      </trkpt>
      <trkpt lat="43.77465" lon="0.80902">
        <ele>205</ele>
        <time>2014-06-22T13:55:23Z</time>
      </trkpt>
      <trkpt lat="43.7746" lon="0.80898">
        <ele>205</ele>
        <time>2014-06-22T13:55:28Z</time>
      </trkpt>
      <trkpt lat="43.77455" lon="0.80895">
        <ele>205</ele>
        <time>2014-06-22T13:55:33Z</time>
      </trkpt>
      <trkpt lat="43.77451" lon="0.80891">
        <ele>204</ele>
        <time>2014-06-22T13:55:38Z</time>
      </trkpt>
      <trkpt lat="43.77447" lon="0.80885">
        <ele>204</ele>
        <time>2014-06-22T13:55:42Z</time>
      </trkpt>
      <trkpt lat="43.77442" lon="0.80882">
        <ele>204</ele>
        <time>2014-06-22T13:55:46Z</time>
      </trkpt>
      <trkpt lat="43.77438" lon="0.80879">
        <ele>204</ele>
        <time>2014-06-22T13:55:50Z</time>
      </trkpt>
      <trkpt lat="43.77434" lon="0.80875">
        <ele>203</ele>
        <time>2014-06-22T13:55:54Z</time>
      </trkpt>
      <trkpt lat="43.7743" lon="0.80871">
        <ele>205</ele>
        <time>2014-06-22T13:55:58Z</time>
      </trkpt>
      <trkpt lat="43.77426" lon="0.80867">
        <ele>206</ele>
        <time>2014-06-22T13:56:03Z</time>
      </trkpt>
      <trkpt lat="43.77422" lon="0.80863">
        <ele>207</ele>
        <time>2014-06-22T13:56:07Z</time>
      </trkpt>
      <trkpt lat="43.77418" lon="0.80859">
        <ele>207</ele>
        <time>2014-06-22T13:56:12Z</time>
      </trkpt>
      <trkpt lat="43.77414" lon="0.80856">
        <ele>207</ele>
        <time>2014-06-22T13:56:16Z</time>
      </trkpt>
      <trkpt lat="43.7741" lon="0.80851">
        <ele>206</ele>
        <time>2014-06-22T13:56:20Z</time>
      </trkpt>
      <trkpt lat="43.77405" lon="0.80847">
        <ele>205</ele>
        <time>2014-06-22T13:56:24Z</time>
      </trkpt>
      <trkpt lat="43.77401" lon="0.80843">
        <ele>204</ele>
        <time>2014-06-22T13:56:28Z</time>
      </trkpt>
      <trkpt lat="43.77397" lon="0.8084">
        <ele>204</ele>
        <time>2014-06-22T13:56:32Z</time>
      </trkpt>
      <trkpt lat="43.77391" lon="0.80839">
        <ele>203</ele>
        <time>2014-06-22T13:56:48Z</time>
      </trkpt>
      <trkpt lat="43.77387" lon="0.80835">
        <ele>202</ele>
        <time>2014-06-22T13:56:52Z</time>
      </trkpt>
      <trkpt lat="43.77383" lon="0.80832">
        <ele>201</ele>
        <time>2014-06-22T13:56:56Z</time>
      </trkpt>
      <trkpt lat="43.77379" lon="0.80828">
        <ele>203</ele>
        <time>2014-06-22T13:57:00Z</time>
      </trkpt>
      <trkpt lat="43.77375" lon="0.80823">
        <ele>204</ele>
        <time>2014-06-22T13:57:04Z</time>
      </trkpt>
      <trkpt lat="43.77371" lon="0.8082">
        <ele>204</ele>
        <time>2014-06-22T13:57:08Z</time>
      </trkpt>
      <trkpt lat="43.77366" lon="0.80816">
        <ele>203</ele>
        <time>2014-06-22T13:57:13Z</time>
      </trkpt>
      <trkpt lat="43.77362" lon="0.80813">
        <ele>202</ele>
        <time>2014-06-22T13:57:18Z</time>
      </trkpt>
      <trkpt lat="43.77357" lon="0.80813">
        <ele>202</ele>
        <time>2014-06-22T13:57:23Z</time>
      </trkpt>
      <trkpt lat="43.77353" lon="0.80811">
        <ele>201</ele>
        <time>2014-06-22T13:57:28Z</time>
      </trkpt>
      <trkpt lat="43.77348" lon="0.80808">
        <ele>200</ele>
        <time>2014-06-22T13:57:33Z</time>
      </trkpt>
      <trkpt lat="43.77344" lon="0.80805">
        <ele>201</ele>
        <time>2014-06-22T13:57:38Z</time>
      </trkpt>
      <trkpt lat="43.77339" lon="0.80801">
        <ele>200</ele>
        <time>2014-06-22T13:57:43Z</time>
      </trkpt>
      <trkpt lat="43.77335" lon="0.80798">
        <ele>199</ele>
        <time>2014-06-22T13:57:48Z</time>
      </trkpt>
      <trkpt lat="43.7733" lon="0.80795">
        <ele>199</ele>
        <time>2014-06-22T13:57:53Z</time>
      </trkpt>
      <trkpt lat="43.77325" lon="0.80792">
        <ele>198</ele>
        <time>2014-06-22T13:57:58Z</time>
      </trkpt>
      <trkpt lat="43.7732" lon="0.80789">
        <ele>196</ele>
        <time>2014-06-22T13:58:02Z</time>
      </trkpt>
      <trkpt lat="43.77316" lon="0.80785">
        <ele>196</ele>
        <time>2014-06-22T13:58:06Z</time>
      </trkpt>
      <trkpt lat="43.77311" lon="0.80783">
        <ele>196</ele>
        <time>2014-06-22T13:58:10Z</time>
      </trkpt>
      <trkpt lat="43.77305" lon="0.80779">
        <ele>196</ele>
        <time>2014-06-22T13:58:16Z</time>
      </trkpt>
      <trkpt lat="43.773" lon="0.80776">
        <ele>195</ele>
        <time>2014-06-22T13:58:21Z</time>
      </trkpt>
      <trkpt lat="43.77296" lon="0.80775">
        <ele>195</ele>
        <time>2014-06-22T13:58:26Z</time>
      </trkpt>
      <trkpt lat="43.77291" lon="0.80774">
        <ele>197</ele>
        <time>2014-06-22T13:58:32Z</time>
      </trkpt>
      <trkpt lat="43.77286" lon="0.80771">
        <ele>200</ele>
        <time>2014-06-22T13:58:46Z</time>
      </trkpt>
      <trkpt lat="43.77282" lon="0.8077">
        <ele>200</ele>
        <time>2014-06-22T13:58:50Z</time>
      </trkpt>
      <trkpt lat="43.77276" lon="0.80768">
        <ele>203</ele>
        <time>2014-06-22T13:58:55Z</time>
      </trkpt>
      <trkpt lat="43.77272" lon="0.80766">
        <ele>203</ele>
        <time>2014-06-22T13:59:00Z</time>
      </trkpt>
      <trkpt lat="43.77266" lon="0.80764">
        <ele>202</ele>
        <time>2014-06-22T13:59:05Z</time>
      </trkpt>
      <trkpt lat="43.77261" lon="0.80765">
        <ele>202</ele>
        <time>2014-06-22T13:59:09Z</time>
      </trkpt>
      <trkpt lat="43.77256" lon="0.80764">
        <ele>202</ele>
        <time>2014-06-22T13:59:13Z</time>
      </trkpt>
      <trkpt lat="43.77251" lon="0.80762">
        <ele>203</ele>
        <time>2014-06-22T13:59:17Z</time>
      </trkpt>
      <trkpt lat="43.77247" lon="0.8076">
        <ele>202</ele>
        <time>2014-06-22T13:59:21Z</time>
      </trkpt>
      <trkpt lat="43.77242" lon="0.80758">
        <ele>202</ele>
        <time>2014-06-22T13:59:25Z</time>
      </trkpt>
      <trkpt lat="43.77238" lon="0.80756">
        <ele>202</ele>
        <time>2014-06-22T13:59:29Z</time>
      </trkpt>
      <trkpt lat="43.77233" lon="0.80755">
        <ele>202</ele>
        <time>2014-06-22T13:59:33Z</time>
      </trkpt>
      <trkpt lat="43.77228" lon="0.80753">
        <ele>202</ele>
        <time>2014-06-22T13:59:39Z</time>
      </trkpt>
      <trkpt lat="43.77224" lon="0.80751">
        <ele>200</ele>
        <time>2014-06-22T13:59:42Z</time>
      </trkpt>
      <trkpt lat="43.77218" lon="0.80749">
        <ele>200</ele>
        <time>2014-06-22T13:59:46Z</time>
      </trkpt>
      <trkpt lat="43.77214" lon="0.80748">
        <ele>201</ele>
        <time>2014-06-22T13:59:50Z</time>
      </trkpt>
      <trkpt lat="43.77209" lon="0.80747">
        <ele>200</ele>
        <time>2014-06-22T13:59:55Z</time>
      </trkpt>
      <trkpt lat="43.77203" lon="0.80745">
        <ele>201</ele>
        <time>2014-06-22T14:00:00Z</time>
      </trkpt>
      <trkpt lat="43.77199" lon="0.80744">
        <ele>201</ele>
        <time>2014-06-22T14:00:04Z</time>
      </trkpt>
      <trkpt lat="43.77194" lon="0.80742">
        <ele>200</ele>
        <time>2014-06-22T14:00:08Z</time>
      </trkpt>
      <trkpt lat="43.77189" lon="0.80741">
        <ele>200</ele>
        <time>2014-06-22T14:00:12Z</time>
      </trkpt>
      <trkpt lat="43.77184" lon="0.8074">
        <ele>200</ele>
        <time>2014-06-22T14:00:17Z</time>
      </trkpt>
      <trkpt lat="43.77179" lon="0.80737">
        <ele>200</ele>
        <time>2014-06-22T14:00:22Z</time>
      </trkpt>
      <trkpt lat="43.77174" lon="0.80735">
        <ele>201</ele>
        <time>2014-06-22T14:00:27Z</time>
      </trkpt>
      <trkpt lat="43.77168" lon="0.80733">
        <ele>201</ele>
        <time>2014-06-22T14:00:32Z</time>
      </trkpt>
      <trkpt lat="43.77164" lon="0.80731">
        <ele>201</ele>
        <time>2014-06-22T14:00:36Z</time>
      </trkpt>
      <trkpt lat="43.77159" lon="0.8073">
        <ele>202</ele>
        <time>2014-06-22T14:00:41Z</time>
      </trkpt>
      <trkpt lat="43.77153" lon="0.80729">
        <ele>202</ele>
        <time>2014-06-22T14:00:46Z</time>
      </trkpt>
      <trkpt lat="43.77148" lon="0.80728">
        <ele>204</ele>
        <time>2014-06-22T14:00:51Z</time>
      </trkpt>
      <trkpt lat="43.77144" lon="0.80727">
        <ele>203</ele>
        <time>2014-06-22T14:00:55Z</time>
      </trkpt>
      <trkpt lat="43.77138" lon="0.80725">
        <ele>203</ele>
        <time>2014-06-22T14:01:00Z</time>
      </trkpt>
      <trkpt lat="43.77134" lon="0.80725">
        <ele>204</ele>
        <time>2014-06-22T14:01:04Z</time>
      </trkpt>
      <trkpt lat="43.77128" lon="0.80724">
        <ele>204</ele>
        <time>2014-06-22T14:01:09Z</time>
      </trkpt>
      <trkpt lat="43.77123" lon="0.80724">
        <ele>205</ele>
        <time>2014-06-22T14:01:14Z</time>
      </trkpt>
      <trkpt lat="43.77117" lon="0.80724">
        <ele>205</ele>
        <time>2014-06-22T14:01:19Z</time>
      </trkpt>
      <trkpt lat="43.77112" lon="0.80725">
        <ele>205</ele>
        <time>2014-06-22T14:01:24Z</time>
      </trkpt>
      <trkpt lat="43.77107" lon="0.80724">
        <ele>206</ele>
        <time>2014-06-22T14:01:28Z</time>
      </trkpt>
      <trkpt lat="43.77102" lon="0.80722">
        <ele>206</ele>
        <time>2014-06-22T14:01:32Z</time>
      </trkpt>
      <trkpt lat="43.77098" lon="0.80721">
        <ele>206</ele>
        <time>2014-06-22T14:01:36Z</time>
      </trkpt>
      <trkpt lat="43.77093" lon="0.80719">
        <ele>207</ele>
        <time>2014-06-22T14:01:40Z</time>
      </trkpt>
      <trkpt lat="43.77089" lon="0.80716">
        <ele>207</ele>
        <time>2014-06-22T14:01:44Z</time>
      </trkpt>
      <trkpt lat="43.77084" lon="0.80714">
        <ele>207</ele>
        <time>2014-06-22T14:01:48Z</time>
      </trkpt>
      <trkpt lat="43.7708" lon="0.80711">
        <ele>207</ele>
        <time>2014-06-22T14:01:52Z</time>
      </trkpt>
      <trkpt lat="43.77075" lon="0.80709">
        <ele>207</ele>
        <time>2014-06-22T14:01:56Z</time>
      </trkpt>
      <trkpt lat="43.77071" lon="0.80707">
        <ele>208</ele>
        <time>2014-06-22T14:02:00Z</time>
      </trkpt>
      <trkpt lat="43.77066" lon="0.80705">
        <ele>207</ele>
        <time>2014-06-22T14:02:04Z</time>
      </trkpt>
      <trkpt lat="43.77061" lon="0.80703">
        <ele>207</ele>
        <time>2014-06-22T14:02:09Z</time>
      </trkpt>
      <trkpt lat="43.77057" lon="0.80701">
        <ele>207</ele>
        <time>2014-06-22T14:02:13Z</time>
      </trkpt>
      <trkpt lat="43.77052" lon="0.80699">
        <ele>207</ele>
        <time>2014-06-22T14:02:17Z</time>
      </trkpt>
      <trkpt lat="43.77048" lon="0.80697">
        <ele>206</ele>
        <time>2014-06-22T14:02:21Z</time>
      </trkpt>
      <trkpt lat="43.77044" lon="0.80694">
        <ele>206</ele>
        <time>2014-06-22T14:02:25Z</time>
      </trkpt>
      <trkpt lat="43.77039" lon="0.80691">
        <ele>208</ele>
        <time>2014-06-22T14:02:30Z</time>
      </trkpt>
      <trkpt lat="43.77035" lon="0.80688">
        <ele>208</ele>
        <time>2014-06-22T14:02:35Z</time>
      </trkpt>
      <trkpt lat="43.77031" lon="0.80684">
        <ele>208</ele>
        <time>2014-06-22T14:02:39Z</time>
      </trkpt>
      <trkpt lat="43.77027" lon="0.8068">
        <ele>208</ele>
        <time>2014-06-22T14:02:43Z</time>
      </trkpt>
      <trkpt lat="43.77023" lon="0.80675">
        <ele>209</ele>
        <time>2014-06-22T14:02:48Z</time>
      </trkpt>
      <trkpt lat="43.77019" lon="0.80671">
        <ele>210</ele>
        <time>2014-06-22T14:02:53Z</time>
      </trkpt>
      <trkpt lat="43.77014" lon="0.80667">
        <ele>209</ele>
        <time>2014-06-22T14:02:58Z</time>
      </trkpt>
      <trkpt lat="43.77011" lon="0.80662">
        <ele>209</ele>
        <time>2014-06-22T14:03:02Z</time>
      </trkpt>
      <trkpt lat="43.77007" lon="0.80658">
        <ele>211</ele>
        <time>2014-06-22T14:03:07Z</time>
      </trkpt>
      <trkpt lat="43.77003" lon="0.80652">
        <ele>210</ele>
        <time>2014-06-22T14:03:12Z</time>
      </trkpt>
      <trkpt lat="43.77" lon="0.80647">
        <ele>209</ele>
        <time>2014-06-22T14:03:16Z</time>
      </trkpt>
      <trkpt lat="43.76997" lon="0.80642">
        <ele>209</ele>
        <time>2014-06-22T14:03:20Z</time>
      </trkpt>
      <trkpt lat="43.76994" lon="0.80637">
        <ele>210</ele>
        <time>2014-06-22T14:03:24Z</time>
      </trkpt>
      <trkpt lat="43.76991" lon="0.80632">
        <ele>208</ele>
        <time>2014-06-22T14:03:28Z</time>
      </trkpt>
      <trkpt lat="43.76987" lon="0.80628">
        <ele>209</ele>
        <time>2014-06-22T14:03:33Z</time>
      </trkpt>
      <trkpt lat="43.76983" lon="0.80623">
        <ele>208</ele>
        <time>2014-06-22T14:03:39Z</time>
      </trkpt>
      <trkpt lat="43.76979" lon="0.80618">
        <ele>208</ele>
        <time>2014-06-22T14:03:44Z</time>
      </trkpt>
      <trkpt lat="43.76976" lon="0.80614">
        <ele>208</ele>
        <time>2014-06-22T14:03:48Z</time>
      </trkpt>
      <trkpt lat="43.76973" lon="0.80609">
        <ele>208</ele>
        <time>2014-06-22T14:03:52Z</time>
      </trkpt>
      <trkpt lat="43.76969" lon="0.80604">
        <ele>206</ele>
        <time>2014-06-22T14:03:56Z</time>
      </trkpt>
      <trkpt lat="43.76965" lon="0.80599">
        <ele>207</ele>
        <time>2014-06-22T14:04:01Z</time>
      </trkpt>
      <trkpt lat="43.76962" lon="0.80594">
        <ele>207</ele>
        <time>2014-06-22T14:04:06Z</time>
      </trkpt>
      <trkpt lat="43.76958" lon="0.80589">
        <ele>208</ele>
        <time>2014-06-22T14:04:11Z</time>
      </trkpt>
      <trkpt lat="43.76955" lon="0.80584">
        <ele>209</ele>
        <time>2014-06-22T14:04:16Z</time>
      </trkpt>
      <trkpt lat="43.76951" lon="0.80579">
        <ele>209</ele>
        <time>2014-06-22T14:04:21Z</time>
      </trkpt>
      <trkpt lat="43.76948" lon="0.80574">
        <ele>210</ele>
        <time>2014-06-22T14:04:25Z</time>
      </trkpt>
      <trkpt lat="43.76945" lon="0.80567">
        <ele>210</ele>
        <time>2014-06-22T14:04:29Z</time>
      </trkpt>
      <trkpt lat="43.76942" lon="0.80561">
        <ele>211</ele>
        <time>2014-06-22T14:04:33Z</time>
      </trkpt>
      <trkpt lat="43.76938" lon="0.80556">
        <ele>210</ele>
        <time>2014-06-22T14:04:38Z</time>
      </trkpt>
      <trkpt lat="43.76934" lon="0.8055">
        <ele>210</ele>
        <time>2014-06-22T14:04:43Z</time>
      </trkpt>
      <trkpt lat="43.76931" lon="0.80545">
        <ele>210</ele>
        <time>2014-06-22T14:04:47Z</time>
      </trkpt>
      <trkpt lat="43.76929" lon="0.8054">
        <ele>211</ele>
        <time>2014-06-22T14:04:51Z</time>
      </trkpt>
      <trkpt lat="43.76925" lon="0.80535">
        <ele>214</ele>
        <time>2014-06-22T14:04:56Z</time>
      </trkpt>
      <trkpt lat="43.76921" lon="0.80533">
        <ele>214</ele>
        <time>2014-06-22T14:05:02Z</time>
      </trkpt>
      <trkpt lat="43.76917" lon="0.80527">
        <ele>212</ele>
        <time>2014-06-22T14:05:07Z</time>
      </trkpt>
      <trkpt lat="43.76914" lon="0.80521">
        <ele>212</ele>
        <time>2014-06-22T14:05:11Z</time>
      </trkpt>
      <trkpt lat="43.7691" lon="0.80516">
        <ele>212</ele>
        <time>2014-06-22T14:05:15Z</time>
      </trkpt>
      <trkpt lat="43.76907" lon="0.80511">
        <ele>213</ele>
        <time>2014-06-22T14:05:20Z</time>
      </trkpt>
      <trkpt lat="43.76905" lon="0.80505">
        <ele>214</ele>
        <time>2014-06-22T14:05:25Z</time>
      </trkpt>
      <trkpt lat="43.76901" lon="0.80502">
        <ele>212</ele>
        <time>2014-06-22T14:05:30Z</time>
      </trkpt>
      <trkpt lat="43.76896" lon="0.80504">
        <ele>212</ele>
        <time>2014-06-22T14:05:36Z</time>
      </trkpt>
      <trkpt lat="43.76892" lon="0.80509">
        <ele>212</ele>
        <time>2014-06-22T14:05:42Z</time>
      </trkpt>
      <trkpt lat="43.7689" lon="0.80515">
        <ele>213</ele>
        <time>2014-06-22T14:05:47Z</time>
      </trkpt>
      <trkpt lat="43.76887" lon="0.8052">
        <ele>214</ele>
        <time>2014-06-22T14:05:55Z</time>
      </trkpt>
      <trkpt lat="43.76884" lon="0.80526">
        <ele>215</ele>
        <time>2014-06-22T14:06:00Z</time>
      </trkpt>
      <trkpt lat="43.76881" lon="0.80532">
        <ele>215</ele>
        <time>2014-06-22T14:06:06Z</time>
      </trkpt>
      <trkpt lat="43.76877" lon="0.80536">
        <ele>216</ele>
        <time>2014-06-22T14:06:11Z</time>
      </trkpt>
      <trkpt lat="43.76874" lon="0.80542">
        <ele>216</ele>
        <time>2014-06-22T14:06:16Z</time>
      </trkpt>
      <trkpt lat="43.76875" lon="0.80548">
        <ele>216</ele>
        <time>2014-06-22T14:06:23Z</time>
      </trkpt>
      <trkpt lat="43.76872" lon="0.80554">
        <ele>216</ele>
        <time>2014-06-22T14:06:39Z</time>
      </trkpt>
      <trkpt lat="43.76869" lon="0.8056">
        <ele>217</ele>
        <time>2014-06-22T14:06:43Z</time>
      </trkpt>
      <trkpt lat="43.76866" lon="0.80567">
        <ele>216</ele>
        <time>2014-06-22T14:06:47Z</time>
      </trkpt>
      <trkpt lat="43.76864" lon="0.80573">
        <ele>215</ele>
        <time>2014-06-22T14:06:51Z</time>
      </trkpt>
      <trkpt lat="43.7686" lon="0.80578">
        <ele>213</ele>
        <time>2014-06-22T14:06:56Z</time>
      </trkpt>
      <trkpt lat="43.76858" lon="0.80584">
        <ele>215</ele>
        <time>2014-06-22T14:07:11Z</time>
      </trkpt>
      <trkpt lat="43.76855" lon="0.80589">
        <ele>218</ele>
        <time>2014-06-22T14:07:16Z</time>
      </trkpt>
      <trkpt lat="43.76852" lon="0.80594">
        <ele>216</ele>
        <time>2014-06-22T14:07:20Z</time>
      </trkpt>
      <trkpt lat="43.7685" lon="0.80601">
        <ele>215</ele>
        <time>2014-06-22T14:07:24Z</time>
      </trkpt>
      <trkpt lat="43.76848" lon="0.80607">
        <ele>216</ele>
        <time>2014-06-22T14:07:28Z</time>
      </trkpt>
      <trkpt lat="43.76845" lon="0.80612">
        <ele>216</ele>
        <time>2014-06-22T14:07:32Z</time>
      </trkpt>
      <trkpt lat="43.76842" lon="0.80617">
        <ele>217</ele>
        <time>2014-06-22T14:07:36Z</time>
      </trkpt>
      <trkpt lat="43.76839" lon="0.80623">
        <ele>218</ele>
        <time>2014-06-22T14:07:41Z</time>
      </trkpt>
      <trkpt lat="43.76836" lon="0.8063">
        <ele>218</ele>
        <time>2014-06-22T14:07:46Z</time>
      </trkpt>
      <trkpt lat="43.76833" lon="0.80635">
        <ele>218</ele>
        <time>2014-06-22T14:07:50Z</time>
      </trkpt>
      <trkpt lat="43.76831" lon="0.80641">
        <ele>220</ele>
        <time>2014-06-22T14:07:54Z</time>
      </trkpt>
      <trkpt lat="43.76828" lon="0.80646">
        <ele>218</ele>
        <time>2014-06-22T14:07:58Z</time>
      </trkpt>
      <trkpt lat="43.76824" lon="0.80653">
        <ele>217</ele>
        <time>2014-06-22T14:08:02Z</time>
      </trkpt>
      <trkpt lat="43.76821" lon="0.80659">
        <ele>218</ele>
        <time>2014-06-22T14:08:06Z</time>
      </trkpt>
      <trkpt lat="43.76819" lon="0.80665">
        <ele>216</ele>
        <time>2014-06-22T14:08:10Z</time>
      </trkpt>
      <trkpt lat="43.76818" lon="0.80672">
        <ele>215</ele>
        <time>2014-06-22T14:08:14Z</time>
      </trkpt>
      <trkpt lat="43.76815" lon="0.80678">
        <ele>216</ele>
        <time>2014-06-22T14:08:19Z</time>
      </trkpt>
      <trkpt lat="43.76811" lon="0.80683">
        <ele>218</ele>
        <time>2014-06-22T14:08:24Z</time>
      </trkpt>
      <trkpt lat="43.76808" lon="0.80689">
        <ele>218</ele>
        <time>2014-06-22T14:08:29Z</time>
      </trkpt>
      <trkpt lat="43.76806" lon="0.80695">
        <ele>219</ele>
        <time>2014-06-22T14:08:33Z</time>
      </trkpt>
      <trkpt lat="43.76804" lon="0.80701">
        <ele>218</ele>
        <time>2014-06-22T14:08:36Z</time>
      </trkpt>
      <trkpt lat="43.76802" lon="0.80707">
        <ele>218</ele>
        <time>2014-06-22T14:08:39Z</time>
      </trkpt>
      <trkpt lat="43.76798" lon="0.80713">
        <ele>216</ele>
        <time>2014-06-22T14:08:43Z</time>
      </trkpt>
      <trkpt lat="43.76795" lon="0.8072">
        <ele>218</ele>
        <time>2014-06-22T14:08:47Z</time>
      </trkpt>
      <trkpt lat="43.76792" lon="0.80727">
        <ele>220</ele>
        <time>2014-06-22T14:08:51Z</time>
      </trkpt>
      <trkpt lat="43.76788" lon="0.80732">
        <ele>219</ele>
        <time>2014-06-22T14:08:55Z</time>
      </trkpt>
      <trkpt lat="43.76784" lon="0.80737">
        <ele>220</ele>
        <time>2014-06-22T14:08:59Z</time>
      </trkpt>
      <trkpt lat="43.76781" lon="0.80743">
        <ele>217</ele>
        <time>2014-06-22T14:09:03Z</time>
      </trkpt>
      <trkpt lat="43.76779" lon="0.80749">
        <ele>219</ele>
        <time>2014-06-22T14:09:07Z</time>
      </trkpt>
      <trkpt lat="43.76778" lon="0.80756">
        <ele>220</ele>
        <time>2014-06-22T14:09:11Z</time>
      </trkpt>
      <trkpt lat="43.76775" lon="0.80762">
        <ele>219</ele>
        <time>2014-06-22T14:09:16Z</time>
      </trkpt>
      <trkpt lat="43.76771" lon="0.80768">
        <ele>216</ele>
        <time>2014-06-22T14:09:20Z</time>
      </trkpt>
      <trkpt lat="43.76768" lon="0.80774">
        <ele>212</ele>
        <time>2014-06-22T14:09:24Z</time>
      </trkpt>
      <trkpt lat="43.76766" lon="0.8078">
        <ele>212</ele>
        <time>2014-06-22T14:09:28Z</time>
      </trkpt>
      <trkpt lat="43.76762" lon="0.80786">
        <ele>211</ele>
        <time>2014-06-22T14:09:33Z</time>
      </trkpt>
      <trkpt lat="43.76758" lon="0.80789">
        <ele>212</ele>
        <time>2014-06-22T14:09:37Z</time>
      </trkpt>
      <trkpt lat="43.76754" lon="0.80793">
        <ele>213</ele>
        <time>2014-06-22T14:09:42Z</time>
      </trkpt>
      <trkpt lat="43.76748" lon="0.80796">
        <ele>211</ele>
        <time>2014-06-22T14:09:47Z</time>
      </trkpt>
      <trkpt lat="43.76744" lon="0.80797">
        <ele>212</ele>
        <time>2014-06-22T14:09:51Z</time>
      </trkpt>
      <trkpt lat="43.76739" lon="0.80799">
        <ele>212</ele>
        <time>2014-06-22T14:09:56Z</time>
      </trkpt>
      <trkpt lat="43.76734" lon="0.80799">
        <ele>212</ele>
        <time>2014-06-22T14:10:01Z</time>
      </trkpt>
      <trkpt lat="43.76729" lon="0.80801">
        <ele>210</ele>
        <time>2014-06-22T14:10:07Z</time>
      </trkpt>
      <trkpt lat="43.76725" lon="0.80802">
        <ele>207</ele>
        <time>2014-06-22T14:10:12Z</time>
      </trkpt>
      <trkpt lat="43.7672" lon="0.80804">
        <ele>205</ele>
        <time>2014-06-22T14:10:35Z</time>
      </trkpt>
      <trkpt lat="43.76716" lon="0.80806">
        <ele>206</ele>
        <time>2014-06-22T14:10:39Z</time>
      </trkpt>
      <trkpt lat="43.76711" lon="0.80808">
        <ele>207</ele>
        <time>2014-06-22T14:10:43Z</time>
      </trkpt>
      <trkpt lat="43.76706" lon="0.80809">
        <ele>207</ele>
        <time>2014-06-22T14:10:47Z</time>
      </trkpt>
      <trkpt lat="43.76702" lon="0.80811">
        <ele>207</ele>
        <time>2014-06-22T14:10:51Z</time>
      </trkpt>
      <trkpt lat="43.76697" lon="0.80813">
        <ele>207</ele>
        <time>2014-06-22T14:10:55Z</time>
      </trkpt>
      <trkpt lat="43.76692" lon="0.80816">
        <ele>207</ele>
        <time>2014-06-22T14:10:59Z</time>
      </trkpt>
      <trkpt lat="43.76687" lon="0.80817">
        <ele>208</ele>
        <time>2014-06-22T14:11:02Z</time>
      </trkpt>
      <trkpt lat="43.76682" lon="0.8082">
        <ele>207</ele>
        <time>2014-06-22T14:11:05Z</time>
      </trkpt>
      <trkpt lat="43.76678" lon="0.80823">
        <ele>204</ele>
        <time>2014-06-22T14:11:08Z</time>
      </trkpt>
      <trkpt lat="43.76675" lon="0.80828">
        <ele>201</ele>
        <time>2014-06-22T14:11:11Z</time>
      </trkpt>
      <trkpt lat="43.76671" lon="0.80834">
        <ele>200</ele>
        <time>2014-06-22T14:11:14Z</time>
      </trkpt>
      <trkpt lat="43.76667" lon="0.80838">
        <ele>199</ele>
        <time>2014-06-22T14:11:22Z</time>
      </trkpt>
      <trkpt lat="43.76662" lon="0.80841">
        <ele>196</ele>
        <time>2014-06-22T14:11:26Z</time>
      </trkpt>
      <trkpt lat="43.76657" lon="0.80846">
        <ele>196</ele>
        <time>2014-06-22T14:11:30Z</time>
      </trkpt>
      <trkpt lat="43.76654" lon="0.8085">
        <ele>194</ele>
        <time>2014-06-22T14:11:33Z</time>
      </trkpt>
      <trkpt lat="43.7665" lon="0.80854">
        <ele>193</ele>
        <time>2014-06-22T14:11:36Z</time>
      </trkpt>
      <trkpt lat="43.76646" lon="0.80858">
        <ele>191</ele>
        <time>2014-06-22T14:11:39Z</time>
      </trkpt>
      <trkpt lat="43.76642" lon="0.80862">
        <ele>189</ele>
        <time>2014-06-22T14:11:42Z</time>
      </trkpt>
      <trkpt lat="43.76638" lon="0.80867">
        <ele>188</ele>
        <time>2014-06-22T14:11:46Z</time>
      </trkpt>
      <trkpt lat="43.76635" lon="0.80872">
        <ele>188</ele>
        <time>2014-06-22T14:11:50Z</time>
      </trkpt>
      <trkpt lat="43.76632" lon="0.80877">
        <ele>189</ele>
        <time>2014-06-22T14:11:54Z</time>
      </trkpt>
      <trkpt lat="43.76629" lon="0.80884">
        <ele>190</ele>
        <time>2014-06-22T14:11:59Z</time>
      </trkpt>
      <trkpt lat="43.76628" lon="0.8089">
        <ele>192</ele>
        <time>2014-06-22T14:12:03Z</time>
      </trkpt>
      <trkpt lat="43.76626" lon="0.80896">
        <ele>189</ele>
        <time>2014-06-22T14:12:13Z</time>
      </trkpt>
      <trkpt lat="43.76625" lon="0.80902">
        <ele>188</ele>
        <time>2014-06-22T14:12:20Z</time>
      </trkpt>
      <trkpt lat="43.76622" lon="0.80909">
        <ele>188</ele>
        <time>2014-06-22T14:12:24Z</time>
      </trkpt>
      <trkpt lat="43.76619" lon="0.80915">
        <ele>188</ele>
        <time>2014-06-22T14:12:28Z</time>
      </trkpt>
      <trkpt lat="43.76616" lon="0.80922">
        <ele>188</ele>
        <time>2014-06-22T14:12:32Z</time>
      </trkpt>
      <trkpt lat="43.76615" lon="0.80928">
        <ele>188</ele>
        <time>2014-06-22T14:12:36Z</time>
      </trkpt>
      <trkpt lat="43.76614" lon="0.80934">
        <ele>186</ele>
        <time>2014-06-22T14:12:40Z</time>
      </trkpt>
      <trkpt lat="43.76613" lon="0.80942">
        <ele>186</ele>
        <time>2014-06-22T14:12:45Z</time>
      </trkpt>
      <trkpt lat="43.76613" lon="0.80948">
        <ele>186</ele>
        <time>2014-06-22T14:12:50Z</time>
      </trkpt>
      <trkpt lat="43.7661" lon="0.80955">
        <ele>187</ele>
        <time>2014-06-22T14:12:55Z</time>
      </trkpt>
      <trkpt lat="43.76608" lon="0.80961">
        <ele>186</ele>
        <time>2014-06-22T14:12:59Z</time>
      </trkpt>
      <trkpt lat="43.76608" lon="0.80967">
        <ele>185</ele>
        <time>2014-06-22T14:13:03Z</time>
      </trkpt>
      <trkpt lat="43.76607" lon="0.80975">
        <ele>186</ele>
        <time>2014-06-22T14:13:07Z</time>
      </trkpt>
      <trkpt lat="43.76605" lon="0.80982">
        <ele>186</ele>
        <time>2014-06-22T14:13:11Z</time>
      </trkpt>
      <trkpt lat="43.76604" lon="0.80988">
        <ele>185</ele>
        <time>2014-06-22T14:13:15Z</time>
      </trkpt>
      <trkpt lat="43.76603" lon="0.80995">
        <ele>185</ele>
        <time>2014-06-22T14:13:19Z</time>
      </trkpt>
      <trkpt lat="43.76602" lon="0.81002">
        <ele>185</ele>
        <time>2014-06-22T14:13:23Z</time>
      </trkpt>
      <trkpt lat="43.76601" lon="0.81008">
        <ele>184</ele>
        <time>2014-06-22T14:13:27Z</time>
      </trkpt>
      <trkpt lat="43.766" lon="0.81015">
        <ele>185</ele>
        <time>2014-06-22T14:13:31Z</time>
      </trkpt>
      <trkpt lat="43.76599" lon="0.81022">
        <ele>186</ele>
        <time>2014-06-22T14:13:35Z</time>
      </trkpt>
      <trkpt lat="43.76598" lon="0.81028">
        <ele>186</ele>
        <time>2014-06-22T14:13:39Z</time>
      </trkpt>
      <trkpt lat="43.76596" lon="0.81034">
        <ele>186</ele>
        <time>2014-06-22T14:13:43Z</time>
      </trkpt>
      <trkpt lat="43.76595" lon="0.81041">
        <ele>187</ele>
        <time>2014-06-22T14:13:48Z</time>
      </trkpt>
      <trkpt lat="43.76594" lon="0.81048">
        <ele>187</ele>
        <time>2014-06-22T14:13:52Z</time>
      </trkpt>
      <trkpt lat="43.76593" lon="0.81055">
        <ele>188</ele>
        <time>2014-06-22T14:13:56Z</time>
      </trkpt>
      <trkpt lat="43.76592" lon="0.81062">
        <ele>189</ele>
        <time>2014-06-22T14:14:00Z</time>
      </trkpt>
      <trkpt lat="43.76591" lon="0.81068">
        <ele>188</ele>
        <time>2014-06-22T14:14:04Z</time>
      </trkpt>
      <trkpt lat="43.76589" lon="0.81074">
        <ele>189</ele>
        <time>2014-06-22T14:14:08Z</time>
      </trkpt>
      <trkpt lat="43.76587" lon="0.8108">
        <ele>190</ele>
        <time>2014-06-22T14:14:12Z</time>
      </trkpt>
      <trkpt lat="43.76585" lon="0.81087">
        <ele>189</ele>
        <time>2014-06-22T14:14:17Z</time>
      </trkpt>
      <trkpt lat="43.76582" lon="0.81094">
        <ele>189</ele>
        <time>2014-06-22T14:14:22Z</time>
      </trkpt>
      <trkpt lat="43.7658" lon="0.811">
        <ele>190</ele>
        <time>2014-06-22T14:14:27Z</time>
      </trkpt>
      <trkpt lat="43.76577" lon="0.81105">
        <ele>190</ele>
        <time>2014-06-22T14:14:31Z</time>
      </trkpt>
      <trkpt lat="43.76574" lon="0.81112">
        <ele>190</ele>
        <time>2014-06-22T14:14:36Z</time>
      </trkpt>
      <trkpt lat="43.76572" lon="0.81118">
        <ele>191</ele>
        <time>2014-06-22T14:14:41Z</time>
      </trkpt>
      <trkpt lat="43.76569" lon="0.81124">
        <ele>191</ele>
        <time>2014-06-22T14:14:45Z</time>
      </trkpt>
      <trkpt lat="43.76566" lon="0.81129">
        <ele>192</ele>
        <time>2014-06-22T14:14:49Z</time>
      </trkpt>
      <trkpt lat="43.76563" lon="0.81134">
        <ele>192</ele>
        <time>2014-06-22T14:14:53Z</time>
      </trkpt>
      <trkpt lat="43.76559" lon="0.81141">
        <ele>191</ele>
        <time>2014-06-22T14:14:58Z</time>
      </trkpt>
      <trkpt lat="43.76556" lon="0.81145">
        <ele>190</ele>
        <time>2014-06-22T14:15:02Z</time>
      </trkpt>
      <trkpt lat="43.76552" lon="0.81149">
        <ele>190</ele>
        <time>2014-06-22T14:15:06Z</time>
      </trkpt>
      <trkpt lat="43.76548" lon="0.81153">
        <ele>190</ele>
        <time>2014-06-22T14:15:10Z</time>
      </trkpt>
      <trkpt lat="43.76545" lon="0.81158">
        <ele>192</ele>
        <time>2014-06-22T14:15:14Z</time>
      </trkpt>
      <trkpt lat="43.76541" lon="0.81162">
        <ele>192</ele>
        <time>2014-06-22T14:15:18Z</time>
      </trkpt>
      <trkpt lat="43.76538" lon="0.81167">
        <ele>191</ele>
        <time>2014-06-22T14:15:22Z</time>
      </trkpt>
      <trkpt lat="43.76535" lon="0.81171">
        <ele>193</ele>
        <time>2014-06-22T14:15:26Z</time>
      </trkpt>
      <trkpt lat="43.76531" lon="0.81175">
        <ele>193</ele>
        <time>2014-06-22T14:15:32Z</time>
      </trkpt>
      <trkpt lat="43.76528" lon="0.8118">
        <ele>194</ele>
        <time>2014-06-22T14:15:37Z</time>
      </trkpt>
      <trkpt lat="43.76524" lon="0.81185">
        <ele>194</ele>
        <time>2014-06-22T14:15:42Z</time>
      </trkpt>
      <trkpt lat="43.76521" lon="0.8119">
        <ele>193</ele>
        <time>2014-06-22T14:15:47Z</time>
      </trkpt>
      <trkpt lat="43.76517" lon="0.81195">
        <ele>194</ele>
        <time>2014-06-22T14:15:52Z</time>
      </trkpt>
      <trkpt lat="43.76512" lon="0.81202">
        <ele>195</ele>
        <time>2014-06-22T14:15:58Z</time>
      </trkpt>
      <trkpt lat="43.76509" lon="0.81208">
        <ele>195</ele>
        <time>2014-06-22T14:16:32Z</time>
      </trkpt>
      <trkpt lat="43.76505" lon="0.8121">
        <ele>196</ele>
        <time>2014-06-22T14:16:36Z</time>
      </trkpt>
      <trkpt lat="43.76501" lon="0.81214">
        <ele>196</ele>
        <time>2014-06-22T14:16:40Z</time>
      </trkpt>
      <trkpt lat="43.76497" lon="0.81218">
        <ele>196</ele>
        <time>2014-06-22T14:16:44Z</time>
      </trkpt>
      <trkpt lat="43.76493" lon="0.81222">
        <ele>196</ele>
        <time>2014-06-22T14:16:49Z</time>
      </trkpt>
      <trkpt lat="43.76489" lon="0.81227">
        <ele>197</ele>
        <time>2014-06-22T14:16:54Z</time>
      </trkpt>
      <trkpt lat="43.76484" lon="0.8123">
        <ele>198</ele>
        <time>2014-06-22T14:16:59Z</time>
      </trkpt>
      <trkpt lat="43.76479" lon="0.81233">
        <ele>198</ele>
        <time>2014-06-22T14:17:03Z</time>
      </trkpt>
      <trkpt lat="43.76475" lon="0.81236">
        <ele>197</ele>
        <time>2014-06-22T14:17:07Z</time>
      </trkpt>
      <trkpt lat="43.76471" lon="0.81238">
        <ele>198</ele>
        <time>2014-06-22T14:17:14Z</time>
      </trkpt>
      <trkpt lat="43.76467" lon="0.81242">
        <ele>198</ele>
        <time>2014-06-22T14:18:36Z</time>
      </trkpt>
      <trkpt lat="43.76462" lon="0.81246">
        <ele>199</ele>
        <time>2014-06-22T14:18:41Z</time>
      </trkpt>
      <trkpt lat="43.76457" lon="0.81249">
        <ele>199</ele>
        <time>2014-06-22T14:18:45Z</time>
      </trkpt>
      <trkpt lat="43.76453" lon="0.81252">
        <ele>199</ele>
        <time>2014-06-22T14:18:49Z</time>
      </trkpt>
      <trkpt lat="43.76448" lon="0.81255">
        <ele>199</ele>
        <time>2014-06-22T14:18:53Z</time>
      </trkpt>
      <trkpt lat="43.76444" lon="0.81258">
        <ele>199</ele>
        <time>2014-06-22T14:18:57Z</time>
      </trkpt>
      <trkpt lat="43.7644" lon="0.81262">
        <ele>201</ele>
        <time>2014-06-22T14:19:01Z</time>
      </trkpt>
      <trkpt lat="43.76436" lon="0.81266">
        <ele>202</ele>
        <time>2014-06-22T14:19:06Z</time>
      </trkpt>
      <trkpt lat="43.76431" lon="0.8127">
        <ele>203</ele>
        <time>2014-06-22T14:19:28Z</time>
      </trkpt>
      <trkpt lat="43.76426" lon="0.81273">
        <ele>204</ele>
        <time>2014-06-22T14:19:33Z</time>
      </trkpt>
      <trkpt lat="43.76422" lon="0.81277">
        <ele>204</ele>
        <time>2014-06-22T14:19:37Z</time>
      </trkpt>
      <trkpt lat="43.76418" lon="0.8128">
        <ele>204</ele>
        <time>2014-06-22T14:19:41Z</time>
      </trkpt>
      <trkpt lat="43.76413" lon="0.81283">
        <ele>204</ele>
        <time>2014-06-22T14:19:45Z</time>
      </trkpt>
      <trkpt lat="43.76409" lon="0.81287">
        <ele>205</ele>
        <time>2014-06-22T14:19:49Z</time>
      </trkpt>
      <trkpt lat="43.76405" lon="0.8129">
        <ele>205</ele>
        <time>2014-06-22T14:19:53Z</time>
      </trkpt>
      <trkpt lat="43.76401" lon="0.81295">
        <ele>206</ele>
        <time>2014-06-22T14:19:58Z</time>
      </trkpt>
      <trkpt lat="43.76397" lon="0.81299">
        <ele>206</ele>
        <time>2014-06-22T14:20:03Z</time>
      </trkpt>
      <trkpt lat="43.76392" lon="0.81302">
        <ele>208</ele>
        <time>2014-06-22T14:20:08Z</time>
      </trkpt>
      <trkpt lat="43.76388" lon="0.81306">
        <ele>208</ele>
        <time>2014-06-22T14:20:13Z</time>
      </trkpt>
      <trkpt lat="43.76384" lon="0.8131">
        <ele>208</ele>
        <time>2014-06-22T14:20:20Z</time>
      </trkpt>
      <trkpt lat="43.7638" lon="0.81314">
        <ele>208</ele>
        <time>2014-06-22T14:20:24Z</time>
      </trkpt>
      <trkpt lat="43.76376" lon="0.81318">
        <ele>209</ele>
        <time>2014-06-22T14:20:28Z</time>
      </trkpt>
      <trkpt lat="43.76372" lon="0.81322">
        <ele>209</ele>
        <time>2014-06-22T14:20:32Z</time>
      </trkpt>
      <trkpt lat="43.76368" lon="0.81327">
        <ele>210</ele>
        <time>2014-06-22T14:20:37Z</time>
      </trkpt>
      <trkpt lat="43.76363" lon="0.81331">
        <ele>211</ele>
        <time>2014-06-22T14:20:42Z</time>
      </trkpt>
      <trkpt lat="43.76359" lon="0.81334">
        <ele>210</ele>
        <time>2014-06-22T14:20:46Z</time>
      </trkpt>
      <trkpt lat="43.76354" lon="0.81338">
        <ele>209</ele>
        <time>2014-06-22T14:20:51Z</time>
      </trkpt>
      <trkpt lat="43.7635" lon="0.81341">
        <ele>210</ele>
        <time>2014-06-22T14:20:55Z</time>
      </trkpt>
      <trkpt lat="43.76346" lon="0.81346">
        <ele>211</ele>
        <time>2014-06-22T14:21:00Z</time>
      </trkpt>
      <trkpt lat="43.76342" lon="0.8135">
        <ele>211</ele>
        <time>2014-06-22T14:21:04Z</time>
      </trkpt>
      <trkpt lat="43.76338" lon="0.81353">
        <ele>210</ele>
        <time>2014-06-22T14:21:08Z</time>
      </trkpt>
      <trkpt lat="43.76334" lon="0.81357">
        <ele>211</ele>
        <time>2014-06-22T14:21:13Z</time>
      </trkpt>
      <trkpt lat="43.7633" lon="0.81361">
        <ele>212</ele>
        <time>2014-06-22T14:21:17Z</time>
      </trkpt>
      <trkpt lat="43.76326" lon="0.81365">
        <ele>211</ele>
        <time>2014-06-22T14:21:22Z</time>
      </trkpt>
      <trkpt lat="43.76321" lon="0.81369">
        <ele>211</ele>
        <time>2014-06-22T14:21:26Z</time>
      </trkpt>
      <trkpt lat="43.76317" lon="0.81373">
        <ele>212</ele>
        <time>2014-06-22T14:21:30Z</time>
      </trkpt>
      <trkpt lat="43.76312" lon="0.81376">
        <ele>213</ele>
        <time>2014-06-22T14:21:34Z</time>
      </trkpt>
      <trkpt lat="43.76309" lon="0.8138">
        <ele>213</ele>
        <time>2014-06-22T14:21:38Z</time>
      </trkpt>
      <trkpt lat="43.76304" lon="0.81385">
        <ele>213</ele>
        <time>2014-06-22T14:21:43Z</time>
      </trkpt>
      <trkpt lat="43.763" lon="0.81388">
        <ele>214</ele>
        <time>2014-06-22T14:21:47Z</time>
      </trkpt>
      <trkpt lat="43.76295" lon="0.81392">
        <ele>213</ele>
        <time>2014-06-22T14:21:51Z</time>
      </trkpt>
      <trkpt lat="43.76291" lon="0.81396">
        <ele>213</ele>
        <time>2014-06-22T14:21:55Z</time>
      </trkpt>
      <trkpt lat="43.76287" lon="0.814">
        <ele>214</ele>
        <time>2014-06-22T14:21:59Z</time>
      </trkpt>
      <trkpt lat="43.76283" lon="0.81404">
        <ele>214</ele>
        <time>2014-06-22T14:22:03Z</time>
      </trkpt>
      <trkpt lat="43.76279" lon="0.81407">
        <ele>215</ele>
        <time>2014-06-22T14:22:07Z</time>
      </trkpt>
      <trkpt lat="43.76275" lon="0.81411">
        <ele>215</ele>
        <time>2014-06-22T14:22:11Z</time>
      </trkpt>
      <trkpt lat="43.76271" lon="0.81415">
        <ele>215</ele>
        <time>2014-06-22T14:22:15Z</time>
      </trkpt>
      <trkpt lat="43.76267" lon="0.81418">
        <ele>215</ele>
        <time>2014-06-22T14:22:19Z</time>
      </trkpt>
      <trkpt lat="43.76263" lon="0.81423">
        <ele>215</ele>
        <time>2014-06-22T14:22:23Z</time>
      </trkpt>
      <trkpt lat="43.76259" lon="0.81426">
        <ele>214</ele>
        <time>2014-06-22T14:22:27Z</time>
      </trkpt>
      <trkpt lat="43.76255" lon="0.8143">
        <ele>214</ele>
        <time>2014-06-22T14:22:31Z</time>
      </trkpt>
      <trkpt lat="43.76251" lon="0.81434">
        <ele>215</ele>
        <time>2014-06-22T14:22:35Z</time>
      </trkpt>
      <trkpt lat="43.76247" lon="0.81438">
        <ele>216</ele>
        <time>2014-06-22T14:22:39Z</time>
      </trkpt>
      <trkpt lat="43.76244" lon="0.81443">
        <ele>216</ele>
        <time>2014-06-22T14:22:43Z</time>
      </trkpt>
      <trkpt lat="43.76241" lon="0.81447">
        <ele>216</ele>
        <time>2014-06-22T14:22:47Z</time>
      </trkpt>
      <trkpt lat="43.76237" lon="0.81452">
        <ele>215</ele>
        <time>2014-06-22T14:22:51Z</time>
      </trkpt>
      <trkpt lat="43.76234" lon="0.81457">
        <ele>215</ele>
        <time>2014-06-22T14:22:55Z</time>
      </trkpt>
      <trkpt lat="43.76231" lon="0.81462">
        <ele>215</ele>
        <time>2014-06-22T14:22:59Z</time>
      </trkpt>
      <trkpt lat="43.76228" lon="0.81467">
        <ele>214</ele>
        <time>2014-06-22T14:23:03Z</time>
      </trkpt>
      <trkpt lat="43.76225" lon="0.81472">
        <ele>214</ele>
        <time>2014-06-22T14:23:07Z</time>
      </trkpt>
      <trkpt lat="43.76221" lon="0.81477">
        <ele>214</ele>
        <time>2014-06-22T14:23:11Z</time>
      </trkpt>
      <trkpt lat="43.76218" lon="0.81482">
        <ele>214</ele>
        <time>2014-06-22T14:23:15Z</time>
      </trkpt>
      <trkpt lat="43.76214" lon="0.81487">
        <ele>214</ele>
        <time>2014-06-22T14:23:19Z</time>
      </trkpt>
      <trkpt lat="43.76211" lon="0.81492">
        <ele>214</ele>
        <time>2014-06-22T14:23:23Z</time>
      </trkpt>
      <trkpt lat="43.76208" lon="0.81497">
        <ele>216</ele>
        <time>2014-06-22T14:23:27Z</time>
      </trkpt>
      <trkpt lat="43.76205" lon="0.81503">
        <ele>217</ele>
        <time>2014-06-22T14:23:31Z</time>
      </trkpt>
      <trkpt lat="43.76203" lon="0.81508">
        <ele>218</ele>
        <time>2014-06-22T14:23:35Z</time>
      </trkpt>
      <trkpt lat="43.762" lon="0.81513">
        <ele>218</ele>
        <time>2014-06-22T14:23:39Z</time>
      </trkpt>
      <trkpt lat="43.76197" lon="0.81519">
        <ele>218</ele>
        <time>2014-06-22T14:23:44Z</time>
      </trkpt>
      <trkpt lat="43.76194" lon="0.81524">
        <ele>218</ele>
        <time>2014-06-22T14:23:48Z</time>
      </trkpt>
      <trkpt lat="43.7619" lon="0.8153">
        <ele>218</ele>
        <time>2014-06-22T14:23:53Z</time>
      </trkpt>
      <trkpt lat="43.76188" lon="0.81536">
        <ele>219</ele>
        <time>2014-06-22T14:23:58Z</time>
      </trkpt>
      <trkpt lat="43.76185" lon="0.81542">
        <ele>221</ele>
        <time>2014-06-22T14:24:08Z</time>
      </trkpt>
      <trkpt lat="43.76185" lon="0.81548">
        <ele>222</ele>
        <time>2014-06-22T14:24:15Z</time>
      </trkpt>
      <trkpt lat="43.76189" lon="0.81547">
        <ele>226</ele>
        <time>2014-06-22T14:26:25Z</time>
      </trkpt>
      <trkpt lat="43.76186" lon="0.81554">
        <ele>223</ele>
        <time>2014-06-22T14:28:28Z</time>
      </trkpt>
      <trkpt lat="43.76183" lon="0.81559">
        <ele>224</ele>
        <time>2014-06-22T14:28:34Z</time>
      </trkpt>
      <trkpt lat="43.76181" lon="0.81565">
        <ele>222</ele>
        <time>2014-06-22T14:29:10Z</time>
      </trkpt>
      <trkpt lat="43.76179" lon="0.81572">
        <ele>221</ele>
        <time>2014-06-22T14:29:14Z</time>
      </trkpt>
      <trkpt lat="43.7618" lon="0.81578">
        <ele>223</ele>
        <time>2014-06-22T14:29:21Z</time>
      </trkpt>
      <trkpt lat="43.76176" lon="0.81583">
        <ele>222</ele>
        <time>2014-06-22T14:30:15Z</time>
      </trkpt>
      <trkpt lat="43.76174" lon="0.8159">
        <ele>222</ele>
        <time>2014-06-22T14:30:19Z</time>
      </trkpt>
      <trkpt lat="43.76172" lon="0.81597">
        <ele>222</ele>
        <time>2014-06-22T14:30:23Z</time>
      </trkpt>
      <trkpt lat="43.7617" lon="0.81604">
        <ele>223</ele>
        <time>2014-06-22T14:30:26Z</time>
      </trkpt>
      <trkpt lat="43.76168" lon="0.81611">
        <ele>223</ele>
        <time>2014-06-22T14:30:30Z</time>
      </trkpt>
      <trkpt lat="43.76166" lon="0.81618">
        <ele>223</ele>
        <time>2014-06-22T14:30:34Z</time>
      </trkpt>
      <trkpt lat="43.76165" lon="0.81626">
        <ele>223</ele>
        <time>2014-06-22T14:30:38Z</time>
      </trkpt>
      <trkpt lat="43.76163" lon="0.81633">
        <ele>223</ele>
        <time>2014-06-22T14:30:42Z</time>
      </trkpt>
      <trkpt lat="43.76161" lon="0.8164">
        <ele>223</ele>
        <time>2014-06-22T14:30:46Z</time>
      </trkpt>
      <trkpt lat="43.7616" lon="0.81646">
        <ele>222</ele>
        <time>2014-06-22T14:30:50Z</time>
      </trkpt>
      <trkpt lat="43.76159" lon="0.81653">
        <ele>223</ele>
        <time>2014-06-22T14:30:54Z</time>
      </trkpt>
      <trkpt lat="43.76157" lon="0.81659">
        <ele>222</ele>
        <time>2014-06-22T14:30:58Z</time>
      </trkpt>
      <trkpt lat="43.76156" lon="0.81666">
        <ele>222</ele>
        <time>2014-06-22T14:31:02Z</time>
      </trkpt>
      <trkpt lat="43.76154" lon="0.81672">
        <ele>222</ele>
        <time>2014-06-22T14:31:06Z</time>
      </trkpt>
      <trkpt lat="43.76153" lon="0.81678">
        <ele>222</ele>
        <time>2014-06-22T14:31:10Z</time>
      </trkpt>
      <trkpt lat="43.76152" lon="0.81685">
        <ele>223</ele>
        <time>2014-06-22T14:31:14Z</time>
      </trkpt>
      <trkpt lat="43.76151" lon="0.81692">
        <ele>224</ele>
        <time>2014-06-22T14:31:18Z</time>
      </trkpt>
      <trkpt lat="43.7615" lon="0.81698">
        <ele>223</ele>
        <time>2014-06-22T14:31:22Z</time>
      </trkpt>
      <trkpt lat="43.76149" lon="0.81705">
        <ele>223</ele>
        <time>2014-06-22T14:31:27Z</time>
      </trkpt>
      <trkpt lat="43.76148" lon="0.81712">
        <ele>222</ele>
        <time>2014-06-22T14:31:31Z</time>
      </trkpt>
      <trkpt lat="43.76148" lon="0.81718">
        <ele>222</ele>
        <time>2014-06-22T14:31:35Z</time>
      </trkpt>
      <trkpt lat="43.76147" lon="0.81725">
        <ele>222</ele>
        <time>2014-06-22T14:31:39Z</time>
      </trkpt>
      <trkpt lat="43.76146" lon="0.81732">
        <ele>222</ele>
        <time>2014-06-22T14:31:43Z</time>
      </trkpt>
      <trkpt lat="43.76145" lon="0.81739">
        <ele>222</ele>
        <time>2014-06-22T14:31:47Z</time>
      </trkpt>
      <trkpt lat="43.76145" lon="0.81745">
        <ele>223</ele>
        <time>2014-06-22T14:31:51Z</time>
      </trkpt>
      <trkpt lat="43.76144" lon="0.81752">
        <ele>222</ele>
        <time>2014-06-22T14:31:55Z</time>
      </trkpt>
      <trkpt lat="43.76142" lon="0.81759">
        <ele>222</ele>
        <time>2014-06-22T14:31:59Z</time>
      </trkpt>
      <trkpt lat="43.76141" lon="0.81766">
        <ele>221</ele>
        <time>2014-06-22T14:32:03Z</time>
      </trkpt>
      <trkpt lat="43.7614" lon="0.81772">
        <ele>221</ele>
        <time>2014-06-22T14:32:07Z</time>
      </trkpt>
      <trkpt lat="43.76141" lon="0.81779">
        <ele>222</ele>
        <time>2014-06-22T14:32:14Z</time>
      </trkpt>
      <trkpt lat="43.76141" lon="0.81786">
        <ele>223</ele>
        <time>2014-06-22T14:32:19Z</time>
      </trkpt>
      <trkpt lat="43.76141" lon="0.81792">
        <ele>223</ele>
        <time>2014-06-22T14:32:22Z</time>
      </trkpt>
      <trkpt lat="43.76141" lon="0.81798">
        <ele>224</ele>
        <time>2014-06-22T14:32:25Z</time>
      </trkpt>
      <trkpt lat="43.76142" lon="0.81807">
        <ele>225</ele>
        <time>2014-06-22T14:32:29Z</time>
      </trkpt>
      <trkpt lat="43.76142" lon="0.81814">
        <ele>224</ele>
        <time>2014-06-22T14:32:33Z</time>
      </trkpt>
      <trkpt lat="43.76142" lon="0.81822">
        <ele>225</ele>
        <time>2014-06-22T14:32:37Z</time>
      </trkpt>
      <trkpt lat="43.76143" lon="0.81829">
        <ele>225</ele>
        <time>2014-06-22T14:32:41Z</time>
      </trkpt>
      <trkpt lat="43.76143" lon="0.81836">
        <ele>224</ele>
        <time>2014-06-22T14:32:45Z</time>
      </trkpt>
      <trkpt lat="43.76143" lon="0.81843">
        <ele>223</ele>
        <time>2014-06-22T14:32:49Z</time>
      </trkpt>
      <trkpt lat="43.76144" lon="0.8185">
        <ele>222</ele>
        <time>2014-06-22T14:32:53Z</time>
      </trkpt>
      <trkpt lat="43.76145" lon="0.81859">
        <ele>222</ele>
        <time>2014-06-22T14:32:58Z</time>
      </trkpt>
      <trkpt lat="43.76146" lon="0.81865">
        <ele>222</ele>
        <time>2014-06-22T14:33:02Z</time>
      </trkpt>
      <trkpt lat="43.76147" lon="0.81872">
        <ele>222</ele>
        <time>2014-06-22T14:33:06Z</time>
      </trkpt>
      <trkpt lat="43.76147" lon="0.81879">
        <ele>223</ele>
        <time>2014-06-22T14:33:10Z</time>
      </trkpt>
      <trkpt lat="43.76149" lon="0.81885">
        <ele>225</ele>
        <time>2014-06-22T14:33:13Z</time>
      </trkpt>
      <trkpt lat="43.7615" lon="0.81894">
        <ele>225</ele>
        <time>2014-06-22T14:33:18Z</time>
      </trkpt>
      <trkpt lat="43.7615" lon="0.819">
        <ele>225</ele>
        <time>2014-06-22T14:33:22Z</time>
      </trkpt>
      <trkpt lat="43.7615" lon="0.81907">
        <ele>224</ele>
        <time>2014-06-22T14:33:26Z</time>
      </trkpt>
      <trkpt lat="43.76151" lon="0.81915">
        <ele>224</ele>
        <time>2014-06-22T14:33:31Z</time>
      </trkpt>
      <trkpt lat="43.76151" lon="0.81922">
        <ele>224</ele>
        <time>2014-06-22T14:33:36Z</time>
      </trkpt>
      <trkpt lat="43.76151" lon="0.81928">
        <ele>225</ele>
        <time>2014-06-22T14:33:40Z</time>
      </trkpt>
      <trkpt lat="43.76153" lon="0.81934">
        <ele>225</ele>
        <time>2014-06-22T14:33:47Z</time>
      </trkpt>
      <trkpt lat="43.76154" lon="0.81942">
        <ele>225</ele>
        <time>2014-06-22T14:33:51Z</time>
      </trkpt>
      <trkpt lat="43.76156" lon="0.81948">
        <ele>225</ele>
        <time>2014-06-22T14:33:54Z</time>
      </trkpt>
      <trkpt lat="43.76156" lon="0.81956">
        <ele>226</ele>
        <time>2014-06-22T14:33:58Z</time>
      </trkpt>
      <trkpt lat="43.76157" lon="0.81963">
        <ele>225</ele>
        <time>2014-06-22T14:34:02Z</time>
      </trkpt>
      <trkpt lat="43.76158" lon="0.8197">
        <ele>224</ele>
        <time>2014-06-22T14:34:06Z</time>
      </trkpt>
      <trkpt lat="43.7616" lon="0.81976">
        <ele>226</ele>
        <time>2014-06-22T14:34:10Z</time>
      </trkpt>
      <trkpt lat="43.76162" lon="0.81982">
        <ele>225</ele>
        <time>2014-06-22T14:34:15Z</time>
      </trkpt>
      <trkpt lat="43.76162" lon="0.81989">
        <ele>224</ele>
        <time>2014-06-22T14:34:20Z</time>
      </trkpt>
      <trkpt lat="43.7616" lon="0.81994">
        <ele>223</ele>
        <time>2014-06-22T14:34:23Z</time>
      </trkpt>
      <trkpt lat="43.7616" lon="0.82">
        <ele>223</ele>
        <time>2014-06-22T14:34:36Z</time>
      </trkpt>
      <trkpt lat="43.76162" lon="0.82007">
        <ele>225</ele>
        <time>2014-06-22T14:34:39Z</time>
      </trkpt>
      <trkpt lat="43.76164" lon="0.82014">
        <ele>224</ele>
        <time>2014-06-22T14:34:42Z</time>
      </trkpt>
      <trkpt lat="43.76166" lon="0.82021">
        <ele>224</ele>
        <time>2014-06-22T14:34:45Z</time>
      </trkpt>
      <trkpt lat="43.76168" lon="0.82029">
        <ele>224</ele>
        <time>2014-06-22T14:34:48Z</time>
      </trkpt>
      <trkpt lat="43.76169" lon="0.82036">
        <ele>224</ele>
        <time>2014-06-22T14:34:51Z</time>
      </trkpt>
      <trkpt lat="43.7617" lon="0.82043">
        <ele>224</ele>
        <time>2014-06-22T14:34:54Z</time>
      </trkpt>
      <trkpt lat="43.76169" lon="0.82049">
        <ele>225</ele>
        <time>2014-06-22T14:34:57Z</time>
      </trkpt>
      <trkpt lat="43.7617" lon="0.82057">
        <ele>225</ele>
        <time>2014-06-22T14:35:01Z</time>
      </trkpt>
      <trkpt lat="43.76171" lon="0.82064">
        <ele>225</ele>
        <time>2014-06-22T14:35:05Z</time>
      </trkpt>
      <trkpt lat="43.76172" lon="0.82071">
        <ele>227</ele>
        <time>2014-06-22T14:35:09Z</time>
      </trkpt>
      <trkpt lat="43.76173" lon="0.82077">
        <ele>228</ele>
        <time>2014-06-22T14:35:14Z</time>
      </trkpt>
      <trkpt lat="43.76173" lon="0.82084">
        <ele>227</ele>
        <time>2014-06-22T14:35:19Z</time>
      </trkpt>
      <trkpt lat="43.76173" lon="0.82092">
        <ele>228</ele>
        <time>2014-06-22T14:35:23Z</time>
      </trkpt>
      <trkpt lat="43.76173" lon="0.82099">
        <ele>228</ele>
        <time>2014-06-22T14:35:27Z</time>
      </trkpt>
      <trkpt lat="43.76173" lon="0.82106">
        <ele>228</ele>
        <time>2014-06-22T14:35:32Z</time>
      </trkpt>
      <trkpt lat="43.76173" lon="0.82114">
        <ele>228</ele>
        <time>2014-06-22T14:35:37Z</time>
      </trkpt>
      <trkpt lat="43.76173" lon="0.8212">
        <ele>229</ele>
        <time>2014-06-22T14:35:41Z</time>
      </trkpt>
      <trkpt lat="43.76173" lon="0.82128">
        <ele>229</ele>
        <time>2014-06-22T14:35:45Z</time>
      </trkpt>
      <trkpt lat="43.76173" lon="0.82135">
        <ele>231</ele>
        <time>2014-06-22T14:35:49Z</time>
      </trkpt>
      <trkpt lat="43.76172" lon="0.82142">
        <ele>231</ele>
        <time>2014-06-22T14:35:53Z</time>
      </trkpt>
      <trkpt lat="43.76172" lon="0.82149">
        <ele>230</ele>
        <time>2014-06-22T14:35:57Z</time>
      </trkpt>
      <trkpt lat="43.76171" lon="0.82156">
        <ele>230</ele>
        <time>2014-06-22T14:36:01Z</time>
      </trkpt>
      <trkpt lat="43.7617" lon="0.82162">
        <ele>230</ele>
        <time>2014-06-22T14:36:05Z</time>
      </trkpt>
      <trkpt lat="43.76169" lon="0.82168">
        <ele>230</ele>
        <time>2014-06-22T14:36:27Z</time>
      </trkpt>
      <trkpt lat="43.76169" lon="0.82175">
        <ele>232</ele>
        <time>2014-06-22T14:36:31Z</time>
      </trkpt>
      <trkpt lat="43.76168" lon="0.82182">
        <ele>232</ele>
        <time>2014-06-22T14:36:35Z</time>
      </trkpt>
      <trkpt lat="43.76165" lon="0.82189">
        <ele>232</ele>
        <time>2014-06-22T14:36:39Z</time>
      </trkpt>
      <trkpt lat="43.76161" lon="0.82195">
        <ele>232</ele>
        <time>2014-06-22T14:36:43Z</time>
      </trkpt>
      <trkpt lat="43.76159" lon="0.82202">
        <ele>233</ele>
        <time>2014-06-22T14:36:47Z</time>
      </trkpt>
      <trkpt lat="43.76158" lon="0.82208">
        <ele>233</ele>
        <time>2014-06-22T14:36:51Z</time>
      </trkpt>
      <trkpt lat="43.76155" lon="0.82214">
        <ele>233</ele>
        <time>2014-06-22T14:36:55Z</time>
      </trkpt>
      <trkpt lat="43.76152" lon="0.82219">
        <ele>233</ele>
        <time>2014-06-22T14:36:59Z</time>
      </trkpt>
      <trkpt lat="43.7615" lon="0.82226">
        <ele>233</ele>
        <time>2014-06-22T14:37:04Z</time>
      </trkpt>
      <trkpt lat="43.76148" lon="0.82232">
        <ele>232</ele>
        <time>2014-06-22T14:37:08Z</time>
      </trkpt>
      <trkpt lat="43.76146" lon="0.82238">
        <ele>232</ele>
        <time>2014-06-22T14:37:12Z</time>
      </trkpt>
      <trkpt lat="43.76143" lon="0.82244">
        <ele>232</ele>
        <time>2014-06-22T14:37:16Z</time>
      </trkpt>
      <trkpt lat="43.76141" lon="0.8225">
        <ele>233</ele>
        <time>2014-06-22T14:37:48Z</time>
      </trkpt>
      <trkpt lat="43.76138" lon="0.82257">
        <ele>233</ele>
        <time>2014-06-22T14:37:51Z</time>
      </trkpt>
      <trkpt lat="43.76136" lon="0.82264">
        <ele>234</ele>
        <time>2014-06-22T14:37:54Z</time>
      </trkpt>
      <trkpt lat="43.76134" lon="0.82271">
        <ele>235</ele>
        <time>2014-06-22T14:37:57Z</time>
      </trkpt>
      <trkpt lat="43.76132" lon="0.82278">
        <ele>235</ele>
        <time>2014-06-22T14:38:00Z</time>
      </trkpt>
      <trkpt lat="43.76131" lon="0.82284">
        <ele>236</ele>
        <time>2014-06-22T14:38:03Z</time>
      </trkpt>
      <trkpt lat="43.76131" lon="0.82292">
        <ele>237</ele>
        <time>2014-06-22T14:38:07Z</time>
      </trkpt>
      <trkpt lat="43.7613" lon="0.82299">
        <ele>239</ele>
        <time>2014-06-22T14:38:16Z</time>
      </trkpt>
      <trkpt lat="43.76129" lon="0.82307">
        <ele>239</ele>
        <time>2014-06-22T14:38:20Z</time>
      </trkpt>
      <trkpt lat="43.76129" lon="0.82314">
        <ele>241</ele>
        <time>2014-06-22T14:38:24Z</time>
      </trkpt>
      <trkpt lat="43.76127" lon="0.8232">
        <ele>242</ele>
        <time>2014-06-22T14:38:28Z</time>
      </trkpt>
      <trkpt lat="43.76123" lon="0.82325">
        <ele>240</ele>
        <time>2014-06-22T14:38:32Z</time>
      </trkpt>
      <trkpt lat="43.76121" lon="0.82331">
        <ele>239</ele>
        <time>2014-06-22T14:38:49Z</time>
      </trkpt>
      <trkpt lat="43.7612" lon="0.82337">
        <ele>239</ele>
        <time>2014-06-22T14:38:54Z</time>
      </trkpt>
      <trkpt lat="43.76119" lon="0.82344">
        <ele>238</ele>
        <time>2014-06-22T14:39:00Z</time>
      </trkpt>
      <trkpt lat="43.76117" lon="0.82351">
        <ele>238</ele>
        <time>2014-06-22T14:39:06Z</time>
      </trkpt>
      <trkpt lat="43.76112" lon="0.8235">
        <ele>239</ele>
        <time>2014-06-22T14:40:53Z</time>
      </trkpt>
      <trkpt lat="43.76107" lon="0.82349">
        <ele>239</ele>
        <time>2014-06-22T14:40:57Z</time>
      </trkpt>
      <trkpt lat="43.76102" lon="0.82349">
        <ele>237</ele>
        <time>2014-06-22T14:41:01Z</time>
      </trkpt>
      <trkpt lat="43.76097" lon="0.82348">
        <ele>238</ele>
        <time>2014-06-22T14:41:05Z</time>
      </trkpt>
      <trkpt lat="43.76093" lon="0.82348">
        <ele>237</ele>
        <time>2014-06-22T14:41:09Z</time>
      </trkpt>
      <trkpt lat="43.76088" lon="0.82348">
        <ele>235</ele>
        <time>2014-06-22T14:41:13Z</time>
      </trkpt>
      <trkpt lat="43.76083" lon="0.82349">
        <ele>238</ele>
        <time>2014-06-22T14:41:17Z</time>
      </trkpt>
      <trkpt lat="43.76078" lon="0.82349">
        <ele>240</ele>
        <time>2014-06-22T14:41:21Z</time>
      </trkpt>
      <trkpt lat="43.76073" lon="0.82348">
        <ele>242</ele>
        <time>2014-06-22T14:41:25Z</time>
      </trkpt>
      <trkpt lat="43.76068" lon="0.82349">
        <ele>242</ele>
        <time>2014-06-22T14:41:30Z</time>
      </trkpt>
      <trkpt lat="43.76066" lon="0.82355">
        <ele>239</ele>
        <time>2014-06-22T14:41:42Z</time>
      </trkpt>
      <trkpt lat="43.76064" lon="0.82362">
        <ele>239</ele>
        <time>2014-06-22T14:41:47Z</time>
      </trkpt>
      <trkpt lat="43.7606" lon="0.82365">
        <ele>239</ele>
        <time>2014-06-22T14:41:52Z</time>
      </trkpt>
      <trkpt lat="43.7606" lon="0.82371">
        <ele>238</ele>
        <time>2014-06-22T14:42:01Z</time>
      </trkpt>
      <trkpt lat="43.76061" lon="0.82378">
        <ele>238</ele>
        <time>2014-06-22T14:42:06Z</time>
      </trkpt>
      <trkpt lat="43.76061" lon="0.82385">
        <ele>237</ele>
        <time>2014-06-22T14:42:11Z</time>
      </trkpt>
      <trkpt lat="43.7606" lon="0.82391">
        <ele>239</ele>
        <time>2014-06-22T14:42:15Z</time>
      </trkpt>
      <trkpt lat="43.7606" lon="0.82399">
        <ele>241</ele>
        <time>2014-06-22T14:42:20Z</time>
      </trkpt>
      <trkpt lat="43.76058" lon="0.82405">
        <ele>241</ele>
        <time>2014-06-22T14:43:52Z</time>
      </trkpt>
      <trkpt lat="43.76059" lon="0.82412">
        <ele>242</ele>
        <time>2014-06-22T14:44:03Z</time>
      </trkpt>
      <trkpt lat="43.76059" lon="0.82419">
        <ele>242</ele>
        <time>2014-06-22T14:44:07Z</time>
      </trkpt>
      <trkpt lat="43.76058" lon="0.82426">
        <ele>240</ele>
        <time>2014-06-22T14:44:12Z</time>
      </trkpt>
      <trkpt lat="43.76058" lon="0.82432">
        <ele>241</ele>
        <time>2014-06-22T14:44:25Z</time>
      </trkpt>
      <trkpt lat="43.7606" lon="0.82426">
        <ele>245</ele>
        <time>2014-06-22T14:45:56Z</time>
      </trkpt>
      <trkpt lat="43.76061" lon="0.82419">
        <ele>242</ele>
        <time>2014-06-22T14:46:02Z</time>
      </trkpt>
      <trkpt lat="43.7606" lon="0.82412">
        <ele>242</ele>
        <time>2014-06-22T14:46:07Z</time>
      </trkpt>
      <trkpt lat="43.76056" lon="0.8241">
        <ele>242</ele>
        <time>2014-06-22T14:46:48Z</time>
      </trkpt>
      <trkpt lat="43.76058" lon="0.82403">
        <ele>243</ele>
        <time>2014-06-22T14:50:48Z</time>
      </trkpt>
      <trkpt lat="43.76061" lon="0.82409">
        <ele>244</ele>
        <time>2014-06-22T14:50:57Z</time>
      </trkpt>
      <trkpt lat="43.76066" lon="0.82412">
        <ele>243</ele>
        <time>2014-06-22T14:51:02Z</time>
      </trkpt>
      <trkpt lat="43.76071" lon="0.82412">
        <ele>246</ele>
        <time>2014-06-22T14:51:09Z</time>
      </trkpt>
      <trkpt lat="43.76077" lon="0.82412">
        <ele>247</ele>
        <time>2014-06-22T14:51:16Z</time>
      </trkpt>
      <trkpt lat="43.76082" lon="0.82411">
        <ele>247</ele>
        <time>2014-06-22T14:51:21Z</time>
      </trkpt>
      <trkpt lat="43.76087" lon="0.8241">
        <ele>247</ele>
        <time>2014-06-22T14:51:25Z</time>
      </trkpt>
      <trkpt lat="43.76092" lon="0.8241">
        <ele>247</ele>
        <time>2014-06-22T14:51:30Z</time>
      </trkpt>
      <trkpt lat="43.76097" lon="0.82411">
        <ele>245</ele>
        <time>2014-06-22T14:51:35Z</time>
      </trkpt>
      <trkpt lat="43.76103" lon="0.82411">
        <ele>247</ele>
        <time>2014-06-22T14:51:40Z</time>
      </trkpt>
      <trkpt lat="43.76107" lon="0.8241">
        <ele>245</ele>
        <time>2014-06-22T14:51:49Z</time>
      </trkpt>
      <trkpt lat="43.76112" lon="0.82408">
        <ele>242</ele>
        <time>2014-06-22T14:51:53Z</time>
      </trkpt>
      <trkpt lat="43.76117" lon="0.82406">
        <ele>242</ele>
        <time>2014-06-22T14:51:58Z</time>
      </trkpt>
      <trkpt lat="43.7612" lon="0.82402">
        <ele>241</ele>
        <time>2014-06-22T14:52:02Z</time>
      </trkpt>
      <trkpt lat="43.76122" lon="0.82396">
        <ele>242</ele>
        <time>2014-06-22T14:52:06Z</time>
      </trkpt>
      <trkpt lat="43.76123" lon="0.8239">
        <ele>242</ele>
        <time>2014-06-22T14:52:10Z</time>
      </trkpt>
      <trkpt lat="43.76123" lon="0.82383">
        <ele>238</ele>
        <time>2014-06-22T14:52:15Z</time>
      </trkpt>
      <trkpt lat="43.76124" lon="0.82376">
        <ele>242</ele>
        <time>2014-06-22T14:52:43Z</time>
      </trkpt>
      <trkpt lat="43.76126" lon="0.82371">
        <ele>241</ele>
        <time>2014-06-22T14:52:50Z</time>
      </trkpt>
      <trkpt lat="43.76126" lon="0.82364">
        <ele>242</ele>
        <time>2014-06-22T14:53:04Z</time>
      </trkpt>
      <trkpt lat="43.76126" lon="0.82357">
        <ele>242</ele>
        <time>2014-06-22T14:53:09Z</time>
      </trkpt>
      <trkpt lat="43.76124" lon="0.8235">
        <ele>243</ele>
        <time>2014-06-22T14:53:14Z</time>
      </trkpt>
      <trkpt lat="43.76124" lon="0.82342">
        <ele>244</ele>
        <time>2014-06-22T14:53:18Z</time>
      </trkpt>
      <trkpt lat="43.76125" lon="0.82335">
        <ele>243</ele>
        <time>2014-06-22T14:53:22Z</time>
      </trkpt>
      <trkpt lat="43.76126" lon="0.82328">
        <ele>242</ele>
        <time>2014-06-22T14:53:29Z</time>
      </trkpt>
      <trkpt lat="43.76127" lon="0.82321">
        <ele>242</ele>
        <time>2014-06-22T14:53:33Z</time>
      </trkpt>
      <trkpt lat="43.76129" lon="0.82316">
        <ele>242</ele>
        <time>2014-06-22T14:53:37Z</time>
      </trkpt>
      <trkpt lat="43.7613" lon="0.82309">
        <ele>241</ele>
        <time>2014-06-22T14:53:41Z</time>
      </trkpt>
      <trkpt lat="43.76131" lon="0.82303">
        <ele>243</ele>
        <time>2014-06-22T14:53:45Z</time>
      </trkpt>
      <trkpt lat="43.76132" lon="0.82296">
        <ele>240</ele>
        <time>2014-06-22T14:53:49Z</time>
      </trkpt>
      <trkpt lat="43.76133" lon="0.8229">
        <ele>239</ele>
        <time>2014-06-22T14:53:53Z</time>
      </trkpt>
      <trkpt lat="43.76135" lon="0.82284">
        <ele>238</ele>
        <time>2014-06-22T14:53:57Z</time>
      </trkpt>
      <trkpt lat="43.76135" lon="0.82277">
        <ele>239</ele>
        <time>2014-06-22T14:54:01Z</time>
      </trkpt>
      <trkpt lat="43.76137" lon="0.82271">
        <ele>240</ele>
        <time>2014-06-22T14:54:05Z</time>
      </trkpt>
      <trkpt lat="43.76138" lon="0.82265">
        <ele>239</ele>
        <time>2014-06-22T14:54:09Z</time>
      </trkpt>
      <trkpt lat="43.7614" lon="0.82259">
        <ele>239</ele>
        <time>2014-06-22T14:54:14Z</time>
      </trkpt>
      <trkpt lat="43.76142" lon="0.82252">
        <ele>240</ele>
        <time>2014-06-22T14:54:20Z</time>
      </trkpt>
      <trkpt lat="43.76144" lon="0.82247">
        <ele>240</ele>
        <time>2014-06-22T14:54:24Z</time>
      </trkpt>
      <trkpt lat="43.76145" lon="0.82241">
        <ele>239</ele>
        <time>2014-06-22T14:54:28Z</time>
      </trkpt>
      <trkpt lat="43.76148" lon="0.82234">
        <ele>239</ele>
        <time>2014-06-22T14:54:33Z</time>
      </trkpt>
      <trkpt lat="43.7615" lon="0.82228">
        <ele>238</ele>
        <time>2014-06-22T14:54:37Z</time>
      </trkpt>
      <trkpt lat="43.76152" lon="0.82221">
        <ele>237</ele>
        <time>2014-06-22T14:54:41Z</time>
      </trkpt>
      <trkpt lat="43.76154" lon="0.82215">
        <ele>236</ele>
        <time>2014-06-22T14:54:45Z</time>
      </trkpt>
      <trkpt lat="43.76157" lon="0.82209">
        <ele>236</ele>
        <time>2014-06-22T14:54:49Z</time>
      </trkpt>
      <trkpt lat="43.7616" lon="0.82203">
        <ele>236</ele>
        <time>2014-06-22T14:54:53Z</time>
      </trkpt>
      <trkpt lat="43.76163" lon="0.82198">
        <ele>235</ele>
        <time>2014-06-22T14:54:57Z</time>
      </trkpt>
      <trkpt lat="43.76167" lon="0.82194">
        <ele>234</ele>
        <time>2014-06-22T14:55:01Z</time>
      </trkpt>
      <trkpt lat="43.76169" lon="0.82187">
        <ele>234</ele>
        <time>2014-06-22T14:55:05Z</time>
      </trkpt>
      <trkpt lat="43.76171" lon="0.82181">
        <ele>233</ele>
        <time>2014-06-22T14:55:09Z</time>
      </trkpt>
      <trkpt lat="43.76173" lon="0.82174">
        <ele>231</ele>
        <time>2014-06-22T14:55:13Z</time>
      </trkpt>
      <trkpt lat="43.76177" lon="0.82169">
        <ele>233</ele>
        <time>2014-06-22T14:55:17Z</time>
      </trkpt>
      <trkpt lat="43.7618" lon="0.82165">
        <ele>230</ele>
        <time>2014-06-22T14:55:21Z</time>
      </trkpt>
      <trkpt lat="43.76184" lon="0.82161">
        <ele>230</ele>
        <time>2014-06-22T14:55:25Z</time>
      </trkpt>
      <trkpt lat="43.76188" lon="0.82157">
        <ele>229</ele>
        <time>2014-06-22T14:55:29Z</time>
      </trkpt>
      <trkpt lat="43.76192" lon="0.82153">
        <ele>224</ele>
        <time>2014-06-22T14:55:33Z</time>
      </trkpt>
      <trkpt lat="43.76197" lon="0.8215">
        <ele>227</ele>
        <time>2014-06-22T14:55:37Z</time>
      </trkpt>
      <trkpt lat="43.76201" lon="0.82146">
        <ele>226</ele>
        <time>2014-06-22T14:55:41Z</time>
      </trkpt>
      <trkpt lat="43.76204" lon="0.82142">
        <ele>228</ele>
        <time>2014-06-22T14:55:45Z</time>
      </trkpt>
      <trkpt lat="43.76209" lon="0.82138">
        <ele>226</ele>
        <time>2014-06-22T14:55:49Z</time>
      </trkpt>
      <trkpt lat="43.76212" lon="0.82134">
        <ele>225</ele>
        <time>2014-06-22T14:55:53Z</time>
      </trkpt>
      <trkpt lat="43.76216" lon="0.8213">
        <ele>224</ele>
        <time>2014-06-22T14:55:57Z</time>
      </trkpt>
      <trkpt lat="43.76219" lon="0.82125">
        <ele>224</ele>
        <time>2014-06-22T14:56:01Z</time>
      </trkpt>
      <trkpt lat="43.76222" lon="0.8212">
        <ele>224</ele>
        <time>2014-06-22T14:56:05Z</time>
      </trkpt>
      <trkpt lat="43.76225" lon="0.82113">
        <ele>225</ele>
        <time>2014-06-22T14:56:09Z</time>
      </trkpt>
      <trkpt lat="43.76227" lon="0.82107">
        <ele>224</ele>
        <time>2014-06-22T14:56:12Z</time>
      </trkpt>
      <trkpt lat="43.7623" lon="0.821">
        <ele>225</ele>
        <time>2014-06-22T14:56:16Z</time>
      </trkpt>
      <trkpt lat="43.76232" lon="0.82094">
        <ele>224</ele>
        <time>2014-06-22T14:56:20Z</time>
      </trkpt>
      <trkpt lat="43.76234" lon="0.82088">
        <ele>223</ele>
        <time>2014-06-22T14:56:24Z</time>
      </trkpt>
      <trkpt lat="43.76237" lon="0.82082">
        <ele>222</ele>
        <time>2014-06-22T14:56:28Z</time>
      </trkpt>
      <trkpt lat="43.76239" lon="0.82077">
        <ele>221</ele>
        <time>2014-06-22T14:56:33Z</time>
      </trkpt>
      <trkpt lat="43.76241" lon="0.8207">
        <ele>220</ele>
        <time>2014-06-22T14:56:38Z</time>
      </trkpt>
      <trkpt lat="43.76243" lon="0.82064">
        <ele>220</ele>
        <time>2014-06-22T14:56:42Z</time>
      </trkpt>
      <trkpt lat="43.76246" lon="0.82058">
        <ele>219</ele>
        <time>2014-06-22T14:56:46Z</time>
      </trkpt>
      <trkpt lat="43.76248" lon="0.8205">
        <ele>218</ele>
        <time>2014-06-22T14:56:50Z</time>
      </trkpt>
      <trkpt lat="43.76251" lon="0.82044">
        <ele>219</ele>
        <time>2014-06-22T14:56:54Z</time>
      </trkpt>
      <trkpt lat="43.76253" lon="0.82038">
        <ele>219</ele>
        <time>2014-06-22T14:56:58Z</time>
      </trkpt>
      <trkpt lat="43.76256" lon="0.82032">
        <ele>219</ele>
        <time>2014-06-22T14:57:03Z</time>
      </trkpt>
      <trkpt lat="43.76258" lon="0.82026">
        <ele>220</ele>
        <time>2014-06-22T14:57:08Z</time>
      </trkpt>
      <trkpt lat="43.76261" lon="0.8202">
        <ele>221</ele>
        <time>2014-06-22T14:57:12Z</time>
      </trkpt>
      <trkpt lat="43.76264" lon="0.82015">
        <ele>221</ele>
        <time>2014-06-22T14:57:16Z</time>
      </trkpt>
      <trkpt lat="43.76267" lon="0.82009">
        <ele>221</ele>
        <time>2014-06-22T14:57:20Z</time>
      </trkpt>
      <trkpt lat="43.7627" lon="0.82003">
        <ele>221</ele>
        <time>2014-06-22T14:57:24Z</time>
      </trkpt>
      <trkpt lat="43.76273" lon="0.81997">
        <ele>221</ele>
        <time>2014-06-22T14:57:28Z</time>
      </trkpt>
      <trkpt lat="43.76275" lon="0.81991">
        <ele>221</ele>
        <time>2014-06-22T14:57:32Z</time>
      </trkpt>
      <trkpt lat="43.76278" lon="0.81986">
        <ele>221</ele>
        <time>2014-06-22T14:57:36Z</time>
      </trkpt>
      <trkpt lat="43.7628" lon="0.8198">
        <ele>221</ele>
        <time>2014-06-22T14:57:40Z</time>
      </trkpt>
      <trkpt lat="43.76282" lon="0.81974">
        <ele>221</ele>
        <time>2014-06-22T14:57:44Z</time>
      </trkpt>
      <trkpt lat="43.76285" lon="0.81968">
        <ele>221</ele>
        <time>2014-06-22T14:57:48Z</time>
      </trkpt>
      <trkpt lat="43.76288" lon="0.81962">
        <ele>222</ele>
        <time>2014-06-22T14:57:52Z</time>
      </trkpt>
      <trkpt lat="43.7629" lon="0.81956">
        <ele>221</ele>
        <time>2014-06-22T14:57:56Z</time>
      </trkpt>
      <trkpt lat="43.76293" lon="0.81951">
        <ele>221</ele>
        <time>2014-06-22T14:58:00Z</time>
      </trkpt>
      <trkpt lat="43.76296" lon="0.81945">
        <ele>221</ele>
        <time>2014-06-22T14:58:04Z</time>
      </trkpt>
      <trkpt lat="43.76298" lon="0.81939">
        <ele>221</ele>
        <time>2014-06-22T14:58:09Z</time>
      </trkpt>
      <trkpt lat="43.76301" lon="0.81933">
        <ele>219</ele>
        <time>2014-06-22T14:58:14Z</time>
      </trkpt>
      <trkpt lat="43.76303" lon="0.81927">
        <ele>218</ele>
        <time>2014-06-22T14:58:18Z</time>
      </trkpt>
      <trkpt lat="43.76306" lon="0.81922">
        <ele>218</ele>
        <time>2014-06-22T14:58:22Z</time>
      </trkpt>
      <trkpt lat="43.76309" lon="0.81917">
        <ele>218</ele>
        <time>2014-06-22T14:58:26Z</time>
      </trkpt>
      <trkpt lat="43.76311" lon="0.81911">
        <ele>218</ele>
        <time>2014-06-22T14:58:30Z</time>
      </trkpt>
      <trkpt lat="43.76314" lon="0.81906">
        <ele>217</ele>
        <time>2014-06-22T14:58:42Z</time>
      </trkpt>
      <trkpt lat="43.76317" lon="0.81901">
        <ele>217</ele>
        <time>2014-06-22T14:58:46Z</time>
      </trkpt>
      <trkpt lat="43.76319" lon="0.81895">
        <ele>217</ele>
        <time>2014-06-22T14:58:50Z</time>
      </trkpt>
      <trkpt lat="43.76322" lon="0.81889">
        <ele>217</ele>
        <time>2014-06-22T14:58:54Z</time>
      </trkpt>
      <trkpt lat="43.76324" lon="0.81883">
        <ele>216</ele>
        <time>2014-06-22T14:58:58Z</time>
      </trkpt>
      <trkpt lat="43.76326" lon="0.81877">
        <ele>215</ele>
        <time>2014-06-22T14:59:02Z</time>
      </trkpt>
      <trkpt lat="43.76329" lon="0.81872">
        <ele>216</ele>
        <time>2014-06-22T14:59:06Z</time>
      </trkpt>
      <trkpt lat="43.76331" lon="0.81866">
        <ele>215</ele>
        <time>2014-06-22T14:59:10Z</time>
      </trkpt>
      <trkpt lat="43.76334" lon="0.81861">
        <ele>215</ele>
        <time>2014-06-22T14:59:14Z</time>
      </trkpt>
      <trkpt lat="43.76336" lon="0.81855">
        <ele>215</ele>
        <time>2014-06-22T14:59:18Z</time>
      </trkpt>
      <trkpt lat="43.76339" lon="0.8185">
        <ele>215</ele>
        <time>2014-06-22T14:59:22Z</time>
      </trkpt>
      <trkpt lat="43.76341" lon="0.81844">
        <ele>215</ele>
        <time>2014-06-22T14:59:26Z</time>
      </trkpt>
      <trkpt lat="43.76344" lon="0.81838">
        <ele>215</ele>
        <time>2014-06-22T14:59:31Z</time>
      </trkpt>
      <trkpt lat="43.76347" lon="0.81832">
        <ele>215</ele>
        <time>2014-06-22T14:59:35Z</time>
      </trkpt>
      <trkpt lat="43.76349" lon="0.81827">
        <ele>214</ele>
        <time>2014-06-22T14:59:39Z</time>
      </trkpt>
      <trkpt lat="43.76352" lon="0.8182">
        <ele>214</ele>
        <time>2014-06-22T14:59:43Z</time>
      </trkpt>
      <trkpt lat="43.76354" lon="0.81815">
        <ele>213</ele>
        <time>2014-06-22T14:59:47Z</time>
      </trkpt>
      <trkpt lat="43.76357" lon="0.81809">
        <ele>212</ele>
        <time>2014-06-22T14:59:51Z</time>
      </trkpt>
      <trkpt lat="43.76359" lon="0.81803">
        <ele>212</ele>
        <time>2014-06-22T14:59:55Z</time>
      </trkpt>
      <trkpt lat="43.76361" lon="0.81797">
        <ele>212</ele>
        <time>2014-06-22T14:59:59Z</time>
      </trkpt>
      <trkpt lat="43.76364" lon="0.81792">
        <ele>213</ele>
        <time>2014-06-22T15:00:03Z</time>
      </trkpt>
      <trkpt lat="43.76367" lon="0.81786">
        <ele>213</ele>
        <time>2014-06-22T15:00:07Z</time>
      </trkpt>
      <trkpt lat="43.7637" lon="0.8178">
        <ele>213</ele>
        <time>2014-06-22T15:00:11Z</time>
      </trkpt>
      <trkpt lat="43.76373" lon="0.81774">
        <ele>213</ele>
        <time>2014-06-22T15:00:15Z</time>
      </trkpt>
      <trkpt lat="43.76376" lon="0.81768">
        <ele>213</ele>
        <time>2014-06-22T15:00:19Z</time>
      </trkpt>
      <trkpt lat="43.76379" lon="0.81762">
        <ele>213</ele>
        <time>2014-06-22T15:00:23Z</time>
      </trkpt>
      <trkpt lat="43.76382" lon="0.81755">
        <ele>214</ele>
        <time>2014-06-22T15:00:27Z</time>
      </trkpt>
      <trkpt lat="43.76384" lon="0.81749">
        <ele>213</ele>
        <time>2014-06-22T15:00:31Z</time>
      </trkpt>
      <trkpt lat="43.76387" lon="0.81743">
        <ele>213</ele>
        <time>2014-06-22T15:00:35Z</time>
      </trkpt>
      <trkpt lat="43.76389" lon="0.81738">
        <ele>213</ele>
        <time>2014-06-22T15:00:39Z</time>
      </trkpt>
      <trkpt lat="43.76392" lon="0.81732">
        <ele>214</ele>
        <time>2014-06-22T15:00:43Z</time>
      </trkpt>
      <trkpt lat="43.76395" lon="0.81726">
        <ele>214</ele>
        <time>2014-06-22T15:00:47Z</time>
      </trkpt>
      <trkpt lat="43.76397" lon="0.8172">
        <ele>215</ele>
        <time>2014-06-22T15:00:51Z</time>
      </trkpt>
      <trkpt lat="43.764" lon="0.81715">
        <ele>216</ele>
        <time>2014-06-22T15:00:55Z</time>
      </trkpt>
      <trkpt lat="43.76402" lon="0.81709">
        <ele>216</ele>
        <time>2014-06-22T15:00:59Z</time>
      </trkpt>
      <trkpt lat="43.76405" lon="0.81702">
        <ele>216</ele>
        <time>2014-06-22T15:01:03Z</time>
      </trkpt>
      <trkpt lat="43.76408" lon="0.81697">
        <ele>215</ele>
        <time>2014-06-22T15:01:07Z</time>
      </trkpt>
      <trkpt lat="43.7641" lon="0.81691">
        <ele>215</ele>
        <time>2014-06-22T15:01:11Z</time>
      </trkpt>
      <trkpt lat="43.76413" lon="0.81685">
        <ele>216</ele>
        <time>2014-06-22T15:01:15Z</time>
      </trkpt>
      <trkpt lat="43.76415" lon="0.81678">
        <ele>217</ele>
        <time>2014-06-22T15:01:20Z</time>
      </trkpt>
      <trkpt lat="43.76418" lon="0.81672">
        <ele>217</ele>
        <time>2014-06-22T15:01:24Z</time>
      </trkpt>
      <trkpt lat="43.7642" lon="0.81666">
        <ele>217</ele>
        <time>2014-06-22T15:01:28Z</time>
      </trkpt>
      <trkpt lat="43.76423" lon="0.8166">
        <ele>216</ele>
        <time>2014-06-22T15:01:32Z</time>
      </trkpt>
      <trkpt lat="43.76426" lon="0.81654">
        <ele>216</ele>
        <time>2014-06-22T15:01:36Z</time>
      </trkpt>
      <trkpt lat="43.76428" lon="0.81648">
        <ele>214</ele>
        <time>2014-06-22T15:01:40Z</time>
      </trkpt>
      <trkpt lat="43.76431" lon="0.81642">
        <ele>215</ele>
        <time>2014-06-22T15:01:44Z</time>
      </trkpt>
      <trkpt lat="43.76433" lon="0.81636">
        <ele>214</ele>
        <time>2014-06-22T15:01:48Z</time>
      </trkpt>
      <trkpt lat="43.76436" lon="0.8163">
        <ele>214</ele>
        <time>2014-06-22T15:01:52Z</time>
      </trkpt>
      <trkpt lat="43.76439" lon="0.81624">
        <ele>213</ele>
        <time>2014-06-22T15:01:56Z</time>
      </trkpt>
      <trkpt lat="43.76441" lon="0.81618">
        <ele>213</ele>
        <time>2014-06-22T15:02:00Z</time>
      </trkpt>
      <trkpt lat="43.76444" lon="0.81613">
        <ele>213</ele>
        <time>2014-06-22T15:02:04Z</time>
      </trkpt>
      <trkpt lat="43.76446" lon="0.81607">
        <ele>213</ele>
        <time>2014-06-22T15:02:08Z</time>
      </trkpt>
      <trkpt lat="43.76448" lon="0.81601">
        <ele>214</ele>
        <time>2014-06-22T15:02:12Z</time>
      </trkpt>
      <trkpt lat="43.76451" lon="0.81595">
        <ele>214</ele>
        <time>2014-06-22T15:02:16Z</time>
      </trkpt>
      <trkpt lat="43.76453" lon="0.81589">
        <ele>213</ele>
        <time>2014-06-22T15:02:20Z</time>
      </trkpt>
      <trkpt lat="43.76455" lon="0.81584">
        <ele>214</ele>
        <time>2014-06-22T15:02:24Z</time>
      </trkpt>
      <trkpt lat="43.76457" lon="0.81578">
        <ele>213</ele>
        <time>2014-06-22T15:02:28Z</time>
      </trkpt>
      <trkpt lat="43.76459" lon="0.81572">
        <ele>213</ele>
        <time>2014-06-22T15:02:32Z</time>
      </trkpt>
      <trkpt lat="43.76462" lon="0.81566">
        <ele>213</ele>
        <time>2014-06-22T15:02:36Z</time>
      </trkpt>
      <trkpt lat="43.76464" lon="0.8156">
        <ele>213</ele>
        <time>2014-06-22T15:02:40Z</time>
      </trkpt>
      <trkpt lat="43.76467" lon="0.81553">
        <ele>212</ele>
        <time>2014-06-22T15:02:44Z</time>
      </trkpt>
      <trkpt lat="43.76469" lon="0.81546">
        <ele>211</ele>
        <time>2014-06-22T15:02:48Z</time>
      </trkpt>
      <trkpt lat="43.76473" lon="0.8154">
        <ele>209</ele>
        <time>2014-06-22T15:02:52Z</time>
      </trkpt>
      <trkpt lat="43.76477" lon="0.81535">
        <ele>209</ele>
        <time>2014-06-22T15:02:56Z</time>
      </trkpt>
      <trkpt lat="43.76481" lon="0.81532">
        <ele>208</ele>
        <time>2014-06-22T15:03:00Z</time>
      </trkpt>
      <trkpt lat="43.76486" lon="0.81529">
        <ele>208</ele>
        <time>2014-06-22T15:03:04Z</time>
      </trkpt>
      <trkpt lat="43.7649" lon="0.81529">
        <ele>208</ele>
        <time>2014-06-22T15:03:08Z</time>
      </trkpt>
      <trkpt lat="43.76495" lon="0.8153">
        <ele>210</ele>
        <time>2014-06-22T15:03:12Z</time>
      </trkpt>
      <trkpt lat="43.765" lon="0.81528">
        <ele>212</ele>
        <time>2014-06-22T15:03:17Z</time>
      </trkpt>
      <trkpt lat="43.76504" lon="0.81524">
        <ele>213</ele>
        <time>2014-06-22T15:03:30Z</time>
      </trkpt>
      <trkpt lat="43.76507" lon="0.81519">
        <ele>214</ele>
        <time>2014-06-22T15:03:35Z</time>
      </trkpt>
      <trkpt lat="43.7651" lon="0.81514">
        <ele>213</ele>
        <time>2014-06-22T15:03:39Z</time>
      </trkpt>
      <trkpt lat="43.76513" lon="0.81509">
        <ele>214</ele>
        <time>2014-06-22T15:03:44Z</time>
      </trkpt>
      <trkpt lat="43.76518" lon="0.81505">
        <ele>213</ele>
        <time>2014-06-22T15:03:52Z</time>
      </trkpt>
      <trkpt lat="43.76523" lon="0.81501">
        <ele>214</ele>
        <time>2014-06-22T15:03:57Z</time>
      </trkpt>
      <trkpt lat="43.76528" lon="0.81498">
        <ele>213</ele>
        <time>2014-06-22T15:04:02Z</time>
      </trkpt>
      <trkpt lat="43.76533" lon="0.81499">
        <ele>212</ele>
        <time>2014-06-22T15:04:07Z</time>
      </trkpt>
      <trkpt lat="43.76537" lon="0.81498">
        <ele>211</ele>
        <time>2014-06-22T15:04:12Z</time>
      </trkpt>
      <trkpt lat="43.76542" lon="0.81499">
        <ele>211</ele>
        <time>2014-06-22T15:06:20Z</time>
      </trkpt>
      <trkpt lat="43.76546" lon="0.81504">
        <ele>211</ele>
        <time>2014-06-22T15:06:26Z</time>
      </trkpt>
      <trkpt lat="43.76549" lon="0.81509">
        <ele>213</ele>
        <time>2014-06-22T15:06:32Z</time>
      </trkpt>
      <trkpt lat="43.76554" lon="0.81511">
        <ele>213</ele>
        <time>2014-06-22T15:06:38Z</time>
      </trkpt>
      <trkpt lat="43.76559" lon="0.81512">
        <ele>215</ele>
        <time>2014-06-22T15:06:43Z</time>
      </trkpt>
      <trkpt lat="43.76563" lon="0.81516">
        <ele>212</ele>
        <time>2014-06-22T15:06:59Z</time>
      </trkpt>
      <trkpt lat="43.76568" lon="0.81517">
        <ele>214</ele>
        <time>2014-06-22T15:07:05Z</time>
      </trkpt>
      <trkpt lat="43.76572" lon="0.81513">
        <ele>216</ele>
        <time>2014-06-22T15:07:45Z</time>
      </trkpt>
      <trkpt lat="43.76577" lon="0.81517">
        <ele>216</ele>
        <time>2014-06-22T15:07:50Z</time>
      </trkpt>
      <trkpt lat="43.7658" lon="0.81522">
        <ele>215</ele>
        <time>2014-06-22T15:07:54Z</time>
      </trkpt>
      <trkpt lat="43.76585" lon="0.81526">
        <ele>215</ele>
        <time>2014-06-22T15:07:59Z</time>
      </trkpt>
      <trkpt lat="43.76589" lon="0.8153">
        <ele>215</ele>
        <time>2014-06-22T15:08:04Z</time>
      </trkpt>
      <trkpt lat="43.76593" lon="0.81533">
        <ele>213</ele>
        <time>2014-06-22T15:08:27Z</time>
      </trkpt>
      <trkpt lat="43.76599" lon="0.81535">
        <ele>213</ele>
        <time>2014-06-22T15:08:32Z</time>
      </trkpt>
      <trkpt lat="43.76603" lon="0.81538">
        <ele>213</ele>
        <time>2014-06-22T15:08:37Z</time>
      </trkpt>
      <trkpt lat="43.76608" lon="0.8154">
        <ele>213</ele>
        <time>2014-06-22T15:08:42Z</time>
      </trkpt>
      <trkpt lat="43.76612" lon="0.81543">
        <ele>213</ele>
        <time>2014-06-22T15:08:47Z</time>
      </trkpt>
      <trkpt lat="43.76616" lon="0.81547">
        <ele>212</ele>
        <time>2014-06-22T15:08:52Z</time>
      </trkpt>
      <trkpt lat="43.7662" lon="0.81551">
        <ele>215</ele>
        <time>2014-06-22T15:08:57Z</time>
      </trkpt>
      <trkpt lat="43.76624" lon="0.81556">
        <ele>217</ele>
        <time>2014-06-22T15:09:04Z</time>
      </trkpt>
      <trkpt lat="43.76628" lon="0.81559">
        <ele>216</ele>
        <time>2014-06-22T15:09:18Z</time>
      </trkpt>
      <trkpt lat="43.76633" lon="0.81561">
        <ele>215</ele>
        <time>2014-06-22T15:09:25Z</time>
      </trkpt>
      <trkpt lat="43.76637" lon="0.81565">
        <ele>216</ele>
        <time>2014-06-22T15:09:32Z</time>
      </trkpt>
      <trkpt lat="43.76641" lon="0.81569">
        <ele>215</ele>
        <time>2014-06-22T15:09:40Z</time>
      </trkpt>
      <trkpt lat="43.76645" lon="0.81572">
        <ele>215</ele>
        <time>2014-06-22T15:09:44Z</time>
      </trkpt>
      <trkpt lat="43.7665" lon="0.81576">
        <ele>211</ele>
        <time>2014-06-22T15:09:48Z</time>
      </trkpt>
      <trkpt lat="43.76655" lon="0.81579">
        <ele>210</ele>
        <time>2014-06-22T15:09:51Z</time>
      </trkpt>
      <trkpt lat="43.76659" lon="0.81583">
        <ele>208</ele>
        <time>2014-06-22T15:09:54Z</time>
      </trkpt>
      <trkpt lat="43.76663" lon="0.81588">
        <ele>208</ele>
        <time>2014-06-22T15:09:57Z</time>
      </trkpt>
      <trkpt lat="43.76666" lon="0.81592">
        <ele>207</ele>
        <time>2014-06-22T15:10:00Z</time>
      </trkpt>
      <trkpt lat="43.76671" lon="0.81596">
        <ele>207</ele>
        <time>2014-06-22T15:10:04Z</time>
      </trkpt>
      <trkpt lat="43.76675" lon="0.81601">
        <ele>206</ele>
        <time>2014-06-22T15:10:08Z</time>
      </trkpt>
      <trkpt lat="43.7668" lon="0.81604">
        <ele>206</ele>
        <time>2014-06-22T15:10:12Z</time>
      </trkpt>
      <trkpt lat="43.76684" lon="0.81607">
        <ele>206</ele>
        <time>2014-06-22T15:10:16Z</time>
      </trkpt>
      <trkpt lat="43.76689" lon="0.8161">
        <ele>207</ele>
        <time>2014-06-22T15:10:21Z</time>
      </trkpt>
      <trkpt lat="43.76693" lon="0.81615">
        <ele>207</ele>
        <time>2014-06-22T15:10:26Z</time>
      </trkpt>
      <trkpt lat="43.76696" lon="0.8162">
        <ele>205</ele>
        <time>2014-06-22T15:10:30Z</time>
      </trkpt>
      <trkpt lat="43.767" lon="0.81626">
        <ele>204</ele>
        <time>2014-06-22T15:10:34Z</time>
      </trkpt>
      <trkpt lat="43.76703" lon="0.8163">
        <ele>204</ele>
        <time>2014-06-22T15:10:38Z</time>
      </trkpt>
      <trkpt lat="43.76706" lon="0.81635">
        <ele>204</ele>
        <time>2014-06-22T15:10:42Z</time>
      </trkpt>
      <trkpt lat="43.7671" lon="0.81639">
        <ele>204</ele>
        <time>2014-06-22T15:10:46Z</time>
      </trkpt>
      <trkpt lat="43.76714" lon="0.81644">
        <ele>204</ele>
        <time>2014-06-22T15:10:50Z</time>
      </trkpt>
      <trkpt lat="43.76718" lon="0.81648">
        <ele>204</ele>
        <time>2014-06-22T15:10:54Z</time>
      </trkpt>
      <trkpt lat="43.76722" lon="0.81652">
        <ele>203</ele>
        <time>2014-06-22T15:10:59Z</time>
      </trkpt>
      <trkpt lat="43.76726" lon="0.81656">
        <ele>203</ele>
        <time>2014-06-22T15:11:03Z</time>
      </trkpt>
      <trkpt lat="43.7673" lon="0.81661">
        <ele>202</ele>
        <time>2014-06-22T15:11:08Z</time>
      </trkpt>
      <trkpt lat="43.76733" lon="0.81666">
        <ele>202</ele>
        <time>2014-06-22T15:11:21Z</time>
      </trkpt>
      <trkpt lat="43.76737" lon="0.81671">
        <ele>202</ele>
        <time>2014-06-22T15:11:25Z</time>
      </trkpt>
      <trkpt lat="43.76741" lon="0.81675">
        <ele>202</ele>
        <time>2014-06-22T15:11:29Z</time>
      </trkpt>
      <trkpt lat="43.76744" lon="0.81679">
        <ele>202</ele>
        <time>2014-06-22T15:11:33Z</time>
      </trkpt>
      <trkpt lat="43.76748" lon="0.81684">
        <ele>202</ele>
        <time>2014-06-22T15:11:38Z</time>
      </trkpt>
      <trkpt lat="43.76752" lon="0.81688">
        <ele>202</ele>
        <time>2014-06-22T15:11:43Z</time>
      </trkpt>
      <trkpt lat="43.76756" lon="0.81693">
        <ele>201</ele>
        <time>2014-06-22T15:11:48Z</time>
      </trkpt>
      <trkpt lat="43.7676" lon="0.81698">
        <ele>200</ele>
        <time>2014-06-22T15:11:53Z</time>
      </trkpt>
      <trkpt lat="43.76764" lon="0.81702">
        <ele>200</ele>
        <time>2014-06-22T15:11:59Z</time>
      </trkpt>
      <trkpt lat="43.76769" lon="0.81704">
        <ele>200</ele>
        <time>2014-06-22T15:12:06Z</time>
      </trkpt>
      <trkpt lat="43.76772" lon="0.81709">
        <ele>199</ele>
        <time>2014-06-22T15:12:12Z</time>
      </trkpt>
      <trkpt lat="43.76776" lon="0.81714">
        <ele>198</ele>
        <time>2014-06-22T15:12:18Z</time>
      </trkpt>
      <trkpt lat="43.76781" lon="0.8172">
        <ele>196</ele>
        <time>2014-06-22T15:12:24Z</time>
      </trkpt>
      <trkpt lat="43.76783" lon="0.81726">
        <ele>195</ele>
        <time>2014-06-22T15:12:31Z</time>
      </trkpt>
      <trkpt lat="43.76787" lon="0.81729">
        <ele>194</ele>
        <time>2014-06-22T15:12:37Z</time>
      </trkpt>
      <trkpt lat="43.76791" lon="0.81733">
        <ele>194</ele>
        <time>2014-06-22T15:12:41Z</time>
      </trkpt>
      <trkpt lat="43.76796" lon="0.81737">
        <ele>194</ele>
        <time>2014-06-22T15:12:45Z</time>
      </trkpt>
      <trkpt lat="43.76801" lon="0.81741">
        <ele>194</ele>
        <time>2014-06-22T15:12:49Z</time>
      </trkpt>
      <trkpt lat="43.76805" lon="0.81746">
        <ele>194</ele>
        <time>2014-06-22T15:12:53Z</time>
      </trkpt>
      <trkpt lat="43.76809" lon="0.81751">
        <ele>193</ele>
        <time>2014-06-22T15:12:57Z</time>
      </trkpt>
      <trkpt lat="43.76813" lon="0.81756">
        <ele>193</ele>
        <time>2014-06-22T15:13:01Z</time>
      </trkpt>
      <trkpt lat="43.76816" lon="0.81759">
        <ele>193</ele>
        <time>2014-06-22T15:13:05Z</time>
      </trkpt>
      <trkpt lat="43.76821" lon="0.81763">
        <ele>193</ele>
        <time>2014-06-22T15:13:09Z</time>
      </trkpt>
      <trkpt lat="43.76826" lon="0.81764">
        <ele>193</ele>
        <time>2014-06-22T15:13:13Z</time>
      </trkpt>
      <trkpt lat="43.7683" lon="0.8176">
        <ele>194</ele>
        <time>2014-06-22T15:13:17Z</time>
      </trkpt>
      <trkpt lat="43.76833" lon="0.81756">
        <ele>195</ele>
        <time>2014-06-22T15:13:21Z</time>
      </trkpt>
      <trkpt lat="43.76838" lon="0.81752">
        <ele>195</ele>
        <time>2014-06-22T15:13:26Z</time>
      </trkpt>
      <trkpt lat="43.76841" lon="0.81747">
        <ele>195</ele>
        <time>2014-06-22T15:13:31Z</time>
      </trkpt>
      <trkpt lat="43.76845" lon="0.81742">
        <ele>196</ele>
        <time>2014-06-22T15:13:36Z</time>
      </trkpt>
      <trkpt lat="43.76849" lon="0.81737">
        <ele>196</ele>
        <time>2014-06-22T15:13:41Z</time>
      </trkpt>
      <trkpt lat="43.76852" lon="0.81732">
        <ele>197</ele>
        <time>2014-06-22T15:13:46Z</time>
      </trkpt>
      <trkpt lat="43.76855" lon="0.81727">
        <ele>197</ele>
        <time>2014-06-22T15:13:50Z</time>
      </trkpt>
      <trkpt lat="43.76859" lon="0.81723">
        <ele>198</ele>
        <time>2014-06-22T15:13:54Z</time>
      </trkpt>
      <trkpt lat="43.76861" lon="0.81717">
        <ele>200</ele>
        <time>2014-06-22T15:13:59Z</time>
      </trkpt>
      <trkpt lat="43.76866" lon="0.81714">
        <ele>201</ele>
        <time>2014-06-22T15:14:05Z</time>
      </trkpt>
      <trkpt lat="43.76871" lon="0.81713">
        <ele>201</ele>
        <time>2014-06-22T15:14:11Z</time>
      </trkpt>
      <trkpt lat="43.76875" lon="0.81711">
        <ele>200</ele>
        <time>2014-06-22T15:14:15Z</time>
      </trkpt>
      <trkpt lat="43.7688" lon="0.8171">
        <ele>198</ele>
        <time>2014-06-22T15:14:19Z</time>
      </trkpt>
      <trkpt lat="43.76885" lon="0.81709">
        <ele>197</ele>
        <time>2014-06-22T15:14:23Z</time>
      </trkpt>
      <trkpt lat="43.76891" lon="0.81707">
        <ele>199</ele>
        <time>2014-06-22T15:14:28Z</time>
      </trkpt>
      <trkpt lat="43.76896" lon="0.81707">
        <ele>200</ele>
        <time>2014-06-22T15:14:33Z</time>
      </trkpt>
      <trkpt lat="43.76901" lon="0.81706">
        <ele>200</ele>
        <time>2014-06-22T15:14:38Z</time>
      </trkpt>
      <trkpt lat="43.76905" lon="0.81702">
        <ele>201</ele>
        <time>2014-06-22T15:14:46Z</time>
      </trkpt>
      <trkpt lat="43.76909" lon="0.81698">
        <ele>199</ele>
        <time>2014-06-22T15:14:50Z</time>
      </trkpt>
      <trkpt lat="43.76913" lon="0.81694">
        <ele>200</ele>
        <time>2014-06-22T15:14:54Z</time>
      </trkpt>
      <trkpt lat="43.76917" lon="0.81688">
        <ele>200</ele>
        <time>2014-06-22T15:14:59Z</time>
      </trkpt>
      <trkpt lat="43.76921" lon="0.81684">
        <ele>201</ele>
        <time>2014-06-22T15:15:04Z</time>
      </trkpt>
      <trkpt lat="43.76925" lon="0.8168">
        <ele>201</ele>
        <time>2014-06-22T15:15:09Z</time>
      </trkpt>
      <trkpt lat="43.76928" lon="0.81675">
        <ele>201</ele>
        <time>2014-06-22T15:15:14Z</time>
      </trkpt>
      <trkpt lat="43.76933" lon="0.81673">
        <ele>203</ele>
        <time>2014-06-22T15:15:18Z</time>
      </trkpt>
      <trkpt lat="43.76937" lon="0.81669">
        <ele>200</ele>
        <time>2014-06-22T15:15:22Z</time>
      </trkpt>
      <trkpt lat="43.76943" lon="0.81665">
        <ele>199</ele>
        <time>2014-06-22T15:15:26Z</time>
      </trkpt>
      <trkpt lat="43.76947" lon="0.8166">
        <ele>199</ele>
        <time>2014-06-22T15:15:30Z</time>
      </trkpt>
      <trkpt lat="43.76952" lon="0.81656">
        <ele>199</ele>
        <time>2014-06-22T15:15:34Z</time>
      </trkpt>
      <trkpt lat="43.76956" lon="0.81653">
        <ele>199</ele>
        <time>2014-06-22T15:15:38Z</time>
      </trkpt>
      <trkpt lat="43.7696" lon="0.81649">
        <ele>199</ele>
        <time>2014-06-22T15:15:42Z</time>
      </trkpt>
      <trkpt lat="43.76964" lon="0.81646">
        <ele>201</ele>
        <time>2014-06-22T15:15:46Z</time>
      </trkpt>
      <trkpt lat="43.76967" lon="0.81641">
        <ele>204</ele>
        <time>2014-06-22T15:15:54Z</time>
      </trkpt>
      <trkpt lat="43.76971" lon="0.81636">
        <ele>204</ele>
        <time>2014-06-22T15:16:00Z</time>
      </trkpt>
      <trkpt lat="43.76975" lon="0.81631">
        <ele>204</ele>
        <time>2014-06-22T15:16:07Z</time>
      </trkpt>
      <trkpt lat="43.7698" lon="0.81628">
        <ele>206</ele>
        <time>2014-06-22T15:16:13Z</time>
      </trkpt>
      <trkpt lat="43.76984" lon="0.81626">
        <ele>199</ele>
        <time>2014-06-22T15:16:19Z</time>
      </trkpt>
      <trkpt lat="43.76989" lon="0.81624">
        <ele>199</ele>
        <time>2014-06-22T15:16:24Z</time>
      </trkpt>
      <trkpt lat="43.76993" lon="0.81621">
        <ele>200</ele>
        <time>2014-06-22T15:16:27Z</time>
      </trkpt>
      <trkpt lat="43.76998" lon="0.81618">
        <ele>199</ele>
        <time>2014-06-22T15:16:31Z</time>
      </trkpt>
      <trkpt lat="43.77003" lon="0.81615">
        <ele>201</ele>
        <time>2014-06-22T15:16:35Z</time>
      </trkpt>
      <trkpt lat="43.77007" lon="0.81613">
        <ele>206</ele>
        <time>2014-06-22T15:16:40Z</time>
      </trkpt>
      <trkpt lat="43.77011" lon="0.8161">
        <ele>206</ele>
        <time>2014-06-22T15:16:44Z</time>
      </trkpt>
      <trkpt lat="43.77016" lon="0.81606">
        <ele>208</ele>
        <time>2014-06-22T15:16:49Z</time>
      </trkpt>
      <trkpt lat="43.77019" lon="0.816">
        <ele>208</ele>
        <time>2014-06-22T15:16:55Z</time>
      </trkpt>
      <trkpt lat="43.77023" lon="0.81595">
        <ele>207</ele>
        <time>2014-06-22T15:17:00Z</time>
      </trkpt>
      <trkpt lat="43.77026" lon="0.81589">
        <ele>208</ele>
        <time>2014-06-22T15:17:06Z</time>
      </trkpt>
      <trkpt lat="43.77029" lon="0.81584">
        <ele>209</ele>
        <time>2014-06-22T15:17:12Z</time>
      </trkpt>
      <trkpt lat="43.77033" lon="0.81579">
        <ele>209</ele>
        <time>2014-06-22T15:17:18Z</time>
      </trkpt>
      <trkpt lat="43.77036" lon="0.81575">
        <ele>207</ele>
        <time>2014-06-22T15:17:22Z</time>
      </trkpt>
      <trkpt lat="43.7704" lon="0.8157">
        <ele>205</ele>
        <time>2014-06-22T15:17:26Z</time>
      </trkpt>
      <trkpt lat="43.77043" lon="0.81566">
        <ele>203</ele>
        <time>2014-06-22T15:17:30Z</time>
      </trkpt>
      <trkpt lat="43.77047" lon="0.81561">
        <ele>201</ele>
        <time>2014-06-22T15:17:34Z</time>
      </trkpt>
      <trkpt lat="43.77051" lon="0.81556">
        <ele>195</ele>
        <time>2014-06-22T15:17:38Z</time>
      </trkpt>
      <trkpt lat="43.77054" lon="0.81552">
        <ele>192</ele>
        <time>2014-06-22T15:17:41Z</time>
      </trkpt>
      <trkpt lat="43.77058" lon="0.81547">
        <ele>191</ele>
        <time>2014-06-22T15:17:45Z</time>
      </trkpt>
      <trkpt lat="43.77062" lon="0.8154">
        <ele>189</ele>
        <time>2014-06-22T15:17:49Z</time>
      </trkpt>
      <trkpt lat="43.77065" lon="0.81536">
        <ele>189</ele>
        <time>2014-06-22T15:17:52Z</time>
      </trkpt>
      <trkpt lat="43.77069" lon="0.81532">
        <ele>189</ele>
        <time>2014-06-22T15:17:56Z</time>
      </trkpt>
      <trkpt lat="43.77073" lon="0.81527">
        <ele>190</ele>
        <time>2014-06-22T15:18:01Z</time>
      </trkpt>
      <trkpt lat="43.77076" lon="0.81522">
        <ele>189</ele>
        <time>2014-06-22T15:18:06Z</time>
      </trkpt>
      <trkpt lat="43.7708" lon="0.81516">
        <ele>188</ele>
        <time>2014-06-22T15:18:11Z</time>
      </trkpt>
      <trkpt lat="43.77083" lon="0.81512">
        <ele>189</ele>
        <time>2014-06-22T15:18:21Z</time>
      </trkpt>
      <trkpt lat="43.77087" lon="0.81508">
        <ele>188</ele>
        <time>2014-06-22T15:18:25Z</time>
      </trkpt>
      <trkpt lat="43.77091" lon="0.81504">
        <ele>186</ele>
        <time>2014-06-22T15:18:30Z</time>
      </trkpt>
      <trkpt lat="43.77095" lon="0.81498">
        <ele>185</ele>
        <time>2014-06-22T15:18:35Z</time>
      </trkpt>
      <trkpt lat="43.77097" lon="0.81493">
        <ele>187</ele>
        <time>2014-06-22T15:18:40Z</time>
      </trkpt>
      <trkpt lat="43.77101" lon="0.8149">
        <ele>189</ele>
        <time>2014-06-22T15:21:18Z</time>
      </trkpt>
      <trkpt lat="43.77105" lon="0.81487">
        <ele>195</ele>
        <time>2014-06-22T15:22:38Z</time>
      </trkpt>
      <trkpt lat="43.77109" lon="0.81483">
        <ele>199</ele>
        <time>2014-06-22T15:22:44Z</time>
      </trkpt>
      <trkpt lat="43.77112" lon="0.81479">
        <ele>199</ele>
        <time>2014-06-22T15:22:50Z</time>
      </trkpt>
      <trkpt lat="43.77116" lon="0.81475">
        <ele>201</ele>
        <time>2014-06-22T15:22:57Z</time>
      </trkpt>
      <trkpt lat="43.7712" lon="0.81471">
        <ele>203</ele>
        <time>2014-06-22T15:23:02Z</time>
      </trkpt>
      <trkpt lat="43.77124" lon="0.81469">
        <ele>204</ele>
        <time>2014-06-22T15:23:07Z</time>
      </trkpt>
      <trkpt lat="43.77128" lon="0.81465">
        <ele>211</ele>
        <time>2014-06-22T15:23:14Z</time>
      </trkpt>
      <trkpt lat="43.77133" lon="0.81462">
        <ele>211</ele>
        <time>2014-06-22T15:23:20Z</time>
      </trkpt>
      <trkpt lat="43.77137" lon="0.81457">
        <ele>212</ele>
        <time>2014-06-22T15:23:25Z</time>
      </trkpt>
      <trkpt lat="43.77141" lon="0.81454">
        <ele>213</ele>
        <time>2014-06-22T15:23:29Z</time>
      </trkpt>
      <trkpt lat="43.77145" lon="0.81451">
        <ele>214</ele>
        <time>2014-06-22T15:23:33Z</time>
      </trkpt>
      <trkpt lat="43.7715" lon="0.81448">
        <ele>214</ele>
        <time>2014-06-22T15:23:38Z</time>
      </trkpt>
      <trkpt lat="43.77154" lon="0.81443">
        <ele>213</ele>
        <time>2014-06-22T15:23:43Z</time>
      </trkpt>
      <trkpt lat="43.77158" lon="0.81437">
        <ele>212</ele>
        <time>2014-06-22T15:23:48Z</time>
      </trkpt>
      <trkpt lat="43.77162" lon="0.81433">
        <ele>212</ele>
        <time>2014-06-22T15:23:52Z</time>
      </trkpt>
      <trkpt lat="43.77167" lon="0.81431">
        <ele>214</ele>
        <time>2014-06-22T15:23:57Z</time>
      </trkpt>
      <trkpt lat="43.77171" lon="0.81429">
        <ele>215</ele>
        <time>2014-06-22T15:24:02Z</time>
      </trkpt>
      <trkpt lat="43.77176" lon="0.81426">
        <ele>215</ele>
        <time>2014-06-22T15:24:07Z</time>
      </trkpt>
      <trkpt lat="43.7718" lon="0.81424">
        <ele>216</ele>
        <time>2014-06-22T15:24:11Z</time>
      </trkpt>
      <trkpt lat="43.77185" lon="0.81421">
        <ele>214</ele>
        <time>2014-06-22T15:24:16Z</time>
      </trkpt>
      <trkpt lat="43.7719" lon="0.81418">
        <ele>210</ele>
        <time>2014-06-22T15:24:20Z</time>
      </trkpt>
      <trkpt lat="43.77195" lon="0.81415">
        <ele>208</ele>
        <time>2014-06-22T15:24:24Z</time>
      </trkpt>
      <trkpt lat="43.772" lon="0.81413">
        <ele>204</ele>
        <time>2014-06-22T15:24:28Z</time>
      </trkpt>
      <trkpt lat="43.77204" lon="0.81412">
        <ele>205</ele>
        <time>2014-06-22T15:24:32Z</time>
      </trkpt>
      <trkpt lat="43.77209" lon="0.81409">
        <ele>204</ele>
        <time>2014-06-22T15:25:07Z</time>
      </trkpt>
      <trkpt lat="43.77214" lon="0.81409">
        <ele>203</ele>
        <time>2014-06-22T15:25:13Z</time>
      </trkpt>
      <trkpt lat="43.77219" lon="0.81411">
        <ele>208</ele>
        <time>2014-06-22T15:25:20Z</time>
      </trkpt>
      <trkpt lat="43.77223" lon="0.81414">
        <ele>203</ele>
        <time>2014-06-22T15:25:32Z</time>
      </trkpt>
      <trkpt lat="43.77227" lon="0.81418">
        <ele>201</ele>
        <time>2014-06-22T15:25:39Z</time>
      </trkpt>
      <trkpt lat="43.77232" lon="0.8142">
        <ele>196</ele>
        <time>2014-06-22T15:25:44Z</time>
      </trkpt>
      <trkpt lat="43.77236" lon="0.81424">
        <ele>196</ele>
        <time>2014-06-22T15:25:48Z</time>
      </trkpt>
      <trkpt lat="43.7724" lon="0.81427">
        <ele>197</ele>
        <time>2014-06-22T15:25:53Z</time>
      </trkpt>
      <trkpt lat="43.77244" lon="0.81431">
        <ele>196</ele>
        <time>2014-06-22T15:25:57Z</time>
      </trkpt>
      <trkpt lat="43.77248" lon="0.81436">
        <ele>196</ele>
        <time>2014-06-22T15:26:01Z</time>
      </trkpt>
      <trkpt lat="43.77251" lon="0.8144">
        <ele>197</ele>
        <time>2014-06-22T15:26:05Z</time>
      </trkpt>
      <trkpt lat="43.77255" lon="0.81445">
        <ele>197</ele>
        <time>2014-06-22T15:26:15Z</time>
      </trkpt>
      <trkpt lat="43.77259" lon="0.81449">
        <ele>195</ele>
        <time>2014-06-22T15:26:19Z</time>
      </trkpt>
      <trkpt lat="43.77264" lon="0.81453">
        <ele>198</ele>
        <time>2014-06-22T15:26:23Z</time>
      </trkpt>
      <trkpt lat="43.77267" lon="0.81457">
        <ele>200</ele>
        <time>2014-06-22T15:26:27Z</time>
      </trkpt>
      <trkpt lat="43.77272" lon="0.8146">
        <ele>199</ele>
        <time>2014-06-22T15:26:32Z</time>
      </trkpt>
      <trkpt lat="43.77276" lon="0.81462">
        <ele>198</ele>
        <time>2014-06-22T15:26:35Z</time>
      </trkpt>
      <trkpt lat="43.77281" lon="0.81465">
        <ele>198</ele>
        <time>2014-06-22T15:26:38Z</time>
      </trkpt>
      <trkpt lat="43.77286" lon="0.81467">
        <ele>196</ele>
        <time>2014-06-22T15:26:42Z</time>
      </trkpt>
      <trkpt lat="43.7729" lon="0.81469">
        <ele>194</ele>
        <time>2014-06-22T15:26:46Z</time>
      </trkpt>
      <trkpt lat="43.77295" lon="0.8147">
        <ele>194</ele>
        <time>2014-06-22T15:26:51Z</time>
      </trkpt>
      <trkpt lat="43.77299" lon="0.81472">
        <ele>194</ele>
        <time>2014-06-22T15:26:55Z</time>
      </trkpt>
      <trkpt lat="43.77303" lon="0.81476">
        <ele>194</ele>
        <time>2014-06-22T15:27:01Z</time>
      </trkpt>
      <trkpt lat="43.77307" lon="0.81478">
        <ele>193</ele>
        <time>2014-06-22T15:27:08Z</time>
      </trkpt>
      <trkpt lat="43.77312" lon="0.81482">
        <ele>190</ele>
        <time>2014-06-22T15:27:13Z</time>
      </trkpt>
      <trkpt lat="43.77317" lon="0.81485">
        <ele>184</ele>
        <time>2014-06-22T15:27:17Z</time>
      </trkpt>
      <trkpt lat="43.77322" lon="0.81488">
        <ele>185</ele>
        <time>2014-06-22T15:27:21Z</time>
      </trkpt>
      <trkpt lat="43.77326" lon="0.8149">
        <ele>188</ele>
        <time>2014-06-22T15:27:25Z</time>
      </trkpt>
      <trkpt lat="43.77331" lon="0.81493">
        <ele>188</ele>
        <time>2014-06-22T15:27:29Z</time>
      </trkpt>
      <trkpt lat="43.77336" lon="0.81497">
        <ele>185</ele>
        <time>2014-06-22T15:27:33Z</time>
      </trkpt>
      <trkpt lat="43.77341" lon="0.81498">
        <ele>186</ele>
        <time>2014-06-22T15:27:38Z</time>
      </trkpt>
      <trkpt lat="43.77346" lon="0.81501">
        <ele>182</ele>
        <time>2014-06-22T15:27:42Z</time>
      </trkpt>
      <trkpt lat="43.77351" lon="0.81504">
        <ele>182</ele>
        <time>2014-06-22T15:27:46Z</time>
      </trkpt>
      <trkpt lat="43.77356" lon="0.81507">
        <ele>185</ele>
        <time>2014-06-22T15:27:52Z</time>
      </trkpt>
      <trkpt lat="43.77361" lon="0.8151">
        <ele>186</ele>
        <time>2014-06-22T15:27:56Z</time>
      </trkpt>
      <trkpt lat="43.77366" lon="0.81512">
        <ele>188</ele>
        <time>2014-06-22T15:28:00Z</time>
      </trkpt>
      <trkpt lat="43.7737" lon="0.81515">
        <ele>189</ele>
        <time>2014-06-22T15:28:04Z</time>
      </trkpt>
      <trkpt lat="43.77375" lon="0.81516">
        <ele>190</ele>
        <time>2014-06-22T15:28:12Z</time>
      </trkpt>
      <trkpt lat="43.77379" lon="0.81516">
        <ele>192</ele>
        <time>2014-06-22T15:28:17Z</time>
      </trkpt>
      <trkpt lat="43.77384" lon="0.81519">
        <ele>195</ele>
        <time>2014-06-22T15:28:21Z</time>
      </trkpt>
      <trkpt lat="43.77389" lon="0.81521">
        <ele>200</ele>
        <time>2014-06-22T15:28:24Z</time>
      </trkpt>
      <trkpt lat="43.77394" lon="0.81522">
        <ele>201</ele>
        <time>2014-06-22T15:28:27Z</time>
      </trkpt>
      <trkpt lat="43.77399" lon="0.81519">
        <ele>197</ele>
        <time>2014-06-22T15:28:31Z</time>
      </trkpt>
      <trkpt lat="43.77403" lon="0.81516">
        <ele>195</ele>
        <time>2014-06-22T15:28:40Z</time>
      </trkpt>
      <trkpt lat="43.77409" lon="0.81516">
        <ele>194</ele>
        <time>2014-06-22T15:28:47Z</time>
      </trkpt>
      <trkpt lat="43.77414" lon="0.81516">
        <ele>198</ele>
        <time>2014-06-22T15:28:52Z</time>
      </trkpt>
      <trkpt lat="43.77419" lon="0.81515">
        <ele>205</ele>
        <time>2014-06-22T15:28:56Z</time>
      </trkpt>
      <trkpt lat="43.77424" lon="0.81515">
        <ele>208</ele>
        <time>2014-06-22T15:29:00Z</time>
      </trkpt>
      <trkpt lat="43.7743" lon="0.81514">
        <ele>211</ele>
        <time>2014-06-22T15:29:04Z</time>
      </trkpt>
      <trkpt lat="43.77435" lon="0.81511">
        <ele>199</ele>
        <time>2014-06-22T15:29:08Z</time>
      </trkpt>
      <trkpt lat="43.7744" lon="0.81505">
        <ele>191</ele>
        <time>2014-06-22T15:29:11Z</time>
      </trkpt>
      <trkpt lat="43.77444" lon="0.81501">
        <ele>190</ele>
        <time>2014-06-22T15:29:21Z</time>
      </trkpt>
      <trkpt lat="43.77448" lon="0.81495">
        <ele>191</ele>
        <time>2014-06-22T15:29:26Z</time>
      </trkpt>
      <trkpt lat="43.77451" lon="0.81491">
        <ele>192</ele>
        <time>2014-06-22T15:29:30Z</time>
      </trkpt>
      <trkpt lat="43.77456" lon="0.81486">
        <ele>194</ele>
        <time>2014-06-22T15:29:35Z</time>
      </trkpt>
      <trkpt lat="43.7746" lon="0.81483">
        <ele>197</ele>
        <time>2014-06-22T15:29:40Z</time>
      </trkpt>
      <trkpt lat="43.77465" lon="0.81484">
        <ele>202</ele>
        <time>2014-06-22T15:29:45Z</time>
      </trkpt>
      <trkpt lat="43.7747" lon="0.81482">
        <ele>204</ele>
        <time>2014-06-22T15:29:50Z</time>
      </trkpt>
      <trkpt lat="43.77474" lon="0.81478">
        <ele>202</ele>
        <time>2014-06-22T15:29:55Z</time>
      </trkpt>
      <trkpt lat="43.77479" lon="0.81473">
        <ele>202</ele>
        <time>2014-06-22T15:30:00Z</time>
      </trkpt>
      <trkpt lat="43.77482" lon="0.81467">
        <ele>190</ele>
        <time>2014-06-22T15:30:03Z</time>
      </trkpt>
      <trkpt lat="43.77485" lon="0.81462">
        <ele>192</ele>
        <time>2014-06-22T15:30:09Z</time>
      </trkpt>
      <trkpt lat="43.7749" lon="0.8146">
        <ele>198</ele>
        <time>2014-06-22T15:30:14Z</time>
      </trkpt>
      <trkpt lat="43.77495" lon="0.81457">
        <ele>204</ele>
        <time>2014-06-22T15:30:19Z</time>
      </trkpt>
      <trkpt lat="43.77499" lon="0.81452">
        <ele>209</ele>
        <time>2014-06-22T15:30:25Z</time>
      </trkpt>
      <trkpt lat="43.77502" lon="0.81447">
        <ele>217</ele>
        <time>2014-06-22T15:30:33Z</time>
      </trkpt>
      <trkpt lat="43.77505" lon="0.81442">
        <ele>225</ele>
        <time>2014-06-22T15:30:41Z</time>
      </trkpt>
      <trkpt lat="43.77508" lon="0.81436">
        <ele>228</ele>
        <time>2014-06-22T15:30:47Z</time>
      </trkpt>
      <trkpt lat="43.77511" lon="0.81432">
        <ele>230</ele>
        <time>2014-06-22T15:30:52Z</time>
      </trkpt>
      <trkpt lat="43.77515" lon="0.81427">
        <ele>229</ele>
        <time>2014-06-22T15:30:57Z</time>
      </trkpt>
      <trkpt lat="43.77518" lon="0.81421">
        <ele>229</ele>
        <time>2014-06-22T15:31:02Z</time>
      </trkpt>
      <trkpt lat="43.77522" lon="0.81416">
        <ele>229</ele>
        <time>2014-06-22T15:31:07Z</time>
      </trkpt>
      <trkpt lat="43.77525" lon="0.81411">
        <ele>229</ele>
        <time>2014-06-22T15:31:11Z</time>
      </trkpt>
      <trkpt lat="43.77529" lon="0.81406">
        <ele>227</ele>
        <time>2014-06-22T15:31:15Z</time>
      </trkpt>
      <trkpt lat="43.77533" lon="0.814">
        <ele>222</ele>
        <time>2014-06-22T15:31:21Z</time>
      </trkpt>
      <trkpt lat="43.77536" lon="0.81394">
        <ele>218</ele>
        <time>2014-06-22T15:31:25Z</time>
      </trkpt>
      <trkpt lat="43.77539" lon="0.81388">
        <ele>211</ele>
        <time>2014-06-22T15:31:28Z</time>
      </trkpt>
      <trkpt lat="43.77542" lon="0.81382">
        <ele>209</ele>
        <time>2014-06-22T15:31:31Z</time>
      </trkpt>
      <trkpt lat="43.77545" lon="0.81376">
        <ele>206</ele>
        <time>2014-06-22T15:31:34Z</time>
      </trkpt>
      <trkpt lat="43.77547" lon="0.81371">
        <ele>207</ele>
        <time>2014-06-22T15:31:37Z</time>
      </trkpt>
      <trkpt lat="43.7755" lon="0.81365">
        <ele>206</ele>
        <time>2014-06-22T15:31:40Z</time>
      </trkpt>
      <trkpt lat="43.77553" lon="0.81359">
        <ele>205</ele>
        <time>2014-06-22T15:31:44Z</time>
      </trkpt>
      <trkpt lat="43.77556" lon="0.81352">
        <ele>207</ele>
        <time>2014-06-22T15:31:48Z</time>
      </trkpt>
      <trkpt lat="43.77559" lon="0.81345">
        <ele>208</ele>
        <time>2014-06-22T15:31:52Z</time>
      </trkpt>
      <trkpt lat="43.77561" lon="0.8134">
        <ele>207</ele>
        <time>2014-06-22T15:31:55Z</time>
      </trkpt>
      <trkpt lat="43.77565" lon="0.81334">
        <ele>210</ele>
        <time>2014-06-22T15:31:59Z</time>
      </trkpt>
      <trkpt lat="43.7757" lon="0.81329">
        <ele>206</ele>
        <time>2014-06-22T15:32:03Z</time>
      </trkpt>
      <trkpt lat="43.77575" lon="0.81325">
        <ele>201</ele>
        <time>2014-06-22T15:32:06Z</time>
      </trkpt>
      <trkpt lat="43.77579" lon="0.8132">
        <ele>199</ele>
        <time>2014-06-22T15:32:09Z</time>
      </trkpt>
      <trkpt lat="43.77583" lon="0.81315">
        <ele>193</ele>
        <time>2014-06-22T15:32:12Z</time>
      </trkpt>
      <trkpt lat="43.77586" lon="0.81311">
        <ele>194</ele>
        <time>2014-06-22T15:32:15Z</time>
      </trkpt>
      <trkpt lat="43.7759" lon="0.81307">
        <ele>196</ele>
        <time>2014-06-22T15:32:23Z</time>
      </trkpt>
      <trkpt lat="43.77594" lon="0.81304">
        <ele>195</ele>
        <time>2014-06-22T15:32:31Z</time>
      </trkpt>
      <trkpt lat="43.77598" lon="0.81302">
        <ele>194</ele>
        <time>2014-06-22T15:32:35Z</time>
      </trkpt>
      <trkpt lat="43.77603" lon="0.813">
        <ele>196</ele>
        <time>2014-06-22T15:32:39Z</time>
      </trkpt>
      <trkpt lat="43.77609" lon="0.81297">
        <ele>196</ele>
        <time>2014-06-22T15:32:43Z</time>
      </trkpt>
      <trkpt lat="43.77614" lon="0.81295">
        <ele>196</ele>
        <time>2014-06-22T15:32:47Z</time>
      </trkpt>
      <trkpt lat="43.7762" lon="0.81294">
        <ele>197</ele>
        <time>2014-06-22T15:32:52Z</time>
      </trkpt>
      <trkpt lat="43.77624" lon="0.81291">
        <ele>196</ele>
        <time>2014-06-22T15:32:56Z</time>
      </trkpt>
      <trkpt lat="43.77628" lon="0.81288">
        <ele>194</ele>
        <time>2014-06-22T15:33:00Z</time>
      </trkpt>
      <trkpt lat="43.77634" lon="0.81286">
        <ele>191</ele>
        <time>2014-06-22T15:33:05Z</time>
      </trkpt>
      <trkpt lat="43.77638" lon="0.81285">
        <ele>190</ele>
        <time>2014-06-22T15:33:10Z</time>
      </trkpt>
      <trkpt lat="43.77643" lon="0.81286">
        <ele>191</ele>
        <time>2014-06-22T15:33:19Z</time>
      </trkpt>
      <trkpt lat="43.77647" lon="0.81288">
        <ele>187</ele>
        <time>2014-06-22T15:33:24Z</time>
      </trkpt>
      <trkpt lat="43.77651" lon="0.8129">
        <ele>185</ele>
        <time>2014-06-22T15:33:30Z</time>
      </trkpt>
      <trkpt lat="43.77656" lon="0.81292">
        <ele>183</ele>
        <time>2014-06-22T15:33:39Z</time>
      </trkpt>
      <trkpt lat="43.77661" lon="0.81294">
        <ele>187</ele>
        <time>2014-06-22T15:33:43Z</time>
      </trkpt>
      <trkpt lat="43.77666" lon="0.81296">
        <ele>188</ele>
        <time>2014-06-22T15:33:47Z</time>
      </trkpt>
      <trkpt lat="43.77671" lon="0.81298">
        <ele>189</ele>
        <time>2014-06-22T15:33:50Z</time>
      </trkpt>
      <trkpt lat="43.77676" lon="0.81302">
        <ele>188</ele>
        <time>2014-06-22T15:33:54Z</time>
      </trkpt>
      <trkpt lat="43.77681" lon="0.81305">
        <ele>187</ele>
        <time>2014-06-22T15:33:58Z</time>
      </trkpt>
      <trkpt lat="43.77685" lon="0.81309">
        <ele>187</ele>
        <time>2014-06-22T15:34:02Z</time>
      </trkpt>
      <trkpt lat="43.7769" lon="0.81313">
        <ele>186</ele>
        <time>2014-06-22T15:34:06Z</time>
      </trkpt>
      <trkpt lat="43.77695" lon="0.81313">
        <ele>184</ele>
        <time>2014-06-22T15:34:11Z</time>
      </trkpt>
      <trkpt lat="43.777" lon="0.81314">
        <ele>183</ele>
        <time>2014-06-22T15:34:18Z</time>
      </trkpt>
      <trkpt lat="43.77705" lon="0.81316">
        <ele>186</ele>
        <time>2014-06-22T15:34:22Z</time>
      </trkpt>
      <trkpt lat="43.77711" lon="0.81319">
        <ele>182</ele>
        <time>2014-06-22T15:34:26Z</time>
      </trkpt>
      <trkpt lat="43.77713" lon="0.81327">
        <ele>187</ele>
        <time>2014-06-22T15:34:29Z</time>
      </trkpt>
      <trkpt lat="43.77718" lon="0.81333">
        <ele>187</ele>
        <time>2014-06-22T15:34:31Z</time>
      </trkpt>
      <trkpt lat="43.77722" lon="0.81335">
        <ele>186</ele>
        <time>2014-06-22T15:34:35Z</time>
      </trkpt>
      <trkpt lat="43.77727" lon="0.81336">
        <ele>184</ele>
        <time>2014-06-22T15:34:40Z</time>
      </trkpt>
      <trkpt lat="43.77731" lon="0.81339">
        <ele>184</ele>
        <time>2014-06-22T15:34:44Z</time>
      </trkpt>
      <trkpt lat="43.77736" lon="0.81341">
        <ele>188</ele>
        <time>2014-06-22T15:34:46Z</time>
      </trkpt>
      <trkpt lat="43.7774" lon="0.81343">
        <ele>189</ele>
        <time>2014-06-22T15:34:48Z</time>
      </trkpt>
      <trkpt lat="43.77746" lon="0.81346">
        <ele>190</ele>
        <time>2014-06-22T15:34:51Z</time>
      </trkpt>
      <trkpt lat="43.77751" lon="0.81348">
        <ele>189</ele>
        <time>2014-06-22T15:34:54Z</time>
      </trkpt>
      <trkpt lat="43.77755" lon="0.8135">
        <ele>188</ele>
        <time>2014-06-22T15:34:58Z</time>
      </trkpt>
      <trkpt lat="43.7776" lon="0.81352">
        <ele>184</ele>
        <time>2014-06-22T15:35:04Z</time>
      </trkpt>
      <trkpt lat="43.77765" lon="0.81355">
        <ele>181</ele>
        <time>2014-06-22T15:35:09Z</time>
      </trkpt>
      <trkpt lat="43.77769" lon="0.81358">
        <ele>180</ele>
        <time>2014-06-22T15:35:13Z</time>
      </trkpt>
      <trkpt lat="43.77774" lon="0.81362">
        <ele>180</ele>
        <time>2014-06-22T15:35:17Z</time>
      </trkpt>
      <trkpt lat="43.77779" lon="0.81366">
        <ele>179</ele>
        <time>2014-06-22T15:35:21Z</time>
      </trkpt>
      <trkpt lat="43.77782" lon="0.8137">
        <ele>181</ele>
        <time>2014-06-22T15:35:24Z</time>
      </trkpt>
      <trkpt lat="43.77786" lon="0.81375">
        <ele>183</ele>
        <time>2014-06-22T15:35:27Z</time>
      </trkpt>
      <trkpt lat="43.7779" lon="0.8138">
        <ele>183</ele>
        <time>2014-06-22T15:35:30Z</time>
      </trkpt>
      <trkpt lat="43.77794" lon="0.81384">
        <ele>186</ele>
        <time>2014-06-22T15:35:33Z</time>
      </trkpt>
      <trkpt lat="43.77799" lon="0.81388">
        <ele>188</ele>
        <time>2014-06-22T15:35:36Z</time>
      </trkpt>
      <trkpt lat="43.77803" lon="0.81392">
        <ele>187</ele>
        <time>2014-06-22T15:35:39Z</time>
      </trkpt>
      <trkpt lat="43.77807" lon="0.81396">
        <ele>185</ele>
        <time>2014-06-22T15:35:42Z</time>
      </trkpt>
      <trkpt lat="43.77808" lon="0.81402">
        <ele>183</ele>
        <time>2014-06-22T15:35:47Z</time>
      </trkpt>
      <trkpt lat="43.77809" lon="0.81409">
        <ele>181</ele>
        <time>2014-06-22T15:36:03Z</time>
      </trkpt>
      <trkpt lat="43.77814" lon="0.81412">
        <ele>183</ele>
        <time>2014-06-22T15:36:28Z</time>
      </trkpt>
      <trkpt lat="43.77817" lon="0.81417">
        <ele>181</ele>
        <time>2014-06-22T15:36:33Z</time>
      </trkpt>
      <trkpt lat="43.77821" lon="0.81423">
        <ele>184</ele>
        <time>2014-06-22T15:36:38Z</time>
      </trkpt>
      <trkpt lat="43.77822" lon="0.8143">
        <ele>186</ele>
        <time>2014-06-22T15:36:42Z</time>
      </trkpt>
      <trkpt lat="43.77823" lon="0.81436">
        <ele>187</ele>
        <time>2014-06-22T15:36:46Z</time>
      </trkpt>
      <trkpt lat="43.77824" lon="0.81443">
        <ele>190</ele>
        <time>2014-06-22T15:36:50Z</time>
      </trkpt>
      <trkpt lat="43.77823" lon="0.8145">
        <ele>188</ele>
        <time>2014-06-22T15:36:54Z</time>
      </trkpt>
      <trkpt lat="43.77821" lon="0.81457">
        <ele>187</ele>
        <time>2014-06-22T15:36:58Z</time>
      </trkpt>
      <trkpt lat="43.7782" lon="0.81464">
        <ele>188</ele>
        <time>2014-06-22T15:37:02Z</time>
      </trkpt>
      <trkpt lat="43.77819" lon="0.81471">
        <ele>189</ele>
        <time>2014-06-22T15:37:07Z</time>
      </trkpt>
      <trkpt lat="43.77817" lon="0.81477">
        <ele>190</ele>
        <time>2014-06-22T15:37:12Z</time>
      </trkpt>
      <trkpt lat="43.77814" lon="0.81483">
        <ele>190</ele>
        <time>2014-06-22T15:37:17Z</time>
      </trkpt>
      <trkpt lat="43.77813" lon="0.81489">
        <ele>187</ele>
        <time>2014-06-22T15:37:52Z</time>
      </trkpt>
      <trkpt lat="43.77812" lon="0.81496">
        <ele>189</ele>
        <time>2014-06-22T15:38:13Z</time>
      </trkpt>
      <trkpt lat="43.77809" lon="0.81501">
        <ele>192</ele>
        <time>2014-06-22T15:38:19Z</time>
      </trkpt>
      <trkpt lat="43.77806" lon="0.81506">
        <ele>195</ele>
        <time>2014-06-22T15:38:26Z</time>
      </trkpt>
      <trkpt lat="43.77804" lon="0.81513">
        <ele>196</ele>
        <time>2014-06-22T15:38:31Z</time>
      </trkpt>
      <trkpt lat="43.77801" lon="0.8152">
        <ele>193</ele>
        <time>2014-06-22T15:38:35Z</time>
      </trkpt>
      <trkpt lat="43.77797" lon="0.81526">
        <ele>192</ele>
        <time>2014-06-22T15:38:39Z</time>
      </trkpt>
      <trkpt lat="43.77794" lon="0.8153">
        <ele>194</ele>
        <time>2014-06-22T15:38:43Z</time>
      </trkpt>
      <trkpt lat="43.77789" lon="0.81533">
        <ele>195</ele>
        <time>2014-06-22T15:38:48Z</time>
      </trkpt>
      <trkpt lat="43.77783" lon="0.81534">
        <ele>195</ele>
        <time>2014-06-22T15:38:53Z</time>
      </trkpt>
      <trkpt lat="43.77778" lon="0.81533">
        <ele>195</ele>
        <time>2014-06-22T15:38:58Z</time>
      </trkpt>
      <trkpt lat="43.77773" lon="0.8153">
        <ele>195</ele>
        <time>2014-06-22T15:39:03Z</time>
      </trkpt>
      <trkpt lat="43.77769" lon="0.81527">
        <ele>195</ele>
        <time>2014-06-22T15:39:07Z</time>
      </trkpt>
      <trkpt lat="43.77764" lon="0.81524">
        <ele>195</ele>
        <time>2014-06-22T15:39:11Z</time>
      </trkpt>
      <trkpt lat="43.77759" lon="0.81523">
        <ele>195</ele>
        <time>2014-06-22T15:39:15Z</time>
      </trkpt>
      <trkpt lat="43.77754" lon="0.81523">
        <ele>196</ele>
        <time>2014-06-22T15:39:19Z</time>
      </trkpt>
      <trkpt lat="43.77749" lon="0.81524">
        <ele>197</ele>
        <time>2014-06-22T15:39:23Z</time>
      </trkpt>
      <trkpt lat="43.77745" lon="0.81527">
        <ele>196</ele>
        <time>2014-06-22T15:39:27Z</time>
      </trkpt>
      <trkpt lat="43.77742" lon="0.81531">
        <ele>197</ele>
        <time>2014-06-22T15:39:31Z</time>
      </trkpt>
      <trkpt lat="43.7774" lon="0.81537">
        <ele>198</ele>
        <time>2014-06-22T15:39:35Z</time>
      </trkpt>
      <trkpt lat="43.77739" lon="0.81543">
        <ele>198</ele>
        <time>2014-06-22T15:39:39Z</time>
      </trkpt>
      <trkpt lat="43.77737" lon="0.81549">
        <ele>199</ele>
        <time>2014-06-22T15:39:43Z</time>
      </trkpt>
      <trkpt lat="43.77735" lon="0.81556">
        <ele>199</ele>
        <time>2014-06-22T15:39:47Z</time>
      </trkpt>
      <trkpt lat="43.77734" lon="0.81561">
        <ele>200</ele>
        <time>2014-06-22T15:39:51Z</time>
      </trkpt>
      <trkpt lat="43.77732" lon="0.81569">
        <ele>201</ele>
        <time>2014-06-22T15:39:56Z</time>
      </trkpt>
      <trkpt lat="43.77731" lon="0.81575">
        <ele>202</ele>
        <time>2014-06-22T15:40:00Z</time>
      </trkpt>
      <trkpt lat="43.77729" lon="0.81581">
        <ele>201</ele>
        <time>2014-06-22T15:40:04Z</time>
      </trkpt>
      <trkpt lat="43.77727" lon="0.81587">
        <ele>200</ele>
        <time>2014-06-22T15:40:08Z</time>
      </trkpt>
      <trkpt lat="43.77725" lon="0.81593">
        <ele>200</ele>
        <time>2014-06-22T15:40:12Z</time>
      </trkpt>
      <trkpt lat="43.77723" lon="0.816">
        <ele>201</ele>
        <time>2014-06-22T15:40:17Z</time>
      </trkpt>
      <trkpt lat="43.77721" lon="0.81607">
        <ele>201</ele>
        <time>2014-06-22T15:40:22Z</time>
      </trkpt>
      <trkpt lat="43.7772" lon="0.81614">
        <ele>202</ele>
        <time>2014-06-22T15:40:26Z</time>
      </trkpt>
      <trkpt lat="43.77718" lon="0.8162">
        <ele>202</ele>
        <time>2014-06-22T15:40:30Z</time>
      </trkpt>
      <trkpt lat="43.77717" lon="0.81627">
        <ele>203</ele>
        <time>2014-06-22T15:40:35Z</time>
      </trkpt>
      <trkpt lat="43.77715" lon="0.81633">
        <ele>204</ele>
        <time>2014-06-22T15:40:39Z</time>
      </trkpt>
      <trkpt lat="43.77715" lon="0.81639">
        <ele>204</ele>
        <time>2014-06-22T15:40:43Z</time>
      </trkpt>
      <trkpt lat="43.77714" lon="0.81647">
        <ele>205</ele>
        <time>2014-06-22T15:40:48Z</time>
      </trkpt>
      <trkpt lat="43.77713" lon="0.81654">
        <ele>206</ele>
        <time>2014-06-22T15:40:53Z</time>
      </trkpt>
      <trkpt lat="43.77711" lon="0.81661">
        <ele>207</ele>
        <time>2014-06-22T15:40:58Z</time>
      </trkpt>
      <trkpt lat="43.7771" lon="0.81668">
        <ele>208</ele>
        <time>2014-06-22T15:41:02Z</time>
      </trkpt>
      <trkpt lat="43.77708" lon="0.81674">
        <ele>206</ele>
        <time>2014-06-22T15:41:06Z</time>
      </trkpt>
      <trkpt lat="43.77705" lon="0.81688">
        <ele>205</ele>
        <time>2014-06-22T15:41:15Z</time>
      </trkpt>
      <trkpt lat="43.77702" lon="0.81693">
        <ele>206</ele>
        <time>2014-06-22T15:41:19Z</time>
      </trkpt>
      <trkpt lat="43.777" lon="0.81699">
        <ele>206</ele>
        <time>2014-06-22T15:41:23Z</time>
      </trkpt>
      <trkpt lat="43.77698" lon="0.81705">
        <ele>207</ele>
        <time>2014-06-22T15:41:27Z</time>
      </trkpt>
      <trkpt lat="43.77697" lon="0.81712">
        <ele>208</ele>
        <time>2014-06-22T15:41:31Z</time>
      </trkpt>
      <trkpt lat="43.77696" lon="0.81718">
        <ele>208</ele>
        <time>2014-06-22T15:41:35Z</time>
      </trkpt>
      <trkpt lat="43.77694" lon="0.81724">
        <ele>208</ele>
        <time>2014-06-22T15:41:39Z</time>
      </trkpt>
      <trkpt lat="43.77693" lon="0.8173">
        <ele>209</ele>
        <time>2014-06-22T15:41:43Z</time>
      </trkpt>
      <trkpt lat="43.77692" lon="0.81736">
        <ele>208</ele>
        <time>2014-06-22T15:41:47Z</time>
      </trkpt>
      <trkpt lat="43.77691" lon="0.81743">
        <ele>208</ele>
        <time>2014-06-22T15:41:51Z</time>
      </trkpt>
      <trkpt lat="43.77689" lon="0.8175">
        <ele>207</ele>
        <time>2014-06-22T15:41:55Z</time>
      </trkpt>
      <trkpt lat="43.77688" lon="0.81756">
        <ele>207</ele>
        <time>2014-06-22T15:41:59Z</time>
      </trkpt>
      <trkpt lat="43.77686" lon="0.81763">
        <ele>207</ele>
        <time>2014-06-22T15:42:03Z</time>
      </trkpt>
      <trkpt lat="43.77685" lon="0.8177">
        <ele>207</ele>
        <time>2014-06-22T15:42:07Z</time>
      </trkpt>
      <trkpt lat="43.77683" lon="0.81777">
        <ele>208</ele>
        <time>2014-06-22T15:42:11Z</time>
      </trkpt>
      <trkpt lat="43.77682" lon="0.81783">
        <ele>208</ele>
        <time>2014-06-22T15:42:15Z</time>
      </trkpt>
      <trkpt lat="43.7768" lon="0.8179">
        <ele>208</ele>
        <time>2014-06-22T15:42:19Z</time>
      </trkpt>
      <trkpt lat="43.77679" lon="0.81797">
        <ele>208</ele>
        <time>2014-06-22T15:42:23Z</time>
      </trkpt>
      <trkpt lat="43.77677" lon="0.81803">
        <ele>209</ele>
        <time>2014-06-22T15:42:27Z</time>
      </trkpt>
      <trkpt lat="43.77676" lon="0.81809">
        <ele>210</ele>
        <time>2014-06-22T15:42:31Z</time>
      </trkpt>
      <trkpt lat="43.77675" lon="0.81816">
        <ele>210</ele>
        <time>2014-06-22T15:42:35Z</time>
      </trkpt>
      <trkpt lat="43.77673" lon="0.81822">
        <ele>211</ele>
        <time>2014-06-22T15:42:39Z</time>
      </trkpt>
      <trkpt lat="43.77671" lon="0.81828">
        <ele>212</ele>
        <time>2014-06-22T15:42:43Z</time>
      </trkpt>
      <trkpt lat="43.77669" lon="0.81834">
        <ele>212</ele>
        <time>2014-06-22T15:42:47Z</time>
      </trkpt>
      <trkpt lat="43.77667" lon="0.8184">
        <ele>213</ele>
        <time>2014-06-22T15:42:51Z</time>
      </trkpt>
      <trkpt lat="43.77665" lon="0.81846">
        <ele>213</ele>
        <time>2014-06-22T15:42:55Z</time>
      </trkpt>
      <trkpt lat="43.77663" lon="0.81852">
        <ele>214</ele>
        <time>2014-06-22T15:42:59Z</time>
      </trkpt>
      <trkpt lat="43.77661" lon="0.81859">
        <ele>214</ele>
        <time>2014-06-22T15:43:03Z</time>
      </trkpt>
      <trkpt lat="43.7766" lon="0.81865">
        <ele>214</ele>
        <time>2014-06-22T15:43:07Z</time>
      </trkpt>
      <trkpt lat="43.77658" lon="0.81871">
        <ele>214</ele>
        <time>2014-06-22T15:43:11Z</time>
      </trkpt>
      <trkpt lat="43.77656" lon="0.81877">
        <ele>215</ele>
        <time>2014-06-22T15:43:15Z</time>
      </trkpt>
      <trkpt lat="43.77655" lon="0.81883">
        <ele>215</ele>
        <time>2014-06-22T15:43:19Z</time>
      </trkpt>
      <trkpt lat="43.77653" lon="0.81889">
        <ele>215</ele>
        <time>2014-06-22T15:43:23Z</time>
      </trkpt>
      <trkpt lat="43.77652" lon="0.81897">
        <ele>216</ele>
        <time>2014-06-22T15:43:28Z</time>
      </trkpt>
      <trkpt lat="43.77651" lon="0.81904">
        <ele>216</ele>
        <time>2014-06-22T15:43:33Z</time>
      </trkpt>
      <trkpt lat="43.7765" lon="0.81911">
        <ele>216</ele>
        <time>2014-06-22T15:43:38Z</time>
      </trkpt>
      <trkpt lat="43.77649" lon="0.81918">
        <ele>217</ele>
        <time>2014-06-22T15:43:43Z</time>
      </trkpt>
      <trkpt lat="43.77649" lon="0.81926">
        <ele>217</ele>
        <time>2014-06-22T15:43:48Z</time>
      </trkpt>
      <trkpt lat="43.77649" lon="0.81932">
        <ele>217</ele>
        <time>2014-06-22T15:43:52Z</time>
      </trkpt>
      <trkpt lat="43.77649" lon="0.81939">
        <ele>217</ele>
        <time>2014-06-22T15:43:56Z</time>
      </trkpt>
      <trkpt lat="43.77649" lon="0.81945">
        <ele>218</ele>
        <time>2014-06-22T15:44:00Z</time>
      </trkpt>
      <trkpt lat="43.77648" lon="0.81951">
        <ele>218</ele>
        <time>2014-06-22T15:44:04Z</time>
      </trkpt>
      <trkpt lat="43.77647" lon="0.81958">
        <ele>217</ele>
        <time>2014-06-22T15:44:08Z</time>
      </trkpt>
      <trkpt lat="43.77645" lon="0.81964">
        <ele>217</ele>
        <time>2014-06-22T15:44:12Z</time>
      </trkpt>
      <trkpt lat="43.77644" lon="0.81971">
        <ele>218</ele>
        <time>2014-06-22T15:44:16Z</time>
      </trkpt>
      <trkpt lat="43.77642" lon="0.81977">
        <ele>217</ele>
        <time>2014-06-22T15:44:20Z</time>
      </trkpt>
      <trkpt lat="43.77641" lon="0.81984">
        <ele>218</ele>
        <time>2014-06-22T15:44:24Z</time>
      </trkpt>
      <trkpt lat="43.7764" lon="0.81991">
        <ele>218</ele>
        <time>2014-06-22T15:44:29Z</time>
      </trkpt>
      <trkpt lat="43.77638" lon="0.81998">
        <ele>219</ele>
        <time>2014-06-22T15:44:34Z</time>
      </trkpt>
      <trkpt lat="43.77634" lon="0.82002">
        <ele>219</ele>
        <time>2014-06-22T15:44:39Z</time>
      </trkpt>
      <trkpt lat="43.77629" lon="0.82001">
        <ele>218</ele>
        <time>2014-06-22T15:44:49Z</time>
      </trkpt>
      <trkpt lat="43.77625" lon="0.82">
        <ele>219</ele>
        <time>2014-06-22T15:44:53Z</time>
      </trkpt>
      <trkpt lat="43.7762" lon="0.82002">
        <ele>218</ele>
        <time>2014-06-22T15:44:57Z</time>
      </trkpt>
      <trkpt lat="43.77617" lon="0.82008">
        <ele>218</ele>
        <time>2014-06-22T15:45:02Z</time>
      </trkpt>
      <trkpt lat="43.77615" lon="0.82014">
        <ele>219</ele>
        <time>2014-06-22T15:45:06Z</time>
      </trkpt>
      <trkpt lat="43.77613" lon="0.82019">
        <ele>219</ele>
        <time>2014-06-22T15:45:10Z</time>
      </trkpt>
      <trkpt lat="43.77611" lon="0.82026">
        <ele>219</ele>
        <time>2014-06-22T15:45:15Z</time>
      </trkpt>
      <trkpt lat="43.77609" lon="0.82032">
        <ele>220</ele>
        <time>2014-06-22T15:45:19Z</time>
      </trkpt>
      <trkpt lat="43.77608" lon="0.82038">
        <ele>221</ele>
        <time>2014-06-22T15:45:23Z</time>
      </trkpt>
      <trkpt lat="43.77606" lon="0.82044">
        <ele>221</ele>
        <time>2014-06-22T15:45:27Z</time>
      </trkpt>
      <trkpt lat="43.77606" lon="0.82051">
        <ele>221</ele>
        <time>2014-06-22T15:45:31Z</time>
      </trkpt>
      <trkpt lat="43.77605" lon="0.82057">
        <ele>222</ele>
        <time>2014-06-22T15:45:35Z</time>
      </trkpt>
      <trkpt lat="43.77604" lon="0.82064">
        <ele>223</ele>
        <time>2014-06-22T15:45:40Z</time>
      </trkpt>
      <trkpt lat="43.77603" lon="0.82072">
        <ele>223</ele>
        <time>2014-06-22T15:45:45Z</time>
      </trkpt>
      <trkpt lat="43.77604" lon="0.82079">
        <ele>224</ele>
        <time>2014-06-22T15:45:50Z</time>
      </trkpt>
      <trkpt lat="43.77605" lon="0.82086">
        <ele>225</ele>
        <time>2014-06-22T15:45:55Z</time>
      </trkpt>
      <trkpt lat="43.77606" lon="0.82094">
        <ele>225</ele>
        <time>2014-06-22T15:46:00Z</time>
      </trkpt>
      <trkpt lat="43.77607" lon="0.82101">
        <ele>225</ele>
        <time>2014-06-22T15:46:05Z</time>
      </trkpt>
      <trkpt lat="43.77608" lon="0.82108">
        <ele>220</ele>
        <time>2014-06-22T15:46:10Z</time>
      </trkpt>
      <trkpt lat="43.77609" lon="0.82116">
        <ele>225</ele>
        <time>2014-06-22T15:46:15Z</time>
      </trkpt>
      <trkpt lat="43.77609" lon="0.82123">
        <ele>225</ele>
        <time>2014-06-22T15:46:19Z</time>
      </trkpt>
      <trkpt lat="43.77609" lon="0.8213">
        <ele>225</ele>
        <time>2014-06-22T15:46:23Z</time>
      </trkpt>
      <trkpt lat="43.77609" lon="0.82136">
        <ele>225</ele>
        <time>2014-06-22T15:46:27Z</time>
      </trkpt>
      <trkpt lat="43.77609" lon="0.82143">
        <ele>225</ele>
        <time>2014-06-22T15:46:31Z</time>
      </trkpt>
      <trkpt lat="43.77609" lon="0.8215">
        <ele>225</ele>
        <time>2014-06-22T15:46:35Z</time>
      </trkpt>
      <trkpt lat="43.77608" lon="0.82156">
        <ele>225</ele>
        <time>2014-06-22T15:46:39Z</time>
      </trkpt>
      <trkpt lat="43.77608" lon="0.82162">
        <ele>226</ele>
        <time>2014-06-22T15:46:43Z</time>
      </trkpt>
      <trkpt lat="43.77607" lon="0.82169">
        <ele>226</ele>
        <time>2014-06-22T15:46:47Z</time>
      </trkpt>
      <trkpt lat="43.77606" lon="0.82175">
        <ele>226</ele>
        <time>2014-06-22T15:46:51Z</time>
      </trkpt>
      <trkpt lat="43.77605" lon="0.82182">
        <ele>226</ele>
        <time>2014-06-22T15:46:55Z</time>
      </trkpt>
      <trkpt lat="43.77604" lon="0.82189">
        <ele>226</ele>
        <time>2014-06-22T15:46:59Z</time>
      </trkpt>
      <trkpt lat="43.77603" lon="0.82195">
        <ele>227</ele>
        <time>2014-06-22T15:47:03Z</time>
      </trkpt>
      <trkpt lat="43.77603" lon="0.82202">
        <ele>227</ele>
        <time>2014-06-22T15:47:07Z</time>
      </trkpt>
      <trkpt lat="43.77602" lon="0.82209">
        <ele>226</ele>
        <time>2014-06-22T15:47:11Z</time>
      </trkpt>
      <trkpt lat="43.77601" lon="0.82215">
        <ele>227</ele>
        <time>2014-06-22T15:47:15Z</time>
      </trkpt>
      <trkpt lat="43.776" lon="0.82222">
        <ele>227</ele>
        <time>2014-06-22T15:47:19Z</time>
      </trkpt>
      <trkpt lat="43.77599" lon="0.82228">
        <ele>227</ele>
        <time>2014-06-22T15:47:23Z</time>
      </trkpt>
      <trkpt lat="43.77598" lon="0.82235">
        <ele>227</ele>
        <time>2014-06-22T15:47:28Z</time>
      </trkpt>
      <trkpt lat="43.77598" lon="0.82242">
        <ele>227</ele>
        <time>2014-06-22T15:48:17Z</time>
      </trkpt>
      <trkpt lat="43.77602" lon="0.82247">
        <ele>226</ele>
        <time>2014-06-22T15:48:22Z</time>
      </trkpt>
      <trkpt lat="43.77605" lon="0.8225">
        <ele>226</ele>
        <time>2014-06-22T15:49:12Z</time>
      </trkpt>
      <trkpt lat="43.7761" lon="0.8225">
        <ele>226</ele>
        <time>2014-06-22T15:49:16Z</time>
      </trkpt>
      <trkpt lat="43.77615" lon="0.82252">
        <ele>226</ele>
        <time>2014-06-22T15:49:25Z</time>
      </trkpt>
      <trkpt lat="43.7762" lon="0.82253">
        <ele>225</ele>
        <time>2014-06-22T15:49:29Z</time>
      </trkpt>
      <trkpt lat="43.77625" lon="0.82254">
        <ele>224</ele>
        <time>2014-06-22T15:49:33Z</time>
      </trkpt>
      <trkpt lat="43.7763" lon="0.82255">
        <ele>224</ele>
        <time>2014-06-22T15:49:38Z</time>
      </trkpt>
      <trkpt lat="43.77635" lon="0.82257">
        <ele>223</ele>
        <time>2014-06-22T15:49:43Z</time>
      </trkpt>
      <trkpt lat="43.7764" lon="0.82258">
        <ele>222</ele>
        <time>2014-06-22T15:49:47Z</time>
      </trkpt>
      <trkpt lat="43.77645" lon="0.8226">
        <ele>221</ele>
        <time>2014-06-22T15:49:52Z</time>
      </trkpt>
      <trkpt lat="43.7765" lon="0.82262">
        <ele>220</ele>
        <time>2014-06-22T15:49:57Z</time>
      </trkpt>
      <trkpt lat="43.77655" lon="0.82264">
        <ele>220</ele>
        <time>2014-06-22T15:50:01Z</time>
      </trkpt>
      <trkpt lat="43.77659" lon="0.82266">
        <ele>219</ele>
        <time>2014-06-22T15:50:05Z</time>
      </trkpt>
      <trkpt lat="43.77664" lon="0.82267">
        <ele>220</ele>
        <time>2014-06-22T15:50:09Z</time>
      </trkpt>
      <trkpt lat="43.77668" lon="0.8227">
        <ele>219</ele>
        <time>2014-06-22T15:50:13Z</time>
      </trkpt>
      <trkpt lat="43.77673" lon="0.82271">
        <ele>219</ele>
        <time>2014-06-22T15:50:17Z</time>
      </trkpt>
      <trkpt lat="43.77677" lon="0.82274">
        <ele>219</ele>
        <time>2014-06-22T15:50:21Z</time>
      </trkpt>
      <trkpt lat="43.77682" lon="0.82275">
        <ele>220</ele>
        <time>2014-06-22T15:50:26Z</time>
      </trkpt>
      <trkpt lat="43.77687" lon="0.82277">
        <ele>219</ele>
        <time>2014-06-22T15:50:31Z</time>
      </trkpt>
      <trkpt lat="43.77693" lon="0.82277">
        <ele>218</ele>
        <time>2014-06-22T15:50:47Z</time>
      </trkpt>
      <trkpt lat="43.77698" lon="0.82277">
        <ele>219</ele>
        <time>2014-06-22T15:50:51Z</time>
      </trkpt>
      <trkpt lat="43.77702" lon="0.82277">
        <ele>219</ele>
        <time>2014-06-22T15:50:55Z</time>
      </trkpt>
      <trkpt lat="43.77707" lon="0.82278">
        <ele>219</ele>
        <time>2014-06-22T15:50:59Z</time>
      </trkpt>
      <trkpt lat="43.77712" lon="0.82279">
        <ele>218</ele>
        <time>2014-06-22T15:51:04Z</time>
      </trkpt>
      <trkpt lat="43.77716" lon="0.82278">
        <ele>219</ele>
        <time>2014-06-22T15:51:08Z</time>
      </trkpt>
      <trkpt lat="43.77721" lon="0.82277">
        <ele>220</ele>
        <time>2014-06-22T15:51:12Z</time>
      </trkpt>
      <trkpt lat="43.77726" lon="0.82276">
        <ele>220</ele>
        <time>2014-06-22T15:51:16Z</time>
      </trkpt>
      <trkpt lat="43.77732" lon="0.82275">
        <ele>221</ele>
        <time>2014-06-22T15:51:21Z</time>
      </trkpt>
      <trkpt lat="43.77737" lon="0.82274">
        <ele>222</ele>
        <time>2014-06-22T15:51:25Z</time>
      </trkpt>
      <trkpt lat="43.77741" lon="0.82274">
        <ele>222</ele>
        <time>2014-06-22T15:51:29Z</time>
      </trkpt>
      <trkpt lat="43.77746" lon="0.82275">
        <ele>223</ele>
        <time>2014-06-22T15:51:33Z</time>
      </trkpt>
      <trkpt lat="43.77751" lon="0.82275">
        <ele>223</ele>
        <time>2014-06-22T15:51:37Z</time>
      </trkpt>
      <trkpt lat="43.77757" lon="0.82274">
        <ele>222</ele>
        <time>2014-06-22T15:51:42Z</time>
      </trkpt>
      <trkpt lat="43.77762" lon="0.82274">
        <ele>222</ele>
        <time>2014-06-22T15:51:47Z</time>
      </trkpt>
      <trkpt lat="43.77767" lon="0.82273">
        <ele>222</ele>
        <time>2014-06-22T15:51:51Z</time>
      </trkpt>
      <trkpt lat="43.77771" lon="0.82273">
        <ele>222</ele>
        <time>2014-06-22T15:51:55Z</time>
      </trkpt>
      <trkpt lat="43.77776" lon="0.82274">
        <ele>221</ele>
        <time>2014-06-22T15:51:59Z</time>
      </trkpt>
      <trkpt lat="43.77781" lon="0.82276">
        <ele>220</ele>
        <time>2014-06-22T15:52:04Z</time>
      </trkpt>
      <trkpt lat="43.77786" lon="0.82278">
        <ele>218</ele>
        <time>2014-06-22T15:52:09Z</time>
      </trkpt>
      <trkpt lat="43.77791" lon="0.82281">
        <ele>217</ele>
        <time>2014-06-22T15:52:14Z</time>
      </trkpt>
      <trkpt lat="43.77795" lon="0.82285">
        <ele>216</ele>
        <time>2014-06-22T15:52:19Z</time>
      </trkpt>
      <trkpt lat="43.778" lon="0.82288">
        <ele>216</ele>
        <time>2014-06-22T15:52:24Z</time>
      </trkpt>
      <trkpt lat="43.77804" lon="0.82292">
        <ele>215</ele>
        <time>2014-06-22T15:52:29Z</time>
      </trkpt>
      <trkpt lat="43.77809" lon="0.82296">
        <ele>214</ele>
        <time>2014-06-22T15:52:34Z</time>
      </trkpt>
      <trkpt lat="43.77813" lon="0.823">
        <ele>214</ele>
        <time>2014-06-22T15:52:39Z</time>
      </trkpt>
      <trkpt lat="43.77817" lon="0.82303">
        <ele>213</ele>
        <time>2014-06-22T15:52:43Z</time>
      </trkpt>
      <trkpt lat="43.77822" lon="0.82308">
        <ele>213</ele>
        <time>2014-06-22T15:52:48Z</time>
      </trkpt>
      <trkpt lat="43.77826" lon="0.82312">
        <ele>212</ele>
        <time>2014-06-22T15:52:53Z</time>
      </trkpt>
      <trkpt lat="43.7783" lon="0.82317">
        <ele>211</ele>
        <time>2014-06-22T15:52:58Z</time>
      </trkpt>
      <trkpt lat="43.77834" lon="0.82321">
        <ele>210</ele>
        <time>2014-06-22T15:53:02Z</time>
      </trkpt>
      <trkpt lat="43.77837" lon="0.82325">
        <ele>210</ele>
        <time>2014-06-22T15:53:06Z</time>
      </trkpt>
      <trkpt lat="43.77842" lon="0.82329">
        <ele>210</ele>
        <time>2014-06-22T15:53:11Z</time>
      </trkpt>
      <trkpt lat="43.77846" lon="0.82332">
        <ele>209</ele>
        <time>2014-06-22T15:53:16Z</time>
      </trkpt>
      <trkpt lat="43.77851" lon="0.82334">
        <ele>210</ele>
        <time>2014-06-22T15:53:20Z</time>
      </trkpt>
      <trkpt lat="43.77856" lon="0.82336">
        <ele>210</ele>
        <time>2014-06-22T15:53:25Z</time>
      </trkpt>
      <trkpt lat="43.77861" lon="0.82339">
        <ele>210</ele>
        <time>2014-06-22T15:53:30Z</time>
      </trkpt>
      <trkpt lat="43.77866" lon="0.82342">
        <ele>210</ele>
        <time>2014-06-22T15:53:35Z</time>
      </trkpt>
      <trkpt lat="43.77871" lon="0.82345">
        <ele>211</ele>
        <time>2014-06-22T15:53:40Z</time>
      </trkpt>
      <trkpt lat="43.77876" lon="0.82347">
        <ele>213</ele>
        <time>2014-06-22T15:53:45Z</time>
      </trkpt>
      <trkpt lat="43.7788" lon="0.8235">
        <ele>212</ele>
        <time>2014-06-22T15:53:49Z</time>
      </trkpt>
      <trkpt lat="43.77884" lon="0.82354">
        <ele>210</ele>
        <time>2014-06-22T15:53:53Z</time>
      </trkpt>
      <trkpt lat="43.77888" lon="0.82357">
        <ele>211</ele>
        <time>2014-06-22T15:53:57Z</time>
      </trkpt>
      <trkpt lat="43.77893" lon="0.8236">
        <ele>211</ele>
        <time>2014-06-22T15:54:01Z</time>
      </trkpt>
      <trkpt lat="43.77897" lon="0.82363">
        <ele>210</ele>
        <time>2014-06-22T15:54:05Z</time>
      </trkpt>
      <trkpt lat="43.77902" lon="0.82365">
        <ele>211</ele>
        <time>2014-06-22T15:54:09Z</time>
      </trkpt>
      <trkpt lat="43.77907" lon="0.82367">
        <ele>212</ele>
        <time>2014-06-22T15:54:13Z</time>
      </trkpt>
      <trkpt lat="43.77911" lon="0.82368">
        <ele>213</ele>
        <time>2014-06-22T15:54:17Z</time>
      </trkpt>
      <trkpt lat="43.77916" lon="0.82369">
        <ele>212</ele>
        <time>2014-06-22T15:54:24Z</time>
      </trkpt>
      <trkpt lat="43.77922" lon="0.82366">
        <ele>212</ele>
        <time>2014-06-22T15:54:29Z</time>
      </trkpt>
      <trkpt lat="43.77927" lon="0.82366">
        <ele>212</ele>
        <time>2014-06-22T15:54:34Z</time>
      </trkpt>
      <trkpt lat="43.77932" lon="0.82367">
        <ele>212</ele>
        <time>2014-06-22T15:54:39Z</time>
      </trkpt>
      <trkpt lat="43.77937" lon="0.82369">
        <ele>211</ele>
        <time>2014-06-22T15:54:45Z</time>
      </trkpt>
      <trkpt lat="43.77942" lon="0.82371">
        <ele>216</ele>
        <time>2014-06-22T15:54:51Z</time>
      </trkpt>
      <trkpt lat="43.77947" lon="0.82372">
        <ele>217</ele>
        <time>2014-06-22T15:55:01Z</time>
      </trkpt>
      <trkpt lat="43.77951" lon="0.82369">
        <ele>217</ele>
        <time>2014-06-22T15:55:06Z</time>
      </trkpt>
      <trkpt lat="43.77956" lon="0.82366">
        <ele>216</ele>
        <time>2014-06-22T15:55:10Z</time>
      </trkpt>
      <trkpt lat="43.7796" lon="0.82363">
        <ele>216</ele>
        <time>2014-06-22T15:55:14Z</time>
      </trkpt>
      <trkpt lat="43.77965" lon="0.82362">
        <ele>216</ele>
        <time>2014-06-22T15:55:18Z</time>
      </trkpt>
      <trkpt lat="43.7797" lon="0.8236">
        <ele>217</ele>
        <time>2014-06-22T15:55:23Z</time>
      </trkpt>
      <trkpt lat="43.77975" lon="0.82357">
        <ele>216</ele>
        <time>2014-06-22T15:55:28Z</time>
      </trkpt>
      <trkpt lat="43.77979" lon="0.82353">
        <ele>216</ele>
        <time>2014-06-22T15:55:33Z</time>
      </trkpt>
      <trkpt lat="43.77984" lon="0.8235">
        <ele>216</ele>
        <time>2014-06-22T15:55:38Z</time>
      </trkpt>
      <trkpt lat="43.77988" lon="0.82346">
        <ele>215</ele>
        <time>2014-06-22T15:55:43Z</time>
      </trkpt>
      <trkpt lat="43.77993" lon="0.82344">
        <ele>215</ele>
        <time>2014-06-22T15:55:48Z</time>
      </trkpt>
      <trkpt lat="43.77991" lon="0.82351">
        <ele>216</ele>
        <time>2014-06-22T15:55:56Z</time>
      </trkpt>
      <trkpt lat="43.77989" lon="0.82358">
        <ele>217</ele>
        <time>2014-06-22T15:56:01Z</time>
      </trkpt>
      <trkpt lat="43.77988" lon="0.82365">
        <ele>217</ele>
        <time>2014-06-22T15:56:06Z</time>
      </trkpt>
      <trkpt lat="43.77987" lon="0.82372">
        <ele>217</ele>
        <time>2014-06-22T15:56:11Z</time>
      </trkpt>
      <trkpt lat="43.77986" lon="0.82379">
        <ele>217</ele>
        <time>2014-06-22T15:56:16Z</time>
      </trkpt>
      <trkpt lat="43.77985" lon="0.82385">
        <ele>216</ele>
        <time>2014-06-22T15:56:21Z</time>
      </trkpt>
      <trkpt lat="43.77983" lon="0.82391">
        <ele>216</ele>
        <time>2014-06-22T15:56:26Z</time>
      </trkpt>
      <trkpt lat="43.77981" lon="0.82398">
        <ele>216</ele>
        <time>2014-06-22T15:56:32Z</time>
      </trkpt>
      <trkpt lat="43.77983" lon="0.82404">
        <ele>217</ele>
        <time>2014-06-22T15:56:39Z</time>
      </trkpt>
      <trkpt lat="43.77988" lon="0.82405">
        <ele>219</ele>
        <time>2014-06-22T15:56:44Z</time>
      </trkpt>
      <trkpt lat="43.77993" lon="0.82407">
        <ele>221</ele>
        <time>2014-06-22T15:56:49Z</time>
      </trkpt>
      <trkpt lat="43.77998" lon="0.8241">
        <ele>221</ele>
        <time>2014-06-22T15:56:54Z</time>
      </trkpt>
      <trkpt lat="43.78003" lon="0.82411">
        <ele>222</ele>
        <time>2014-06-22T15:56:59Z</time>
      </trkpt>
      <trkpt lat="43.78008" lon="0.82412">
        <ele>225</ele>
        <time>2014-06-22T15:57:04Z</time>
      </trkpt>
      <trkpt lat="43.78013" lon="0.82414">
        <ele>225</ele>
        <time>2014-06-22T15:57:09Z</time>
      </trkpt>
      <trkpt lat="43.78017" lon="0.82416">
        <ele>225</ele>
        <time>2014-06-22T15:57:14Z</time>
      </trkpt>
      <trkpt lat="43.78023" lon="0.82417">
        <ele>226</ele>
        <time>2014-06-22T15:57:19Z</time>
      </trkpt>
      <trkpt lat="43.78027" lon="0.82417">
        <ele>227</ele>
        <time>2014-06-22T15:57:23Z</time>
      </trkpt>
      <trkpt lat="43.78033" lon="0.82417">
        <ele>227</ele>
        <time>2014-06-22T15:57:28Z</time>
      </trkpt>
      <trkpt lat="43.78038" lon="0.82417">
        <ele>228</ele>
        <time>2014-06-22T15:57:33Z</time>
      </trkpt>
      <trkpt lat="43.78044" lon="0.82418">
        <ele>227</ele>
        <time>2014-06-22T15:57:38Z</time>
      </trkpt>
      <trkpt lat="43.78049" lon="0.82418">
        <ele>229</ele>
        <time>2014-06-22T15:57:43Z</time>
      </trkpt>
      <trkpt lat="43.78053" lon="0.82422">
        <ele>228</ele>
        <time>2014-06-22T15:57:51Z</time>
      </trkpt>
      <trkpt lat="43.78058" lon="0.82425">
        <ele>227</ele>
        <time>2014-06-22T15:58:06Z</time>
      </trkpt>
      <trkpt lat="43.78062" lon="0.82425">
        <ele>227</ele>
        <time>2014-06-22T15:58:10Z</time>
      </trkpt>
      <trkpt lat="43.78067" lon="0.82426">
        <ele>228</ele>
        <time>2014-06-22T15:58:14Z</time>
      </trkpt>
      <trkpt lat="43.78071" lon="0.82426">
        <ele>229</ele>
        <time>2014-06-22T15:58:18Z</time>
      </trkpt>
      <trkpt lat="43.78077" lon="0.82426">
        <ele>229</ele>
        <time>2014-06-22T15:58:23Z</time>
      </trkpt>
      <trkpt lat="43.78082" lon="0.82426">
        <ele>229</ele>
        <time>2014-06-22T15:58:28Z</time>
      </trkpt>
      <trkpt lat="43.78087" lon="0.82428">
        <ele>229</ele>
        <time>2014-06-22T15:58:32Z</time>
      </trkpt>
      <trkpt lat="43.78091" lon="0.8243">
        <ele>227</ele>
        <time>2014-06-22T15:58:36Z</time>
      </trkpt>
      <trkpt lat="43.78096" lon="0.82433">
        <ele>226</ele>
        <time>2014-06-22T15:58:41Z</time>
      </trkpt>
      <trkpt lat="43.78101" lon="0.82436">
        <ele>225</ele>
        <time>2014-06-22T15:58:46Z</time>
      </trkpt>
      <trkpt lat="43.78105" lon="0.82439">
        <ele>225</ele>
        <time>2014-06-22T15:58:51Z</time>
      </trkpt>
      <trkpt lat="43.7811" lon="0.82441">
        <ele>225</ele>
        <time>2014-06-22T15:58:56Z</time>
      </trkpt>
      <trkpt lat="43.78114" lon="0.82445">
        <ele>223</ele>
        <time>2014-06-22T15:59:00Z</time>
      </trkpt>
      <trkpt lat="43.78118" lon="0.82447">
        <ele>223</ele>
        <time>2014-06-22T15:59:04Z</time>
      </trkpt>
      <trkpt lat="43.78123" lon="0.82451">
        <ele>222</ele>
        <time>2014-06-22T15:59:08Z</time>
      </trkpt>
      <trkpt lat="43.78127" lon="0.82455">
        <ele>222</ele>
        <time>2014-06-22T15:59:12Z</time>
      </trkpt>
      <trkpt lat="43.78131" lon="0.82458">
        <ele>222</ele>
        <time>2014-06-22T15:59:16Z</time>
      </trkpt>
      <trkpt lat="43.78135" lon="0.82461">
        <ele>219</ele>
        <time>2014-06-22T15:59:20Z</time>
      </trkpt>
      <trkpt lat="43.78139" lon="0.82465">
        <ele>218</ele>
        <time>2014-06-22T15:59:24Z</time>
      </trkpt>
      <trkpt lat="43.78143" lon="0.82468">
        <ele>218</ele>
        <time>2014-06-22T15:59:28Z</time>
      </trkpt>
      <trkpt lat="43.78148" lon="0.82471">
        <ele>218</ele>
        <time>2014-06-22T15:59:32Z</time>
      </trkpt>
      <trkpt lat="43.78152" lon="0.82473">
        <ele>218</ele>
        <time>2014-06-22T15:59:36Z</time>
      </trkpt>
      <trkpt lat="43.78157" lon="0.82475">
        <ele>219</ele>
        <time>2014-06-22T15:59:40Z</time>
      </trkpt>
      <trkpt lat="43.78161" lon="0.82479">
        <ele>217</ele>
        <time>2014-06-22T15:59:44Z</time>
      </trkpt>
      <trkpt lat="43.78166" lon="0.82482">
        <ele>217</ele>
        <time>2014-06-22T15:59:48Z</time>
      </trkpt>
      <trkpt lat="43.78171" lon="0.82485">
        <ele>217</ele>
        <time>2014-06-22T15:59:52Z</time>
      </trkpt>
      <trkpt lat="43.78175" lon="0.82487">
        <ele>217</ele>
        <time>2014-06-22T15:59:56Z</time>
      </trkpt>
      <trkpt lat="43.7818" lon="0.82491">
        <ele>217</ele>
        <time>2014-06-22T16:00:00Z</time>
      </trkpt>
      <trkpt lat="43.78184" lon="0.82494">
        <ele>217</ele>
        <time>2014-06-22T16:00:04Z</time>
      </trkpt>
      <trkpt lat="43.78188" lon="0.82497">
        <ele>217</ele>
        <time>2014-06-22T16:00:08Z</time>
      </trkpt>
      <trkpt lat="43.78193" lon="0.82502">
        <ele>217</ele>
        <time>2014-06-22T16:00:13Z</time>
      </trkpt>
      <trkpt lat="43.78197" lon="0.82506">
        <ele>214</ele>
        <time>2014-06-22T16:00:18Z</time>
      </trkpt>
      <trkpt lat="43.78201" lon="0.8251">
        <ele>214</ele>
        <time>2014-06-22T16:00:23Z</time>
      </trkpt>
      <trkpt lat="43.78204" lon="0.82515">
        <ele>212</ele>
        <time>2014-06-22T16:00:39Z</time>
      </trkpt>
      <trkpt lat="43.78208" lon="0.82517">
        <ele>212</ele>
        <time>2014-06-22T16:00:49Z</time>
      </trkpt>
      <trkpt lat="43.78213" lon="0.8252">
        <ele>212</ele>
        <time>2014-06-22T16:00:54Z</time>
      </trkpt>
      <trkpt lat="43.78218" lon="0.82522">
        <ele>212</ele>
        <time>2014-06-22T16:00:59Z</time>
      </trkpt>
      <trkpt lat="43.78222" lon="0.82524">
        <ele>213</ele>
        <time>2014-06-22T16:01:03Z</time>
      </trkpt>
      <trkpt lat="43.78227" lon="0.82528">
        <ele>213</ele>
        <time>2014-06-22T16:01:07Z</time>
      </trkpt>
      <trkpt lat="43.78231" lon="0.82531">
        <ele>213</ele>
        <time>2014-06-22T16:01:11Z</time>
      </trkpt>
      <trkpt lat="43.78236" lon="0.82534">
        <ele>212</ele>
        <time>2014-06-22T16:01:15Z</time>
      </trkpt>
      <trkpt lat="43.78241" lon="0.82536">
        <ele>211</ele>
        <time>2014-06-22T16:01:19Z</time>
      </trkpt>
      <trkpt lat="43.78245" lon="0.82538">
        <ele>211</ele>
        <time>2014-06-22T16:01:23Z</time>
      </trkpt>
      <trkpt lat="43.7825" lon="0.82541">
        <ele>210</ele>
        <time>2014-06-22T16:01:27Z</time>
      </trkpt>
      <trkpt lat="43.78255" lon="0.82544">
        <ele>211</ele>
        <time>2014-06-22T16:01:31Z</time>
      </trkpt>
      <trkpt lat="43.7826" lon="0.82546">
        <ele>212</ele>
        <time>2014-06-22T16:01:35Z</time>
      </trkpt>
      <trkpt lat="43.78264" lon="0.82549">
        <ele>212</ele>
        <time>2014-06-22T16:01:39Z</time>
      </trkpt>
      <trkpt lat="43.78269" lon="0.8255">
        <ele>211</ele>
        <time>2014-06-22T16:01:43Z</time>
      </trkpt>
      <trkpt lat="43.78274" lon="0.82554">
        <ele>209</ele>
        <time>2014-06-22T16:01:48Z</time>
      </trkpt>
      <trkpt lat="43.78279" lon="0.82556">
        <ele>208</ele>
        <time>2014-06-22T16:01:53Z</time>
      </trkpt>
      <trkpt lat="43.78284" lon="0.82558">
        <ele>207</ele>
        <time>2014-06-22T16:01:58Z</time>
      </trkpt>
      <trkpt lat="43.78288" lon="0.82561">
        <ele>207</ele>
        <time>2014-06-22T16:02:03Z</time>
      </trkpt>
      <trkpt lat="43.78293" lon="0.82562">
        <ele>206</ele>
        <time>2014-06-22T16:02:08Z</time>
      </trkpt>
      <trkpt lat="43.78298" lon="0.82565">
        <ele>206</ele>
        <time>2014-06-22T16:02:12Z</time>
      </trkpt>
      <trkpt lat="43.78302" lon="0.82567">
        <ele>206</ele>
        <time>2014-06-22T16:02:16Z</time>
      </trkpt>
      <trkpt lat="43.78307" lon="0.82571">
        <ele>206</ele>
        <time>2014-06-22T16:02:21Z</time>
      </trkpt>
      <trkpt lat="43.78312" lon="0.82574">
        <ele>204</ele>
        <time>2014-06-22T16:02:27Z</time>
      </trkpt>
      <trkpt lat="43.78318" lon="0.82576">
        <ele>203</ele>
        <time>2014-06-22T16:02:32Z</time>
      </trkpt>
      <trkpt lat="43.78322" lon="0.82576">
        <ele>204</ele>
        <time>2014-06-22T16:02:36Z</time>
      </trkpt>
      <trkpt lat="43.78327" lon="0.82578">
        <ele>203</ele>
        <time>2014-06-22T16:02:41Z</time>
      </trkpt>
      <trkpt lat="43.78332" lon="0.8258">
        <ele>204</ele>
        <time>2014-06-22T16:02:46Z</time>
      </trkpt>
      <trkpt lat="43.78345" lon="0.82583">
        <ele>206</ele>
        <time>2014-06-22T16:02:58Z</time>
      </trkpt>
      <trkpt lat="43.78349" lon="0.82587">
        <ele>202</ele>
        <time>2014-06-22T16:03:01Z</time>
      </trkpt>
      <trkpt lat="43.78353" lon="0.82591">
        <ele>203</ele>
        <time>2014-06-22T16:03:04Z</time>
      </trkpt>
      <trkpt lat="43.78358" lon="0.82594">
        <ele>203</ele>
        <time>2014-06-22T16:03:08Z</time>
      </trkpt>
      <trkpt lat="43.78363" lon="0.82596">
        <ele>202</ele>
        <time>2014-06-22T16:03:12Z</time>
      </trkpt>
      <trkpt lat="43.78367" lon="0.82598">
        <ele>200</ele>
        <time>2014-06-22T16:03:16Z</time>
      </trkpt>
      <trkpt lat="43.78372" lon="0.826">
        <ele>200</ele>
        <time>2014-06-22T16:03:20Z</time>
      </trkpt>
      <trkpt lat="43.78377" lon="0.82602">
        <ele>200</ele>
        <time>2014-06-22T16:03:25Z</time>
      </trkpt>
      <trkpt lat="43.78382" lon="0.82603">
        <ele>200</ele>
        <time>2014-06-22T16:03:30Z</time>
      </trkpt>
      <trkpt lat="43.78387" lon="0.82606">
        <ele>200</ele>
        <time>2014-06-22T16:03:35Z</time>
      </trkpt>
      <trkpt lat="43.78392" lon="0.82607">
        <ele>200</ele>
        <time>2014-06-22T16:03:40Z</time>
      </trkpt>
      <trkpt lat="43.78397" lon="0.82609">
        <ele>200</ele>
        <time>2014-06-22T16:03:53Z</time>
      </trkpt>
      <trkpt lat="43.78402" lon="0.8261">
        <ele>200</ele>
        <time>2014-06-22T16:03:58Z</time>
      </trkpt>
      <trkpt lat="43.78408" lon="0.8261">
        <ele>201</ele>
        <time>2014-06-22T16:04:03Z</time>
      </trkpt>
      <trkpt lat="43.78413" lon="0.82608">
        <ele>201</ele>
        <time>2014-06-22T16:04:08Z</time>
      </trkpt>
      <trkpt lat="43.78417" lon="0.82606">
        <ele>202</ele>
        <time>2014-06-22T16:04:13Z</time>
      </trkpt>
      <trkpt lat="43.78422" lon="0.82603">
        <ele>202</ele>
        <time>2014-06-22T16:04:18Z</time>
      </trkpt>
      <trkpt lat="43.78426" lon="0.82598">
        <ele>202</ele>
        <time>2014-06-22T16:04:24Z</time>
      </trkpt>
      <trkpt lat="43.7843" lon="0.82593">
        <ele>203</ele>
        <time>2014-06-22T16:04:30Z</time>
      </trkpt>
      <trkpt lat="43.78433" lon="0.82589">
        <ele>203</ele>
        <time>2014-06-22T16:04:35Z</time>
      </trkpt>
      <trkpt lat="43.78437" lon="0.82585">
        <ele>203</ele>
        <time>2014-06-22T16:04:40Z</time>
      </trkpt>
      <trkpt lat="43.78441" lon="0.82581">
        <ele>204</ele>
        <time>2014-06-22T16:04:45Z</time>
      </trkpt>
      <trkpt lat="43.78445" lon="0.82578">
        <ele>204</ele>
        <time>2014-06-22T16:04:50Z</time>
      </trkpt>
      <trkpt lat="43.78449" lon="0.82574">
        <ele>204</ele>
        <time>2014-06-22T16:04:55Z</time>
      </trkpt>
      <trkpt lat="43.78452" lon="0.8257">
        <ele>205</ele>
        <time>2014-06-22T16:05:00Z</time>
      </trkpt>
      <trkpt lat="43.78457" lon="0.82566">
        <ele>206</ele>
        <time>2014-06-22T16:05:05Z</time>
      </trkpt>
      <trkpt lat="43.78461" lon="0.82562">
        <ele>206</ele>
        <time>2014-06-22T16:05:09Z</time>
      </trkpt>
      <trkpt lat="43.78465" lon="0.82558">
        <ele>208</ele>
        <time>2014-06-22T16:05:13Z</time>
      </trkpt>
      <trkpt lat="43.78469" lon="0.82554">
        <ele>208</ele>
        <time>2014-06-22T16:05:17Z</time>
      </trkpt>
      <trkpt lat="43.78472" lon="0.82549">
        <ele>208</ele>
        <time>2014-06-22T16:05:22Z</time>
      </trkpt>
      <trkpt lat="43.78477" lon="0.82544">
        <ele>209</ele>
        <time>2014-06-22T16:05:27Z</time>
      </trkpt>
      <trkpt lat="43.78481" lon="0.8254">
        <ele>210</ele>
        <time>2014-06-22T16:05:32Z</time>
      </trkpt>
      <trkpt lat="43.78486" lon="0.82537">
        <ele>210</ele>
        <time>2014-06-22T16:05:37Z</time>
      </trkpt>
      <trkpt lat="43.7849" lon="0.82534">
        <ele>211</ele>
        <time>2014-06-22T16:05:42Z</time>
      </trkpt>
      <trkpt lat="43.78495" lon="0.82532">
        <ele>212</ele>
        <time>2014-06-22T16:05:47Z</time>
      </trkpt>
      <trkpt lat="43.785" lon="0.82531">
        <ele>212</ele>
        <time>2014-06-22T16:05:53Z</time>
      </trkpt>
      <trkpt lat="43.78504" lon="0.82527">
        <ele>213</ele>
        <time>2014-06-22T16:05:58Z</time>
      </trkpt>
      <trkpt lat="43.78507" lon="0.82523">
        <ele>213</ele>
        <time>2014-06-22T16:06:03Z</time>
      </trkpt>
      <trkpt lat="43.78512" lon="0.82519">
        <ele>214</ele>
        <time>2014-06-22T16:06:08Z</time>
      </trkpt>
      <trkpt lat="43.78516" lon="0.82516">
        <ele>215</ele>
        <time>2014-06-22T16:06:13Z</time>
      </trkpt>
      <trkpt lat="43.78521" lon="0.82512">
        <ele>215</ele>
        <time>2014-06-22T16:06:18Z</time>
      </trkpt>
      <trkpt lat="43.78526" lon="0.82509">
        <ele>216</ele>
        <time>2014-06-22T16:06:23Z</time>
      </trkpt>
      <trkpt lat="43.7853" lon="0.82506">
        <ele>217</ele>
        <time>2014-06-22T16:06:28Z</time>
      </trkpt>
      <trkpt lat="43.78534" lon="0.82503">
        <ele>217</ele>
        <time>2014-06-22T16:06:33Z</time>
      </trkpt>
      <trkpt lat="43.78539" lon="0.82504">
        <ele>217</ele>
        <time>2014-06-22T16:07:38Z</time>
      </trkpt>
      <trkpt lat="43.78544" lon="0.82507">
        <ele>218</ele>
        <time>2014-06-22T16:07:43Z</time>
      </trkpt>
      <trkpt lat="43.78549" lon="0.8251">
        <ele>219</ele>
        <time>2014-06-22T16:07:48Z</time>
      </trkpt>
      <trkpt lat="43.78553" lon="0.82514">
        <ele>220</ele>
        <time>2014-06-22T16:07:53Z</time>
      </trkpt>
      <trkpt lat="43.78558" lon="0.82517">
        <ele>220</ele>
        <time>2014-06-22T16:07:58Z</time>
      </trkpt>
      <trkpt lat="43.78562" lon="0.82521">
        <ele>219</ele>
        <time>2014-06-22T16:08:02Z</time>
      </trkpt>
      <trkpt lat="43.78567" lon="0.82523">
        <ele>220</ele>
        <time>2014-06-22T16:08:06Z</time>
      </trkpt>
      <trkpt lat="43.78571" lon="0.82526">
        <ele>221</ele>
        <time>2014-06-22T16:08:10Z</time>
      </trkpt>
      <trkpt lat="43.78576" lon="0.82529">
        <ele>221</ele>
        <time>2014-06-22T16:08:15Z</time>
      </trkpt>
      <trkpt lat="43.7858" lon="0.82532">
        <ele>221</ele>
        <time>2014-06-22T16:08:20Z</time>
      </trkpt>
      <trkpt lat="43.78584" lon="0.82534">
        <ele>221</ele>
        <time>2014-06-22T16:08:25Z</time>
      </trkpt>
      <trkpt lat="43.78589" lon="0.82537">
        <ele>221</ele>
        <time>2014-06-22T16:08:30Z</time>
      </trkpt>
      <trkpt lat="43.78594" lon="0.82539">
        <ele>220</ele>
        <time>2014-06-22T16:08:35Z</time>
      </trkpt>
      <trkpt lat="43.78599" lon="0.82543">
        <ele>218</ele>
        <time>2014-06-22T16:08:40Z</time>
      </trkpt>
      <trkpt lat="43.78604" lon="0.82544">
        <ele>217</ele>
        <time>2014-06-22T16:08:44Z</time>
      </trkpt>
      <trkpt lat="43.78608" lon="0.82547">
        <ele>216</ele>
        <time>2014-06-22T16:08:48Z</time>
      </trkpt>
      <trkpt lat="43.78612" lon="0.82549">
        <ele>216</ele>
        <time>2014-06-22T16:08:53Z</time>
      </trkpt>
      <trkpt lat="43.78617" lon="0.82552">
        <ele>216</ele>
        <time>2014-06-22T16:08:59Z</time>
      </trkpt>
      <trkpt lat="43.78621" lon="0.82555">
        <ele>216</ele>
        <time>2014-06-22T16:09:03Z</time>
      </trkpt>
      <trkpt lat="43.78625" lon="0.82559">
        <ele>216</ele>
        <time>2014-06-22T16:09:07Z</time>
      </trkpt>
      <trkpt lat="43.7863" lon="0.8256">
        <ele>215</ele>
        <time>2014-06-22T16:09:11Z</time>
      </trkpt>
      <trkpt lat="43.78635" lon="0.82562">
        <ele>214</ele>
        <time>2014-06-22T16:09:16Z</time>
      </trkpt>
      <trkpt lat="43.78641" lon="0.82562">
        <ele>212</ele>
        <time>2014-06-22T16:09:21Z</time>
      </trkpt>
      <trkpt lat="43.78645" lon="0.82562">
        <ele>213</ele>
        <time>2014-06-22T16:09:25Z</time>
      </trkpt>
      <trkpt lat="43.7865" lon="0.82559">
        <ele>213</ele>
        <time>2014-06-22T16:09:30Z</time>
      </trkpt>
      <trkpt lat="43.78655" lon="0.82558">
        <ele>214</ele>
        <time>2014-06-22T16:09:34Z</time>
      </trkpt>
      <trkpt lat="43.7866" lon="0.82556">
        <ele>215</ele>
        <time>2014-06-22T16:09:38Z</time>
      </trkpt>
      <trkpt lat="43.78666" lon="0.82555">
        <ele>215</ele>
        <time>2014-06-22T16:09:42Z</time>
      </trkpt>
      <trkpt lat="43.78671" lon="0.82556">
        <ele>217</ele>
        <time>2014-06-22T16:09:46Z</time>
      </trkpt>
      <trkpt lat="43.78676" lon="0.82557">
        <ele>216</ele>
        <time>2014-06-22T16:09:50Z</time>
      </trkpt>
      <trkpt lat="43.78681" lon="0.8256">
        <ele>215</ele>
        <time>2014-06-22T16:09:54Z</time>
      </trkpt>
      <trkpt lat="43.78686" lon="0.82563">
        <ele>214</ele>
        <time>2014-06-22T16:09:58Z</time>
      </trkpt>
      <trkpt lat="43.7869" lon="0.82567">
        <ele>213</ele>
        <time>2014-06-22T16:10:02Z</time>
      </trkpt>
      <trkpt lat="43.78694" lon="0.8257">
        <ele>211</ele>
        <time>2014-06-22T16:10:06Z</time>
      </trkpt>
      <trkpt lat="43.78699" lon="0.82572">
        <ele>211</ele>
        <time>2014-06-22T16:10:10Z</time>
      </trkpt>
      <trkpt lat="43.78703" lon="0.82574">
        <ele>210</ele>
        <time>2014-06-22T16:10:14Z</time>
      </trkpt>
      <trkpt lat="43.78708" lon="0.82576">
        <ele>210</ele>
        <time>2014-06-22T16:10:18Z</time>
      </trkpt>
      <trkpt lat="43.78712" lon="0.82578">
        <ele>209</ele>
        <time>2014-06-22T16:10:22Z</time>
      </trkpt>
      <trkpt lat="43.78717" lon="0.82579">
        <ele>208</ele>
        <time>2014-06-22T16:10:26Z</time>
      </trkpt>
      <trkpt lat="43.78722" lon="0.82579">
        <ele>209</ele>
        <time>2014-06-22T16:10:30Z</time>
      </trkpt>
      <trkpt lat="43.78727" lon="0.82577">
        <ele>209</ele>
        <time>2014-06-22T16:10:34Z</time>
      </trkpt>
      <trkpt lat="43.78732" lon="0.82576">
        <ele>209</ele>
        <time>2014-06-22T16:10:38Z</time>
      </trkpt>
      <trkpt lat="43.78737" lon="0.82575">
        <ele>209</ele>
        <time>2014-06-22T16:10:42Z</time>
      </trkpt>
      <trkpt lat="43.78742" lon="0.82573">
        <ele>208</ele>
        <time>2014-06-22T16:10:46Z</time>
      </trkpt>
      <trkpt lat="43.78746" lon="0.82571">
        <ele>207</ele>
        <time>2014-06-22T16:10:50Z</time>
      </trkpt>
      <trkpt lat="43.7875" lon="0.82569">
        <ele>207</ele>
        <time>2014-06-22T16:10:54Z</time>
      </trkpt>
      <trkpt lat="43.78754" lon="0.82567">
        <ele>207</ele>
        <time>2014-06-22T16:10:58Z</time>
      </trkpt>
      <trkpt lat="43.78759" lon="0.82565">
        <ele>206</ele>
        <time>2014-06-22T16:11:02Z</time>
      </trkpt>
      <trkpt lat="43.78763" lon="0.82564">
        <ele>205</ele>
        <time>2014-06-22T16:11:06Z</time>
      </trkpt>
      <trkpt lat="43.78768" lon="0.82562">
        <ele>205</ele>
        <time>2014-06-22T16:11:10Z</time>
      </trkpt>
      <trkpt lat="43.78773" lon="0.8256">
        <ele>206</ele>
        <time>2014-06-22T16:11:14Z</time>
      </trkpt>
      <trkpt lat="43.78778" lon="0.82557">
        <ele>206</ele>
        <time>2014-06-22T16:11:18Z</time>
      </trkpt>
      <trkpt lat="43.78782" lon="0.82555">
        <ele>206</ele>
        <time>2014-06-22T16:11:22Z</time>
      </trkpt>
      <trkpt lat="43.78787" lon="0.82553">
        <ele>206</ele>
        <time>2014-06-22T16:11:26Z</time>
      </trkpt>
      <trkpt lat="43.78792" lon="0.82551">
        <ele>205</ele>
        <time>2014-06-22T16:11:30Z</time>
      </trkpt>
      <trkpt lat="43.78796" lon="0.8255">
        <ele>204</ele>
        <time>2014-06-22T16:11:34Z</time>
      </trkpt>
      <trkpt lat="43.78801" lon="0.8255">
        <ele>203</ele>
        <time>2014-06-22T16:11:38Z</time>
      </trkpt>
      <trkpt lat="43.78806" lon="0.8255">
        <ele>203</ele>
        <time>2014-06-22T16:11:42Z</time>
      </trkpt>
      <trkpt lat="43.78811" lon="0.8255">
        <ele>203</ele>
        <time>2014-06-22T16:11:46Z</time>
      </trkpt>
      <trkpt lat="43.78816" lon="0.82552">
        <ele>202</ele>
        <time>2014-06-22T16:11:50Z</time>
      </trkpt>
      <trkpt lat="43.78821" lon="0.82554">
        <ele>202</ele>
        <time>2014-06-22T16:11:54Z</time>
      </trkpt>
      <trkpt lat="43.78826" lon="0.82555">
        <ele>202</ele>
        <time>2014-06-22T16:11:58Z</time>
      </trkpt>
      <trkpt lat="43.7883" lon="0.82557">
        <ele>202</ele>
        <time>2014-06-22T16:12:02Z</time>
      </trkpt>
      <trkpt lat="43.78834" lon="0.82559">
        <ele>202</ele>
        <time>2014-06-22T16:12:06Z</time>
      </trkpt>
      <trkpt lat="43.78839" lon="0.82561">
        <ele>202</ele>
        <time>2014-06-22T16:12:10Z</time>
      </trkpt>
      <trkpt lat="43.78843" lon="0.82564">
        <ele>202</ele>
        <time>2014-06-22T16:12:44Z</time>
      </trkpt>
      <trkpt lat="43.78848" lon="0.82567">
        <ele>202</ele>
        <time>2014-06-22T16:12:49Z</time>
      </trkpt>
      <trkpt lat="43.78853" lon="0.82568">
        <ele>202</ele>
        <time>2014-06-22T16:12:53Z</time>
      </trkpt>
      <trkpt lat="43.78857" lon="0.8257">
        <ele>202</ele>
        <time>2014-06-22T16:12:57Z</time>
      </trkpt>
      <trkpt lat="43.78862" lon="0.82573">
        <ele>203</ele>
        <time>2014-06-22T16:13:05Z</time>
      </trkpt>
      <trkpt lat="43.78866" lon="0.82576">
        <ele>203</ele>
        <time>2014-06-22T16:13:09Z</time>
      </trkpt>
      <trkpt lat="43.7887" lon="0.82579">
        <ele>203</ele>
        <time>2014-06-22T16:13:13Z</time>
      </trkpt>
      <trkpt lat="43.78875" lon="0.82583">
        <ele>202</ele>
        <time>2014-06-22T16:13:17Z</time>
      </trkpt>
      <trkpt lat="43.78879" lon="0.82586">
        <ele>202</ele>
        <time>2014-06-22T16:13:21Z</time>
      </trkpt>
      <trkpt lat="43.78884" lon="0.8259">
        <ele>203</ele>
        <time>2014-06-22T16:13:26Z</time>
      </trkpt>
      <trkpt lat="43.78888" lon="0.82593">
        <ele>203</ele>
        <time>2014-06-22T16:13:31Z</time>
      </trkpt>
      <trkpt lat="43.78893" lon="0.82596">
        <ele>204</ele>
        <time>2014-06-22T16:13:36Z</time>
      </trkpt>
      <trkpt lat="43.78897" lon="0.82598">
        <ele>204</ele>
        <time>2014-06-22T16:13:40Z</time>
      </trkpt>
      <trkpt lat="43.78902" lon="0.82602">
        <ele>204</ele>
        <time>2014-06-22T16:13:44Z</time>
      </trkpt>
      <trkpt lat="43.78906" lon="0.82605">
        <ele>205</ele>
        <time>2014-06-22T16:13:48Z</time>
      </trkpt>
      <trkpt lat="43.78911" lon="0.82608">
        <ele>205</ele>
        <time>2014-06-22T16:13:52Z</time>
      </trkpt>
      <trkpt lat="43.78915" lon="0.82611">
        <ele>205</ele>
        <time>2014-06-22T16:13:56Z</time>
      </trkpt>
      <trkpt lat="43.7892" lon="0.82614">
        <ele>206</ele>
        <time>2014-06-22T16:14:01Z</time>
      </trkpt>
      <trkpt lat="43.78924" lon="0.82617">
        <ele>207</ele>
        <time>2014-06-22T16:14:06Z</time>
      </trkpt>
      <trkpt lat="43.78928" lon="0.82621">
        <ele>207</ele>
        <time>2014-06-22T16:14:16Z</time>
      </trkpt>
      <trkpt lat="43.78933" lon="0.82623">
        <ele>207</ele>
        <time>2014-06-22T16:14:20Z</time>
      </trkpt>
      <trkpt lat="43.78937" lon="0.82626">
        <ele>208</ele>
        <time>2014-06-22T16:14:25Z</time>
      </trkpt>
      <trkpt lat="43.78942" lon="0.82628">
        <ele>208</ele>
        <time>2014-06-22T16:14:51Z</time>
      </trkpt>
      <trkpt lat="43.78946" lon="0.82632">
        <ele>209</ele>
        <time>2014-06-22T16:14:56Z</time>
      </trkpt>
      <trkpt lat="43.78951" lon="0.82634">
        <ele>211</ele>
        <time>2014-06-22T16:15:01Z</time>
      </trkpt>
      <trkpt lat="43.78956" lon="0.82637">
        <ele>211</ele>
        <time>2014-06-22T16:15:07Z</time>
      </trkpt>
      <trkpt lat="43.7896" lon="0.82641">
        <ele>212</ele>
        <time>2014-06-22T16:15:11Z</time>
      </trkpt>
      <trkpt lat="43.78965" lon="0.82644">
        <ele>213</ele>
        <time>2014-06-22T16:15:15Z</time>
      </trkpt>
      <trkpt lat="43.7897" lon="0.82647">
        <ele>213</ele>
        <time>2014-06-22T16:15:20Z</time>
      </trkpt>
      <trkpt lat="43.78975" lon="0.82651">
        <ele>213</ele>
        <time>2014-06-22T16:15:25Z</time>
      </trkpt>
      <trkpt lat="43.78979" lon="0.82654">
        <ele>215</ele>
        <time>2014-06-22T16:15:29Z</time>
      </trkpt>
      <trkpt lat="43.78983" lon="0.82656">
        <ele>214</ele>
        <time>2014-06-22T16:15:33Z</time>
      </trkpt>
      <trkpt lat="43.78988" lon="0.8266">
        <ele>215</ele>
        <time>2014-06-22T16:15:38Z</time>
      </trkpt>
      <trkpt lat="43.78992" lon="0.82663">
        <ele>216</ele>
        <time>2014-06-22T16:15:42Z</time>
      </trkpt>
      <trkpt lat="43.78995" lon="0.82668">
        <ele>215</ele>
        <time>2014-06-22T16:15:46Z</time>
      </trkpt>
      <trkpt lat="43.78999" lon="0.82673">
        <ele>215</ele>
        <time>2014-06-22T16:15:50Z</time>
      </trkpt>
      <trkpt lat="43.79002" lon="0.82677">
        <ele>215</ele>
        <time>2014-06-22T16:16:00Z</time>
      </trkpt>
      <trkpt lat="43.79005" lon="0.82681">
        <ele>215</ele>
        <time>2014-06-22T16:16:04Z</time>
      </trkpt>
      <trkpt lat="43.79009" lon="0.82686">
        <ele>215</ele>
        <time>2014-06-22T16:16:08Z</time>
      </trkpt>
      <trkpt lat="43.79013" lon="0.82689">
        <ele>216</ele>
        <time>2014-06-22T16:16:12Z</time>
      </trkpt>
      <trkpt lat="43.79017" lon="0.82692">
        <ele>216</ele>
        <time>2014-06-22T16:16:16Z</time>
      </trkpt>
      <trkpt lat="43.79021" lon="0.82694">
        <ele>216</ele>
        <time>2014-06-22T16:16:20Z</time>
      </trkpt>
      <trkpt lat="43.79026" lon="0.82698">
        <ele>216</ele>
        <time>2014-06-22T16:16:25Z</time>
      </trkpt>
      <trkpt lat="43.79031" lon="0.82701">
        <ele>215</ele>
        <time>2014-06-22T16:16:30Z</time>
      </trkpt>
      <trkpt lat="43.79036" lon="0.82704">
        <ele>215</ele>
        <time>2014-06-22T16:16:34Z</time>
      </trkpt>
      <trkpt lat="43.7904" lon="0.82707">
        <ele>214</ele>
        <time>2014-06-22T16:16:38Z</time>
      </trkpt>
      <trkpt lat="43.79044" lon="0.8271">
        <ele>213</ele>
        <time>2014-06-22T16:16:42Z</time>
      </trkpt>
      <trkpt lat="43.79048" lon="0.82712">
        <ele>213</ele>
        <time>2014-06-22T16:16:46Z</time>
      </trkpt>
      <trkpt lat="43.79053" lon="0.82714">
        <ele>213</ele>
        <time>2014-06-22T16:16:50Z</time>
      </trkpt>
      <trkpt lat="43.79057" lon="0.82717">
        <ele>213</ele>
        <time>2014-06-22T16:16:54Z</time>
      </trkpt>
      <trkpt lat="43.79061" lon="0.8272">
        <ele>214</ele>
        <time>2014-06-22T16:16:58Z</time>
      </trkpt>
      <trkpt lat="43.79065" lon="0.82722">
        <ele>213</ele>
        <time>2014-06-22T16:17:02Z</time>
      </trkpt>
      <trkpt lat="43.7907" lon="0.82725">
        <ele>213</ele>
        <time>2014-06-22T16:17:06Z</time>
      </trkpt>
      <trkpt lat="43.79074" lon="0.82728">
        <ele>211</ele>
        <time>2014-06-22T16:17:10Z</time>
      </trkpt>
      <trkpt lat="43.79079" lon="0.8273">
        <ele>210</ele>
        <time>2014-06-22T16:17:14Z</time>
      </trkpt>
      <trkpt lat="43.79084" lon="0.82733">
        <ele>210</ele>
        <time>2014-06-22T16:17:18Z</time>
      </trkpt>
      <trkpt lat="43.79088" lon="0.82735">
        <ele>208</ele>
        <time>2014-06-22T16:17:22Z</time>
      </trkpt>
      <trkpt lat="43.79093" lon="0.82737">
        <ele>208</ele>
        <time>2014-06-22T16:17:26Z</time>
      </trkpt>
      <trkpt lat="43.79098" lon="0.82739">
        <ele>208</ele>
        <time>2014-06-22T16:17:30Z</time>
      </trkpt>
      <trkpt lat="43.79103" lon="0.82741">
        <ele>207</ele>
        <time>2014-06-22T16:17:34Z</time>
      </trkpt>
      <trkpt lat="43.79107" lon="0.82743">
        <ele>207</ele>
        <time>2014-06-22T16:17:38Z</time>
      </trkpt>
      <trkpt lat="43.79112" lon="0.82744">
        <ele>207</ele>
        <time>2014-06-22T16:17:42Z</time>
      </trkpt>
      <trkpt lat="43.79117" lon="0.82744">
        <ele>207</ele>
        <time>2014-06-22T16:17:46Z</time>
      </trkpt>
      <trkpt lat="43.79122" lon="0.82745">
        <ele>207</ele>
        <time>2014-06-22T16:17:50Z</time>
      </trkpt>
      <trkpt lat="43.79127" lon="0.82745">
        <ele>207</ele>
        <time>2014-06-22T16:17:54Z</time>
      </trkpt>
      <trkpt lat="43.79131" lon="0.82744">
        <ele>207</ele>
        <time>2014-06-22T16:17:58Z</time>
      </trkpt>
      <trkpt lat="43.79136" lon="0.82744">
        <ele>207</ele>
        <time>2014-06-22T16:18:02Z</time>
      </trkpt>
      <trkpt lat="43.79142" lon="0.82743">
        <ele>208</ele>
        <time>2014-06-22T16:18:07Z</time>
      </trkpt>
      <trkpt lat="43.79146" lon="0.82742">
        <ele>208</ele>
        <time>2014-06-22T16:18:11Z</time>
      </trkpt>
      <trkpt lat="43.79151" lon="0.82739">
        <ele>208</ele>
        <time>2014-06-22T16:18:15Z</time>
      </trkpt>
      <trkpt lat="43.79155" lon="0.82737">
        <ele>207</ele>
        <time>2014-06-22T16:18:19Z</time>
      </trkpt>
      <trkpt lat="43.7916" lon="0.82732">
        <ele>208</ele>
        <time>2014-06-22T16:18:24Z</time>
      </trkpt>
      <trkpt lat="43.79163" lon="0.82727">
        <ele>208</ele>
        <time>2014-06-22T16:18:28Z</time>
      </trkpt>
      <trkpt lat="43.79166" lon="0.82722">
        <ele>208</ele>
        <time>2014-06-22T16:18:32Z</time>
      </trkpt>
      <trkpt lat="43.79169" lon="0.82717">
        <ele>207</ele>
        <time>2014-06-22T16:18:36Z</time>
      </trkpt>
      <trkpt lat="43.79172" lon="0.82711">
        <ele>207</ele>
        <time>2014-06-22T16:18:40Z</time>
      </trkpt>
      <trkpt lat="43.79174" lon="0.82706">
        <ele>206</ele>
        <time>2014-06-22T16:18:44Z</time>
      </trkpt>
      <trkpt lat="43.79177" lon="0.827">
        <ele>206</ele>
        <time>2014-06-22T16:18:48Z</time>
      </trkpt>
      <trkpt lat="43.79179" lon="0.82694">
        <ele>207</ele>
        <time>2014-06-22T16:18:52Z</time>
      </trkpt>
      <trkpt lat="43.7918" lon="0.82688">
        <ele>207</ele>
        <time>2014-06-22T16:18:56Z</time>
      </trkpt>
      <trkpt lat="43.79182" lon="0.82682">
        <ele>206</ele>
        <time>2014-06-22T16:19:00Z</time>
      </trkpt>
      <trkpt lat="43.79184" lon="0.82675">
        <ele>206</ele>
        <time>2014-06-22T16:19:04Z</time>
      </trkpt>
      <trkpt lat="43.79184" lon="0.82668">
        <ele>205</ele>
        <time>2014-06-22T16:19:30Z</time>
      </trkpt>
      <trkpt lat="43.79187" lon="0.82664">
        <ele>210</ele>
        <time>2014-06-22T16:20:26Z</time>
      </trkpt>
      <trkpt lat="43.79186" lon="0.82658">
        <ele>205</ele>
        <time>2014-06-22T16:27:26Z</time>
      </trkpt>
      <trkpt lat="43.79188" lon="0.82652">
        <ele>204</ele>
        <time>2014-06-22T16:27:33Z</time>
      </trkpt>
      <trkpt lat="43.79189" lon="0.82644">
        <ele>205</ele>
        <time>2014-06-22T16:27:38Z</time>
      </trkpt>
      <trkpt lat="43.7919" lon="0.82637">
        <ele>207</ele>
        <time>2014-06-22T16:27:43Z</time>
      </trkpt>
      <trkpt lat="43.79191" lon="0.8263">
        <ele>207</ele>
        <time>2014-06-22T16:27:48Z</time>
      </trkpt>
      <trkpt lat="43.79193" lon="0.82623">
        <ele>205</ele>
        <time>2014-06-22T16:27:53Z</time>
      </trkpt>
      <trkpt lat="43.79194" lon="0.82616">
        <ele>205</ele>
        <time>2014-06-22T16:27:58Z</time>
      </trkpt>
      <trkpt lat="43.79196" lon="0.82608">
        <ele>204</ele>
        <time>2014-06-22T16:28:03Z</time>
      </trkpt>
      <trkpt lat="43.79197" lon="0.82602">
        <ele>204</ele>
        <time>2014-06-22T16:28:07Z</time>
      </trkpt>
      <trkpt lat="43.79199" lon="0.82596">
        <ele>205</ele>
        <time>2014-06-22T16:28:11Z</time>
      </trkpt>
      <trkpt lat="43.79201" lon="0.82589">
        <ele>205</ele>
        <time>2014-06-22T16:28:15Z</time>
      </trkpt>
      <trkpt lat="43.79204" lon="0.82583">
        <ele>205</ele>
        <time>2014-06-22T16:28:19Z</time>
      </trkpt>
      <trkpt lat="43.79206" lon="0.82578">
        <ele>205</ele>
        <time>2014-06-22T16:28:23Z</time>
      </trkpt>
      <trkpt lat="43.79208" lon="0.82572">
        <ele>205</ele>
        <time>2014-06-22T16:28:27Z</time>
      </trkpt>
      <trkpt lat="43.79211" lon="0.82567">
        <ele>205</ele>
        <time>2014-06-22T16:28:31Z</time>
      </trkpt>
      <trkpt lat="43.79213" lon="0.82561">
        <ele>205</ele>
        <time>2014-06-22T16:28:35Z</time>
      </trkpt>
      <trkpt lat="43.79216" lon="0.82557">
        <ele>205</ele>
        <time>2014-06-22T16:28:39Z</time>
      </trkpt>
      <trkpt lat="43.79219" lon="0.82552">
        <ele>205</ele>
        <time>2014-06-22T16:28:43Z</time>
      </trkpt>
      <trkpt lat="43.79223" lon="0.82547">
        <ele>205</ele>
        <time>2014-06-22T16:28:47Z</time>
      </trkpt>
      <trkpt lat="43.79227" lon="0.82543">
        <ele>204</ele>
        <time>2014-06-22T16:28:51Z</time>
      </trkpt>
      <trkpt lat="43.79231" lon="0.82539">
        <ele>205</ele>
        <time>2014-06-22T16:28:55Z</time>
      </trkpt>
      <trkpt lat="43.79235" lon="0.82535">
        <ele>204</ele>
        <time>2014-06-22T16:28:59Z</time>
      </trkpt>
      <trkpt lat="43.79239" lon="0.8253">
        <ele>204</ele>
        <time>2014-06-22T16:29:03Z</time>
      </trkpt>
      <trkpt lat="43.79242" lon="0.82525">
        <ele>204</ele>
        <time>2014-06-22T16:29:07Z</time>
      </trkpt>
      <trkpt lat="43.79246" lon="0.82522">
        <ele>204</ele>
        <time>2014-06-22T16:29:11Z</time>
      </trkpt>
      <trkpt lat="43.7925" lon="0.82517">
        <ele>204</ele>
        <time>2014-06-22T16:29:15Z</time>
      </trkpt>
      <trkpt lat="43.79254" lon="0.82513">
        <ele>204</ele>
        <time>2014-06-22T16:29:19Z</time>
      </trkpt>
      <trkpt lat="43.79257" lon="0.82509">
        <ele>204</ele>
        <time>2014-06-22T16:29:23Z</time>
      </trkpt>
      <trkpt lat="43.79261" lon="0.82506">
        <ele>203</ele>
        <time>2014-06-22T16:29:27Z</time>
      </trkpt>
      <trkpt lat="43.79265" lon="0.82502">
        <ele>203</ele>
        <time>2014-06-22T16:29:31Z</time>
      </trkpt>
      <trkpt lat="43.79269" lon="0.82498">
        <ele>204</ele>
        <time>2014-06-22T16:29:35Z</time>
      </trkpt>
      <trkpt lat="43.79273" lon="0.82494">
        <ele>203</ele>
        <time>2014-06-22T16:29:39Z</time>
      </trkpt>
      <trkpt lat="43.79277" lon="0.8249">
        <ele>204</ele>
        <time>2014-06-22T16:29:43Z</time>
      </trkpt>
      <trkpt lat="43.79282" lon="0.82487">
        <ele>204</ele>
        <time>2014-06-22T16:29:47Z</time>
      </trkpt>
      <trkpt lat="43.79286" lon="0.82483">
        <ele>204</ele>
        <time>2014-06-22T16:29:51Z</time>
      </trkpt>
      <trkpt lat="43.7929" lon="0.82479">
        <ele>204</ele>
        <time>2014-06-22T16:29:55Z</time>
      </trkpt>
      <trkpt lat="43.79293" lon="0.82475">
        <ele>204</ele>
        <time>2014-06-22T16:29:59Z</time>
      </trkpt>
      <trkpt lat="43.79297" lon="0.82471">
        <ele>205</ele>
        <time>2014-06-22T16:30:03Z</time>
      </trkpt>
      <trkpt lat="43.79301" lon="0.82467">
        <ele>205</ele>
        <time>2014-06-22T16:30:07Z</time>
      </trkpt>
      <trkpt lat="43.79304" lon="0.82463">
        <ele>205</ele>
        <time>2014-06-22T16:30:11Z</time>
      </trkpt>
      <trkpt lat="43.79308" lon="0.82458">
        <ele>206</ele>
        <time>2014-06-22T16:30:15Z</time>
      </trkpt>
      <trkpt lat="43.79312" lon="0.82454">
        <ele>206</ele>
        <time>2014-06-22T16:30:19Z</time>
      </trkpt>
      <trkpt lat="43.79315" lon="0.82449">
        <ele>206</ele>
        <time>2014-06-22T16:30:23Z</time>
      </trkpt>
      <trkpt lat="43.79319" lon="0.82446">
        <ele>206</ele>
        <time>2014-06-22T16:30:27Z</time>
      </trkpt>
      <trkpt lat="43.79324" lon="0.82445">
        <ele>206</ele>
        <time>2014-06-22T16:30:32Z</time>
      </trkpt>
      <trkpt lat="43.7933" lon="0.82447">
        <ele>205</ele>
        <time>2014-06-22T16:30:37Z</time>
      </trkpt>
      <trkpt lat="43.79335" lon="0.82449">
        <ele>206</ele>
        <time>2014-06-22T16:30:42Z</time>
      </trkpt>
      <trkpt lat="43.7934" lon="0.82449">
        <ele>205</ele>
        <time>2014-06-22T16:30:47Z</time>
      </trkpt>
      <trkpt lat="43.79345" lon="0.8245">
        <ele>206</ele>
        <time>2014-06-22T16:31:10Z</time>
      </trkpt>
      <trkpt lat="43.79349" lon="0.82452">
        <ele>205</ele>
        <time>2014-06-22T16:31:28Z</time>
      </trkpt>
      <trkpt lat="43.79353" lon="0.82456">
        <ele>206</ele>
        <time>2014-06-22T16:31:33Z</time>
      </trkpt>
      <trkpt lat="43.79358" lon="0.82459">
        <ele>209</ele>
        <time>2014-06-22T16:31:37Z</time>
      </trkpt>
      <trkpt lat="43.79363" lon="0.82461">
        <ele>208</ele>
        <time>2014-06-22T16:31:41Z</time>
      </trkpt>
      <trkpt lat="43.79368" lon="0.82463">
        <ele>208</ele>
        <time>2014-06-22T16:31:46Z</time>
      </trkpt>
      <trkpt lat="43.79372" lon="0.82465">
        <ele>210</ele>
        <time>2014-06-22T16:31:50Z</time>
      </trkpt>
      <trkpt lat="43.79376" lon="0.82468">
        <ele>210</ele>
        <time>2014-06-22T16:31:54Z</time>
      </trkpt>
      <trkpt lat="43.7938" lon="0.82473">
        <ele>212</ele>
        <time>2014-06-22T16:31:58Z</time>
      </trkpt>
      <trkpt lat="43.79385" lon="0.82476">
        <ele>213</ele>
        <time>2014-06-22T16:32:03Z</time>
      </trkpt>
      <trkpt lat="43.7939" lon="0.8248">
        <ele>214</ele>
        <time>2014-06-22T16:32:08Z</time>
      </trkpt>
      <trkpt lat="43.79395" lon="0.82483">
        <ele>214</ele>
        <time>2014-06-22T16:32:13Z</time>
      </trkpt>
      <trkpt lat="43.79399" lon="0.82487">
        <ele>214</ele>
        <time>2014-06-22T16:32:17Z</time>
      </trkpt>
      <trkpt lat="43.79404" lon="0.82489">
        <ele>215</ele>
        <time>2014-06-22T16:32:21Z</time>
      </trkpt>
      <trkpt lat="43.79408" lon="0.82493">
        <ele>215</ele>
        <time>2014-06-22T16:32:25Z</time>
      </trkpt>
      <trkpt lat="43.79411" lon="0.82497">
        <ele>215</ele>
        <time>2014-06-22T16:32:29Z</time>
      </trkpt>
      <trkpt lat="43.79416" lon="0.82498">
        <ele>216</ele>
        <time>2014-06-22T16:32:34Z</time>
      </trkpt>
      <trkpt lat="43.7942" lon="0.82493">
        <ele>215</ele>
        <time>2014-06-22T16:32:39Z</time>
      </trkpt>
      <trkpt lat="43.79423" lon="0.82488">
        <ele>214</ele>
        <time>2014-06-22T16:32:48Z</time>
      </trkpt>
      <trkpt lat="43.79426" lon="0.82483">
        <ele>212</ele>
        <time>2014-06-22T16:32:52Z</time>
      </trkpt>
      <trkpt lat="43.79428" lon="0.82476">
        <ele>212</ele>
        <time>2014-06-22T16:32:56Z</time>
      </trkpt>
      <trkpt lat="43.79431" lon="0.8247">
        <ele>213</ele>
        <time>2014-06-22T16:33:00Z</time>
      </trkpt>
      <trkpt lat="43.79432" lon="0.82464">
        <ele>213</ele>
        <time>2014-06-22T16:33:04Z</time>
      </trkpt>
      <trkpt lat="43.79435" lon="0.82458">
        <ele>214</ele>
        <time>2014-06-22T16:33:08Z</time>
      </trkpt>
      <trkpt lat="43.79439" lon="0.82454">
        <ele>213</ele>
        <time>2014-06-22T16:33:13Z</time>
      </trkpt>
      <trkpt lat="43.7944" lon="0.82447">
        <ele>214</ele>
        <time>2014-06-22T16:33:26Z</time>
      </trkpt>
      <trkpt lat="43.79442" lon="0.82441">
        <ele>210</ele>
        <time>2014-06-22T16:33:30Z</time>
      </trkpt>
      <trkpt lat="43.79443" lon="0.82434">
        <ele>211</ele>
        <time>2014-06-22T16:33:33Z</time>
      </trkpt>
      <trkpt lat="43.79444" lon="0.82427">
        <ele>211</ele>
        <time>2014-06-22T16:33:36Z</time>
      </trkpt>
      <trkpt lat="43.79445" lon="0.82421">
        <ele>212</ele>
        <time>2014-06-22T16:33:40Z</time>
      </trkpt>
      <trkpt lat="43.79447" lon="0.82415">
        <ele>211</ele>
        <time>2014-06-22T16:33:45Z</time>
      </trkpt>
      <trkpt lat="43.79449" lon="0.82408">
        <ele>213</ele>
        <time>2014-06-22T16:33:49Z</time>
      </trkpt>
      <trkpt lat="43.79452" lon="0.82402">
        <ele>213</ele>
        <time>2014-06-22T16:33:52Z</time>
      </trkpt>
      <trkpt lat="43.79453" lon="0.82396">
        <ele>213</ele>
        <time>2014-06-22T16:33:55Z</time>
      </trkpt>
      <trkpt lat="43.79453" lon="0.82389">
        <ele>214</ele>
        <time>2014-06-22T16:33:59Z</time>
      </trkpt>
      <trkpt lat="43.79454" lon="0.82381">
        <ele>214</ele>
        <time>2014-06-22T16:34:05Z</time>
      </trkpt>
      <trkpt lat="43.79457" lon="0.82375">
        <ele>216</ele>
        <time>2014-06-22T16:34:09Z</time>
      </trkpt>
      <trkpt lat="43.79458" lon="0.82368">
        <ele>215</ele>
        <time>2014-06-22T16:34:12Z</time>
      </trkpt>
      <trkpt lat="43.79459" lon="0.82361">
        <ele>216</ele>
        <time>2014-06-22T16:34:15Z</time>
      </trkpt>
      <trkpt lat="43.79461" lon="0.82354">
        <ele>215</ele>
        <time>2014-06-22T16:34:23Z</time>
      </trkpt>
      <trkpt lat="43.79464" lon="0.82347">
        <ele>217</ele>
        <time>2014-06-22T16:34:26Z</time>
      </trkpt>
      <trkpt lat="43.79467" lon="0.82341">
        <ele>218</ele>
        <time>2014-06-22T16:34:30Z</time>
      </trkpt>
      <trkpt lat="43.79468" lon="0.82334">
        <ele>219</ele>
        <time>2014-06-22T16:34:34Z</time>
      </trkpt>
      <trkpt lat="43.7947" lon="0.82327">
        <ele>220</ele>
        <time>2014-06-22T16:34:38Z</time>
      </trkpt>
      <trkpt lat="43.79472" lon="0.82321">
        <ele>218</ele>
        <time>2014-06-22T16:34:42Z</time>
      </trkpt>
      <trkpt lat="43.79476" lon="0.82316">
        <ele>218</ele>
        <time>2014-06-22T16:34:47Z</time>
      </trkpt>
      <trkpt lat="43.79478" lon="0.82309">
        <ele>219</ele>
        <time>2014-06-22T16:34:53Z</time>
      </trkpt>
      <trkpt lat="43.7948" lon="0.82302">
        <ele>218</ele>
        <time>2014-06-22T16:34:57Z</time>
      </trkpt>
      <trkpt lat="43.7948" lon="0.82294">
        <ele>217</ele>
        <time>2014-06-22T16:35:01Z</time>
      </trkpt>
      <trkpt lat="43.7948" lon="0.82286">
        <ele>216</ele>
        <time>2014-06-22T16:35:04Z</time>
      </trkpt>
      <trkpt lat="43.79482" lon="0.8228">
        <ele>213</ele>
        <time>2014-06-22T16:35:09Z</time>
      </trkpt>
      <trkpt lat="43.79484" lon="0.82274">
        <ele>213</ele>
        <time>2014-06-22T16:35:14Z</time>
      </trkpt>
      <trkpt lat="43.79481" lon="0.82268">
        <ele>214</ele>
        <time>2014-06-22T16:35:20Z</time>
      </trkpt>
      <trkpt lat="43.79485" lon="0.82263">
        <ele>215</ele>
        <time>2014-06-22T16:35:25Z</time>
      </trkpt>
      <trkpt lat="43.79487" lon="0.82258">
        <ele>214</ele>
        <time>2014-06-22T16:35:30Z</time>
      </trkpt>
      <trkpt lat="43.7949" lon="0.82252">
        <ele>214</ele>
        <time>2014-06-22T16:35:34Z</time>
      </trkpt>
      <trkpt lat="43.79493" lon="0.82245">
        <ele>214</ele>
        <time>2014-06-22T16:35:38Z</time>
      </trkpt>
      <trkpt lat="43.79497" lon="0.82243">
        <ele>210</ele>
        <time>2014-06-22T16:36:21Z</time>
      </trkpt>
      <trkpt lat="43.79502" lon="0.82246">
        <ele>208</ele>
        <time>2014-06-22T16:36:25Z</time>
      </trkpt>
      <trkpt lat="43.79507" lon="0.82247">
        <ele>208</ele>
        <time>2014-06-22T16:36:29Z</time>
      </trkpt>
      <trkpt lat="43.79509" lon="0.82252">
        <ele>208</ele>
        <time>2014-06-22T16:36:39Z</time>
      </trkpt>
      <trkpt lat="43.79513" lon="0.82257">
        <ele>209</ele>
        <time>2014-06-22T16:36:47Z</time>
      </trkpt>
      <trkpt lat="43.79517" lon="0.82259">
        <ele>209</ele>
        <time>2014-06-22T16:36:55Z</time>
      </trkpt>
      <trkpt lat="43.79518" lon="0.82253">
        <ele>209</ele>
        <time>2014-06-22T16:37:03Z</time>
      </trkpt>
      <trkpt lat="43.79522" lon="0.82255">
        <ele>209</ele>
        <time>2014-06-22T16:37:10Z</time>
      </trkpt>
      <trkpt lat="43.79527" lon="0.82258">
        <ele>209</ele>
        <time>2014-06-22T16:37:14Z</time>
      </trkpt>
      <trkpt lat="43.79532" lon="0.8226">
        <ele>208</ele>
        <time>2014-06-22T16:37:19Z</time>
      </trkpt>
      <trkpt lat="43.79537" lon="0.82263">
        <ele>208</ele>
        <time>2014-06-22T16:37:24Z</time>
      </trkpt>
      <trkpt lat="43.79542" lon="0.82263">
        <ele>212</ele>
        <time>2014-06-22T16:37:29Z</time>
      </trkpt>
      <trkpt lat="43.79546" lon="0.82265">
        <ele>212</ele>
        <time>2014-06-22T16:37:34Z</time>
      </trkpt>
      <trkpt lat="43.79552" lon="0.82268">
        <ele>211</ele>
        <time>2014-06-22T16:37:39Z</time>
      </trkpt>
      <trkpt lat="43.79556" lon="0.8227">
        <ele>212</ele>
        <time>2014-06-22T16:37:43Z</time>
      </trkpt>
      <trkpt lat="43.7956" lon="0.82275">
        <ele>211</ele>
        <time>2014-06-22T16:37:46Z</time>
      </trkpt>
      <trkpt lat="43.79564" lon="0.82279">
        <ele>211</ele>
        <time>2014-06-22T16:37:49Z</time>
      </trkpt>
      <trkpt lat="43.79569" lon="0.82282">
        <ele>209</ele>
        <time>2014-06-22T16:37:53Z</time>
      </trkpt>
      <trkpt lat="43.79574" lon="0.82284">
        <ele>210</ele>
        <time>2014-06-22T16:37:57Z</time>
      </trkpt>
      <trkpt lat="43.79578" lon="0.82288">
        <ele>210</ele>
        <time>2014-06-22T16:38:01Z</time>
      </trkpt>
      <trkpt lat="43.79582" lon="0.82293">
        <ele>209</ele>
        <time>2014-06-22T16:38:05Z</time>
      </trkpt>
      <trkpt lat="43.79586" lon="0.82296">
        <ele>205</ele>
        <time>2014-06-22T16:38:09Z</time>
      </trkpt>
      <trkpt lat="43.79591" lon="0.82298">
        <ele>203</ele>
        <time>2014-06-22T16:38:13Z</time>
      </trkpt>
      <trkpt lat="43.79596" lon="0.82299">
        <ele>203</ele>
        <time>2014-06-22T16:38:17Z</time>
      </trkpt>
      <trkpt lat="43.796" lon="0.82301">
        <ele>202</ele>
        <time>2014-06-22T16:38:21Z</time>
      </trkpt>
      <trkpt lat="43.79605" lon="0.82303">
        <ele>202</ele>
        <time>2014-06-22T16:38:25Z</time>
      </trkpt>
      <trkpt lat="43.7961" lon="0.82306">
        <ele>202</ele>
        <time>2014-06-22T16:38:30Z</time>
      </trkpt>
      <trkpt lat="43.79615" lon="0.82308">
        <ele>201</ele>
        <time>2014-06-22T16:38:35Z</time>
      </trkpt>
      <trkpt lat="43.7962" lon="0.8231">
        <ele>201</ele>
        <time>2014-06-22T16:38:40Z</time>
      </trkpt>
      <trkpt lat="43.79625" lon="0.82312">
        <ele>201</ele>
        <time>2014-06-22T16:38:45Z</time>
      </trkpt>
      <trkpt lat="43.79629" lon="0.82315">
        <ele>203</ele>
        <time>2014-06-22T16:38:50Z</time>
      </trkpt>
      <trkpt lat="43.79634" lon="0.82317">
        <ele>203</ele>
        <time>2014-06-22T16:38:55Z</time>
      </trkpt>
      <trkpt lat="43.79639" lon="0.82318">
        <ele>203</ele>
        <time>2014-06-22T16:39:00Z</time>
      </trkpt>
      <trkpt lat="43.79642" lon="0.82313">
        <ele>202</ele>
        <time>2014-06-22T16:39:04Z</time>
      </trkpt>
      <trkpt lat="43.79646" lon="0.82308">
        <ele>202</ele>
        <time>2014-06-22T16:39:09Z</time>
      </trkpt>
      <trkpt lat="43.79647" lon="0.82306">
        <ele>205</ele>
        <time>2014-06-22T16:42:06Z</time>
      </trkpt>
    </trkseg>
  </trk>
</gpx>